<?xml version="1.0" encoding="UTF-8" standalone="no" ?>
<gpx xmlns="http://www.topografix.com/GPX/1/1" xmlns:xsi="http://www.w3.org/2001/XMLSchema-instance" xsi:schemaLocation="http://www.topografix.com/GPX/1/1 http://www.topografix.com/GPX/1/1/gpx.xsd" version="1.1" creator="VisuGPX - https://www.visugpx.com">
  <metadata>
    <name>2020-10-24 Veynes</name>
  </metadata>
  <trk>
    <name><![CDATA[2020-10-24 Veynes_1]]></name>
    <trkseg>
      <trkpt lat="44.53427" lon="5.82195">
        <ele>885.4</ele>
        <time>2020-10-24T07:46:23Z</time>
      </trkpt>
      <trkpt lat="44.53415" lon="5.8219">
        <ele>884</ele>
        <time>2020-10-24T07:46:27Z</time>
      </trkpt>
      <trkpt lat="44.53403" lon="5.8217">
        <ele>882.6</ele>
        <time>2020-10-24T07:46:31Z</time>
      </trkpt>
      <trkpt lat="44.53393" lon="5.82147">
        <ele>881.8</ele>
        <time>2020-10-24T07:46:35Z</time>
      </trkpt>
      <trkpt lat="44.53382" lon="5.82129">
        <ele>882</ele>
        <time>2020-10-24T07:46:39Z</time>
      </trkpt>
      <trkpt lat="44.53372" lon="5.82127">
        <ele>879.8</ele>
        <time>2020-10-24T07:46:43Z</time>
      </trkpt>
      <trkpt lat="44.53373" lon="5.82145">
        <ele>881</ele>
        <time>2020-10-24T07:46:47Z</time>
      </trkpt>
      <trkpt lat="44.53381" lon="5.82161">
        <ele>880.6</ele>
        <time>2020-10-24T07:46:51Z</time>
      </trkpt>
      <trkpt lat="44.53389" lon="5.82177">
        <ele>881.4</ele>
        <time>2020-10-24T07:46:55Z</time>
      </trkpt>
      <trkpt lat="44.53397" lon="5.82192">
        <ele>882</ele>
        <time>2020-10-24T07:46:59Z</time>
      </trkpt>
      <trkpt lat="44.53405" lon="5.82208">
        <ele>883.2</ele>
        <time>2020-10-24T07:47:03Z</time>
      </trkpt>
      <trkpt lat="44.53412" lon="5.82223">
        <ele>883.6</ele>
        <time>2020-10-24T07:47:07Z</time>
      </trkpt>
      <trkpt lat="44.53415" lon="5.82239">
        <ele>882.8</ele>
        <time>2020-10-24T07:47:11Z</time>
      </trkpt>
      <trkpt lat="44.53412" lon="5.8226">
        <ele>881.4</ele>
        <time>2020-10-24T07:47:15Z</time>
      </trkpt>
      <trkpt lat="44.53407" lon="5.82282">
        <ele>881.2</ele>
        <time>2020-10-24T07:47:19Z</time>
      </trkpt>
      <trkpt lat="44.53406" lon="5.82298">
        <ele>881.4</ele>
        <time>2020-10-24T07:47:23Z</time>
      </trkpt>
      <trkpt lat="44.53407" lon="5.82309">
        <ele>881.4</ele>
        <time>2020-10-24T07:47:27Z</time>
      </trkpt>
      <trkpt lat="44.53404" lon="5.82314">
        <ele>881.2</ele>
        <time>2020-10-24T07:47:31Z</time>
      </trkpt>
      <trkpt lat="44.53398" lon="5.82316">
        <ele>880</ele>
        <time>2020-10-24T07:47:35Z</time>
      </trkpt>
      <trkpt lat="44.53387" lon="5.8232">
        <ele>878.8</ele>
        <time>2020-10-24T07:47:39Z</time>
      </trkpt>
      <trkpt lat="44.53374" lon="5.82324">
        <ele>878.2</ele>
        <time>2020-10-24T07:47:43Z</time>
      </trkpt>
      <trkpt lat="44.53363" lon="5.82327">
        <ele>877.4</ele>
        <time>2020-10-24T07:47:47Z</time>
      </trkpt>
      <trkpt lat="44.53358" lon="5.82326">
        <ele>877.2</ele>
        <time>2020-10-24T07:47:51Z</time>
      </trkpt>
      <trkpt lat="44.53359" lon="5.82314">
        <ele>877.4</ele>
        <time>2020-10-24T07:47:55Z</time>
      </trkpt>
      <trkpt lat="44.53361" lon="5.82302">
        <ele>878</ele>
        <time>2020-10-24T07:47:59Z</time>
      </trkpt>
      <trkpt lat="44.53363" lon="5.82318">
        <ele>877.6</ele>
        <time>2020-10-24T07:48:24Z</time>
      </trkpt>
      <trkpt lat="44.53357" lon="5.82326">
        <ele>877.4</ele>
        <time>2020-10-24T07:48:28Z</time>
      </trkpt>
      <trkpt lat="44.53342" lon="5.8233">
        <ele>876.2</ele>
        <time>2020-10-24T07:48:32Z</time>
      </trkpt>
      <trkpt lat="44.53348" lon="5.82351">
        <ele>875.4</ele>
        <time>2020-10-24T07:48:36Z</time>
      </trkpt>
      <trkpt lat="44.53354" lon="5.82374">
        <ele>875.4</ele>
        <time>2020-10-24T07:48:40Z</time>
      </trkpt>
      <trkpt lat="44.53361" lon="5.82397">
        <ele>875.6</ele>
        <time>2020-10-24T07:48:44Z</time>
      </trkpt>
      <trkpt lat="44.53368" lon="5.82418">
        <ele>876.8</ele>
        <time>2020-10-24T07:48:48Z</time>
      </trkpt>
      <trkpt lat="44.53375" lon="5.82437">
        <ele>876.6</ele>
        <time>2020-10-24T07:48:52Z</time>
      </trkpt>
      <trkpt lat="44.5338" lon="5.82453">
        <ele>877.4</ele>
        <time>2020-10-24T07:48:56Z</time>
      </trkpt>
      <trkpt lat="44.53385" lon="5.82469">
        <ele>877.4</ele>
        <time>2020-10-24T07:49:00Z</time>
      </trkpt>
      <trkpt lat="44.53389" lon="5.82481">
        <ele>878</ele>
        <time>2020-10-24T07:49:04Z</time>
      </trkpt>
      <trkpt lat="44.534" lon="5.82475">
        <ele>877.8</ele>
        <time>2020-10-24T07:49:17Z</time>
      </trkpt>
      <trkpt lat="44.534" lon="5.82465">
        <ele>879.2</ele>
        <time>2020-10-24T07:49:21Z</time>
      </trkpt>
      <trkpt lat="44.53396" lon="5.82474">
        <ele>878.2</ele>
        <time>2020-10-24T07:54:50Z</time>
      </trkpt>
      <trkpt lat="44.53392" lon="5.8247">
        <ele>878</ele>
        <time>2020-10-24T07:54:54Z</time>
      </trkpt>
      <trkpt lat="44.53385" lon="5.82452">
        <ele>877.6</ele>
        <time>2020-10-24T07:54:58Z</time>
      </trkpt>
      <trkpt lat="44.53377" lon="5.8243">
        <ele>877.2</ele>
        <time>2020-10-24T07:55:02Z</time>
      </trkpt>
      <trkpt lat="44.53368" lon="5.82406">
        <ele>877</ele>
        <time>2020-10-24T07:55:06Z</time>
      </trkpt>
      <trkpt lat="44.5336" lon="5.8238">
        <ele>877.2</ele>
        <time>2020-10-24T07:55:10Z</time>
      </trkpt>
      <trkpt lat="44.53353" lon="5.82353">
        <ele>876.8</ele>
        <time>2020-10-24T07:55:14Z</time>
      </trkpt>
      <trkpt lat="44.53348" lon="5.82324">
        <ele>876.2</ele>
        <time>2020-10-24T07:55:18Z</time>
      </trkpt>
      <trkpt lat="44.53341" lon="5.82294">
        <ele>875.4</ele>
        <time>2020-10-24T07:55:22Z</time>
      </trkpt>
      <trkpt lat="44.53337" lon="5.82262">
        <ele>875.6</ele>
        <time>2020-10-24T07:55:26Z</time>
      </trkpt>
      <trkpt lat="44.53331" lon="5.8223">
        <ele>875.6</ele>
        <time>2020-10-24T07:55:30Z</time>
      </trkpt>
      <trkpt lat="44.53326" lon="5.82199">
        <ele>875.6</ele>
        <time>2020-10-24T07:55:34Z</time>
      </trkpt>
      <trkpt lat="44.53321" lon="5.82171">
        <ele>876.6</ele>
        <time>2020-10-24T07:55:38Z</time>
      </trkpt>
      <trkpt lat="44.5332" lon="5.82144">
        <ele>877.4</ele>
        <time>2020-10-24T07:55:42Z</time>
      </trkpt>
      <trkpt lat="44.53322" lon="5.82119">
        <ele>878.6</ele>
        <time>2020-10-24T07:55:46Z</time>
      </trkpt>
      <trkpt lat="44.53325" lon="5.82097">
        <ele>878.8</ele>
        <time>2020-10-24T07:55:50Z</time>
      </trkpt>
      <trkpt lat="44.53332" lon="5.82084">
        <ele>879.6</ele>
        <time>2020-10-24T07:55:54Z</time>
      </trkpt>
      <trkpt lat="44.53342" lon="5.82071">
        <ele>879</ele>
        <time>2020-10-24T07:55:58Z</time>
      </trkpt>
      <trkpt lat="44.53344" lon="5.82049">
        <ele>879.4</ele>
        <time>2020-10-24T07:56:02Z</time>
      </trkpt>
      <trkpt lat="44.5334" lon="5.82025">
        <ele>879</ele>
        <time>2020-10-24T07:56:06Z</time>
      </trkpt>
      <trkpt lat="44.53335" lon="5.81999">
        <ele>878.2</ele>
        <time>2020-10-24T07:56:10Z</time>
      </trkpt>
      <trkpt lat="44.53329" lon="5.8197">
        <ele>877</ele>
        <time>2020-10-24T07:56:14Z</time>
      </trkpt>
      <trkpt lat="44.53325" lon="5.81937">
        <ele>876.8</ele>
        <time>2020-10-24T07:56:18Z</time>
      </trkpt>
      <trkpt lat="44.53323" lon="5.81905">
        <ele>876.2</ele>
        <time>2020-10-24T07:56:22Z</time>
      </trkpt>
      <trkpt lat="44.5332" lon="5.81873">
        <ele>875.4</ele>
        <time>2020-10-24T07:56:26Z</time>
      </trkpt>
      <trkpt lat="44.53317" lon="5.81842">
        <ele>876.6</ele>
        <time>2020-10-24T07:56:30Z</time>
      </trkpt>
      <trkpt lat="44.53314" lon="5.81814">
        <ele>877.2</ele>
        <time>2020-10-24T07:56:34Z</time>
      </trkpt>
      <trkpt lat="44.53311" lon="5.81787">
        <ele>878.2</ele>
        <time>2020-10-24T07:56:38Z</time>
      </trkpt>
      <trkpt lat="44.53309" lon="5.81763">
        <ele>878.2</ele>
        <time>2020-10-24T07:56:42Z</time>
      </trkpt>
      <trkpt lat="44.53306" lon="5.81737">
        <ele>879</ele>
        <time>2020-10-24T07:56:46Z</time>
      </trkpt>
      <trkpt lat="44.53302" lon="5.8171">
        <ele>878.4</ele>
        <time>2020-10-24T07:56:50Z</time>
      </trkpt>
      <trkpt lat="44.53299" lon="5.81681">
        <ele>876.8</ele>
        <time>2020-10-24T07:56:54Z</time>
      </trkpt>
      <trkpt lat="44.53294" lon="5.81651">
        <ele>875.8</ele>
        <time>2020-10-24T07:56:58Z</time>
      </trkpt>
      <trkpt lat="44.5329" lon="5.81618">
        <ele>875.8</ele>
        <time>2020-10-24T07:57:02Z</time>
      </trkpt>
      <trkpt lat="44.53286" lon="5.81587">
        <ele>875.2</ele>
        <time>2020-10-24T07:57:06Z</time>
      </trkpt>
      <trkpt lat="44.53283" lon="5.81557">
        <ele>876</ele>
        <time>2020-10-24T07:57:10Z</time>
      </trkpt>
      <trkpt lat="44.53281" lon="5.81527">
        <ele>875.2</ele>
        <time>2020-10-24T07:57:14Z</time>
      </trkpt>
      <trkpt lat="44.53277" lon="5.81497">
        <ele>875.2</ele>
        <time>2020-10-24T07:57:18Z</time>
      </trkpt>
      <trkpt lat="44.53273" lon="5.81467">
        <ele>874.8</ele>
        <time>2020-10-24T07:57:22Z</time>
      </trkpt>
      <trkpt lat="44.53267" lon="5.81439">
        <ele>875.2</ele>
        <time>2020-10-24T07:57:26Z</time>
      </trkpt>
      <trkpt lat="44.53263" lon="5.8141">
        <ele>875.2</ele>
        <time>2020-10-24T07:57:30Z</time>
      </trkpt>
      <trkpt lat="44.5326" lon="5.8138">
        <ele>875.8</ele>
        <time>2020-10-24T07:57:34Z</time>
      </trkpt>
      <trkpt lat="44.53256" lon="5.81351">
        <ele>875.4</ele>
        <time>2020-10-24T07:57:38Z</time>
      </trkpt>
      <trkpt lat="44.53253" lon="5.81322">
        <ele>874.8</ele>
        <time>2020-10-24T07:57:42Z</time>
      </trkpt>
      <trkpt lat="44.53251" lon="5.81293">
        <ele>875.4</ele>
        <time>2020-10-24T07:57:46Z</time>
      </trkpt>
      <trkpt lat="44.53248" lon="5.81264">
        <ele>876</ele>
        <time>2020-10-24T07:57:50Z</time>
      </trkpt>
      <trkpt lat="44.53246" lon="5.81236">
        <ele>875.8</ele>
        <time>2020-10-24T07:57:54Z</time>
      </trkpt>
      <trkpt lat="44.53243" lon="5.81207">
        <ele>874.8</ele>
        <time>2020-10-24T07:57:58Z</time>
      </trkpt>
      <trkpt lat="44.5324" lon="5.81175">
        <ele>875</ele>
        <time>2020-10-24T07:58:02Z</time>
      </trkpt>
      <trkpt lat="44.53237" lon="5.81143">
        <ele>874</ele>
        <time>2020-10-24T07:58:06Z</time>
      </trkpt>
      <trkpt lat="44.53234" lon="5.8111">
        <ele>873.6</ele>
        <time>2020-10-24T07:58:10Z</time>
      </trkpt>
      <trkpt lat="44.53231" lon="5.81078">
        <ele>873.4</ele>
        <time>2020-10-24T07:58:14Z</time>
      </trkpt>
      <trkpt lat="44.53227" lon="5.81048">
        <ele>873.2</ele>
        <time>2020-10-24T07:58:18Z</time>
      </trkpt>
      <trkpt lat="44.53224" lon="5.81018">
        <ele>873.2</ele>
        <time>2020-10-24T07:58:22Z</time>
      </trkpt>
      <trkpt lat="44.53221" lon="5.80989">
        <ele>873.6</ele>
        <time>2020-10-24T07:58:26Z</time>
      </trkpt>
      <trkpt lat="44.53216" lon="5.80961">
        <ele>873.6</ele>
        <time>2020-10-24T07:58:30Z</time>
      </trkpt>
      <trkpt lat="44.5321" lon="5.80934">
        <ele>873.2</ele>
        <time>2020-10-24T07:58:34Z</time>
      </trkpt>
      <trkpt lat="44.53204" lon="5.80907">
        <ele>874</ele>
        <time>2020-10-24T07:58:38Z</time>
      </trkpt>
      <trkpt lat="44.53198" lon="5.80881">
        <ele>874</ele>
        <time>2020-10-24T07:58:42Z</time>
      </trkpt>
      <trkpt lat="44.53192" lon="5.80855">
        <ele>874.4</ele>
        <time>2020-10-24T07:58:46Z</time>
      </trkpt>
      <trkpt lat="44.53187" lon="5.80827">
        <ele>874.6</ele>
        <time>2020-10-24T07:58:50Z</time>
      </trkpt>
      <trkpt lat="44.53181" lon="5.808">
        <ele>874.2</ele>
        <time>2020-10-24T07:58:54Z</time>
      </trkpt>
      <trkpt lat="44.53176" lon="5.80773">
        <ele>874.4</ele>
        <time>2020-10-24T07:58:58Z</time>
      </trkpt>
      <trkpt lat="44.53171" lon="5.80746">
        <ele>874.8</ele>
        <time>2020-10-24T07:59:02Z</time>
      </trkpt>
      <trkpt lat="44.53168" lon="5.80719">
        <ele>875.2</ele>
        <time>2020-10-24T07:59:06Z</time>
      </trkpt>
      <trkpt lat="44.53165" lon="5.80693">
        <ele>875.4</ele>
        <time>2020-10-24T07:59:10Z</time>
      </trkpt>
      <trkpt lat="44.53163" lon="5.80669">
        <ele>876.6</ele>
        <time>2020-10-24T07:59:14Z</time>
      </trkpt>
      <trkpt lat="44.53162" lon="5.80645">
        <ele>877</ele>
        <time>2020-10-24T07:59:18Z</time>
      </trkpt>
      <trkpt lat="44.53159" lon="5.8062">
        <ele>877.6</ele>
        <time>2020-10-24T07:59:22Z</time>
      </trkpt>
      <trkpt lat="44.53156" lon="5.80595">
        <ele>878.2</ele>
        <time>2020-10-24T07:59:26Z</time>
      </trkpt>
      <trkpt lat="44.53153" lon="5.80571">
        <ele>878.6</ele>
        <time>2020-10-24T07:59:30Z</time>
      </trkpt>
      <trkpt lat="44.53148" lon="5.80548">
        <ele>879</ele>
        <time>2020-10-24T07:59:34Z</time>
      </trkpt>
      <trkpt lat="44.53144" lon="5.80524">
        <ele>879.2</ele>
        <time>2020-10-24T07:59:38Z</time>
      </trkpt>
      <trkpt lat="44.5314" lon="5.80501">
        <ele>879.8</ele>
        <time>2020-10-24T07:59:42Z</time>
      </trkpt>
      <trkpt lat="44.53136" lon="5.80479">
        <ele>880.8</ele>
        <time>2020-10-24T07:59:46Z</time>
      </trkpt>
      <trkpt lat="44.53131" lon="5.80458">
        <ele>880.8</ele>
        <time>2020-10-24T07:59:50Z</time>
      </trkpt>
      <trkpt lat="44.53127" lon="5.80437">
        <ele>881.6</ele>
        <time>2020-10-24T07:59:54Z</time>
      </trkpt>
      <trkpt lat="44.53123" lon="5.80417">
        <ele>882</ele>
        <time>2020-10-24T07:59:58Z</time>
      </trkpt>
      <trkpt lat="44.53118" lon="5.80397">
        <ele>882.6</ele>
        <time>2020-10-24T08:00:02Z</time>
      </trkpt>
      <trkpt lat="44.53113" lon="5.80375">
        <ele>882.6</ele>
        <time>2020-10-24T08:00:06Z</time>
      </trkpt>
      <trkpt lat="44.53109" lon="5.80354">
        <ele>883.4</ele>
        <time>2020-10-24T08:00:10Z</time>
      </trkpt>
      <trkpt lat="44.53105" lon="5.80332">
        <ele>883.4</ele>
        <time>2020-10-24T08:00:14Z</time>
      </trkpt>
      <trkpt lat="44.53101" lon="5.80313">
        <ele>884.8</ele>
        <time>2020-10-24T08:00:18Z</time>
      </trkpt>
      <trkpt lat="44.53097" lon="5.80295">
        <ele>884.8</ele>
        <time>2020-10-24T08:00:22Z</time>
      </trkpt>
      <trkpt lat="44.53094" lon="5.80277">
        <ele>886.4</ele>
        <time>2020-10-24T08:00:26Z</time>
      </trkpt>
      <trkpt lat="44.5309" lon="5.8026">
        <ele>886.8</ele>
        <time>2020-10-24T08:00:30Z</time>
      </trkpt>
      <trkpt lat="44.53087" lon="5.80244">
        <ele>888</ele>
        <time>2020-10-24T08:00:34Z</time>
      </trkpt>
      <trkpt lat="44.53084" lon="5.80227">
        <ele>888.2</ele>
        <time>2020-10-24T08:00:38Z</time>
      </trkpt>
      <trkpt lat="44.5308" lon="5.8021">
        <ele>888.8</ele>
        <time>2020-10-24T08:00:42Z</time>
      </trkpt>
      <trkpt lat="44.53076" lon="5.80193">
        <ele>890</ele>
        <time>2020-10-24T08:00:46Z</time>
      </trkpt>
      <trkpt lat="44.53073" lon="5.80176">
        <ele>890.6</ele>
        <time>2020-10-24T08:00:50Z</time>
      </trkpt>
      <trkpt lat="44.53075" lon="5.80167">
        <ele>891.4</ele>
        <time>2020-10-24T08:00:54Z</time>
      </trkpt>
      <trkpt lat="44.53077" lon="5.8017">
        <ele>891.4</ele>
        <time>2020-10-24T08:00:58Z</time>
      </trkpt>
      <trkpt lat="44.53073" lon="5.80166">
        <ele>889.8</ele>
        <time>2020-10-24T08:06:05Z</time>
      </trkpt>
      <trkpt lat="44.53067" lon="5.8015">
        <ele>891.6</ele>
        <time>2020-10-24T08:06:09Z</time>
      </trkpt>
      <trkpt lat="44.53064" lon="5.80132">
        <ele>892.6</ele>
        <time>2020-10-24T08:06:13Z</time>
      </trkpt>
      <trkpt lat="44.53059" lon="5.80113">
        <ele>893.2</ele>
        <time>2020-10-24T08:06:17Z</time>
      </trkpt>
      <trkpt lat="44.53056" lon="5.80094">
        <ele>893.8</ele>
        <time>2020-10-24T08:06:21Z</time>
      </trkpt>
      <trkpt lat="44.53052" lon="5.80076">
        <ele>894.8</ele>
        <time>2020-10-24T08:06:25Z</time>
      </trkpt>
      <trkpt lat="44.53049" lon="5.8006">
        <ele>895.4</ele>
        <time>2020-10-24T08:06:29Z</time>
      </trkpt>
      <trkpt lat="44.53045" lon="5.80044">
        <ele>896.4</ele>
        <time>2020-10-24T08:06:33Z</time>
      </trkpt>
      <trkpt lat="44.53043" lon="5.80027">
        <ele>897.4</ele>
        <time>2020-10-24T08:06:37Z</time>
      </trkpt>
      <trkpt lat="44.53048" lon="5.80013">
        <ele>898.2</ele>
        <time>2020-10-24T08:06:41Z</time>
      </trkpt>
      <trkpt lat="44.53059" lon="5.80009">
        <ele>898.8</ele>
        <time>2020-10-24T08:06:45Z</time>
      </trkpt>
      <trkpt lat="44.53067" lon="5.80019">
        <ele>899.8</ele>
        <time>2020-10-24T08:06:49Z</time>
      </trkpt>
      <trkpt lat="44.53072" lon="5.80033">
        <ele>900.2</ele>
        <time>2020-10-24T08:06:53Z</time>
      </trkpt>
      <trkpt lat="44.53075" lon="5.80047">
        <ele>901.4</ele>
        <time>2020-10-24T08:06:57Z</time>
      </trkpt>
      <trkpt lat="44.53079" lon="5.80061">
        <ele>902.4</ele>
        <time>2020-10-24T08:07:01Z</time>
      </trkpt>
      <trkpt lat="44.53086" lon="5.80074">
        <ele>902.8</ele>
        <time>2020-10-24T08:07:05Z</time>
      </trkpt>
      <trkpt lat="44.53092" lon="5.80087">
        <ele>903.2</ele>
        <time>2020-10-24T08:07:09Z</time>
      </trkpt>
      <trkpt lat="44.53099" lon="5.80099">
        <ele>904</ele>
        <time>2020-10-24T08:07:13Z</time>
      </trkpt>
      <trkpt lat="44.53105" lon="5.80112">
        <ele>904.2</ele>
        <time>2020-10-24T08:07:17Z</time>
      </trkpt>
      <trkpt lat="44.53113" lon="5.80123">
        <ele>905</ele>
        <time>2020-10-24T08:07:21Z</time>
      </trkpt>
      <trkpt lat="44.53124" lon="5.80132">
        <ele>905.4</ele>
        <time>2020-10-24T08:07:25Z</time>
      </trkpt>
      <trkpt lat="44.53136" lon="5.80138">
        <ele>906</ele>
        <time>2020-10-24T08:07:29Z</time>
      </trkpt>
      <trkpt lat="44.53147" lon="5.80141">
        <ele>907</ele>
        <time>2020-10-24T08:07:33Z</time>
      </trkpt>
      <trkpt lat="44.53159" lon="5.80141">
        <ele>907.6</ele>
        <time>2020-10-24T08:07:37Z</time>
      </trkpt>
      <trkpt lat="44.5317" lon="5.80139">
        <ele>907.8</ele>
        <time>2020-10-24T08:07:41Z</time>
      </trkpt>
      <trkpt lat="44.53182" lon="5.80136">
        <ele>908.8</ele>
        <time>2020-10-24T08:07:45Z</time>
      </trkpt>
      <trkpt lat="44.53192" lon="5.80131">
        <ele>909.2</ele>
        <time>2020-10-24T08:07:49Z</time>
      </trkpt>
      <trkpt lat="44.53204" lon="5.80126">
        <ele>910.2</ele>
        <time>2020-10-24T08:07:53Z</time>
      </trkpt>
      <trkpt lat="44.53214" lon="5.8012">
        <ele>910.8</ele>
        <time>2020-10-24T08:07:57Z</time>
      </trkpt>
      <trkpt lat="44.53223" lon="5.80113">
        <ele>911.8</ele>
        <time>2020-10-24T08:08:01Z</time>
      </trkpt>
      <trkpt lat="44.53232" lon="5.80102">
        <ele>913</ele>
        <time>2020-10-24T08:08:05Z</time>
      </trkpt>
      <trkpt lat="44.53239" lon="5.8009">
        <ele>913</ele>
        <time>2020-10-24T08:08:09Z</time>
      </trkpt>
      <trkpt lat="44.53247" lon="5.80077">
        <ele>914.2</ele>
        <time>2020-10-24T08:08:13Z</time>
      </trkpt>
      <trkpt lat="44.53255" lon="5.80064">
        <ele>913.8</ele>
        <time>2020-10-24T08:08:17Z</time>
      </trkpt>
      <trkpt lat="44.53264" lon="5.8005">
        <ele>914.6</ele>
        <time>2020-10-24T08:08:21Z</time>
      </trkpt>
      <trkpt lat="44.53272" lon="5.80035">
        <ele>915.8</ele>
        <time>2020-10-24T08:08:25Z</time>
      </trkpt>
      <trkpt lat="44.53279" lon="5.80021">
        <ele>916</ele>
        <time>2020-10-24T08:08:29Z</time>
      </trkpt>
      <trkpt lat="44.53287" lon="5.80006">
        <ele>917.2</ele>
        <time>2020-10-24T08:08:33Z</time>
      </trkpt>
      <trkpt lat="44.53294" lon="5.79993">
        <ele>917.8</ele>
        <time>2020-10-24T08:08:37Z</time>
      </trkpt>
      <trkpt lat="44.53302" lon="5.7998">
        <ele>918.4</ele>
        <time>2020-10-24T08:08:41Z</time>
      </trkpt>
      <trkpt lat="44.53311" lon="5.7997">
        <ele>919.4</ele>
        <time>2020-10-24T08:08:45Z</time>
      </trkpt>
      <trkpt lat="44.53322" lon="5.79968">
        <ele>920.4</ele>
        <time>2020-10-24T08:08:49Z</time>
      </trkpt>
      <trkpt lat="44.53334" lon="5.79974">
        <ele>920.8</ele>
        <time>2020-10-24T08:08:53Z</time>
      </trkpt>
      <trkpt lat="44.53347" lon="5.79982">
        <ele>921.8</ele>
        <time>2020-10-24T08:08:57Z</time>
      </trkpt>
      <trkpt lat="44.53359" lon="5.7999">
        <ele>922.2</ele>
        <time>2020-10-24T08:09:01Z</time>
      </trkpt>
      <trkpt lat="44.53371" lon="5.79996">
        <ele>922.8</ele>
        <time>2020-10-24T08:09:05Z</time>
      </trkpt>
      <trkpt lat="44.53383" lon="5.79992">
        <ele>923.6</ele>
        <time>2020-10-24T08:09:09Z</time>
      </trkpt>
      <trkpt lat="44.53392" lon="5.79979">
        <ele>923.8</ele>
        <time>2020-10-24T08:09:13Z</time>
      </trkpt>
      <trkpt lat="44.53391" lon="5.7996">
        <ele>924.6</ele>
        <time>2020-10-24T08:09:17Z</time>
      </trkpt>
      <trkpt lat="44.53382" lon="5.79947">
        <ele>924.6</ele>
        <time>2020-10-24T08:09:21Z</time>
      </trkpt>
      <trkpt lat="44.53369" lon="5.7994">
        <ele>925.2</ele>
        <time>2020-10-24T08:09:25Z</time>
      </trkpt>
      <trkpt lat="44.53356" lon="5.79934">
        <ele>926</ele>
        <time>2020-10-24T08:09:29Z</time>
      </trkpt>
      <trkpt lat="44.53342" lon="5.79928">
        <ele>926</ele>
        <time>2020-10-24T08:09:33Z</time>
      </trkpt>
      <trkpt lat="44.53328" lon="5.7992">
        <ele>926.8</ele>
        <time>2020-10-24T08:09:37Z</time>
      </trkpt>
      <trkpt lat="44.53316" lon="5.79912">
        <ele>928.2</ele>
        <time>2020-10-24T08:09:41Z</time>
      </trkpt>
      <trkpt lat="44.53305" lon="5.79905">
        <ele>928.2</ele>
        <time>2020-10-24T08:09:45Z</time>
      </trkpt>
      <trkpt lat="44.53294" lon="5.79897">
        <ele>929.4</ele>
        <time>2020-10-24T08:09:49Z</time>
      </trkpt>
      <trkpt lat="44.53281" lon="5.79893">
        <ele>929.8</ele>
        <time>2020-10-24T08:09:53Z</time>
      </trkpt>
      <trkpt lat="44.53268" lon="5.79894">
        <ele>930.8</ele>
        <time>2020-10-24T08:09:57Z</time>
      </trkpt>
      <trkpt lat="44.53257" lon="5.79899">
        <ele>931.6</ele>
        <time>2020-10-24T08:10:01Z</time>
      </trkpt>
      <trkpt lat="44.53247" lon="5.79908">
        <ele>932.2</ele>
        <time>2020-10-24T08:10:05Z</time>
      </trkpt>
      <trkpt lat="44.53238" lon="5.79919">
        <ele>932.4</ele>
        <time>2020-10-24T08:10:09Z</time>
      </trkpt>
      <trkpt lat="44.53229" lon="5.79931">
        <ele>933</ele>
        <time>2020-10-24T08:10:13Z</time>
      </trkpt>
      <trkpt lat="44.5322" lon="5.79943">
        <ele>934.2</ele>
        <time>2020-10-24T08:10:17Z</time>
      </trkpt>
      <trkpt lat="44.53212" lon="5.79954">
        <ele>934.8</ele>
        <time>2020-10-24T08:10:21Z</time>
      </trkpt>
      <trkpt lat="44.53204" lon="5.79966">
        <ele>934.8</ele>
        <time>2020-10-24T08:10:25Z</time>
      </trkpt>
      <trkpt lat="44.53196" lon="5.79977">
        <ele>935.2</ele>
        <time>2020-10-24T08:10:29Z</time>
      </trkpt>
      <trkpt lat="44.53187" lon="5.79989">
        <ele>936.2</ele>
        <time>2020-10-24T08:10:33Z</time>
      </trkpt>
      <trkpt lat="44.53178" lon="5.79998">
        <ele>936.6</ele>
        <time>2020-10-24T08:10:37Z</time>
      </trkpt>
      <trkpt lat="44.53167" lon="5.80003">
        <ele>937.4</ele>
        <time>2020-10-24T08:10:41Z</time>
      </trkpt>
      <trkpt lat="44.53156" lon="5.80001">
        <ele>938.2</ele>
        <time>2020-10-24T08:10:45Z</time>
      </trkpt>
      <trkpt lat="44.53146" lon="5.79994">
        <ele>938.8</ele>
        <time>2020-10-24T08:10:49Z</time>
      </trkpt>
      <trkpt lat="44.53139" lon="5.79983">
        <ele>939.8</ele>
        <time>2020-10-24T08:10:53Z</time>
      </trkpt>
      <trkpt lat="44.53135" lon="5.79969">
        <ele>940.8</ele>
        <time>2020-10-24T08:10:57Z</time>
      </trkpt>
      <trkpt lat="44.53132" lon="5.79954">
        <ele>941.4</ele>
        <time>2020-10-24T08:11:01Z</time>
      </trkpt>
      <trkpt lat="44.5313" lon="5.79938">
        <ele>943</ele>
        <time>2020-10-24T08:11:05Z</time>
      </trkpt>
      <trkpt lat="44.53127" lon="5.79921">
        <ele>943</ele>
        <time>2020-10-24T08:11:09Z</time>
      </trkpt>
      <trkpt lat="44.53125" lon="5.79905">
        <ele>943.6</ele>
        <time>2020-10-24T08:11:13Z</time>
      </trkpt>
      <trkpt lat="44.53124" lon="5.79888">
        <ele>944.8</ele>
        <time>2020-10-24T08:11:17Z</time>
      </trkpt>
      <trkpt lat="44.53124" lon="5.79872">
        <ele>944.8</ele>
        <time>2020-10-24T08:11:21Z</time>
      </trkpt>
      <trkpt lat="44.53126" lon="5.79855">
        <ele>945.6</ele>
        <time>2020-10-24T08:11:25Z</time>
      </trkpt>
      <trkpt lat="44.53127" lon="5.79838">
        <ele>947</ele>
        <time>2020-10-24T08:11:29Z</time>
      </trkpt>
      <trkpt lat="44.53129" lon="5.79822">
        <ele>946.8</ele>
        <time>2020-10-24T08:11:33Z</time>
      </trkpt>
      <trkpt lat="44.53131" lon="5.79805">
        <ele>947.6</ele>
        <time>2020-10-24T08:11:37Z</time>
      </trkpt>
      <trkpt lat="44.53136" lon="5.79791">
        <ele>948.8</ele>
        <time>2020-10-24T08:11:41Z</time>
      </trkpt>
      <trkpt lat="44.53142" lon="5.79777">
        <ele>949.8</ele>
        <time>2020-10-24T08:11:45Z</time>
      </trkpt>
      <trkpt lat="44.53151" lon="5.79766">
        <ele>950.2</ele>
        <time>2020-10-24T08:11:49Z</time>
      </trkpt>
      <trkpt lat="44.53162" lon="5.79759">
        <ele>951</ele>
        <time>2020-10-24T08:11:53Z</time>
      </trkpt>
      <trkpt lat="44.53174" lon="5.79756">
        <ele>951.8</ele>
        <time>2020-10-24T08:11:57Z</time>
      </trkpt>
      <trkpt lat="44.53186" lon="5.79753">
        <ele>952.6</ele>
        <time>2020-10-24T08:12:01Z</time>
      </trkpt>
      <trkpt lat="44.53199" lon="5.79751">
        <ele>952.6</ele>
        <time>2020-10-24T08:12:05Z</time>
      </trkpt>
      <trkpt lat="44.53211" lon="5.79749">
        <ele>953.8</ele>
        <time>2020-10-24T08:12:09Z</time>
      </trkpt>
      <trkpt lat="44.53223" lon="5.79746">
        <ele>954</ele>
        <time>2020-10-24T08:12:13Z</time>
      </trkpt>
      <trkpt lat="44.53234" lon="5.79744">
        <ele>954.8</ele>
        <time>2020-10-24T08:12:17Z</time>
      </trkpt>
      <trkpt lat="44.53247" lon="5.79742">
        <ele>955</ele>
        <time>2020-10-24T08:12:21Z</time>
      </trkpt>
      <trkpt lat="44.53259" lon="5.7974">
        <ele>956</ele>
        <time>2020-10-24T08:12:25Z</time>
      </trkpt>
      <trkpt lat="44.53271" lon="5.79739">
        <ele>956.6</ele>
        <time>2020-10-24T08:12:29Z</time>
      </trkpt>
      <trkpt lat="44.53283" lon="5.79737">
        <ele>957.4</ele>
        <time>2020-10-24T08:12:33Z</time>
      </trkpt>
      <trkpt lat="44.53295" lon="5.79735">
        <ele>958.6</ele>
        <time>2020-10-24T08:12:37Z</time>
      </trkpt>
      <trkpt lat="44.53308" lon="5.79733">
        <ele>959.2</ele>
        <time>2020-10-24T08:12:41Z</time>
      </trkpt>
      <trkpt lat="44.5332" lon="5.79731">
        <ele>959.6</ele>
        <time>2020-10-24T08:12:45Z</time>
      </trkpt>
      <trkpt lat="44.53333" lon="5.79729">
        <ele>960.4</ele>
        <time>2020-10-24T08:12:49Z</time>
      </trkpt>
      <trkpt lat="44.53345" lon="5.79727">
        <ele>961.2</ele>
        <time>2020-10-24T08:12:53Z</time>
      </trkpt>
      <trkpt lat="44.53357" lon="5.79726">
        <ele>962.6</ele>
        <time>2020-10-24T08:12:57Z</time>
      </trkpt>
      <trkpt lat="44.53369" lon="5.79724">
        <ele>963.4</ele>
        <time>2020-10-24T08:13:01Z</time>
      </trkpt>
      <trkpt lat="44.53382" lon="5.79721">
        <ele>964.4</ele>
        <time>2020-10-24T08:13:05Z</time>
      </trkpt>
      <trkpt lat="44.53394" lon="5.79718">
        <ele>965</ele>
        <time>2020-10-24T08:13:09Z</time>
      </trkpt>
      <trkpt lat="44.53406" lon="5.79713">
        <ele>965.6</ele>
        <time>2020-10-24T08:13:13Z</time>
      </trkpt>
      <trkpt lat="44.53419" lon="5.79707">
        <ele>965.8</ele>
        <time>2020-10-24T08:13:17Z</time>
      </trkpt>
      <trkpt lat="44.53431" lon="5.797">
        <ele>966.6</ele>
        <time>2020-10-24T08:13:21Z</time>
      </trkpt>
      <trkpt lat="44.53444" lon="5.79693">
        <ele>966.2</ele>
        <time>2020-10-24T08:13:25Z</time>
      </trkpt>
      <trkpt lat="44.53458" lon="5.79686">
        <ele>967.2</ele>
        <time>2020-10-24T08:13:29Z</time>
      </trkpt>
      <trkpt lat="44.53472" lon="5.79679">
        <ele>967</ele>
        <time>2020-10-24T08:13:33Z</time>
      </trkpt>
      <trkpt lat="44.53485" lon="5.79671">
        <ele>967.2</ele>
        <time>2020-10-24T08:13:37Z</time>
      </trkpt>
      <trkpt lat="44.535" lon="5.79663">
        <ele>967.4</ele>
        <time>2020-10-24T08:13:41Z</time>
      </trkpt>
      <trkpt lat="44.53514" lon="5.79656">
        <ele>967.6</ele>
        <time>2020-10-24T08:13:45Z</time>
      </trkpt>
      <trkpt lat="44.53529" lon="5.79648">
        <ele>968.4</ele>
        <time>2020-10-24T08:13:49Z</time>
      </trkpt>
      <trkpt lat="44.53544" lon="5.7964">
        <ele>968.4</ele>
        <time>2020-10-24T08:13:53Z</time>
      </trkpt>
      <trkpt lat="44.5356" lon="5.79632">
        <ele>968.6</ele>
        <time>2020-10-24T08:13:57Z</time>
      </trkpt>
      <trkpt lat="44.53575" lon="5.79622">
        <ele>969</ele>
        <time>2020-10-24T08:14:01Z</time>
      </trkpt>
      <trkpt lat="44.5359" lon="5.79612">
        <ele>969.2</ele>
        <time>2020-10-24T08:14:05Z</time>
      </trkpt>
      <trkpt lat="44.53604" lon="5.79601">
        <ele>969.4</ele>
        <time>2020-10-24T08:14:09Z</time>
      </trkpt>
      <trkpt lat="44.53619" lon="5.79589">
        <ele>969.8</ele>
        <time>2020-10-24T08:14:13Z</time>
      </trkpt>
      <trkpt lat="44.53633" lon="5.79577">
        <ele>969.4</ele>
        <time>2020-10-24T08:14:17Z</time>
      </trkpt>
      <trkpt lat="44.53646" lon="5.79563">
        <ele>970</ele>
        <time>2020-10-24T08:14:21Z</time>
      </trkpt>
      <trkpt lat="44.5366" lon="5.79549">
        <ele>970.6</ele>
        <time>2020-10-24T08:14:25Z</time>
      </trkpt>
      <trkpt lat="44.53673" lon="5.79534">
        <ele>971.2</ele>
        <time>2020-10-24T08:14:29Z</time>
      </trkpt>
      <trkpt lat="44.53684" lon="5.79517">
        <ele>971.6</ele>
        <time>2020-10-24T08:14:33Z</time>
      </trkpt>
      <trkpt lat="44.53693" lon="5.79499">
        <ele>971.2</ele>
        <time>2020-10-24T08:14:37Z</time>
      </trkpt>
      <trkpt lat="44.53699" lon="5.79484">
        <ele>972</ele>
        <time>2020-10-24T08:14:41Z</time>
      </trkpt>
      <trkpt lat="44.53703" lon="5.79471">
        <ele>971.8</ele>
        <time>2020-10-24T08:14:45Z</time>
      </trkpt>
      <trkpt lat="44.53708" lon="5.79456">
        <ele>971.6</ele>
        <time>2020-10-24T08:14:49Z</time>
      </trkpt>
      <trkpt lat="44.53712" lon="5.79437">
        <ele>971.2</ele>
        <time>2020-10-24T08:14:53Z</time>
      </trkpt>
      <trkpt lat="44.53714" lon="5.79414">
        <ele>971</ele>
        <time>2020-10-24T08:14:57Z</time>
      </trkpt>
      <trkpt lat="44.53715" lon="5.79388">
        <ele>970.2</ele>
        <time>2020-10-24T08:15:01Z</time>
      </trkpt>
      <trkpt lat="44.53714" lon="5.7936">
        <ele>970.6</ele>
        <time>2020-10-24T08:15:05Z</time>
      </trkpt>
      <trkpt lat="44.53709" lon="5.7933">
        <ele>968.8</ele>
        <time>2020-10-24T08:15:09Z</time>
      </trkpt>
      <trkpt lat="44.53704" lon="5.79299">
        <ele>967.6</ele>
        <time>2020-10-24T08:16:19Z</time>
      </trkpt>
      <trkpt lat="44.537" lon="5.79279">
        <ele>966.6</ele>
        <time>2020-10-24T08:16:23Z</time>
      </trkpt>
      <trkpt lat="44.53694" lon="5.79253">
        <ele>965.8</ele>
        <time>2020-10-24T08:16:27Z</time>
      </trkpt>
      <trkpt lat="44.53687" lon="5.79221">
        <ele>963.8</ele>
        <time>2020-10-24T08:16:31Z</time>
      </trkpt>
      <trkpt lat="44.53679" lon="5.79187">
        <ele>961.4</ele>
        <time>2020-10-24T08:16:35Z</time>
      </trkpt>
      <trkpt lat="44.5367" lon="5.79148">
        <ele>959.4</ele>
        <time>2020-10-24T08:16:39Z</time>
      </trkpt>
      <trkpt lat="44.53662" lon="5.79103">
        <ele>956</ele>
        <time>2020-10-24T08:16:43Z</time>
      </trkpt>
      <trkpt lat="44.53662" lon="5.79054">
        <ele>953.2</ele>
        <time>2020-10-24T08:16:47Z</time>
      </trkpt>
      <trkpt lat="44.53662" lon="5.79003">
        <ele>952.4</ele>
        <time>2020-10-24T08:16:51Z</time>
      </trkpt>
      <trkpt lat="44.53669" lon="5.78952">
        <ele>949</ele>
        <time>2020-10-24T08:16:55Z</time>
      </trkpt>
      <trkpt lat="44.53685" lon="5.78902">
        <ele>947.8</ele>
        <time>2020-10-24T08:16:59Z</time>
      </trkpt>
      <trkpt lat="44.53702" lon="5.78852">
        <ele>945</ele>
        <time>2020-10-24T08:17:03Z</time>
      </trkpt>
      <trkpt lat="44.53719" lon="5.78799">
        <ele>943.8</ele>
        <time>2020-10-24T08:17:07Z</time>
      </trkpt>
      <trkpt lat="44.53736" lon="5.78745">
        <ele>940.8</ele>
        <time>2020-10-24T08:17:11Z</time>
      </trkpt>
      <trkpt lat="44.53753" lon="5.7869">
        <ele>938.8</ele>
        <time>2020-10-24T08:17:15Z</time>
      </trkpt>
      <trkpt lat="44.53771" lon="5.78633">
        <ele>936</ele>
        <time>2020-10-24T08:17:19Z</time>
      </trkpt>
      <trkpt lat="44.5379" lon="5.78576">
        <ele>933.6</ele>
        <time>2020-10-24T08:17:23Z</time>
      </trkpt>
      <trkpt lat="44.53806" lon="5.78516">
        <ele>931</ele>
        <time>2020-10-24T08:17:27Z</time>
      </trkpt>
      <trkpt lat="44.53819" lon="5.78455">
        <ele>929</ele>
        <time>2020-10-24T08:17:31Z</time>
      </trkpt>
      <trkpt lat="44.53856" lon="5.78417">
        <ele>923.8</ele>
        <time>2020-10-24T08:17:35Z</time>
      </trkpt>
      <trkpt lat="44.53897" lon="5.78388">
        <ele>920.4</ele>
        <time>2020-10-24T08:17:39Z</time>
      </trkpt>
      <trkpt lat="44.53932" lon="5.78351">
        <ele>918.4</ele>
        <time>2020-10-24T08:17:43Z</time>
      </trkpt>
      <trkpt lat="44.53953" lon="5.78298">
        <ele>918</ele>
        <time>2020-10-24T08:17:47Z</time>
      </trkpt>
      <trkpt lat="44.53992" lon="5.78266">
        <ele>915.8</ele>
        <time>2020-10-24T08:17:51Z</time>
      </trkpt>
      <trkpt lat="44.54033" lon="5.78242">
        <ele>909.2</ele>
        <time>2020-10-24T08:17:55Z</time>
      </trkpt>
      <trkpt lat="44.54077" lon="5.78241">
        <ele>908.2</ele>
        <time>2020-10-24T08:17:59Z</time>
      </trkpt>
      <trkpt lat="44.5412" lon="5.78244">
        <ele>905.6</ele>
        <time>2020-10-24T08:18:03Z</time>
      </trkpt>
      <trkpt lat="44.54155" lon="5.78274">
        <ele>901.6</ele>
        <time>2020-10-24T08:18:07Z</time>
      </trkpt>
      <trkpt lat="44.54165" lon="5.7833">
        <ele>898.6</ele>
        <time>2020-10-24T08:18:11Z</time>
      </trkpt>
      <trkpt lat="44.54188" lon="5.78377">
        <ele>895</ele>
        <time>2020-10-24T08:18:15Z</time>
      </trkpt>
      <trkpt lat="44.54222" lon="5.78413">
        <ele>891</ele>
        <time>2020-10-24T08:18:19Z</time>
      </trkpt>
      <trkpt lat="44.54239" lon="5.78468">
        <ele>889.6</ele>
        <time>2020-10-24T08:18:23Z</time>
      </trkpt>
      <trkpt lat="44.54272" lon="5.78495">
        <ele>888.8</ele>
        <time>2020-10-24T08:18:27Z</time>
      </trkpt>
      <trkpt lat="44.54303" lon="5.7846">
        <ele>888</ele>
        <time>2020-10-24T08:18:31Z</time>
      </trkpt>
      <trkpt lat="44.54326" lon="5.78421">
        <ele>885.6</ele>
        <time>2020-10-24T08:18:35Z</time>
      </trkpt>
      <trkpt lat="44.54348" lon="5.78383">
        <ele>884</ele>
        <time>2020-10-24T08:18:39Z</time>
      </trkpt>
      <trkpt lat="44.5437" lon="5.78348">
        <ele>883.2</ele>
        <time>2020-10-24T08:18:43Z</time>
      </trkpt>
      <trkpt lat="44.54391" lon="5.78311">
        <ele>883</ele>
        <time>2020-10-24T08:18:47Z</time>
      </trkpt>
      <trkpt lat="44.54413" lon="5.78273">
        <ele>881.8</ele>
        <time>2020-10-24T08:18:51Z</time>
      </trkpt>
      <trkpt lat="44.54439" lon="5.78237">
        <ele>879.4</ele>
        <time>2020-10-24T08:18:55Z</time>
      </trkpt>
      <trkpt lat="44.54468" lon="5.78209">
        <ele>878.6</ele>
        <time>2020-10-24T08:18:59Z</time>
      </trkpt>
      <trkpt lat="44.54499" lon="5.78181">
        <ele>875.4</ele>
        <time>2020-10-24T08:19:03Z</time>
      </trkpt>
      <trkpt lat="44.54527" lon="5.78154">
        <ele>876.4</ele>
        <time>2020-10-24T08:19:07Z</time>
      </trkpt>
      <trkpt lat="44.54555" lon="5.78127">
        <ele>874</ele>
        <time>2020-10-24T08:19:11Z</time>
      </trkpt>
      <trkpt lat="44.54584" lon="5.78101">
        <ele>872.4</ele>
        <time>2020-10-24T08:19:15Z</time>
      </trkpt>
      <trkpt lat="44.54613" lon="5.78077">
        <ele>868.8</ele>
        <time>2020-10-24T08:19:19Z</time>
      </trkpt>
      <trkpt lat="44.54643" lon="5.78055">
        <ele>868.8</ele>
        <time>2020-10-24T08:19:23Z</time>
      </trkpt>
      <trkpt lat="44.5467" lon="5.78037">
        <ele>869.2</ele>
        <time>2020-10-24T08:19:27Z</time>
      </trkpt>
      <trkpt lat="44.54681" lon="5.78031">
        <ele>870.6</ele>
        <time>2020-10-24T08:19:31Z</time>
      </trkpt>
      <trkpt lat="44.54681" lon="5.78031">
        <ele>871</ele>
        <time>2020-10-24T08:19:35Z</time>
      </trkpt>
      <trkpt lat="44.5468" lon="5.78031">
        <ele>870.4</ele>
        <time>2020-10-24T08:19:39Z</time>
      </trkpt>
      <trkpt lat="44.54677" lon="5.78034">
        <ele>870.8</ele>
        <time>2020-10-24T08:19:43Z</time>
      </trkpt>
      <trkpt lat="44.54684" lon="5.78028">
        <ele>869.6</ele>
        <time>2020-10-24T08:21:47Z</time>
      </trkpt>
      <trkpt lat="44.54698" lon="5.78018">
        <ele>868.4</ele>
        <time>2020-10-24T08:21:51Z</time>
      </trkpt>
      <trkpt lat="44.54716" lon="5.78005">
        <ele>867.8</ele>
        <time>2020-10-24T08:21:55Z</time>
      </trkpt>
      <trkpt lat="44.54735" lon="5.77989">
        <ele>866.8</ele>
        <time>2020-10-24T08:21:59Z</time>
      </trkpt>
      <trkpt lat="44.54754" lon="5.77969">
        <ele>865</ele>
        <time>2020-10-24T08:22:03Z</time>
      </trkpt>
      <trkpt lat="44.54776" lon="5.77949">
        <ele>863.4</ele>
        <time>2020-10-24T08:22:07Z</time>
      </trkpt>
      <trkpt lat="44.548" lon="5.77933">
        <ele>862.8</ele>
        <time>2020-10-24T08:22:11Z</time>
      </trkpt>
      <trkpt lat="44.54826" lon="5.77925">
        <ele>861.8</ele>
        <time>2020-10-24T08:22:15Z</time>
      </trkpt>
      <trkpt lat="44.54853" lon="5.77919">
        <ele>860.2</ele>
        <time>2020-10-24T08:22:19Z</time>
      </trkpt>
      <trkpt lat="44.54879" lon="5.7791">
        <ele>860.2</ele>
        <time>2020-10-24T08:22:23Z</time>
      </trkpt>
      <trkpt lat="44.54904" lon="5.77899">
        <ele>857.8</ele>
        <time>2020-10-24T08:22:27Z</time>
      </trkpt>
      <trkpt lat="44.5493" lon="5.77883">
        <ele>857</ele>
        <time>2020-10-24T08:22:31Z</time>
      </trkpt>
      <trkpt lat="44.54955" lon="5.77867">
        <ele>855.4</ele>
        <time>2020-10-24T08:22:35Z</time>
      </trkpt>
      <trkpt lat="44.54982" lon="5.77849">
        <ele>854.6</ele>
        <time>2020-10-24T08:22:39Z</time>
      </trkpt>
      <trkpt lat="44.55009" lon="5.77828">
        <ele>854.6</ele>
        <time>2020-10-24T08:22:43Z</time>
      </trkpt>
      <trkpt lat="44.55033" lon="5.77806">
        <ele>853.6</ele>
        <time>2020-10-24T08:22:47Z</time>
      </trkpt>
      <trkpt lat="44.55056" lon="5.77785">
        <ele>853.4</ele>
        <time>2020-10-24T08:22:51Z</time>
      </trkpt>
      <trkpt lat="44.55077" lon="5.77766">
        <ele>855</ele>
        <time>2020-10-24T08:22:55Z</time>
      </trkpt>
      <trkpt lat="44.55094" lon="5.7775">
        <ele>855.6</ele>
        <time>2020-10-24T08:22:59Z</time>
      </trkpt>
      <trkpt lat="44.55109" lon="5.77734">
        <ele>857.2</ele>
        <time>2020-10-24T08:23:03Z</time>
      </trkpt>
      <trkpt lat="44.55121" lon="5.77718">
        <ele>857.8</ele>
        <time>2020-10-24T08:23:07Z</time>
      </trkpt>
      <trkpt lat="44.55132" lon="5.777">
        <ele>857.8</ele>
        <time>2020-10-24T08:23:11Z</time>
      </trkpt>
      <trkpt lat="44.55143" lon="5.77681">
        <ele>858.4</ele>
        <time>2020-10-24T08:23:15Z</time>
      </trkpt>
      <trkpt lat="44.55155" lon="5.77662">
        <ele>859</ele>
        <time>2020-10-24T08:23:19Z</time>
      </trkpt>
      <trkpt lat="44.55166" lon="5.77642">
        <ele>859.6</ele>
        <time>2020-10-24T08:23:23Z</time>
      </trkpt>
      <trkpt lat="44.55175" lon="5.7762">
        <ele>860.4</ele>
        <time>2020-10-24T08:23:27Z</time>
      </trkpt>
      <trkpt lat="44.55182" lon="5.77603">
        <ele>861</ele>
        <time>2020-10-24T08:23:31Z</time>
      </trkpt>
      <trkpt lat="44.55186" lon="5.77589">
        <ele>860.2</ele>
        <time>2020-10-24T08:23:35Z</time>
      </trkpt>
      <trkpt lat="44.55187" lon="5.77572">
        <ele>860.6</ele>
        <time>2020-10-24T08:24:53Z</time>
      </trkpt>
      <trkpt lat="44.5519" lon="5.77563">
        <ele>861.4</ele>
        <time>2020-10-24T08:24:57Z</time>
      </trkpt>
      <trkpt lat="44.55194" lon="5.77555">
        <ele>862.4</ele>
        <time>2020-10-24T08:25:01Z</time>
      </trkpt>
      <trkpt lat="44.55196" lon="5.77546">
        <ele>862.8</ele>
        <time>2020-10-24T08:25:05Z</time>
      </trkpt>
      <trkpt lat="44.55199" lon="5.77538">
        <ele>863.4</ele>
        <time>2020-10-24T08:25:09Z</time>
      </trkpt>
      <trkpt lat="44.55202" lon="5.7753">
        <ele>864</ele>
        <time>2020-10-24T08:25:13Z</time>
      </trkpt>
      <trkpt lat="44.55205" lon="5.77523">
        <ele>865.8</ele>
        <time>2020-10-24T08:25:17Z</time>
      </trkpt>
      <trkpt lat="44.55206" lon="5.77515">
        <ele>865.8</ele>
        <time>2020-10-24T08:25:21Z</time>
      </trkpt>
      <trkpt lat="44.55207" lon="5.7751">
        <ele>866.4</ele>
        <time>2020-10-24T08:25:25Z</time>
      </trkpt>
      <trkpt lat="44.5521" lon="5.77502">
        <ele>868.4</ele>
        <time>2020-10-24T08:25:29Z</time>
      </trkpt>
      <trkpt lat="44.55214" lon="5.77494">
        <ele>868.6</ele>
        <time>2020-10-24T08:25:33Z</time>
      </trkpt>
      <trkpt lat="44.55217" lon="5.77485">
        <ele>869.2</ele>
        <time>2020-10-24T08:25:37Z</time>
      </trkpt>
      <trkpt lat="44.5522" lon="5.77475">
        <ele>869</ele>
        <time>2020-10-24T08:25:41Z</time>
      </trkpt>
      <trkpt lat="44.55222" lon="5.77466">
        <ele>869.6</ele>
        <time>2020-10-24T08:25:45Z</time>
      </trkpt>
      <trkpt lat="44.55224" lon="5.77457">
        <ele>870.8</ele>
        <time>2020-10-24T08:25:49Z</time>
      </trkpt>
      <trkpt lat="44.55227" lon="5.77449">
        <ele>872.2</ele>
        <time>2020-10-24T08:25:53Z</time>
      </trkpt>
      <trkpt lat="44.55229" lon="5.7744">
        <ele>872.8</ele>
        <time>2020-10-24T08:25:57Z</time>
      </trkpt>
      <trkpt lat="44.55232" lon="5.77431">
        <ele>873.8</ele>
        <time>2020-10-24T08:26:01Z</time>
      </trkpt>
      <trkpt lat="44.55233" lon="5.77423">
        <ele>874.4</ele>
        <time>2020-10-24T08:26:05Z</time>
      </trkpt>
      <trkpt lat="44.55235" lon="5.77417">
        <ele>874.8</ele>
        <time>2020-10-24T08:26:09Z</time>
      </trkpt>
      <trkpt lat="44.55236" lon="5.7741">
        <ele>875.4</ele>
        <time>2020-10-24T08:26:13Z</time>
      </trkpt>
      <trkpt lat="44.55238" lon="5.77402">
        <ele>875.8</ele>
        <time>2020-10-24T08:26:17Z</time>
      </trkpt>
      <trkpt lat="44.5524" lon="5.77395">
        <ele>876</ele>
        <time>2020-10-24T08:26:21Z</time>
      </trkpt>
      <trkpt lat="44.55242" lon="5.77388">
        <ele>876.6</ele>
        <time>2020-10-24T08:26:25Z</time>
      </trkpt>
      <trkpt lat="44.55244" lon="5.77381">
        <ele>877</ele>
        <time>2020-10-24T08:26:29Z</time>
      </trkpt>
      <trkpt lat="44.55246" lon="5.77373">
        <ele>877.8</ele>
        <time>2020-10-24T08:26:33Z</time>
      </trkpt>
      <trkpt lat="44.55248" lon="5.77365">
        <ele>878.8</ele>
        <time>2020-10-24T08:26:37Z</time>
      </trkpt>
      <trkpt lat="44.5525" lon="5.77358">
        <ele>878.2</ele>
        <time>2020-10-24T08:26:41Z</time>
      </trkpt>
      <trkpt lat="44.55253" lon="5.7735">
        <ele>879.6</ele>
        <time>2020-10-24T08:26:45Z</time>
      </trkpt>
      <trkpt lat="44.55256" lon="5.77342">
        <ele>879.2</ele>
        <time>2020-10-24T08:26:49Z</time>
      </trkpt>
      <trkpt lat="44.55259" lon="5.77336">
        <ele>880</ele>
        <time>2020-10-24T08:26:53Z</time>
      </trkpt>
      <trkpt lat="44.55266" lon="5.77319">
        <ele>883</ele>
        <time>2020-10-24T08:28:12Z</time>
      </trkpt>
      <trkpt lat="44.5527" lon="5.77311">
        <ele>883.8</ele>
        <time>2020-10-24T08:28:16Z</time>
      </trkpt>
      <trkpt lat="44.55273" lon="5.77303">
        <ele>884</ele>
        <time>2020-10-24T08:28:20Z</time>
      </trkpt>
      <trkpt lat="44.55275" lon="5.77296">
        <ele>883.8</ele>
        <time>2020-10-24T08:28:24Z</time>
      </trkpt>
      <trkpt lat="44.55278" lon="5.77288">
        <ele>885</ele>
        <time>2020-10-24T08:28:28Z</time>
      </trkpt>
      <trkpt lat="44.55281" lon="5.77281">
        <ele>885.6</ele>
        <time>2020-10-24T08:28:32Z</time>
      </trkpt>
      <trkpt lat="44.55284" lon="5.77273">
        <ele>886.6</ele>
        <time>2020-10-24T08:28:36Z</time>
      </trkpt>
      <trkpt lat="44.55287" lon="5.77266">
        <ele>887.2</ele>
        <time>2020-10-24T08:28:40Z</time>
      </trkpt>
      <trkpt lat="44.5529" lon="5.77259">
        <ele>887.2</ele>
        <time>2020-10-24T08:28:44Z</time>
      </trkpt>
      <trkpt lat="44.55293" lon="5.77251">
        <ele>888</ele>
        <time>2020-10-24T08:28:48Z</time>
      </trkpt>
      <trkpt lat="44.55297" lon="5.77243">
        <ele>889.6</ele>
        <time>2020-10-24T08:28:52Z</time>
      </trkpt>
      <trkpt lat="44.553" lon="5.77236">
        <ele>890</ele>
        <time>2020-10-24T08:28:56Z</time>
      </trkpt>
      <trkpt lat="44.55304" lon="5.77229">
        <ele>891.4</ele>
        <time>2020-10-24T08:29:00Z</time>
      </trkpt>
      <trkpt lat="44.55307" lon="5.77222">
        <ele>891.4</ele>
        <time>2020-10-24T08:29:04Z</time>
      </trkpt>
      <trkpt lat="44.55311" lon="5.77216">
        <ele>892.2</ele>
        <time>2020-10-24T08:29:08Z</time>
      </trkpt>
      <trkpt lat="44.55313" lon="5.77208">
        <ele>893.4</ele>
        <time>2020-10-24T08:29:12Z</time>
      </trkpt>
      <trkpt lat="44.55316" lon="5.77201">
        <ele>893.6</ele>
        <time>2020-10-24T08:29:16Z</time>
      </trkpt>
      <trkpt lat="44.55319" lon="5.77195">
        <ele>894.2</ele>
        <time>2020-10-24T08:29:20Z</time>
      </trkpt>
      <trkpt lat="44.55323" lon="5.77188">
        <ele>894.8</ele>
        <time>2020-10-24T08:29:24Z</time>
      </trkpt>
      <trkpt lat="44.55327" lon="5.77181">
        <ele>896.2</ele>
        <time>2020-10-24T08:29:28Z</time>
      </trkpt>
      <trkpt lat="44.5533" lon="5.77174">
        <ele>896.8</ele>
        <time>2020-10-24T08:29:32Z</time>
      </trkpt>
      <trkpt lat="44.55334" lon="5.77166">
        <ele>897.6</ele>
        <time>2020-10-24T08:29:36Z</time>
      </trkpt>
      <trkpt lat="44.55337" lon="5.77159">
        <ele>898.4</ele>
        <time>2020-10-24T08:29:40Z</time>
      </trkpt>
      <trkpt lat="44.55339" lon="5.77151">
        <ele>898.2</ele>
        <time>2020-10-24T08:29:44Z</time>
      </trkpt>
      <trkpt lat="44.55342" lon="5.77144">
        <ele>898.8</ele>
        <time>2020-10-24T08:29:48Z</time>
      </trkpt>
      <trkpt lat="44.55344" lon="5.77136">
        <ele>900</ele>
        <time>2020-10-24T08:29:52Z</time>
      </trkpt>
      <trkpt lat="44.55347" lon="5.77129">
        <ele>900.6</ele>
        <time>2020-10-24T08:29:56Z</time>
      </trkpt>
      <trkpt lat="44.5535" lon="5.77122">
        <ele>901.6</ele>
        <time>2020-10-24T08:30:00Z</time>
      </trkpt>
      <trkpt lat="44.55355" lon="5.77114">
        <ele>902.4</ele>
        <time>2020-10-24T08:30:04Z</time>
      </trkpt>
      <trkpt lat="44.55357" lon="5.77107">
        <ele>903.2</ele>
        <time>2020-10-24T08:30:08Z</time>
      </trkpt>
      <trkpt lat="44.5536" lon="5.771">
        <ele>903.2</ele>
        <time>2020-10-24T08:30:12Z</time>
      </trkpt>
      <trkpt lat="44.55361" lon="5.7709">
        <ele>905.2</ele>
        <time>2020-10-24T08:30:16Z</time>
      </trkpt>
      <trkpt lat="44.55361" lon="5.77081">
        <ele>906.4</ele>
        <time>2020-10-24T08:30:20Z</time>
      </trkpt>
      <trkpt lat="44.55361" lon="5.77073">
        <ele>906.4</ele>
        <time>2020-10-24T08:30:24Z</time>
      </trkpt>
      <trkpt lat="44.55364" lon="5.77068">
        <ele>906.8</ele>
        <time>2020-10-24T08:30:28Z</time>
      </trkpt>
      <trkpt lat="44.55367" lon="5.77074">
        <ele>906.8</ele>
        <time>2020-10-24T08:30:32Z</time>
      </trkpt>
      <trkpt lat="44.55367" lon="5.77082">
        <ele>908</ele>
        <time>2020-10-24T08:30:36Z</time>
      </trkpt>
      <trkpt lat="44.55367" lon="5.77091">
        <ele>909</ele>
        <time>2020-10-24T08:30:40Z</time>
      </trkpt>
      <trkpt lat="44.55368" lon="5.771">
        <ele>909.6</ele>
        <time>2020-10-24T08:30:44Z</time>
      </trkpt>
      <trkpt lat="44.55367" lon="5.77109">
        <ele>909.6</ele>
        <time>2020-10-24T08:30:48Z</time>
      </trkpt>
      <trkpt lat="44.55366" lon="5.77117">
        <ele>910</ele>
        <time>2020-10-24T08:30:52Z</time>
      </trkpt>
      <trkpt lat="44.55364" lon="5.77124">
        <ele>911.4</ele>
        <time>2020-10-24T08:30:56Z</time>
      </trkpt>
      <trkpt lat="44.55362" lon="5.77133">
        <ele>911.8</ele>
        <time>2020-10-24T08:31:00Z</time>
      </trkpt>
      <trkpt lat="44.55362" lon="5.7714">
        <ele>912.8</ele>
        <time>2020-10-24T08:31:04Z</time>
      </trkpt>
      <trkpt lat="44.55359" lon="5.77148">
        <ele>913.4</ele>
        <time>2020-10-24T08:31:08Z</time>
      </trkpt>
      <trkpt lat="44.55358" lon="5.77157">
        <ele>913.8</ele>
        <time>2020-10-24T08:31:12Z</time>
      </trkpt>
      <trkpt lat="44.55357" lon="5.77167">
        <ele>914.8</ele>
        <time>2020-10-24T08:31:16Z</time>
      </trkpt>
      <trkpt lat="44.55355" lon="5.77175">
        <ele>915.4</ele>
        <time>2020-10-24T08:31:20Z</time>
      </trkpt>
      <trkpt lat="44.55353" lon="5.77182">
        <ele>916</ele>
        <time>2020-10-24T08:31:24Z</time>
      </trkpt>
      <trkpt lat="44.55351" lon="5.77191">
        <ele>916.6</ele>
        <time>2020-10-24T08:31:28Z</time>
      </trkpt>
      <trkpt lat="44.55347" lon="5.772">
        <ele>916.8</ele>
        <time>2020-10-24T08:31:32Z</time>
      </trkpt>
      <trkpt lat="44.55344" lon="5.77208">
        <ele>917.8</ele>
        <time>2020-10-24T08:31:36Z</time>
      </trkpt>
      <trkpt lat="44.55341" lon="5.77216">
        <ele>918</ele>
        <time>2020-10-24T08:31:40Z</time>
      </trkpt>
      <trkpt lat="44.55344" lon="5.77218">
        <ele>919.2</ele>
        <time>2020-10-24T08:31:44Z</time>
      </trkpt>
      <trkpt lat="44.55347" lon="5.7721">
        <ele>920</ele>
        <time>2020-10-24T08:31:48Z</time>
      </trkpt>
      <trkpt lat="44.55351" lon="5.77203">
        <ele>920.6</ele>
        <time>2020-10-24T08:31:52Z</time>
      </trkpt>
      <trkpt lat="44.55354" lon="5.77194">
        <ele>921</ele>
        <time>2020-10-24T08:31:56Z</time>
      </trkpt>
      <trkpt lat="44.55359" lon="5.77187">
        <ele>921.4</ele>
        <time>2020-10-24T08:32:00Z</time>
      </trkpt>
      <trkpt lat="44.55361" lon="5.7718">
        <ele>921.8</ele>
        <time>2020-10-24T08:32:04Z</time>
      </trkpt>
      <trkpt lat="44.55364" lon="5.77172">
        <ele>923.4</ele>
        <time>2020-10-24T08:32:08Z</time>
      </trkpt>
      <trkpt lat="44.55367" lon="5.77164">
        <ele>923.2</ele>
        <time>2020-10-24T08:32:12Z</time>
      </trkpt>
      <trkpt lat="44.55371" lon="5.77157">
        <ele>924.4</ele>
        <time>2020-10-24T08:32:16Z</time>
      </trkpt>
      <trkpt lat="44.55375" lon="5.77149">
        <ele>925.4</ele>
        <time>2020-10-24T08:32:20Z</time>
      </trkpt>
      <trkpt lat="44.55379" lon="5.77141">
        <ele>926.4</ele>
        <time>2020-10-24T08:32:24Z</time>
      </trkpt>
      <trkpt lat="44.55382" lon="5.77134">
        <ele>927.4</ele>
        <time>2020-10-24T08:32:28Z</time>
      </trkpt>
      <trkpt lat="44.55386" lon="5.77127">
        <ele>927</ele>
        <time>2020-10-24T08:32:32Z</time>
      </trkpt>
      <trkpt lat="44.55389" lon="5.7712">
        <ele>928</ele>
        <time>2020-10-24T08:32:36Z</time>
      </trkpt>
      <trkpt lat="44.55393" lon="5.77112">
        <ele>928.8</ele>
        <time>2020-10-24T08:32:40Z</time>
      </trkpt>
      <trkpt lat="44.55395" lon="5.77103">
        <ele>929.8</ele>
        <time>2020-10-24T08:32:44Z</time>
      </trkpt>
      <trkpt lat="44.55397" lon="5.77093">
        <ele>930.8</ele>
        <time>2020-10-24T08:32:48Z</time>
      </trkpt>
      <trkpt lat="44.55397" lon="5.77084">
        <ele>931.6</ele>
        <time>2020-10-24T08:32:52Z</time>
      </trkpt>
      <trkpt lat="44.55398" lon="5.77075">
        <ele>932.4</ele>
        <time>2020-10-24T08:32:56Z</time>
      </trkpt>
      <trkpt lat="44.55399" lon="5.77067">
        <ele>933.4</ele>
        <time>2020-10-24T08:33:00Z</time>
      </trkpt>
      <trkpt lat="44.554" lon="5.77058">
        <ele>934</ele>
        <time>2020-10-24T08:33:04Z</time>
      </trkpt>
      <trkpt lat="44.55403" lon="5.7705">
        <ele>934</ele>
        <time>2020-10-24T08:33:08Z</time>
      </trkpt>
      <trkpt lat="44.55404" lon="5.77043">
        <ele>934.4</ele>
        <time>2020-10-24T08:33:12Z</time>
      </trkpt>
      <trkpt lat="44.55405" lon="5.77033">
        <ele>936</ele>
        <time>2020-10-24T08:33:16Z</time>
      </trkpt>
      <trkpt lat="44.55406" lon="5.77025">
        <ele>936.6</ele>
        <time>2020-10-24T08:33:20Z</time>
      </trkpt>
      <trkpt lat="44.55407" lon="5.77016">
        <ele>936.6</ele>
        <time>2020-10-24T08:33:24Z</time>
      </trkpt>
      <trkpt lat="44.55408" lon="5.77007">
        <ele>937.6</ele>
        <time>2020-10-24T08:33:28Z</time>
      </trkpt>
      <trkpt lat="44.55409" lon="5.76999">
        <ele>937.4</ele>
        <time>2020-10-24T08:33:32Z</time>
      </trkpt>
      <trkpt lat="44.55409" lon="5.76989">
        <ele>938.4</ele>
        <time>2020-10-24T08:33:36Z</time>
      </trkpt>
      <trkpt lat="44.55411" lon="5.76982">
        <ele>940.4</ele>
        <time>2020-10-24T08:33:40Z</time>
      </trkpt>
      <trkpt lat="44.55412" lon="5.76973">
        <ele>941</ele>
        <time>2020-10-24T08:33:44Z</time>
      </trkpt>
      <trkpt lat="44.55414" lon="5.76965">
        <ele>941.8</ele>
        <time>2020-10-24T08:33:48Z</time>
      </trkpt>
      <trkpt lat="44.55416" lon="5.76955">
        <ele>943.4</ele>
        <time>2020-10-24T08:33:52Z</time>
      </trkpt>
      <trkpt lat="44.55418" lon="5.76947">
        <ele>944.2</ele>
        <time>2020-10-24T08:33:56Z</time>
      </trkpt>
      <trkpt lat="44.55419" lon="5.76938">
        <ele>944.2</ele>
        <time>2020-10-24T08:34:00Z</time>
      </trkpt>
      <trkpt lat="44.55419" lon="5.7693">
        <ele>944.4</ele>
        <time>2020-10-24T08:34:04Z</time>
      </trkpt>
      <trkpt lat="44.5542" lon="5.76922">
        <ele>945.2</ele>
        <time>2020-10-24T08:34:08Z</time>
      </trkpt>
      <trkpt lat="44.5542" lon="5.76913">
        <ele>946</ele>
        <time>2020-10-24T08:34:12Z</time>
      </trkpt>
      <trkpt lat="44.5542" lon="5.76904">
        <ele>946.2</ele>
        <time>2020-10-24T08:34:16Z</time>
      </trkpt>
      <trkpt lat="44.5542" lon="5.76895">
        <ele>946.8</ele>
        <time>2020-10-24T08:34:20Z</time>
      </trkpt>
      <trkpt lat="44.55424" lon="5.76888">
        <ele>947.2</ele>
        <time>2020-10-24T08:34:24Z</time>
      </trkpt>
      <trkpt lat="44.5543" lon="5.76888">
        <ele>946.8</ele>
        <time>2020-10-24T08:34:28Z</time>
      </trkpt>
      <trkpt lat="44.55432" lon="5.76895">
        <ele>948.4</ele>
        <time>2020-10-24T08:34:32Z</time>
      </trkpt>
      <trkpt lat="44.5543" lon="5.76902">
        <ele>948.4</ele>
        <time>2020-10-24T08:34:36Z</time>
      </trkpt>
      <trkpt lat="44.55428" lon="5.7691">
        <ele>948.6</ele>
        <time>2020-10-24T08:34:40Z</time>
      </trkpt>
      <trkpt lat="44.55427" lon="5.76917">
        <ele>948.8</ele>
        <time>2020-10-24T08:34:44Z</time>
      </trkpt>
      <trkpt lat="44.55428" lon="5.76928">
        <ele>949.8</ele>
        <time>2020-10-24T08:34:48Z</time>
      </trkpt>
      <trkpt lat="44.5543" lon="5.76937">
        <ele>950.8</ele>
        <time>2020-10-24T08:34:52Z</time>
      </trkpt>
      <trkpt lat="44.55431" lon="5.76945">
        <ele>950.6</ele>
        <time>2020-10-24T08:34:56Z</time>
      </trkpt>
      <trkpt lat="44.55432" lon="5.76951">
        <ele>951.2</ele>
        <time>2020-10-24T08:35:00Z</time>
      </trkpt>
      <trkpt lat="44.55432" lon="5.7696">
        <ele>952</ele>
        <time>2020-10-24T08:35:04Z</time>
      </trkpt>
      <trkpt lat="44.55433" lon="5.76969">
        <ele>952.8</ele>
        <time>2020-10-24T08:35:08Z</time>
      </trkpt>
      <trkpt lat="44.55433" lon="5.76979">
        <ele>954</ele>
        <time>2020-10-24T08:35:12Z</time>
      </trkpt>
      <trkpt lat="44.55436" lon="5.76987">
        <ele>954.8</ele>
        <time>2020-10-24T08:35:16Z</time>
      </trkpt>
      <trkpt lat="44.55438" lon="5.76995">
        <ele>955.2</ele>
        <time>2020-10-24T08:35:20Z</time>
      </trkpt>
      <trkpt lat="44.55441" lon="5.77003">
        <ele>956</ele>
        <time>2020-10-24T08:35:24Z</time>
      </trkpt>
      <trkpt lat="44.55442" lon="5.77012">
        <ele>956.8</ele>
        <time>2020-10-24T08:35:28Z</time>
      </trkpt>
      <trkpt lat="44.55441" lon="5.7702">
        <ele>957.8</ele>
        <time>2020-10-24T08:35:32Z</time>
      </trkpt>
      <trkpt lat="44.55441" lon="5.77028">
        <ele>958.8</ele>
        <time>2020-10-24T08:35:36Z</time>
      </trkpt>
      <trkpt lat="44.55439" lon="5.77038">
        <ele>958.4</ele>
        <time>2020-10-24T08:35:40Z</time>
      </trkpt>
      <trkpt lat="44.5544" lon="5.77047">
        <ele>959</ele>
        <time>2020-10-24T08:35:44Z</time>
      </trkpt>
      <trkpt lat="44.55439" lon="5.77055">
        <ele>959.4</ele>
        <time>2020-10-24T08:35:48Z</time>
      </trkpt>
      <trkpt lat="44.55439" lon="5.77064">
        <ele>959.8</ele>
        <time>2020-10-24T08:35:52Z</time>
      </trkpt>
      <trkpt lat="44.5544" lon="5.77073">
        <ele>960</ele>
        <time>2020-10-24T08:35:56Z</time>
      </trkpt>
      <trkpt lat="44.55441" lon="5.77082">
        <ele>960.8</ele>
        <time>2020-10-24T08:36:00Z</time>
      </trkpt>
      <trkpt lat="44.55443" lon="5.77091">
        <ele>961.8</ele>
        <time>2020-10-24T08:36:04Z</time>
      </trkpt>
      <trkpt lat="44.55444" lon="5.77099">
        <ele>962.6</ele>
        <time>2020-10-24T08:36:08Z</time>
      </trkpt>
      <trkpt lat="44.55444" lon="5.77108">
        <ele>962.8</ele>
        <time>2020-10-24T08:36:12Z</time>
      </trkpt>
      <trkpt lat="44.55445" lon="5.77117">
        <ele>964</ele>
        <time>2020-10-24T08:36:16Z</time>
      </trkpt>
      <trkpt lat="44.55444" lon="5.77126">
        <ele>963.8</ele>
        <time>2020-10-24T08:36:20Z</time>
      </trkpt>
      <trkpt lat="44.55443" lon="5.77135">
        <ele>964.2</ele>
        <time>2020-10-24T08:36:24Z</time>
      </trkpt>
      <trkpt lat="44.55441" lon="5.77143">
        <ele>965</ele>
        <time>2020-10-24T08:36:28Z</time>
      </trkpt>
      <trkpt lat="44.5544" lon="5.77152">
        <ele>966</ele>
        <time>2020-10-24T08:36:32Z</time>
      </trkpt>
      <trkpt lat="44.55439" lon="5.7716">
        <ele>966.6</ele>
        <time>2020-10-24T08:36:36Z</time>
      </trkpt>
      <trkpt lat="44.55437" lon="5.77168">
        <ele>967.6</ele>
        <time>2020-10-24T08:36:40Z</time>
      </trkpt>
      <trkpt lat="44.55435" lon="5.77176">
        <ele>968.4</ele>
        <time>2020-10-24T08:36:44Z</time>
      </trkpt>
      <trkpt lat="44.55432" lon="5.77185">
        <ele>968.4</ele>
        <time>2020-10-24T08:36:48Z</time>
      </trkpt>
      <trkpt lat="44.55429" lon="5.77193">
        <ele>969.2</ele>
        <time>2020-10-24T08:36:52Z</time>
      </trkpt>
      <trkpt lat="44.55427" lon="5.77201">
        <ele>969.8</ele>
        <time>2020-10-24T08:36:56Z</time>
      </trkpt>
      <trkpt lat="44.55425" lon="5.77208">
        <ele>970.2</ele>
        <time>2020-10-24T08:37:00Z</time>
      </trkpt>
      <trkpt lat="44.55424" lon="5.77216">
        <ele>971</ele>
        <time>2020-10-24T08:37:04Z</time>
      </trkpt>
      <trkpt lat="44.55422" lon="5.77224">
        <ele>971.4</ele>
        <time>2020-10-24T08:37:08Z</time>
      </trkpt>
      <trkpt lat="44.5542" lon="5.77232">
        <ele>972.6</ele>
        <time>2020-10-24T08:37:12Z</time>
      </trkpt>
      <trkpt lat="44.55418" lon="5.77241">
        <ele>973.4</ele>
        <time>2020-10-24T08:37:16Z</time>
      </trkpt>
      <trkpt lat="44.55417" lon="5.77249">
        <ele>974.8</ele>
        <time>2020-10-24T08:37:20Z</time>
      </trkpt>
      <trkpt lat="44.55416" lon="5.77257">
        <ele>974.2</ele>
        <time>2020-10-24T08:37:24Z</time>
      </trkpt>
      <trkpt lat="44.55414" lon="5.77265">
        <ele>975.8</ele>
        <time>2020-10-24T08:37:28Z</time>
      </trkpt>
      <trkpt lat="44.55412" lon="5.77274">
        <ele>975.8</ele>
        <time>2020-10-24T08:37:32Z</time>
      </trkpt>
      <trkpt lat="44.55409" lon="5.77281">
        <ele>976.8</ele>
        <time>2020-10-24T08:37:36Z</time>
      </trkpt>
      <trkpt lat="44.55405" lon="5.77288">
        <ele>977.2</ele>
        <time>2020-10-24T08:37:40Z</time>
      </trkpt>
      <trkpt lat="44.55401" lon="5.77294">
        <ele>977.6</ele>
        <time>2020-10-24T08:37:44Z</time>
      </trkpt>
      <trkpt lat="44.55397" lon="5.773">
        <ele>978.2</ele>
        <time>2020-10-24T08:37:48Z</time>
      </trkpt>
      <trkpt lat="44.55393" lon="5.77305">
        <ele>979</ele>
        <time>2020-10-24T08:37:52Z</time>
      </trkpt>
      <trkpt lat="44.55388" lon="5.7731">
        <ele>979.4</ele>
        <time>2020-10-24T08:37:56Z</time>
      </trkpt>
      <trkpt lat="44.55382" lon="5.77316">
        <ele>980.6</ele>
        <time>2020-10-24T08:38:00Z</time>
      </trkpt>
      <trkpt lat="44.55378" lon="5.77325">
        <ele>981</ele>
        <time>2020-10-24T08:38:04Z</time>
      </trkpt>
      <trkpt lat="44.55376" lon="5.77333">
        <ele>982.2</ele>
        <time>2020-10-24T08:38:08Z</time>
      </trkpt>
      <trkpt lat="44.55374" lon="5.77341">
        <ele>981.8</ele>
        <time>2020-10-24T08:38:12Z</time>
      </trkpt>
      <trkpt lat="44.55373" lon="5.77348">
        <ele>983.2</ele>
        <time>2020-10-24T08:38:16Z</time>
      </trkpt>
      <trkpt lat="44.55373" lon="5.77357">
        <ele>983.6</ele>
        <time>2020-10-24T08:38:20Z</time>
      </trkpt>
      <trkpt lat="44.55376" lon="5.77365">
        <ele>984.2</ele>
        <time>2020-10-24T08:38:24Z</time>
      </trkpt>
      <trkpt lat="44.55378" lon="5.77373">
        <ele>985.6</ele>
        <time>2020-10-24T08:38:28Z</time>
      </trkpt>
      <trkpt lat="44.5538" lon="5.7738">
        <ele>985.8</ele>
        <time>2020-10-24T08:38:32Z</time>
      </trkpt>
      <trkpt lat="44.55383" lon="5.77387">
        <ele>986.4</ele>
        <time>2020-10-24T08:38:36Z</time>
      </trkpt>
      <trkpt lat="44.55384" lon="5.77394">
        <ele>987.4</ele>
        <time>2020-10-24T08:38:40Z</time>
      </trkpt>
      <trkpt lat="44.55385" lon="5.77401">
        <ele>987.4</ele>
        <time>2020-10-24T08:38:44Z</time>
      </trkpt>
      <trkpt lat="44.55382" lon="5.77409">
        <ele>987.4</ele>
        <time>2020-10-24T08:38:48Z</time>
      </trkpt>
      <trkpt lat="44.55383" lon="5.77418">
        <ele>988.4</ele>
        <time>2020-10-24T08:38:52Z</time>
      </trkpt>
      <trkpt lat="44.55376" lon="5.77428">
        <ele>989</ele>
        <time>2020-10-24T08:38:56Z</time>
      </trkpt>
      <trkpt lat="44.55373" lon="5.77436">
        <ele>990</ele>
        <time>2020-10-24T08:39:00Z</time>
      </trkpt>
      <trkpt lat="44.55367" lon="5.77443">
        <ele>990.6</ele>
        <time>2020-10-24T08:39:04Z</time>
      </trkpt>
      <trkpt lat="44.55362" lon="5.7745">
        <ele>991.4</ele>
        <time>2020-10-24T08:39:08Z</time>
      </trkpt>
      <trkpt lat="44.55358" lon="5.77456">
        <ele>992.4</ele>
        <time>2020-10-24T08:39:12Z</time>
      </trkpt>
      <trkpt lat="44.55355" lon="5.77462">
        <ele>992.8</ele>
        <time>2020-10-24T08:39:16Z</time>
      </trkpt>
      <trkpt lat="44.55352" lon="5.77467">
        <ele>993.2</ele>
        <time>2020-10-24T08:39:20Z</time>
      </trkpt>
      <trkpt lat="44.5535" lon="5.77472">
        <ele>993.4</ele>
        <time>2020-10-24T08:39:24Z</time>
      </trkpt>
      <trkpt lat="44.55345" lon="5.7748">
        <ele>994.2</ele>
        <time>2020-10-24T08:39:28Z</time>
      </trkpt>
      <trkpt lat="44.55345" lon="5.77489">
        <ele>995.2</ele>
        <time>2020-10-24T08:39:32Z</time>
      </trkpt>
      <trkpt lat="44.55346" lon="5.77498">
        <ele>995.6</ele>
        <time>2020-10-24T08:39:36Z</time>
      </trkpt>
      <trkpt lat="44.55348" lon="5.77506">
        <ele>996</ele>
        <time>2020-10-24T08:39:40Z</time>
      </trkpt>
      <trkpt lat="44.5535" lon="5.77514">
        <ele>996.8</ele>
        <time>2020-10-24T08:39:44Z</time>
      </trkpt>
      <trkpt lat="44.55352" lon="5.77522">
        <ele>997.6</ele>
        <time>2020-10-24T08:39:48Z</time>
      </trkpt>
      <trkpt lat="44.55354" lon="5.7753">
        <ele>998.4</ele>
        <time>2020-10-24T08:39:52Z</time>
      </trkpt>
      <trkpt lat="44.55355" lon="5.77539">
        <ele>999.4</ele>
        <time>2020-10-24T08:39:56Z</time>
      </trkpt>
      <trkpt lat="44.55357" lon="5.77545">
        <ele>1000</ele>
        <time>2020-10-24T08:40:00Z</time>
      </trkpt>
      <trkpt lat="44.55359" lon="5.77553">
        <ele>1001.2</ele>
        <time>2020-10-24T08:40:04Z</time>
      </trkpt>
      <trkpt lat="44.55362" lon="5.77561">
        <ele>1001.2</ele>
        <time>2020-10-24T08:40:08Z</time>
      </trkpt>
      <trkpt lat="44.55365" lon="5.77568">
        <ele>1001.6</ele>
        <time>2020-10-24T08:40:12Z</time>
      </trkpt>
      <trkpt lat="44.55369" lon="5.77573">
        <ele>1002.4</ele>
        <time>2020-10-24T08:40:16Z</time>
      </trkpt>
      <trkpt lat="44.55374" lon="5.77579">
        <ele>1003</ele>
        <time>2020-10-24T08:40:20Z</time>
      </trkpt>
      <trkpt lat="44.55377" lon="5.77585">
        <ele>1003.4</ele>
        <time>2020-10-24T08:40:24Z</time>
      </trkpt>
      <trkpt lat="44.55381" lon="5.77591">
        <ele>1004.2</ele>
        <time>2020-10-24T08:40:28Z</time>
      </trkpt>
      <trkpt lat="44.55385" lon="5.77598">
        <ele>1005.8</ele>
        <time>2020-10-24T08:40:32Z</time>
      </trkpt>
      <trkpt lat="44.55388" lon="5.77604">
        <ele>1005.6</ele>
        <time>2020-10-24T08:40:36Z</time>
      </trkpt>
      <trkpt lat="44.55392" lon="5.7761">
        <ele>1006</ele>
        <time>2020-10-24T08:40:40Z</time>
      </trkpt>
      <trkpt lat="44.55395" lon="5.77618">
        <ele>1007.2</ele>
        <time>2020-10-24T08:40:44Z</time>
      </trkpt>
      <trkpt lat="44.55398" lon="5.77625">
        <ele>1008.4</ele>
        <time>2020-10-24T08:40:48Z</time>
      </trkpt>
      <trkpt lat="44.55402" lon="5.77632">
        <ele>1008.6</ele>
        <time>2020-10-24T08:40:52Z</time>
      </trkpt>
      <trkpt lat="44.55405" lon="5.7764">
        <ele>1009.2</ele>
        <time>2020-10-24T08:40:56Z</time>
      </trkpt>
      <trkpt lat="44.5541" lon="5.77647">
        <ele>1010</ele>
        <time>2020-10-24T08:41:00Z</time>
      </trkpt>
      <trkpt lat="44.55415" lon="5.77655">
        <ele>1010.4</ele>
        <time>2020-10-24T08:41:04Z</time>
      </trkpt>
      <trkpt lat="44.55419" lon="5.77662">
        <ele>1011.2</ele>
        <time>2020-10-24T08:41:08Z</time>
      </trkpt>
      <trkpt lat="44.55423" lon="5.77668">
        <ele>1012</ele>
        <time>2020-10-24T08:41:12Z</time>
      </trkpt>
      <trkpt lat="44.55428" lon="5.77675">
        <ele>1012.8</ele>
        <time>2020-10-24T08:41:16Z</time>
      </trkpt>
      <trkpt lat="44.55432" lon="5.7768">
        <ele>1013.4</ele>
        <time>2020-10-24T08:41:20Z</time>
      </trkpt>
      <trkpt lat="44.55436" lon="5.77685">
        <ele>1013.8</ele>
        <time>2020-10-24T08:41:24Z</time>
      </trkpt>
      <trkpt lat="44.55441" lon="5.77689">
        <ele>1014.6</ele>
        <time>2020-10-24T08:41:28Z</time>
      </trkpt>
      <trkpt lat="44.55446" lon="5.77693">
        <ele>1014.8</ele>
        <time>2020-10-24T08:41:32Z</time>
      </trkpt>
      <trkpt lat="44.55451" lon="5.77697">
        <ele>1015.2</ele>
        <time>2020-10-24T08:41:36Z</time>
      </trkpt>
      <trkpt lat="44.55456" lon="5.77699">
        <ele>1016</ele>
        <time>2020-10-24T08:41:40Z</time>
      </trkpt>
      <trkpt lat="44.5546" lon="5.77702">
        <ele>1016.4</ele>
        <time>2020-10-24T08:41:44Z</time>
      </trkpt>
      <trkpt lat="44.55464" lon="5.77709">
        <ele>1017.2</ele>
        <time>2020-10-24T08:41:48Z</time>
      </trkpt>
      <trkpt lat="44.55468" lon="5.77721">
        <ele>1018</ele>
        <time>2020-10-24T08:41:52Z</time>
      </trkpt>
      <trkpt lat="44.55472" lon="5.77731">
        <ele>1019</ele>
        <time>2020-10-24T08:41:56Z</time>
      </trkpt>
      <trkpt lat="44.55474" lon="5.77741">
        <ele>1020</ele>
        <time>2020-10-24T08:42:00Z</time>
      </trkpt>
      <trkpt lat="44.55476" lon="5.77751">
        <ele>1020.6</ele>
        <time>2020-10-24T08:42:04Z</time>
      </trkpt>
      <trkpt lat="44.55478" lon="5.77762">
        <ele>1020</ele>
        <time>2020-10-24T08:42:08Z</time>
      </trkpt>
      <trkpt lat="44.55479" lon="5.77772">
        <ele>1020.2</ele>
        <time>2020-10-24T08:42:12Z</time>
      </trkpt>
      <trkpt lat="44.55479" lon="5.77782">
        <ele>1020.6</ele>
        <time>2020-10-24T08:42:16Z</time>
      </trkpt>
      <trkpt lat="44.55474" lon="5.77788">
        <ele>1021</ele>
        <time>2020-10-24T08:42:20Z</time>
      </trkpt>
      <trkpt lat="44.55467" lon="5.77789">
        <ele>1021.4</ele>
        <time>2020-10-24T08:42:24Z</time>
      </trkpt>
      <trkpt lat="44.5546" lon="5.7779">
        <ele>1021.8</ele>
        <time>2020-10-24T08:42:28Z</time>
      </trkpt>
      <trkpt lat="44.55453" lon="5.7779">
        <ele>1022.8</ele>
        <time>2020-10-24T08:42:32Z</time>
      </trkpt>
      <trkpt lat="44.55446" lon="5.7779">
        <ele>1023.6</ele>
        <time>2020-10-24T08:42:36Z</time>
      </trkpt>
      <trkpt lat="44.5544" lon="5.77792">
        <ele>1024.2</ele>
        <time>2020-10-24T08:42:40Z</time>
      </trkpt>
      <trkpt lat="44.55434" lon="5.77795">
        <ele>1024.4</ele>
        <time>2020-10-24T08:42:44Z</time>
      </trkpt>
      <trkpt lat="44.55429" lon="5.77799">
        <ele>1025.2</ele>
        <time>2020-10-24T08:42:48Z</time>
      </trkpt>
      <trkpt lat="44.55425" lon="5.77803">
        <ele>1025.4</ele>
        <time>2020-10-24T08:42:52Z</time>
      </trkpt>
      <trkpt lat="44.5542" lon="5.77808">
        <ele>1025.8</ele>
        <time>2020-10-24T08:42:56Z</time>
      </trkpt>
      <trkpt lat="44.55415" lon="5.77813">
        <ele>1026.4</ele>
        <time>2020-10-24T08:43:00Z</time>
      </trkpt>
      <trkpt lat="44.55411" lon="5.77819">
        <ele>1026.8</ele>
        <time>2020-10-24T08:43:04Z</time>
      </trkpt>
      <trkpt lat="44.55408" lon="5.77826">
        <ele>1027.6</ele>
        <time>2020-10-24T08:43:08Z</time>
      </trkpt>
      <trkpt lat="44.55405" lon="5.77833">
        <ele>1028.6</ele>
        <time>2020-10-24T08:43:12Z</time>
      </trkpt>
      <trkpt lat="44.55404" lon="5.77839">
        <ele>1029.2</ele>
        <time>2020-10-24T08:43:16Z</time>
      </trkpt>
      <trkpt lat="44.55402" lon="5.77847">
        <ele>1029.8</ele>
        <time>2020-10-24T08:43:20Z</time>
      </trkpt>
      <trkpt lat="44.554" lon="5.77854">
        <ele>1030.4</ele>
        <time>2020-10-24T08:43:24Z</time>
      </trkpt>
      <trkpt lat="44.55398" lon="5.77861">
        <ele>1031</ele>
        <time>2020-10-24T08:43:28Z</time>
      </trkpt>
      <trkpt lat="44.55397" lon="5.77869">
        <ele>1032</ele>
        <time>2020-10-24T08:43:32Z</time>
      </trkpt>
      <trkpt lat="44.55396" lon="5.77876">
        <ele>1032.2</ele>
        <time>2020-10-24T08:43:36Z</time>
      </trkpt>
      <trkpt lat="44.55395" lon="5.77883">
        <ele>1033.4</ele>
        <time>2020-10-24T08:43:40Z</time>
      </trkpt>
      <trkpt lat="44.55393" lon="5.77891">
        <ele>1033.4</ele>
        <time>2020-10-24T08:43:44Z</time>
      </trkpt>
      <trkpt lat="44.55392" lon="5.77899">
        <ele>1034</ele>
        <time>2020-10-24T08:43:48Z</time>
      </trkpt>
      <trkpt lat="44.55392" lon="5.77906">
        <ele>1034.8</ele>
        <time>2020-10-24T08:43:52Z</time>
      </trkpt>
      <trkpt lat="44.55391" lon="5.77914">
        <ele>1035.2</ele>
        <time>2020-10-24T08:43:56Z</time>
      </trkpt>
      <trkpt lat="44.5539" lon="5.77921">
        <ele>1035.8</ele>
        <time>2020-10-24T08:44:00Z</time>
      </trkpt>
      <trkpt lat="44.5539" lon="5.77929">
        <ele>1036.2</ele>
        <time>2020-10-24T08:44:04Z</time>
      </trkpt>
      <trkpt lat="44.55389" lon="5.77936">
        <ele>1036.8</ele>
        <time>2020-10-24T08:44:08Z</time>
      </trkpt>
      <trkpt lat="44.5539" lon="5.77943">
        <ele>1037</ele>
        <time>2020-10-24T08:44:12Z</time>
      </trkpt>
      <trkpt lat="44.55391" lon="5.77951">
        <ele>1037.6</ele>
        <time>2020-10-24T08:44:16Z</time>
      </trkpt>
      <trkpt lat="44.55392" lon="5.77958">
        <ele>1038.2</ele>
        <time>2020-10-24T08:44:20Z</time>
      </trkpt>
      <trkpt lat="44.55393" lon="5.77966">
        <ele>1038.6</ele>
        <time>2020-10-24T08:44:24Z</time>
      </trkpt>
      <trkpt lat="44.55393" lon="5.77973">
        <ele>1039.8</ele>
        <time>2020-10-24T08:44:28Z</time>
      </trkpt>
      <trkpt lat="44.55394" lon="5.7798">
        <ele>1040.4</ele>
        <time>2020-10-24T08:44:32Z</time>
      </trkpt>
      <trkpt lat="44.55395" lon="5.77987">
        <ele>1041.4</ele>
        <time>2020-10-24T08:44:36Z</time>
      </trkpt>
      <trkpt lat="44.55397" lon="5.77995">
        <ele>1042.6</ele>
        <time>2020-10-24T08:44:40Z</time>
      </trkpt>
      <trkpt lat="44.55398" lon="5.78002">
        <ele>1042.6</ele>
        <time>2020-10-24T08:44:44Z</time>
      </trkpt>
      <trkpt lat="44.55401" lon="5.78009">
        <ele>1043.2</ele>
        <time>2020-10-24T08:44:48Z</time>
      </trkpt>
      <trkpt lat="44.55405" lon="5.78015">
        <ele>1044.4</ele>
        <time>2020-10-24T08:44:52Z</time>
      </trkpt>
      <trkpt lat="44.55409" lon="5.78021">
        <ele>1044.4</ele>
        <time>2020-10-24T08:44:56Z</time>
      </trkpt>
      <trkpt lat="44.55412" lon="5.78027">
        <ele>1044.6</ele>
        <time>2020-10-24T08:45:00Z</time>
      </trkpt>
      <trkpt lat="44.55416" lon="5.78033">
        <ele>1044.6</ele>
        <time>2020-10-24T08:45:04Z</time>
      </trkpt>
      <trkpt lat="44.55421" lon="5.78037">
        <ele>1044.8</ele>
        <time>2020-10-24T08:45:08Z</time>
      </trkpt>
      <trkpt lat="44.55425" lon="5.78041">
        <ele>1046.4</ele>
        <time>2020-10-24T08:45:12Z</time>
      </trkpt>
      <trkpt lat="44.5543" lon="5.78046">
        <ele>1047.2</ele>
        <time>2020-10-24T08:45:16Z</time>
      </trkpt>
      <trkpt lat="44.55434" lon="5.78051">
        <ele>1047.8</ele>
        <time>2020-10-24T08:45:20Z</time>
      </trkpt>
      <trkpt lat="44.55439" lon="5.78056">
        <ele>1048.4</ele>
        <time>2020-10-24T08:45:24Z</time>
      </trkpt>
      <trkpt lat="44.55443" lon="5.78061">
        <ele>1048.8</ele>
        <time>2020-10-24T08:45:28Z</time>
      </trkpt>
      <trkpt lat="44.55447" lon="5.78067">
        <ele>1048.8</ele>
        <time>2020-10-24T08:45:32Z</time>
      </trkpt>
      <trkpt lat="44.55451" lon="5.78074">
        <ele>1049.6</ele>
        <time>2020-10-24T08:45:36Z</time>
      </trkpt>
      <trkpt lat="44.55456" lon="5.78081">
        <ele>1049.8</ele>
        <time>2020-10-24T08:45:40Z</time>
      </trkpt>
      <trkpt lat="44.55461" lon="5.78088">
        <ele>1050.2</ele>
        <time>2020-10-24T08:45:44Z</time>
      </trkpt>
      <trkpt lat="44.55466" lon="5.78096">
        <ele>1051.2</ele>
        <time>2020-10-24T08:45:48Z</time>
      </trkpt>
      <trkpt lat="44.55471" lon="5.78104">
        <ele>1051.2</ele>
        <time>2020-10-24T08:45:52Z</time>
      </trkpt>
      <trkpt lat="44.55476" lon="5.78112">
        <ele>1051.4</ele>
        <time>2020-10-24T08:45:56Z</time>
      </trkpt>
      <trkpt lat="44.5548" lon="5.78121">
        <ele>1051.4</ele>
        <time>2020-10-24T08:46:00Z</time>
      </trkpt>
      <trkpt lat="44.55483" lon="5.78129">
        <ele>1051.8</ele>
        <time>2020-10-24T08:46:04Z</time>
      </trkpt>
      <trkpt lat="44.55486" lon="5.78138">
        <ele>1052.6</ele>
        <time>2020-10-24T08:46:08Z</time>
      </trkpt>
      <trkpt lat="44.55487" lon="5.78148">
        <ele>1052.6</ele>
        <time>2020-10-24T08:46:12Z</time>
      </trkpt>
      <trkpt lat="44.5549" lon="5.78155">
        <ele>1053.6</ele>
        <time>2020-10-24T08:46:16Z</time>
      </trkpt>
      <trkpt lat="44.5549" lon="5.78155">
        <ele>1053.6</ele>
        <time>2020-10-24T08:46:20Z</time>
      </trkpt>
      <trkpt lat="44.55492" lon="5.78143">
        <ele>1055.6</ele>
        <time>2020-10-24T08:52:07Z</time>
      </trkpt>
      <trkpt lat="44.55489" lon="5.78132">
        <ele>1055</ele>
        <time>2020-10-24T08:52:11Z</time>
      </trkpt>
      <trkpt lat="44.55486" lon="5.78121">
        <ele>1055.6</ele>
        <time>2020-10-24T08:52:15Z</time>
      </trkpt>
      <trkpt lat="44.55483" lon="5.78108">
        <ele>1055.4</ele>
        <time>2020-10-24T08:52:19Z</time>
      </trkpt>
      <trkpt lat="44.55481" lon="5.78097">
        <ele>1055.6</ele>
        <time>2020-10-24T08:52:23Z</time>
      </trkpt>
      <trkpt lat="44.55477" lon="5.78085">
        <ele>1056.6</ele>
        <time>2020-10-24T08:52:27Z</time>
      </trkpt>
      <trkpt lat="44.55473" lon="5.78074">
        <ele>1057</ele>
        <time>2020-10-24T08:52:31Z</time>
      </trkpt>
      <trkpt lat="44.55469" lon="5.78062">
        <ele>1056.2</ele>
        <time>2020-10-24T08:52:35Z</time>
      </trkpt>
      <trkpt lat="44.55465" lon="5.78052">
        <ele>1057.6</ele>
        <time>2020-10-24T08:52:39Z</time>
      </trkpt>
      <trkpt lat="44.55462" lon="5.78041">
        <ele>1058.4</ele>
        <time>2020-10-24T08:52:43Z</time>
      </trkpt>
      <trkpt lat="44.55458" lon="5.78032">
        <ele>1058.8</ele>
        <time>2020-10-24T08:52:47Z</time>
      </trkpt>
      <trkpt lat="44.55452" lon="5.78022">
        <ele>1058.6</ele>
        <time>2020-10-24T08:52:51Z</time>
      </trkpt>
      <trkpt lat="44.55447" lon="5.78011">
        <ele>1059.2</ele>
        <time>2020-10-24T08:52:55Z</time>
      </trkpt>
      <trkpt lat="44.55438" lon="5.78">
        <ele>1058.6</ele>
        <time>2020-10-24T08:52:59Z</time>
      </trkpt>
      <trkpt lat="44.55431" lon="5.77987">
        <ele>1060</ele>
        <time>2020-10-24T08:53:03Z</time>
      </trkpt>
      <trkpt lat="44.5543" lon="5.77976">
        <ele>1060.8</ele>
        <time>2020-10-24T08:53:07Z</time>
      </trkpt>
      <trkpt lat="44.55434" lon="5.77967">
        <ele>1060.8</ele>
        <time>2020-10-24T08:53:11Z</time>
      </trkpt>
      <trkpt lat="44.5544" lon="5.77961">
        <ele>1061</ele>
        <time>2020-10-24T08:53:15Z</time>
      </trkpt>
      <trkpt lat="44.55446" lon="5.77959">
        <ele>1061.2</ele>
        <time>2020-10-24T08:53:19Z</time>
      </trkpt>
      <trkpt lat="44.55454" lon="5.77959">
        <ele>1061.6</ele>
        <time>2020-10-24T08:53:23Z</time>
      </trkpt>
      <trkpt lat="44.55462" lon="5.77962">
        <ele>1062.2</ele>
        <time>2020-10-24T08:53:27Z</time>
      </trkpt>
      <trkpt lat="44.55469" lon="5.77967">
        <ele>1062.2</ele>
        <time>2020-10-24T08:53:31Z</time>
      </trkpt>
      <trkpt lat="44.55475" lon="5.77972">
        <ele>1062.4</ele>
        <time>2020-10-24T08:53:35Z</time>
      </trkpt>
      <trkpt lat="44.55482" lon="5.7798">
        <ele>1062.6</ele>
        <time>2020-10-24T08:53:39Z</time>
      </trkpt>
      <trkpt lat="44.55488" lon="5.77987">
        <ele>1063</ele>
        <time>2020-10-24T08:53:43Z</time>
      </trkpt>
      <trkpt lat="44.55493" lon="5.77995">
        <ele>1063.6</ele>
        <time>2020-10-24T08:53:47Z</time>
      </trkpt>
      <trkpt lat="44.55498" lon="5.78006">
        <ele>1064</ele>
        <time>2020-10-24T08:53:51Z</time>
      </trkpt>
      <trkpt lat="44.55504" lon="5.78015">
        <ele>1064.2</ele>
        <time>2020-10-24T08:53:55Z</time>
      </trkpt>
      <trkpt lat="44.55511" lon="5.78019">
        <ele>1064.6</ele>
        <time>2020-10-24T08:53:59Z</time>
      </trkpt>
      <trkpt lat="44.55518" lon="5.78023">
        <ele>1065.4</ele>
        <time>2020-10-24T08:54:03Z</time>
      </trkpt>
      <trkpt lat="44.55524" lon="5.78027">
        <ele>1065</ele>
        <time>2020-10-24T08:54:07Z</time>
      </trkpt>
      <trkpt lat="44.5553" lon="5.78025">
        <ele>1065</ele>
        <time>2020-10-24T08:54:11Z</time>
      </trkpt>
      <trkpt lat="44.55537" lon="5.78026">
        <ele>1066</ele>
        <time>2020-10-24T08:54:15Z</time>
      </trkpt>
      <trkpt lat="44.55546" lon="5.78022">
        <ele>1066.4</ele>
        <time>2020-10-24T08:54:19Z</time>
      </trkpt>
      <trkpt lat="44.55559" lon="5.78015">
        <ele>1067.2</ele>
        <time>2020-10-24T08:54:23Z</time>
      </trkpt>
      <trkpt lat="44.55569" lon="5.7801">
        <ele>1067.4</ele>
        <time>2020-10-24T08:54:27Z</time>
      </trkpt>
      <trkpt lat="44.55578" lon="5.78003">
        <ele>1068.2</ele>
        <time>2020-10-24T08:54:31Z</time>
      </trkpt>
      <trkpt lat="44.55588" lon="5.77995">
        <ele>1068</ele>
        <time>2020-10-24T08:54:35Z</time>
      </trkpt>
      <trkpt lat="44.55596" lon="5.7799">
        <ele>1068</ele>
        <time>2020-10-24T08:54:39Z</time>
      </trkpt>
      <trkpt lat="44.55606" lon="5.77992">
        <ele>1068.4</ele>
        <time>2020-10-24T08:54:43Z</time>
      </trkpt>
      <trkpt lat="44.55616" lon="5.77997">
        <ele>1068</ele>
        <time>2020-10-24T08:54:47Z</time>
      </trkpt>
      <trkpt lat="44.55627" lon="5.78004">
        <ele>1067.2</ele>
        <time>2020-10-24T08:54:51Z</time>
      </trkpt>
      <trkpt lat="44.55636" lon="5.7801">
        <ele>1067.2</ele>
        <time>2020-10-24T08:54:55Z</time>
      </trkpt>
      <trkpt lat="44.55644" lon="5.78015">
        <ele>1067.4</ele>
        <time>2020-10-24T08:54:59Z</time>
      </trkpt>
      <trkpt lat="44.55653" lon="5.7802">
        <ele>1067.2</ele>
        <time>2020-10-24T08:55:03Z</time>
      </trkpt>
      <trkpt lat="44.55666" lon="5.78024">
        <ele>1067.4</ele>
        <time>2020-10-24T08:55:07Z</time>
      </trkpt>
      <trkpt lat="44.5568" lon="5.78027">
        <ele>1066.6</ele>
        <time>2020-10-24T08:55:11Z</time>
      </trkpt>
      <trkpt lat="44.55692" lon="5.78029">
        <ele>1067.4</ele>
        <time>2020-10-24T08:55:15Z</time>
      </trkpt>
      <trkpt lat="44.55702" lon="5.7803">
        <ele>1067.2</ele>
        <time>2020-10-24T08:55:19Z</time>
      </trkpt>
      <trkpt lat="44.55714" lon="5.78034">
        <ele>1067</ele>
        <time>2020-10-24T08:55:23Z</time>
      </trkpt>
      <trkpt lat="44.55725" lon="5.7804">
        <ele>1067.2</ele>
        <time>2020-10-24T08:55:27Z</time>
      </trkpt>
      <trkpt lat="44.55736" lon="5.78047">
        <ele>1066.8</ele>
        <time>2020-10-24T08:55:31Z</time>
      </trkpt>
      <trkpt lat="44.55746" lon="5.78057">
        <ele>1067</ele>
        <time>2020-10-24T08:55:35Z</time>
      </trkpt>
      <trkpt lat="44.55755" lon="5.78068">
        <ele>1067.2</ele>
        <time>2020-10-24T08:55:39Z</time>
      </trkpt>
      <trkpt lat="44.55764" lon="5.7808">
        <ele>1067.4</ele>
        <time>2020-10-24T08:55:43Z</time>
      </trkpt>
      <trkpt lat="44.55772" lon="5.78092">
        <ele>1067.2</ele>
        <time>2020-10-24T08:55:47Z</time>
      </trkpt>
      <trkpt lat="44.55781" lon="5.78104">
        <ele>1067.8</ele>
        <time>2020-10-24T08:55:51Z</time>
      </trkpt>
      <trkpt lat="44.55788" lon="5.78117">
        <ele>1068</ele>
        <time>2020-10-24T08:55:55Z</time>
      </trkpt>
      <trkpt lat="44.55795" lon="5.78128">
        <ele>1067.8</ele>
        <time>2020-10-24T08:55:59Z</time>
      </trkpt>
      <trkpt lat="44.55805" lon="5.78139">
        <ele>1067.4</ele>
        <time>2020-10-24T08:56:03Z</time>
      </trkpt>
      <trkpt lat="44.55812" lon="5.78149">
        <ele>1067.2</ele>
        <time>2020-10-24T08:56:07Z</time>
      </trkpt>
      <trkpt lat="44.55816" lon="5.78154">
        <ele>1067.2</ele>
        <time>2020-10-24T08:56:11Z</time>
      </trkpt>
      <trkpt lat="44.55833" lon="5.78152">
        <ele>1067</ele>
        <time>2020-10-24T08:56:15Z</time>
      </trkpt>
      <trkpt lat="44.55847" lon="5.78141">
        <ele>1066.8</ele>
        <time>2020-10-24T08:56:19Z</time>
      </trkpt>
      <trkpt lat="44.55856" lon="5.78128">
        <ele>1066.4</ele>
        <time>2020-10-24T08:56:23Z</time>
      </trkpt>
      <trkpt lat="44.55861" lon="5.78113">
        <ele>1067.6</ele>
        <time>2020-10-24T08:56:27Z</time>
      </trkpt>
      <trkpt lat="44.55862" lon="5.78099">
        <ele>1067</ele>
        <time>2020-10-24T08:56:31Z</time>
      </trkpt>
      <trkpt lat="44.5587" lon="5.78083">
        <ele>1067.4</ele>
        <time>2020-10-24T08:56:35Z</time>
      </trkpt>
      <trkpt lat="44.55877" lon="5.78068">
        <ele>1066.6</ele>
        <time>2020-10-24T08:56:39Z</time>
      </trkpt>
      <trkpt lat="44.5589" lon="5.78063">
        <ele>1067</ele>
        <time>2020-10-24T08:56:43Z</time>
      </trkpt>
      <trkpt lat="44.55902" lon="5.78062">
        <ele>1067</ele>
        <time>2020-10-24T08:56:47Z</time>
      </trkpt>
      <trkpt lat="44.55914" lon="5.78062">
        <ele>1067.2</ele>
        <time>2020-10-24T08:56:51Z</time>
      </trkpt>
      <trkpt lat="44.55926" lon="5.7806">
        <ele>1067.2</ele>
        <time>2020-10-24T08:56:55Z</time>
      </trkpt>
      <trkpt lat="44.55938" lon="5.78058">
        <ele>1067</ele>
        <time>2020-10-24T08:56:59Z</time>
      </trkpt>
      <trkpt lat="44.55951" lon="5.78057">
        <ele>1067</ele>
        <time>2020-10-24T08:57:03Z</time>
      </trkpt>
      <trkpt lat="44.55964" lon="5.78062">
        <ele>1067.4</ele>
        <time>2020-10-24T08:57:07Z</time>
      </trkpt>
      <trkpt lat="44.5597" lon="5.78075">
        <ele>1067.4</ele>
        <time>2020-10-24T08:57:11Z</time>
      </trkpt>
      <trkpt lat="44.55973" lon="5.78091">
        <ele>1068.2</ele>
        <time>2020-10-24T08:57:15Z</time>
      </trkpt>
      <trkpt lat="44.55976" lon="5.78107">
        <ele>1067.8</ele>
        <time>2020-10-24T08:57:19Z</time>
      </trkpt>
      <trkpt lat="44.55979" lon="5.78125">
        <ele>1066.8</ele>
        <time>2020-10-24T08:57:23Z</time>
      </trkpt>
      <trkpt lat="44.55984" lon="5.78143">
        <ele>1067.2</ele>
        <time>2020-10-24T08:57:27Z</time>
      </trkpt>
      <trkpt lat="44.55987" lon="5.78161">
        <ele>1066.4</ele>
        <time>2020-10-24T08:57:31Z</time>
      </trkpt>
      <trkpt lat="44.55989" lon="5.78181">
        <ele>1067.4</ele>
        <time>2020-10-24T08:57:35Z</time>
      </trkpt>
      <trkpt lat="44.55989" lon="5.78199">
        <ele>1067.4</ele>
        <time>2020-10-24T08:57:39Z</time>
      </trkpt>
      <trkpt lat="44.55988" lon="5.78215">
        <ele>1066.8</ele>
        <time>2020-10-24T08:57:43Z</time>
      </trkpt>
      <trkpt lat="44.55986" lon="5.78232">
        <ele>1066.2</ele>
        <time>2020-10-24T08:57:47Z</time>
      </trkpt>
      <trkpt lat="44.55983" lon="5.78249">
        <ele>1066</ele>
        <time>2020-10-24T08:57:51Z</time>
      </trkpt>
      <trkpt lat="44.55977" lon="5.78263">
        <ele>1066.2</ele>
        <time>2020-10-24T08:57:55Z</time>
      </trkpt>
      <trkpt lat="44.5597" lon="5.78275">
        <ele>1066.2</ele>
        <time>2020-10-24T08:57:59Z</time>
      </trkpt>
      <trkpt lat="44.55964" lon="5.78289">
        <ele>1066</ele>
        <time>2020-10-24T08:58:03Z</time>
      </trkpt>
      <trkpt lat="44.55959" lon="5.78301">
        <ele>1065.4</ele>
        <time>2020-10-24T08:58:07Z</time>
      </trkpt>
      <trkpt lat="44.55954" lon="5.78315">
        <ele>1066</ele>
        <time>2020-10-24T08:58:11Z</time>
      </trkpt>
      <trkpt lat="44.55952" lon="5.78331">
        <ele>1066.2</ele>
        <time>2020-10-24T08:58:15Z</time>
      </trkpt>
      <trkpt lat="44.55951" lon="5.78347">
        <ele>1065.8</ele>
        <time>2020-10-24T08:58:19Z</time>
      </trkpt>
      <trkpt lat="44.55949" lon="5.78363">
        <ele>1066.4</ele>
        <time>2020-10-24T08:58:23Z</time>
      </trkpt>
      <trkpt lat="44.55952" lon="5.78381">
        <ele>1065.6</ele>
        <time>2020-10-24T08:58:27Z</time>
      </trkpt>
      <trkpt lat="44.55959" lon="5.78396">
        <ele>1066.4</ele>
        <time>2020-10-24T08:58:31Z</time>
      </trkpt>
      <trkpt lat="44.55969" lon="5.78399">
        <ele>1065.8</ele>
        <time>2020-10-24T08:58:35Z</time>
      </trkpt>
      <trkpt lat="44.55983" lon="5.78397">
        <ele>1066</ele>
        <time>2020-10-24T08:58:39Z</time>
      </trkpt>
      <trkpt lat="44.55995" lon="5.78396">
        <ele>1067</ele>
        <time>2020-10-24T08:58:43Z</time>
      </trkpt>
      <trkpt lat="44.56008" lon="5.78393">
        <ele>1066.4</ele>
        <time>2020-10-24T08:58:47Z</time>
      </trkpt>
      <trkpt lat="44.5602" lon="5.78392">
        <ele>1067</ele>
        <time>2020-10-24T08:58:51Z</time>
      </trkpt>
      <trkpt lat="44.56031" lon="5.78395">
        <ele>1067.4</ele>
        <time>2020-10-24T08:58:55Z</time>
      </trkpt>
      <trkpt lat="44.5604" lon="5.78406">
        <ele>1067</ele>
        <time>2020-10-24T08:58:59Z</time>
      </trkpt>
      <trkpt lat="44.56046" lon="5.7842">
        <ele>1067.2</ele>
        <time>2020-10-24T08:59:03Z</time>
      </trkpt>
      <trkpt lat="44.56052" lon="5.78434">
        <ele>1067.8</ele>
        <time>2020-10-24T08:59:07Z</time>
      </trkpt>
      <trkpt lat="44.56058" lon="5.78446">
        <ele>1068</ele>
        <time>2020-10-24T08:59:11Z</time>
      </trkpt>
      <trkpt lat="44.56064" lon="5.78459">
        <ele>1069.2</ele>
        <time>2020-10-24T08:59:15Z</time>
      </trkpt>
      <trkpt lat="44.56069" lon="5.78472">
        <ele>1068.8</ele>
        <time>2020-10-24T08:59:19Z</time>
      </trkpt>
      <trkpt lat="44.56072" lon="5.78486">
        <ele>1069.2</ele>
        <time>2020-10-24T08:59:23Z</time>
      </trkpt>
      <trkpt lat="44.56075" lon="5.785">
        <ele>1069.4</ele>
        <time>2020-10-24T08:59:27Z</time>
      </trkpt>
      <trkpt lat="44.56076" lon="5.78513">
        <ele>1070.2</ele>
        <time>2020-10-24T08:59:31Z</time>
      </trkpt>
      <trkpt lat="44.56078" lon="5.78526">
        <ele>1070.4</ele>
        <time>2020-10-24T08:59:35Z</time>
      </trkpt>
      <trkpt lat="44.5608" lon="5.7854">
        <ele>1071.6</ele>
        <time>2020-10-24T08:59:39Z</time>
      </trkpt>
      <trkpt lat="44.56082" lon="5.78552">
        <ele>1071.4</ele>
        <time>2020-10-24T08:59:43Z</time>
      </trkpt>
      <trkpt lat="44.56089" lon="5.78559">
        <ele>1071.8</ele>
        <time>2020-10-24T08:59:47Z</time>
      </trkpt>
      <trkpt lat="44.56099" lon="5.78558">
        <ele>1072</ele>
        <time>2020-10-24T08:59:51Z</time>
      </trkpt>
      <trkpt lat="44.56106" lon="5.78549">
        <ele>1072.4</ele>
        <time>2020-10-24T08:59:55Z</time>
      </trkpt>
      <trkpt lat="44.56111" lon="5.78537">
        <ele>1072.2</ele>
        <time>2020-10-24T08:59:59Z</time>
      </trkpt>
      <trkpt lat="44.56118" lon="5.78526">
        <ele>1072.6</ele>
        <time>2020-10-24T09:00:03Z</time>
      </trkpt>
      <trkpt lat="44.56125" lon="5.78514">
        <ele>1073</ele>
        <time>2020-10-24T09:00:07Z</time>
      </trkpt>
      <trkpt lat="44.56129" lon="5.78502">
        <ele>1074</ele>
        <time>2020-10-24T09:00:11Z</time>
      </trkpt>
      <trkpt lat="44.56132" lon="5.7849">
        <ele>1074.6</ele>
        <time>2020-10-24T09:00:15Z</time>
      </trkpt>
      <trkpt lat="44.56135" lon="5.78476">
        <ele>1074</ele>
        <time>2020-10-24T09:00:19Z</time>
      </trkpt>
      <trkpt lat="44.56137" lon="5.78463">
        <ele>1075.6</ele>
        <time>2020-10-24T09:00:23Z</time>
      </trkpt>
      <trkpt lat="44.5614" lon="5.78451">
        <ele>1075.2</ele>
        <time>2020-10-24T09:00:27Z</time>
      </trkpt>
      <trkpt lat="44.56144" lon="5.78439">
        <ele>1076.2</ele>
        <time>2020-10-24T09:00:31Z</time>
      </trkpt>
      <trkpt lat="44.56147" lon="5.78427">
        <ele>1076.4</ele>
        <time>2020-10-24T09:00:35Z</time>
      </trkpt>
      <trkpt lat="44.56151" lon="5.78416">
        <ele>1077</ele>
        <time>2020-10-24T09:00:39Z</time>
      </trkpt>
      <trkpt lat="44.56153" lon="5.78403">
        <ele>1077.2</ele>
        <time>2020-10-24T09:00:43Z</time>
      </trkpt>
      <trkpt lat="44.56157" lon="5.78391">
        <ele>1077.4</ele>
        <time>2020-10-24T09:00:47Z</time>
      </trkpt>
      <trkpt lat="44.56161" lon="5.78379">
        <ele>1077.4</ele>
        <time>2020-10-24T09:00:51Z</time>
      </trkpt>
      <trkpt lat="44.56164" lon="5.78367">
        <ele>1078.2</ele>
        <time>2020-10-24T09:00:55Z</time>
      </trkpt>
      <trkpt lat="44.56167" lon="5.78355">
        <ele>1077.8</ele>
        <time>2020-10-24T09:00:59Z</time>
      </trkpt>
      <trkpt lat="44.56169" lon="5.78342">
        <ele>1078.6</ele>
        <time>2020-10-24T09:01:03Z</time>
      </trkpt>
      <trkpt lat="44.56173" lon="5.7833">
        <ele>1079.4</ele>
        <time>2020-10-24T09:01:07Z</time>
      </trkpt>
      <trkpt lat="44.56177" lon="5.78317">
        <ele>1079.4</ele>
        <time>2020-10-24T09:01:11Z</time>
      </trkpt>
      <trkpt lat="44.5618" lon="5.78305">
        <ele>1079.8</ele>
        <time>2020-10-24T09:01:15Z</time>
      </trkpt>
      <trkpt lat="44.56186" lon="5.78292">
        <ele>1079.6</ele>
        <time>2020-10-24T09:01:19Z</time>
      </trkpt>
      <trkpt lat="44.56192" lon="5.78282">
        <ele>1080.4</ele>
        <time>2020-10-24T09:01:23Z</time>
      </trkpt>
      <trkpt lat="44.56198" lon="5.78272">
        <ele>1081</ele>
        <time>2020-10-24T09:01:27Z</time>
      </trkpt>
      <trkpt lat="44.56204" lon="5.78262">
        <ele>1081.6</ele>
        <time>2020-10-24T09:01:31Z</time>
      </trkpt>
      <trkpt lat="44.5621" lon="5.78254">
        <ele>1081.4</ele>
        <time>2020-10-24T09:01:35Z</time>
      </trkpt>
      <trkpt lat="44.56217" lon="5.78246">
        <ele>1081.8</ele>
        <time>2020-10-24T09:01:39Z</time>
      </trkpt>
      <trkpt lat="44.56223" lon="5.7824">
        <ele>1082.6</ele>
        <time>2020-10-24T09:01:43Z</time>
      </trkpt>
      <trkpt lat="44.5623" lon="5.78235">
        <ele>1082.8</ele>
        <time>2020-10-24T09:01:47Z</time>
      </trkpt>
      <trkpt lat="44.56237" lon="5.78237">
        <ele>1083</ele>
        <time>2020-10-24T09:01:51Z</time>
      </trkpt>
      <trkpt lat="44.56245" lon="5.78244">
        <ele>1083.8</ele>
        <time>2020-10-24T09:01:55Z</time>
      </trkpt>
      <trkpt lat="44.56249" lon="5.78254">
        <ele>1083.8</ele>
        <time>2020-10-24T09:01:59Z</time>
      </trkpt>
      <trkpt lat="44.5625" lon="5.78265">
        <ele>1084.6</ele>
        <time>2020-10-24T09:02:03Z</time>
      </trkpt>
      <trkpt lat="44.56251" lon="5.78277">
        <ele>1084.4</ele>
        <time>2020-10-24T09:02:07Z</time>
      </trkpt>
      <trkpt lat="44.56252" lon="5.78289">
        <ele>1084.6</ele>
        <time>2020-10-24T09:02:11Z</time>
      </trkpt>
      <trkpt lat="44.56254" lon="5.78302">
        <ele>1085</ele>
        <time>2020-10-24T09:02:15Z</time>
      </trkpt>
      <trkpt lat="44.56255" lon="5.78314">
        <ele>1085.6</ele>
        <time>2020-10-24T09:02:19Z</time>
      </trkpt>
      <trkpt lat="44.56256" lon="5.78327">
        <ele>1086.6</ele>
        <time>2020-10-24T09:02:23Z</time>
      </trkpt>
      <trkpt lat="44.56257" lon="5.7834">
        <ele>1087</ele>
        <time>2020-10-24T09:02:27Z</time>
      </trkpt>
      <trkpt lat="44.5626" lon="5.78352">
        <ele>1087.8</ele>
        <time>2020-10-24T09:02:31Z</time>
      </trkpt>
      <trkpt lat="44.56261" lon="5.78364">
        <ele>1087.6</ele>
        <time>2020-10-24T09:02:35Z</time>
      </trkpt>
      <trkpt lat="44.56264" lon="5.78377">
        <ele>1088.4</ele>
        <time>2020-10-24T09:02:39Z</time>
      </trkpt>
      <trkpt lat="44.56268" lon="5.78389">
        <ele>1089</ele>
        <time>2020-10-24T09:02:43Z</time>
      </trkpt>
      <trkpt lat="44.56271" lon="5.78401">
        <ele>1089.4</ele>
        <time>2020-10-24T09:02:47Z</time>
      </trkpt>
      <trkpt lat="44.56275" lon="5.78413">
        <ele>1089.8</ele>
        <time>2020-10-24T09:02:51Z</time>
      </trkpt>
      <trkpt lat="44.5628" lon="5.78423">
        <ele>1089.8</ele>
        <time>2020-10-24T09:02:55Z</time>
      </trkpt>
      <trkpt lat="44.56284" lon="5.78432">
        <ele>1090.6</ele>
        <time>2020-10-24T09:02:59Z</time>
      </trkpt>
      <trkpt lat="44.56289" lon="5.78443">
        <ele>1090.4</ele>
        <time>2020-10-24T09:03:03Z</time>
      </trkpt>
      <trkpt lat="44.56295" lon="5.78451">
        <ele>1091.4</ele>
        <time>2020-10-24T09:03:07Z</time>
      </trkpt>
      <trkpt lat="44.56301" lon="5.78459">
        <ele>1092.2</ele>
        <time>2020-10-24T09:03:11Z</time>
      </trkpt>
      <trkpt lat="44.56307" lon="5.78468">
        <ele>1092.8</ele>
        <time>2020-10-24T09:03:15Z</time>
      </trkpt>
      <trkpt lat="44.56312" lon="5.78477">
        <ele>1092.6</ele>
        <time>2020-10-24T09:03:19Z</time>
      </trkpt>
      <trkpt lat="44.56318" lon="5.78487">
        <ele>1093</ele>
        <time>2020-10-24T09:03:23Z</time>
      </trkpt>
      <trkpt lat="44.56325" lon="5.78496">
        <ele>1093.6</ele>
        <time>2020-10-24T09:03:27Z</time>
      </trkpt>
      <trkpt lat="44.56329" lon="5.78505">
        <ele>1094.4</ele>
        <time>2020-10-24T09:03:31Z</time>
      </trkpt>
      <trkpt lat="44.56334" lon="5.78514">
        <ele>1093.4</ele>
        <time>2020-10-24T09:03:35Z</time>
      </trkpt>
      <trkpt lat="44.56336" lon="5.78526">
        <ele>1094.6</ele>
        <time>2020-10-24T09:03:39Z</time>
      </trkpt>
      <trkpt lat="44.56337" lon="5.78538">
        <ele>1095.2</ele>
        <time>2020-10-24T09:03:43Z</time>
      </trkpt>
      <trkpt lat="44.56337" lon="5.78549">
        <ele>1095.4</ele>
        <time>2020-10-24T09:03:47Z</time>
      </trkpt>
      <trkpt lat="44.56341" lon="5.78559">
        <ele>1096.2</ele>
        <time>2020-10-24T09:03:51Z</time>
      </trkpt>
      <trkpt lat="44.56348" lon="5.78565">
        <ele>1096.4</ele>
        <time>2020-10-24T09:03:55Z</time>
      </trkpt>
      <trkpt lat="44.56355" lon="5.78566">
        <ele>1097.4</ele>
        <time>2020-10-24T09:03:59Z</time>
      </trkpt>
      <trkpt lat="44.56363" lon="5.78563">
        <ele>1098</ele>
        <time>2020-10-24T09:04:03Z</time>
      </trkpt>
      <trkpt lat="44.5637" lon="5.78555">
        <ele>1098.6</ele>
        <time>2020-10-24T09:04:07Z</time>
      </trkpt>
      <trkpt lat="44.56375" lon="5.78545">
        <ele>1098.4</ele>
        <time>2020-10-24T09:04:11Z</time>
      </trkpt>
      <trkpt lat="44.56376" lon="5.78536">
        <ele>1099</ele>
        <time>2020-10-24T09:04:15Z</time>
      </trkpt>
      <trkpt lat="44.56379" lon="5.78525">
        <ele>1099.4</ele>
        <time>2020-10-24T09:04:19Z</time>
      </trkpt>
      <trkpt lat="44.5638" lon="5.78514">
        <ele>1099.8</ele>
        <time>2020-10-24T09:04:23Z</time>
      </trkpt>
      <trkpt lat="44.56383" lon="5.78502">
        <ele>1100.6</ele>
        <time>2020-10-24T09:04:27Z</time>
      </trkpt>
      <trkpt lat="44.56385" lon="5.7849">
        <ele>1100.8</ele>
        <time>2020-10-24T09:04:31Z</time>
      </trkpt>
      <trkpt lat="44.56386" lon="5.78478">
        <ele>1101</ele>
        <time>2020-10-24T09:04:35Z</time>
      </trkpt>
      <trkpt lat="44.56387" lon="5.78466">
        <ele>1102.2</ele>
        <time>2020-10-24T09:04:39Z</time>
      </trkpt>
      <trkpt lat="44.56389" lon="5.78454">
        <ele>1102</ele>
        <time>2020-10-24T09:04:43Z</time>
      </trkpt>
      <trkpt lat="44.5639" lon="5.78443">
        <ele>1102.6</ele>
        <time>2020-10-24T09:04:47Z</time>
      </trkpt>
      <trkpt lat="44.5639" lon="5.7843">
        <ele>1102.4</ele>
        <time>2020-10-24T09:04:51Z</time>
      </trkpt>
      <trkpt lat="44.56393" lon="5.78418">
        <ele>1103</ele>
        <time>2020-10-24T09:04:55Z</time>
      </trkpt>
      <trkpt lat="44.56396" lon="5.78405">
        <ele>1103.2</ele>
        <time>2020-10-24T09:04:59Z</time>
      </trkpt>
      <trkpt lat="44.564" lon="5.78393">
        <ele>1103.6</ele>
        <time>2020-10-24T09:05:03Z</time>
      </trkpt>
      <trkpt lat="44.56405" lon="5.78382">
        <ele>1103.6</ele>
        <time>2020-10-24T09:05:07Z</time>
      </trkpt>
      <trkpt lat="44.56407" lon="5.7837">
        <ele>1104.4</ele>
        <time>2020-10-24T09:05:11Z</time>
      </trkpt>
      <trkpt lat="44.56412" lon="5.78358">
        <ele>1104</ele>
        <time>2020-10-24T09:05:15Z</time>
      </trkpt>
      <trkpt lat="44.56418" lon="5.78346">
        <ele>1104.4</ele>
        <time>2020-10-24T09:05:19Z</time>
      </trkpt>
      <trkpt lat="44.56425" lon="5.78333">
        <ele>1104.2</ele>
        <time>2020-10-24T09:05:23Z</time>
      </trkpt>
      <trkpt lat="44.56434" lon="5.78322">
        <ele>1104.6</ele>
        <time>2020-10-24T09:05:27Z</time>
      </trkpt>
      <trkpt lat="44.56443" lon="5.78314">
        <ele>1103.8</ele>
        <time>2020-10-24T09:05:31Z</time>
      </trkpt>
      <trkpt lat="44.56451" lon="5.78309">
        <ele>1104.2</ele>
        <time>2020-10-24T09:05:35Z</time>
      </trkpt>
      <trkpt lat="44.5646" lon="5.78306">
        <ele>1104</ele>
        <time>2020-10-24T09:05:39Z</time>
      </trkpt>
      <trkpt lat="44.56468" lon="5.78306">
        <ele>1103.2</ele>
        <time>2020-10-24T09:05:43Z</time>
      </trkpt>
      <trkpt lat="44.56479" lon="5.7831">
        <ele>1103.6</ele>
        <time>2020-10-24T09:05:47Z</time>
      </trkpt>
      <trkpt lat="44.5649" lon="5.7832">
        <ele>1103.8</ele>
        <time>2020-10-24T09:05:51Z</time>
      </trkpt>
      <trkpt lat="44.56501" lon="5.78331">
        <ele>1103.6</ele>
        <time>2020-10-24T09:05:55Z</time>
      </trkpt>
      <trkpt lat="44.56506" lon="5.78342">
        <ele>1103.8</ele>
        <time>2020-10-24T09:05:59Z</time>
      </trkpt>
      <trkpt lat="44.5651" lon="5.78352">
        <ele>1104.6</ele>
        <time>2020-10-24T09:06:03Z</time>
      </trkpt>
      <trkpt lat="44.56512" lon="5.78364">
        <ele>1104.8</ele>
        <time>2020-10-24T09:06:07Z</time>
      </trkpt>
      <trkpt lat="44.56514" lon="5.78375">
        <ele>1105</ele>
        <time>2020-10-24T09:06:11Z</time>
      </trkpt>
      <trkpt lat="44.56517" lon="5.78388">
        <ele>1106.2</ele>
        <time>2020-10-24T09:06:15Z</time>
      </trkpt>
      <trkpt lat="44.5652" lon="5.78398">
        <ele>1106.4</ele>
        <time>2020-10-24T09:06:19Z</time>
      </trkpt>
      <trkpt lat="44.56525" lon="5.78409">
        <ele>1107</ele>
        <time>2020-10-24T09:06:23Z</time>
      </trkpt>
      <trkpt lat="44.56528" lon="5.78421">
        <ele>1108</ele>
        <time>2020-10-24T09:06:27Z</time>
      </trkpt>
      <trkpt lat="44.56531" lon="5.78432">
        <ele>1107.6</ele>
        <time>2020-10-24T09:06:31Z</time>
      </trkpt>
      <trkpt lat="44.56532" lon="5.78444">
        <ele>1108.4</ele>
        <time>2020-10-24T09:06:35Z</time>
      </trkpt>
      <trkpt lat="44.56533" lon="5.78456">
        <ele>1108.6</ele>
        <time>2020-10-24T09:06:39Z</time>
      </trkpt>
      <trkpt lat="44.56535" lon="5.78468">
        <ele>1109</ele>
        <time>2020-10-24T09:06:43Z</time>
      </trkpt>
      <trkpt lat="44.56538" lon="5.78479">
        <ele>1109.6</ele>
        <time>2020-10-24T09:06:47Z</time>
      </trkpt>
      <trkpt lat="44.56539" lon="5.78491">
        <ele>1110.6</ele>
        <time>2020-10-24T09:06:51Z</time>
      </trkpt>
      <trkpt lat="44.5654" lon="5.78502">
        <ele>1111.2</ele>
        <time>2020-10-24T09:06:55Z</time>
      </trkpt>
      <trkpt lat="44.5654" lon="5.78513">
        <ele>1111</ele>
        <time>2020-10-24T09:06:59Z</time>
      </trkpt>
      <trkpt lat="44.5654" lon="5.78525">
        <ele>1112</ele>
        <time>2020-10-24T09:07:03Z</time>
      </trkpt>
      <trkpt lat="44.5654" lon="5.78535">
        <ele>1112</ele>
        <time>2020-10-24T09:07:07Z</time>
      </trkpt>
      <trkpt lat="44.5654" lon="5.78545">
        <ele>1112</ele>
        <time>2020-10-24T09:07:11Z</time>
      </trkpt>
      <trkpt lat="44.5654" lon="5.78557">
        <ele>1112.4</ele>
        <time>2020-10-24T09:07:15Z</time>
      </trkpt>
      <trkpt lat="44.56543" lon="5.78569">
        <ele>1113.2</ele>
        <time>2020-10-24T09:07:19Z</time>
      </trkpt>
      <trkpt lat="44.56549" lon="5.78577">
        <ele>1113.6</ele>
        <time>2020-10-24T09:07:23Z</time>
      </trkpt>
      <trkpt lat="44.56556" lon="5.78581">
        <ele>1114.8</ele>
        <time>2020-10-24T09:07:27Z</time>
      </trkpt>
      <trkpt lat="44.56563" lon="5.78584">
        <ele>1114.8</ele>
        <time>2020-10-24T09:07:31Z</time>
      </trkpt>
      <trkpt lat="44.5657" lon="5.78587">
        <ele>1115.6</ele>
        <time>2020-10-24T09:07:35Z</time>
      </trkpt>
      <trkpt lat="44.56578" lon="5.78591">
        <ele>1116.4</ele>
        <time>2020-10-24T09:07:39Z</time>
      </trkpt>
      <trkpt lat="44.56585" lon="5.78596">
        <ele>1116.8</ele>
        <time>2020-10-24T09:07:43Z</time>
      </trkpt>
      <trkpt lat="44.5659" lon="5.78603">
        <ele>1117.6</ele>
        <time>2020-10-24T09:07:47Z</time>
      </trkpt>
      <trkpt lat="44.56594" lon="5.78609">
        <ele>1117.6</ele>
        <time>2020-10-24T09:07:51Z</time>
      </trkpt>
      <trkpt lat="44.56597" lon="5.78617">
        <ele>1117.4</ele>
        <time>2020-10-24T09:07:55Z</time>
      </trkpt>
      <trkpt lat="44.56598" lon="5.78629">
        <ele>1118.8</ele>
        <time>2020-10-24T09:07:59Z</time>
      </trkpt>
      <trkpt lat="44.56598" lon="5.78641">
        <ele>1118.4</ele>
        <time>2020-10-24T09:08:03Z</time>
      </trkpt>
      <trkpt lat="44.56597" lon="5.78655">
        <ele>1118.4</ele>
        <time>2020-10-24T09:08:07Z</time>
      </trkpt>
      <trkpt lat="44.56594" lon="5.78668">
        <ele>1118.2</ele>
        <time>2020-10-24T09:08:11Z</time>
      </trkpt>
      <trkpt lat="44.56592" lon="5.7868">
        <ele>1119.4</ele>
        <time>2020-10-24T09:08:15Z</time>
      </trkpt>
      <trkpt lat="44.5659" lon="5.78693">
        <ele>1118.8</ele>
        <time>2020-10-24T09:08:19Z</time>
      </trkpt>
      <trkpt lat="44.56589" lon="5.78706">
        <ele>1118.8</ele>
        <time>2020-10-24T09:08:23Z</time>
      </trkpt>
      <trkpt lat="44.56591" lon="5.7872">
        <ele>1119.2</ele>
        <time>2020-10-24T09:08:27Z</time>
      </trkpt>
      <trkpt lat="44.56592" lon="5.78735">
        <ele>1119.2</ele>
        <time>2020-10-24T09:08:31Z</time>
      </trkpt>
      <trkpt lat="44.56593" lon="5.78749">
        <ele>1119.8</ele>
        <time>2020-10-24T09:08:35Z</time>
      </trkpt>
      <trkpt lat="44.56595" lon="5.78763">
        <ele>1119.6</ele>
        <time>2020-10-24T09:08:39Z</time>
      </trkpt>
      <trkpt lat="44.56599" lon="5.78777">
        <ele>1120.2</ele>
        <time>2020-10-24T09:08:43Z</time>
      </trkpt>
      <trkpt lat="44.56606" lon="5.78788">
        <ele>1120.2</ele>
        <time>2020-10-24T09:08:47Z</time>
      </trkpt>
      <trkpt lat="44.56611" lon="5.788">
        <ele>1119.8</ele>
        <time>2020-10-24T09:08:51Z</time>
      </trkpt>
      <trkpt lat="44.56621" lon="5.78809">
        <ele>1119.4</ele>
        <time>2020-10-24T09:08:55Z</time>
      </trkpt>
      <trkpt lat="44.56637" lon="5.7881">
        <ele>1119.4</ele>
        <time>2020-10-24T09:08:59Z</time>
      </trkpt>
      <trkpt lat="44.56648" lon="5.78804">
        <ele>1119.6</ele>
        <time>2020-10-24T09:09:03Z</time>
      </trkpt>
      <trkpt lat="44.5666" lon="5.78801">
        <ele>1119.6</ele>
        <time>2020-10-24T09:09:07Z</time>
      </trkpt>
      <trkpt lat="44.56671" lon="5.78811">
        <ele>1119.2</ele>
        <time>2020-10-24T09:09:11Z</time>
      </trkpt>
      <trkpt lat="44.56674" lon="5.78827">
        <ele>1119.4</ele>
        <time>2020-10-24T09:09:15Z</time>
      </trkpt>
      <trkpt lat="44.56674" lon="5.78843">
        <ele>1119.6</ele>
        <time>2020-10-24T09:09:19Z</time>
      </trkpt>
      <trkpt lat="44.56674" lon="5.78859">
        <ele>1119</ele>
        <time>2020-10-24T09:09:23Z</time>
      </trkpt>
      <trkpt lat="44.56674" lon="5.78876">
        <ele>1117.8</ele>
        <time>2020-10-24T09:09:27Z</time>
      </trkpt>
      <trkpt lat="44.56673" lon="5.78894">
        <ele>1116.8</ele>
        <time>2020-10-24T09:09:31Z</time>
      </trkpt>
      <trkpt lat="44.56672" lon="5.78912">
        <ele>1116.6</ele>
        <time>2020-10-24T09:09:35Z</time>
      </trkpt>
      <trkpt lat="44.56673" lon="5.78932">
        <ele>1115.8</ele>
        <time>2020-10-24T09:09:39Z</time>
      </trkpt>
      <trkpt lat="44.56676" lon="5.78951">
        <ele>1116.2</ele>
        <time>2020-10-24T09:09:43Z</time>
      </trkpt>
      <trkpt lat="44.56681" lon="5.78964">
        <ele>1116.4</ele>
        <time>2020-10-24T09:09:47Z</time>
      </trkpt>
      <trkpt lat="44.56686" lon="5.78978">
        <ele>1115.4</ele>
        <time>2020-10-24T09:09:51Z</time>
      </trkpt>
      <trkpt lat="44.56689" lon="5.78992">
        <ele>1114.4</ele>
        <time>2020-10-24T09:09:55Z</time>
      </trkpt>
      <trkpt lat="44.56693" lon="5.79009">
        <ele>1113.6</ele>
        <time>2020-10-24T09:09:59Z</time>
      </trkpt>
      <trkpt lat="44.567" lon="5.79024">
        <ele>1114.8</ele>
        <time>2020-10-24T09:10:03Z</time>
      </trkpt>
      <trkpt lat="44.56708" lon="5.79039">
        <ele>1113.8</ele>
        <time>2020-10-24T09:10:07Z</time>
      </trkpt>
      <trkpt lat="44.56716" lon="5.79054">
        <ele>1113.8</ele>
        <time>2020-10-24T09:10:11Z</time>
      </trkpt>
      <trkpt lat="44.56724" lon="5.79069">
        <ele>1111.8</ele>
        <time>2020-10-24T09:10:15Z</time>
      </trkpt>
      <trkpt lat="44.56733" lon="5.79084">
        <ele>1111.4</ele>
        <time>2020-10-24T09:10:19Z</time>
      </trkpt>
      <trkpt lat="44.56743" lon="5.791">
        <ele>1111</ele>
        <time>2020-10-24T09:10:23Z</time>
      </trkpt>
      <trkpt lat="44.56751" lon="5.79117">
        <ele>1109.2</ele>
        <time>2020-10-24T09:10:27Z</time>
      </trkpt>
      <trkpt lat="44.56759" lon="5.79134">
        <ele>1109.8</ele>
        <time>2020-10-24T09:10:31Z</time>
      </trkpt>
      <trkpt lat="44.56768" lon="5.79152">
        <ele>1108.8</ele>
        <time>2020-10-24T09:10:35Z</time>
      </trkpt>
      <trkpt lat="44.56775" lon="5.7917">
        <ele>1107.4</ele>
        <time>2020-10-24T09:10:39Z</time>
      </trkpt>
      <trkpt lat="44.56782" lon="5.7919">
        <ele>1106.8</ele>
        <time>2020-10-24T09:10:43Z</time>
      </trkpt>
      <trkpt lat="44.56791" lon="5.7921">
        <ele>1107</ele>
        <time>2020-10-24T09:10:47Z</time>
      </trkpt>
      <trkpt lat="44.56798" lon="5.79233">
        <ele>1105.2</ele>
        <time>2020-10-24T09:10:51Z</time>
      </trkpt>
      <trkpt lat="44.56805" lon="5.79256">
        <ele>1105</ele>
        <time>2020-10-24T09:10:55Z</time>
      </trkpt>
      <trkpt lat="44.56813" lon="5.7928">
        <ele>1104.2</ele>
        <time>2020-10-24T09:10:59Z</time>
      </trkpt>
      <trkpt lat="44.56821" lon="5.79304">
        <ele>1103.2</ele>
        <time>2020-10-24T09:11:03Z</time>
      </trkpt>
      <trkpt lat="44.56824" lon="5.79323">
        <ele>1102.6</ele>
        <time>2020-10-24T09:11:07Z</time>
      </trkpt>
      <trkpt lat="44.5682" lon="5.79335">
        <ele>1102.4</ele>
        <time>2020-10-24T09:11:11Z</time>
      </trkpt>
      <trkpt lat="44.56813" lon="5.79347">
        <ele>1101.4</ele>
        <time>2020-10-24T09:11:15Z</time>
      </trkpt>
      <trkpt lat="44.56804" lon="5.79359">
        <ele>1100.6</ele>
        <time>2020-10-24T09:11:19Z</time>
      </trkpt>
      <trkpt lat="44.56797" lon="5.79373">
        <ele>1099.8</ele>
        <time>2020-10-24T09:11:23Z</time>
      </trkpt>
      <trkpt lat="44.56789" lon="5.79385">
        <ele>1100</ele>
        <time>2020-10-24T09:11:27Z</time>
      </trkpt>
      <trkpt lat="44.5678" lon="5.79397">
        <ele>1098.8</ele>
        <time>2020-10-24T09:11:31Z</time>
      </trkpt>
      <trkpt lat="44.56776" lon="5.79414">
        <ele>1098.8</ele>
        <time>2020-10-24T09:11:35Z</time>
      </trkpt>
      <trkpt lat="44.56786" lon="5.7943">
        <ele>1099.6</ele>
        <time>2020-10-24T09:11:39Z</time>
      </trkpt>
      <trkpt lat="44.56797" lon="5.79435">
        <ele>1098.8</ele>
        <time>2020-10-24T09:11:43Z</time>
      </trkpt>
      <trkpt lat="44.56806" lon="5.79443">
        <ele>1099</ele>
        <time>2020-10-24T09:11:47Z</time>
      </trkpt>
      <trkpt lat="44.56813" lon="5.79452">
        <ele>1099</ele>
        <time>2020-10-24T09:11:51Z</time>
      </trkpt>
      <trkpt lat="44.56823" lon="5.79452">
        <ele>1099.8</ele>
        <time>2020-10-24T09:11:55Z</time>
      </trkpt>
      <trkpt lat="44.56831" lon="5.79451">
        <ele>1099.6</ele>
        <time>2020-10-24T09:11:59Z</time>
      </trkpt>
      <trkpt lat="44.56839" lon="5.79452">
        <ele>1099.2</ele>
        <time>2020-10-24T09:12:03Z</time>
      </trkpt>
      <trkpt lat="44.56851" lon="5.79461">
        <ele>1098.8</ele>
        <time>2020-10-24T09:12:07Z</time>
      </trkpt>
      <trkpt lat="44.56859" lon="5.79474">
        <ele>1099</ele>
        <time>2020-10-24T09:12:11Z</time>
      </trkpt>
      <trkpt lat="44.56865" lon="5.79489">
        <ele>1099.2</ele>
        <time>2020-10-24T09:12:15Z</time>
      </trkpt>
      <trkpt lat="44.56871" lon="5.79507">
        <ele>1098.8</ele>
        <time>2020-10-24T09:12:19Z</time>
      </trkpt>
      <trkpt lat="44.56879" lon="5.79524">
        <ele>1097.4</ele>
        <time>2020-10-24T09:12:23Z</time>
      </trkpt>
      <trkpt lat="44.56885" lon="5.79543">
        <ele>1097.2</ele>
        <time>2020-10-24T09:12:27Z</time>
      </trkpt>
      <trkpt lat="44.56891" lon="5.79565">
        <ele>1095.4</ele>
        <time>2020-10-24T09:12:31Z</time>
      </trkpt>
      <trkpt lat="44.569" lon="5.79586">
        <ele>1095.2</ele>
        <time>2020-10-24T09:12:35Z</time>
      </trkpt>
      <trkpt lat="44.56911" lon="5.79594">
        <ele>1094.8</ele>
        <time>2020-10-24T09:12:39Z</time>
      </trkpt>
      <trkpt lat="44.56916" lon="5.79582">
        <ele>1095.4</ele>
        <time>2020-10-24T09:12:43Z</time>
      </trkpt>
      <trkpt lat="44.5692" lon="5.79577">
        <ele>1096.4</ele>
        <time>2020-10-24T09:12:47Z</time>
      </trkpt>
      <trkpt lat="44.56922" lon="5.79567">
        <ele>1097.2</ele>
        <time>2020-10-24T09:12:51Z</time>
      </trkpt>
      <trkpt lat="44.56924" lon="5.79557">
        <ele>1097.6</ele>
        <time>2020-10-24T09:12:55Z</time>
      </trkpt>
      <trkpt lat="44.56926" lon="5.79544">
        <ele>1098</ele>
        <time>2020-10-24T09:12:59Z</time>
      </trkpt>
      <trkpt lat="44.56928" lon="5.79533">
        <ele>1099</ele>
        <time>2020-10-24T09:13:03Z</time>
      </trkpt>
      <trkpt lat="44.5693" lon="5.79524">
        <ele>1099.8</ele>
        <time>2020-10-24T09:13:07Z</time>
      </trkpt>
      <trkpt lat="44.56931" lon="5.79513">
        <ele>1100.4</ele>
        <time>2020-10-24T09:13:11Z</time>
      </trkpt>
      <trkpt lat="44.56932" lon="5.79503">
        <ele>1100.8</ele>
        <time>2020-10-24T09:13:15Z</time>
      </trkpt>
      <trkpt lat="44.56934" lon="5.79493">
        <ele>1101.2</ele>
        <time>2020-10-24T09:13:19Z</time>
      </trkpt>
      <trkpt lat="44.56936" lon="5.79482">
        <ele>1101.8</ele>
        <time>2020-10-24T09:13:23Z</time>
      </trkpt>
      <trkpt lat="44.56938" lon="5.79472">
        <ele>1102.6</ele>
        <time>2020-10-24T09:13:27Z</time>
      </trkpt>
      <trkpt lat="44.5694" lon="5.79459">
        <ele>1102.8</ele>
        <time>2020-10-24T09:13:31Z</time>
      </trkpt>
      <trkpt lat="44.56942" lon="5.79446">
        <ele>1102.8</ele>
        <time>2020-10-24T09:13:35Z</time>
      </trkpt>
      <trkpt lat="44.56947" lon="5.79437">
        <ele>1103.8</ele>
        <time>2020-10-24T09:13:39Z</time>
      </trkpt>
      <trkpt lat="44.56953" lon="5.79425">
        <ele>1103.8</ele>
        <time>2020-10-24T09:13:43Z</time>
      </trkpt>
      <trkpt lat="44.56958" lon="5.79414">
        <ele>1104.2</ele>
        <time>2020-10-24T09:13:47Z</time>
      </trkpt>
      <trkpt lat="44.56962" lon="5.79403">
        <ele>1104.2</ele>
        <time>2020-10-24T09:13:51Z</time>
      </trkpt>
      <trkpt lat="44.56968" lon="5.79393">
        <ele>1104.2</ele>
        <time>2020-10-24T09:13:55Z</time>
      </trkpt>
      <trkpt lat="44.56975" lon="5.79382">
        <ele>1104.6</ele>
        <time>2020-10-24T09:13:59Z</time>
      </trkpt>
      <trkpt lat="44.56979" lon="5.79367">
        <ele>1104.6</ele>
        <time>2020-10-24T09:14:03Z</time>
      </trkpt>
      <trkpt lat="44.56982" lon="5.79353">
        <ele>1105.2</ele>
        <time>2020-10-24T09:14:07Z</time>
      </trkpt>
      <trkpt lat="44.56985" lon="5.7934">
        <ele>1106</ele>
        <time>2020-10-24T09:14:11Z</time>
      </trkpt>
      <trkpt lat="44.56988" lon="5.79328">
        <ele>1107</ele>
        <time>2020-10-24T09:14:15Z</time>
      </trkpt>
      <trkpt lat="44.56992" lon="5.79316">
        <ele>1107</ele>
        <time>2020-10-24T09:14:19Z</time>
      </trkpt>
      <trkpt lat="44.56995" lon="5.79304">
        <ele>1108.4</ele>
        <time>2020-10-24T09:14:23Z</time>
      </trkpt>
      <trkpt lat="44.56998" lon="5.79292">
        <ele>1108</ele>
        <time>2020-10-24T09:14:27Z</time>
      </trkpt>
      <trkpt lat="44.57" lon="5.79279">
        <ele>1109.2</ele>
        <time>2020-10-24T09:14:31Z</time>
      </trkpt>
      <trkpt lat="44.57002" lon="5.79265">
        <ele>1109</ele>
        <time>2020-10-24T09:14:35Z</time>
      </trkpt>
      <trkpt lat="44.57001" lon="5.79252">
        <ele>1109.8</ele>
        <time>2020-10-24T09:14:39Z</time>
      </trkpt>
      <trkpt lat="44.57002" lon="5.7924">
        <ele>1110.4</ele>
        <time>2020-10-24T09:14:43Z</time>
      </trkpt>
      <trkpt lat="44.57002" lon="5.79226">
        <ele>1109.6</ele>
        <time>2020-10-24T09:14:47Z</time>
      </trkpt>
      <trkpt lat="44.57002" lon="5.79213">
        <ele>1111</ele>
        <time>2020-10-24T09:14:51Z</time>
      </trkpt>
      <trkpt lat="44.57001" lon="5.79199">
        <ele>1111.6</ele>
        <time>2020-10-24T09:14:55Z</time>
      </trkpt>
      <trkpt lat="44.57" lon="5.79185">
        <ele>1111.8</ele>
        <time>2020-10-24T09:14:59Z</time>
      </trkpt>
      <trkpt lat="44.57" lon="5.79174">
        <ele>1112.4</ele>
        <time>2020-10-24T09:15:03Z</time>
      </trkpt>
      <trkpt lat="44.57001" lon="5.79164">
        <ele>1113</ele>
        <time>2020-10-24T09:15:07Z</time>
      </trkpt>
      <trkpt lat="44.57002" lon="5.79157">
        <ele>1113.2</ele>
        <time>2020-10-24T09:15:11Z</time>
      </trkpt>
      <trkpt lat="44.57006" lon="5.79149">
        <ele>1114.2</ele>
        <time>2020-10-24T09:15:15Z</time>
      </trkpt>
      <trkpt lat="44.57012" lon="5.79126">
        <ele>1115.4</ele>
        <time>2020-10-24T09:16:48Z</time>
      </trkpt>
      <trkpt lat="44.57015" lon="5.79114">
        <ele>1115.6</ele>
        <time>2020-10-24T09:16:52Z</time>
      </trkpt>
      <trkpt lat="44.57019" lon="5.79104">
        <ele>1116.4</ele>
        <time>2020-10-24T09:16:56Z</time>
      </trkpt>
      <trkpt lat="44.57024" lon="5.79094">
        <ele>1117.2</ele>
        <time>2020-10-24T09:17:00Z</time>
      </trkpt>
      <trkpt lat="44.57029" lon="5.79082">
        <ele>1118.6</ele>
        <time>2020-10-24T09:17:04Z</time>
      </trkpt>
      <trkpt lat="44.57036" lon="5.79074">
        <ele>1118.4</ele>
        <time>2020-10-24T09:17:08Z</time>
      </trkpt>
      <trkpt lat="44.57041" lon="5.79063">
        <ele>1118.8</ele>
        <time>2020-10-24T09:17:12Z</time>
      </trkpt>
      <trkpt lat="44.57046" lon="5.79054">
        <ele>1119.4</ele>
        <time>2020-10-24T09:17:16Z</time>
      </trkpt>
      <trkpt lat="44.57053" lon="5.79044">
        <ele>1120</ele>
        <time>2020-10-24T09:17:20Z</time>
      </trkpt>
      <trkpt lat="44.57056" lon="5.79032">
        <ele>1119.8</ele>
        <time>2020-10-24T09:17:24Z</time>
      </trkpt>
      <trkpt lat="44.57064" lon="5.79026">
        <ele>1120.2</ele>
        <time>2020-10-24T09:17:28Z</time>
      </trkpt>
      <trkpt lat="44.57073" lon="5.79023">
        <ele>1120.2</ele>
        <time>2020-10-24T09:17:32Z</time>
      </trkpt>
      <trkpt lat="44.57083" lon="5.79023">
        <ele>1119.6</ele>
        <time>2020-10-24T09:17:36Z</time>
      </trkpt>
      <trkpt lat="44.57093" lon="5.79025">
        <ele>1119.2</ele>
        <time>2020-10-24T09:17:40Z</time>
      </trkpt>
      <trkpt lat="44.57103" lon="5.79028">
        <ele>1118.8</ele>
        <time>2020-10-24T09:17:44Z</time>
      </trkpt>
      <trkpt lat="44.57116" lon="5.79035">
        <ele>1118.8</ele>
        <time>2020-10-24T09:17:48Z</time>
      </trkpt>
      <trkpt lat="44.57123" lon="5.79042">
        <ele>1117.8</ele>
        <time>2020-10-24T09:17:52Z</time>
      </trkpt>
      <trkpt lat="44.57136" lon="5.79057">
        <ele>1117.8</ele>
        <time>2020-10-24T09:17:56Z</time>
      </trkpt>
      <trkpt lat="44.57148" lon="5.79069">
        <ele>1116</ele>
        <time>2020-10-24T09:18:00Z</time>
      </trkpt>
      <trkpt lat="44.57158" lon="5.79081">
        <ele>1116.4</ele>
        <time>2020-10-24T09:18:04Z</time>
      </trkpt>
      <trkpt lat="44.57167" lon="5.79096">
        <ele>1116.4</ele>
        <time>2020-10-24T09:18:08Z</time>
      </trkpt>
      <trkpt lat="44.57175" lon="5.79111">
        <ele>1115.6</ele>
        <time>2020-10-24T09:18:12Z</time>
      </trkpt>
      <trkpt lat="44.57185" lon="5.79127">
        <ele>1115.6</ele>
        <time>2020-10-24T09:18:16Z</time>
      </trkpt>
      <trkpt lat="44.572" lon="5.79142">
        <ele>1114.4</ele>
        <time>2020-10-24T09:18:20Z</time>
      </trkpt>
      <trkpt lat="44.57212" lon="5.79156">
        <ele>1112.8</ele>
        <time>2020-10-24T09:18:24Z</time>
      </trkpt>
      <trkpt lat="44.57228" lon="5.79168">
        <ele>1112.8</ele>
        <time>2020-10-24T09:18:28Z</time>
      </trkpt>
      <trkpt lat="44.57242" lon="5.79174">
        <ele>1112.2</ele>
        <time>2020-10-24T09:18:32Z</time>
      </trkpt>
      <trkpt lat="44.57255" lon="5.79184">
        <ele>1112.6</ele>
        <time>2020-10-24T09:18:36Z</time>
      </trkpt>
      <trkpt lat="44.57267" lon="5.79194">
        <ele>1112.8</ele>
        <time>2020-10-24T09:18:40Z</time>
      </trkpt>
      <trkpt lat="44.57278" lon="5.79206">
        <ele>1111.4</ele>
        <time>2020-10-24T09:18:44Z</time>
      </trkpt>
      <trkpt lat="44.57292" lon="5.79216">
        <ele>1111.8</ele>
        <time>2020-10-24T09:18:48Z</time>
      </trkpt>
      <trkpt lat="44.57308" lon="5.79227">
        <ele>1110.8</ele>
        <time>2020-10-24T09:18:52Z</time>
      </trkpt>
      <trkpt lat="44.57317" lon="5.79236">
        <ele>1111.2</ele>
        <time>2020-10-24T09:18:56Z</time>
      </trkpt>
      <trkpt lat="44.57326" lon="5.79243">
        <ele>1111</ele>
        <time>2020-10-24T09:19:00Z</time>
      </trkpt>
      <trkpt lat="44.57333" lon="5.79255">
        <ele>1110.4</ele>
        <time>2020-10-24T09:19:04Z</time>
      </trkpt>
      <trkpt lat="44.57343" lon="5.79268">
        <ele>1109.8</ele>
        <time>2020-10-24T09:19:08Z</time>
      </trkpt>
      <trkpt lat="44.57351" lon="5.79279">
        <ele>1110.2</ele>
        <time>2020-10-24T09:19:12Z</time>
      </trkpt>
      <trkpt lat="44.57358" lon="5.79293">
        <ele>1109.2</ele>
        <time>2020-10-24T09:19:16Z</time>
      </trkpt>
      <trkpt lat="44.57362" lon="5.79298">
        <ele>1109.6</ele>
        <time>2020-10-24T09:19:20Z</time>
      </trkpt>
      <trkpt lat="44.57387" lon="5.79305">
        <ele>1109</ele>
        <time>2020-10-24T09:20:24Z</time>
      </trkpt>
      <trkpt lat="44.5739" lon="5.79321">
        <ele>1107.8</ele>
        <time>2020-10-24T09:20:28Z</time>
      </trkpt>
      <trkpt lat="44.57396" lon="5.79336">
        <ele>1107.2</ele>
        <time>2020-10-24T09:20:32Z</time>
      </trkpt>
      <trkpt lat="44.57406" lon="5.79331">
        <ele>1107.8</ele>
        <time>2020-10-24T09:20:36Z</time>
      </trkpt>
      <trkpt lat="44.57414" lon="5.7932">
        <ele>1109</ele>
        <time>2020-10-24T09:20:40Z</time>
      </trkpt>
      <trkpt lat="44.57421" lon="5.79311">
        <ele>1109.8</ele>
        <time>2020-10-24T09:20:44Z</time>
      </trkpt>
      <trkpt lat="44.57426" lon="5.79301">
        <ele>1110.2</ele>
        <time>2020-10-24T09:20:48Z</time>
      </trkpt>
      <trkpt lat="44.57432" lon="5.79292">
        <ele>1110.6</ele>
        <time>2020-10-24T09:20:52Z</time>
      </trkpt>
      <trkpt lat="44.57437" lon="5.79283">
        <ele>1111.8</ele>
        <time>2020-10-24T09:20:56Z</time>
      </trkpt>
      <trkpt lat="44.5744" lon="5.79271">
        <ele>1112</ele>
        <time>2020-10-24T09:21:00Z</time>
      </trkpt>
      <trkpt lat="44.57445" lon="5.7926">
        <ele>1112.6</ele>
        <time>2020-10-24T09:21:04Z</time>
      </trkpt>
      <trkpt lat="44.57453" lon="5.7925">
        <ele>1112.8</ele>
        <time>2020-10-24T09:21:08Z</time>
      </trkpt>
      <trkpt lat="44.5746" lon="5.79241">
        <ele>1113</ele>
        <time>2020-10-24T09:21:12Z</time>
      </trkpt>
      <trkpt lat="44.57466" lon="5.79232">
        <ele>1113.4</ele>
        <time>2020-10-24T09:21:16Z</time>
      </trkpt>
      <trkpt lat="44.57474" lon="5.79224">
        <ele>1114.4</ele>
        <time>2020-10-24T09:21:20Z</time>
      </trkpt>
      <trkpt lat="44.5748" lon="5.79218">
        <ele>1114.6</ele>
        <time>2020-10-24T09:21:24Z</time>
      </trkpt>
      <trkpt lat="44.57491" lon="5.79214">
        <ele>1114.8</ele>
        <time>2020-10-24T09:21:28Z</time>
      </trkpt>
      <trkpt lat="44.57502" lon="5.79217">
        <ele>1115</ele>
        <time>2020-10-24T09:21:32Z</time>
      </trkpt>
      <trkpt lat="44.57511" lon="5.79218">
        <ele>1115.4</ele>
        <time>2020-10-24T09:21:36Z</time>
      </trkpt>
      <trkpt lat="44.5752" lon="5.7922">
        <ele>1116.4</ele>
        <time>2020-10-24T09:21:40Z</time>
      </trkpt>
      <trkpt lat="44.57525" lon="5.79213">
        <ele>1116.2</ele>
        <time>2020-10-24T09:21:44Z</time>
      </trkpt>
      <trkpt lat="44.57528" lon="5.79202">
        <ele>1116.2</ele>
        <time>2020-10-24T09:21:48Z</time>
      </trkpt>
      <trkpt lat="44.57524" lon="5.79194">
        <ele>1117.4</ele>
        <time>2020-10-24T09:21:52Z</time>
      </trkpt>
      <trkpt lat="44.57516" lon="5.79186">
        <ele>1117.2</ele>
        <time>2020-10-24T09:21:56Z</time>
      </trkpt>
      <trkpt lat="44.57507" lon="5.7918">
        <ele>1117.6</ele>
        <time>2020-10-24T09:22:00Z</time>
      </trkpt>
      <trkpt lat="44.57498" lon="5.79174">
        <ele>1118.4</ele>
        <time>2020-10-24T09:22:04Z</time>
      </trkpt>
      <trkpt lat="44.57488" lon="5.79169">
        <ele>1118.4</ele>
        <time>2020-10-24T09:22:08Z</time>
      </trkpt>
      <trkpt lat="44.57478" lon="5.79166">
        <ele>1118.4</ele>
        <time>2020-10-24T09:22:12Z</time>
      </trkpt>
      <trkpt lat="44.57468" lon="5.79165">
        <ele>1119</ele>
        <time>2020-10-24T09:22:16Z</time>
      </trkpt>
      <trkpt lat="44.57457" lon="5.79162">
        <ele>1119.2</ele>
        <time>2020-10-24T09:22:20Z</time>
      </trkpt>
      <trkpt lat="44.57447" lon="5.79158">
        <ele>1120</ele>
        <time>2020-10-24T09:22:24Z</time>
      </trkpt>
      <trkpt lat="44.57439" lon="5.79152">
        <ele>1120</ele>
        <time>2020-10-24T09:22:28Z</time>
      </trkpt>
      <trkpt lat="44.57433" lon="5.79142">
        <ele>1120.4</ele>
        <time>2020-10-24T09:22:32Z</time>
      </trkpt>
      <trkpt lat="44.57429" lon="5.79131">
        <ele>1121</ele>
        <time>2020-10-24T09:22:36Z</time>
      </trkpt>
      <trkpt lat="44.57427" lon="5.79119">
        <ele>1121.2</ele>
        <time>2020-10-24T09:22:40Z</time>
      </trkpt>
      <trkpt lat="44.57422" lon="5.79107">
        <ele>1122.4</ele>
        <time>2020-10-24T09:22:44Z</time>
      </trkpt>
      <trkpt lat="44.57416" lon="5.79098">
        <ele>1123.2</ele>
        <time>2020-10-24T09:22:48Z</time>
      </trkpt>
      <trkpt lat="44.57409" lon="5.79089">
        <ele>1123</ele>
        <time>2020-10-24T09:22:52Z</time>
      </trkpt>
      <trkpt lat="44.57402" lon="5.79081">
        <ele>1124.6</ele>
        <time>2020-10-24T09:22:56Z</time>
      </trkpt>
      <trkpt lat="44.57395" lon="5.79072">
        <ele>1125.2</ele>
        <time>2020-10-24T09:23:00Z</time>
      </trkpt>
      <trkpt lat="44.57388" lon="5.79064">
        <ele>1125</ele>
        <time>2020-10-24T09:23:04Z</time>
      </trkpt>
      <trkpt lat="44.5738" lon="5.79054">
        <ele>1126</ele>
        <time>2020-10-24T09:23:08Z</time>
      </trkpt>
      <trkpt lat="44.57373" lon="5.79044">
        <ele>1126.2</ele>
        <time>2020-10-24T09:23:12Z</time>
      </trkpt>
      <trkpt lat="44.57368" lon="5.79033">
        <ele>1127</ele>
        <time>2020-10-24T09:23:16Z</time>
      </trkpt>
      <trkpt lat="44.57363" lon="5.79021">
        <ele>1127.6</ele>
        <time>2020-10-24T09:23:20Z</time>
      </trkpt>
      <trkpt lat="44.57359" lon="5.79008">
        <ele>1128</ele>
        <time>2020-10-24T09:23:24Z</time>
      </trkpt>
      <trkpt lat="44.57354" lon="5.78995">
        <ele>1128</ele>
        <time>2020-10-24T09:23:28Z</time>
      </trkpt>
      <trkpt lat="44.57347" lon="5.78983">
        <ele>1128.8</ele>
        <time>2020-10-24T09:23:32Z</time>
      </trkpt>
      <trkpt lat="44.57341" lon="5.78971">
        <ele>1129</ele>
        <time>2020-10-24T09:23:36Z</time>
      </trkpt>
      <trkpt lat="44.57337" lon="5.78961">
        <ele>1130.4</ele>
        <time>2020-10-24T09:23:40Z</time>
      </trkpt>
      <trkpt lat="44.57335" lon="5.7895">
        <ele>1131.2</ele>
        <time>2020-10-24T09:23:44Z</time>
      </trkpt>
      <trkpt lat="44.57335" lon="5.78936">
        <ele>1132</ele>
        <time>2020-10-24T09:23:48Z</time>
      </trkpt>
      <trkpt lat="44.57336" lon="5.78923">
        <ele>1132.6</ele>
        <time>2020-10-24T09:23:52Z</time>
      </trkpt>
      <trkpt lat="44.5734" lon="5.78912">
        <ele>1133.6</ele>
        <time>2020-10-24T09:23:56Z</time>
      </trkpt>
      <trkpt lat="44.57343" lon="5.789">
        <ele>1133.8</ele>
        <time>2020-10-24T09:24:00Z</time>
      </trkpt>
      <trkpt lat="44.57346" lon="5.78888">
        <ele>1134.4</ele>
        <time>2020-10-24T09:24:04Z</time>
      </trkpt>
      <trkpt lat="44.57349" lon="5.78876">
        <ele>1135.6</ele>
        <time>2020-10-24T09:24:08Z</time>
      </trkpt>
      <trkpt lat="44.57351" lon="5.78863">
        <ele>1136.2</ele>
        <time>2020-10-24T09:24:12Z</time>
      </trkpt>
      <trkpt lat="44.57356" lon="5.78852">
        <ele>1136.2</ele>
        <time>2020-10-24T09:24:16Z</time>
      </trkpt>
      <trkpt lat="44.57361" lon="5.78841">
        <ele>1137.2</ele>
        <time>2020-10-24T09:24:20Z</time>
      </trkpt>
      <trkpt lat="44.57365" lon="5.78829">
        <ele>1137.4</ele>
        <time>2020-10-24T09:24:24Z</time>
      </trkpt>
      <trkpt lat="44.57368" lon="5.78816">
        <ele>1139</ele>
        <time>2020-10-24T09:24:28Z</time>
      </trkpt>
      <trkpt lat="44.57369" lon="5.78805">
        <ele>1138.8</ele>
        <time>2020-10-24T09:24:32Z</time>
      </trkpt>
      <trkpt lat="44.57372" lon="5.78795">
        <ele>1139.6</ele>
        <time>2020-10-24T09:24:36Z</time>
      </trkpt>
      <trkpt lat="44.57372" lon="5.78782">
        <ele>1139.6</ele>
        <time>2020-10-24T09:24:40Z</time>
      </trkpt>
      <trkpt lat="44.57375" lon="5.78771">
        <ele>1140.4</ele>
        <time>2020-10-24T09:24:44Z</time>
      </trkpt>
      <trkpt lat="44.57379" lon="5.78759">
        <ele>1141.2</ele>
        <time>2020-10-24T09:24:48Z</time>
      </trkpt>
      <trkpt lat="44.57383" lon="5.78751">
        <ele>1141.6</ele>
        <time>2020-10-24T09:24:52Z</time>
      </trkpt>
      <trkpt lat="44.57388" lon="5.78749">
        <ele>1142</ele>
        <time>2020-10-24T09:24:56Z</time>
      </trkpt>
      <trkpt lat="44.57385" lon="5.78755">
        <ele>1143.4</ele>
        <time>2020-10-24T09:27:35Z</time>
      </trkpt>
      <trkpt lat="44.57382" lon="5.78764">
        <ele>1144</ele>
        <time>2020-10-24T09:27:39Z</time>
      </trkpt>
      <trkpt lat="44.57381" lon="5.78773">
        <ele>1144.6</ele>
        <time>2020-10-24T09:27:43Z</time>
      </trkpt>
      <trkpt lat="44.5738" lon="5.78782">
        <ele>1144.8</ele>
        <time>2020-10-24T09:27:47Z</time>
      </trkpt>
      <trkpt lat="44.57381" lon="5.78792">
        <ele>1145.6</ele>
        <time>2020-10-24T09:27:51Z</time>
      </trkpt>
      <trkpt lat="44.57382" lon="5.78803">
        <ele>1146.6</ele>
        <time>2020-10-24T09:27:55Z</time>
      </trkpt>
      <trkpt lat="44.57383" lon="5.78813">
        <ele>1147.4</ele>
        <time>2020-10-24T09:27:59Z</time>
      </trkpt>
      <trkpt lat="44.57381" lon="5.78824">
        <ele>1148.2</ele>
        <time>2020-10-24T09:28:03Z</time>
      </trkpt>
      <trkpt lat="44.57381" lon="5.78834">
        <ele>1148.4</ele>
        <time>2020-10-24T09:28:07Z</time>
      </trkpt>
      <trkpt lat="44.5738" lon="5.78845">
        <ele>1148.8</ele>
        <time>2020-10-24T09:28:11Z</time>
      </trkpt>
      <trkpt lat="44.57378" lon="5.78856">
        <ele>1149.6</ele>
        <time>2020-10-24T09:28:15Z</time>
      </trkpt>
      <trkpt lat="44.57376" lon="5.78867">
        <ele>1150.4</ele>
        <time>2020-10-24T09:28:19Z</time>
      </trkpt>
      <trkpt lat="44.57375" lon="5.78878">
        <ele>1151.4</ele>
        <time>2020-10-24T09:28:23Z</time>
      </trkpt>
      <trkpt lat="44.57375" lon="5.78889">
        <ele>1151.6</ele>
        <time>2020-10-24T09:28:27Z</time>
      </trkpt>
      <trkpt lat="44.57374" lon="5.78899">
        <ele>1152.2</ele>
        <time>2020-10-24T09:28:31Z</time>
      </trkpt>
      <trkpt lat="44.57374" lon="5.7891">
        <ele>1152.8</ele>
        <time>2020-10-24T09:28:35Z</time>
      </trkpt>
      <trkpt lat="44.57374" lon="5.78921">
        <ele>1154</ele>
        <time>2020-10-24T09:28:39Z</time>
      </trkpt>
      <trkpt lat="44.57374" lon="5.78932">
        <ele>1154</ele>
        <time>2020-10-24T09:28:43Z</time>
      </trkpt>
      <trkpt lat="44.57375" lon="5.78943">
        <ele>1154.4</ele>
        <time>2020-10-24T09:28:47Z</time>
      </trkpt>
      <trkpt lat="44.57379" lon="5.78954">
        <ele>1155</ele>
        <time>2020-10-24T09:28:51Z</time>
      </trkpt>
      <trkpt lat="44.57384" lon="5.78962">
        <ele>1156.4</ele>
        <time>2020-10-24T09:28:55Z</time>
      </trkpt>
      <trkpt lat="44.57388" lon="5.7897">
        <ele>1157</ele>
        <time>2020-10-24T09:28:59Z</time>
      </trkpt>
      <trkpt lat="44.57392" lon="5.7898">
        <ele>1157.8</ele>
        <time>2020-10-24T09:29:03Z</time>
      </trkpt>
      <trkpt lat="44.57397" lon="5.78989">
        <ele>1158.4</ele>
        <time>2020-10-24T09:29:07Z</time>
      </trkpt>
      <trkpt lat="44.57403" lon="5.78999">
        <ele>1159.6</ele>
        <time>2020-10-24T09:29:11Z</time>
      </trkpt>
      <trkpt lat="44.57409" lon="5.79007">
        <ele>1159.2</ele>
        <time>2020-10-24T09:29:15Z</time>
      </trkpt>
      <trkpt lat="44.57416" lon="5.79015">
        <ele>1160</ele>
        <time>2020-10-24T09:29:19Z</time>
      </trkpt>
      <trkpt lat="44.57423" lon="5.79021">
        <ele>1160.6</ele>
        <time>2020-10-24T09:29:23Z</time>
      </trkpt>
      <trkpt lat="44.57431" lon="5.79026">
        <ele>1161.6</ele>
        <time>2020-10-24T09:29:27Z</time>
      </trkpt>
      <trkpt lat="44.57438" lon="5.79031">
        <ele>1162.2</ele>
        <time>2020-10-24T09:29:31Z</time>
      </trkpt>
      <trkpt lat="44.57444" lon="5.79037">
        <ele>1163</ele>
        <time>2020-10-24T09:29:35Z</time>
      </trkpt>
      <trkpt lat="44.57451" lon="5.79043">
        <ele>1163.8</ele>
        <time>2020-10-24T09:29:39Z</time>
      </trkpt>
      <trkpt lat="44.57458" lon="5.79049">
        <ele>1164</ele>
        <time>2020-10-24T09:29:43Z</time>
      </trkpt>
      <trkpt lat="44.57464" lon="5.79055">
        <ele>1165.2</ele>
        <time>2020-10-24T09:29:47Z</time>
      </trkpt>
      <trkpt lat="44.57472" lon="5.79063">
        <ele>1166</ele>
        <time>2020-10-24T09:29:51Z</time>
      </trkpt>
      <trkpt lat="44.5748" lon="5.79069">
        <ele>1166.2</ele>
        <time>2020-10-24T09:29:55Z</time>
      </trkpt>
      <trkpt lat="44.57488" lon="5.79072">
        <ele>1167</ele>
        <time>2020-10-24T09:29:59Z</time>
      </trkpt>
      <trkpt lat="44.57496" lon="5.79073">
        <ele>1167.4</ele>
        <time>2020-10-24T09:30:03Z</time>
      </trkpt>
      <trkpt lat="44.57503" lon="5.79072">
        <ele>1168</ele>
        <time>2020-10-24T09:30:07Z</time>
      </trkpt>
      <trkpt lat="44.57511" lon="5.79073">
        <ele>1168.6</ele>
        <time>2020-10-24T09:30:11Z</time>
      </trkpt>
      <trkpt lat="44.57518" lon="5.79074">
        <ele>1169.4</ele>
        <time>2020-10-24T09:30:15Z</time>
      </trkpt>
      <trkpt lat="44.57525" lon="5.79074">
        <ele>1170</ele>
        <time>2020-10-24T09:30:19Z</time>
      </trkpt>
      <trkpt lat="44.57533" lon="5.79075">
        <ele>1171.2</ele>
        <time>2020-10-24T09:30:23Z</time>
      </trkpt>
      <trkpt lat="44.5754" lon="5.79076">
        <ele>1171.6</ele>
        <time>2020-10-24T09:30:27Z</time>
      </trkpt>
      <trkpt lat="44.57546" lon="5.79078">
        <ele>1172.4</ele>
        <time>2020-10-24T09:30:31Z</time>
      </trkpt>
      <trkpt lat="44.57552" lon="5.79079">
        <ele>1173.4</ele>
        <time>2020-10-24T09:30:35Z</time>
      </trkpt>
      <trkpt lat="44.57558" lon="5.79081">
        <ele>1174</ele>
        <time>2020-10-24T09:30:39Z</time>
      </trkpt>
      <trkpt lat="44.57565" lon="5.79083">
        <ele>1174.8</ele>
        <time>2020-10-24T09:30:43Z</time>
      </trkpt>
      <trkpt lat="44.57572" lon="5.79087">
        <ele>1175.4</ele>
        <time>2020-10-24T09:30:47Z</time>
      </trkpt>
      <trkpt lat="44.57579" lon="5.79089">
        <ele>1176.8</ele>
        <time>2020-10-24T09:30:51Z</time>
      </trkpt>
      <trkpt lat="44.57586" lon="5.79091">
        <ele>1176.6</ele>
        <time>2020-10-24T09:30:55Z</time>
      </trkpt>
      <trkpt lat="44.57592" lon="5.79093">
        <ele>1178</ele>
        <time>2020-10-24T09:30:59Z</time>
      </trkpt>
      <trkpt lat="44.57599" lon="5.79095">
        <ele>1178.8</ele>
        <time>2020-10-24T09:31:03Z</time>
      </trkpt>
      <trkpt lat="44.57606" lon="5.79095">
        <ele>1178.2</ele>
        <time>2020-10-24T09:31:07Z</time>
      </trkpt>
      <trkpt lat="44.57612" lon="5.79096">
        <ele>1179.8</ele>
        <time>2020-10-24T09:31:11Z</time>
      </trkpt>
      <trkpt lat="44.57619" lon="5.79097">
        <ele>1180</ele>
        <time>2020-10-24T09:31:15Z</time>
      </trkpt>
      <trkpt lat="44.57626" lon="5.79098">
        <ele>1181.8</ele>
        <time>2020-10-24T09:31:19Z</time>
      </trkpt>
      <trkpt lat="44.57633" lon="5.79099">
        <ele>1182.4</ele>
        <time>2020-10-24T09:31:23Z</time>
      </trkpt>
      <trkpt lat="44.57641" lon="5.79101">
        <ele>1182.6</ele>
        <time>2020-10-24T09:31:27Z</time>
      </trkpt>
      <trkpt lat="44.57648" lon="5.79102">
        <ele>1183.6</ele>
        <time>2020-10-24T09:31:31Z</time>
      </trkpt>
      <trkpt lat="44.57655" lon="5.79104">
        <ele>1184.2</ele>
        <time>2020-10-24T09:31:35Z</time>
      </trkpt>
      <trkpt lat="44.57661" lon="5.79107">
        <ele>1184.8</ele>
        <time>2020-10-24T09:31:39Z</time>
      </trkpt>
      <trkpt lat="44.57667" lon="5.7911">
        <ele>1185.2</ele>
        <time>2020-10-24T09:31:43Z</time>
      </trkpt>
      <trkpt lat="44.57674" lon="5.79113">
        <ele>1186.4</ele>
        <time>2020-10-24T09:31:47Z</time>
      </trkpt>
      <trkpt lat="44.5768" lon="5.79118">
        <ele>1186.8</ele>
        <time>2020-10-24T09:31:51Z</time>
      </trkpt>
      <trkpt lat="44.57688" lon="5.79124">
        <ele>1188</ele>
        <time>2020-10-24T09:31:55Z</time>
      </trkpt>
      <trkpt lat="44.57696" lon="5.7913">
        <ele>1188.4</ele>
        <time>2020-10-24T09:31:59Z</time>
      </trkpt>
      <trkpt lat="44.57702" lon="5.79136">
        <ele>1188.6</ele>
        <time>2020-10-24T09:32:03Z</time>
      </trkpt>
      <trkpt lat="44.57708" lon="5.7914">
        <ele>1189.2</ele>
        <time>2020-10-24T09:32:07Z</time>
      </trkpt>
      <trkpt lat="44.57715" lon="5.79146">
        <ele>1190.4</ele>
        <time>2020-10-24T09:32:11Z</time>
      </trkpt>
      <trkpt lat="44.57722" lon="5.79153">
        <ele>1191.2</ele>
        <time>2020-10-24T09:32:15Z</time>
      </trkpt>
      <trkpt lat="44.57728" lon="5.7916">
        <ele>1191</ele>
        <time>2020-10-24T09:32:19Z</time>
      </trkpt>
      <trkpt lat="44.57733" lon="5.79168">
        <ele>1192.2</ele>
        <time>2020-10-24T09:32:23Z</time>
      </trkpt>
      <trkpt lat="44.57737" lon="5.79175">
        <ele>1193.4</ele>
        <time>2020-10-24T09:32:27Z</time>
      </trkpt>
      <trkpt lat="44.5774" lon="5.79182">
        <ele>1194.4</ele>
        <time>2020-10-24T09:32:31Z</time>
      </trkpt>
      <trkpt lat="44.57744" lon="5.7919">
        <ele>1194.4</ele>
        <time>2020-10-24T09:32:35Z</time>
      </trkpt>
      <trkpt lat="44.57748" lon="5.79197">
        <ele>1195.2</ele>
        <time>2020-10-24T09:32:39Z</time>
      </trkpt>
      <trkpt lat="44.57753" lon="5.79206">
        <ele>1196.4</ele>
        <time>2020-10-24T09:32:43Z</time>
      </trkpt>
      <trkpt lat="44.57758" lon="5.79213">
        <ele>1197.2</ele>
        <time>2020-10-24T09:32:47Z</time>
      </trkpt>
      <trkpt lat="44.57762" lon="5.7922">
        <ele>1197.8</ele>
        <time>2020-10-24T09:32:51Z</time>
      </trkpt>
      <trkpt lat="44.57766" lon="5.79227">
        <ele>1198.8</ele>
        <time>2020-10-24T09:32:55Z</time>
      </trkpt>
      <trkpt lat="44.57771" lon="5.79233">
        <ele>1199.4</ele>
        <time>2020-10-24T09:32:59Z</time>
      </trkpt>
      <trkpt lat="44.57776" lon="5.79239">
        <ele>1200.2</ele>
        <time>2020-10-24T09:33:03Z</time>
      </trkpt>
      <trkpt lat="44.5778" lon="5.79247">
        <ele>1201.2</ele>
        <time>2020-10-24T09:33:07Z</time>
      </trkpt>
      <trkpt lat="44.57785" lon="5.79252">
        <ele>1201.6</ele>
        <time>2020-10-24T09:33:11Z</time>
      </trkpt>
      <trkpt lat="44.5779" lon="5.79258">
        <ele>1202.2</ele>
        <time>2020-10-24T09:33:15Z</time>
      </trkpt>
      <trkpt lat="44.57792" lon="5.79267">
        <ele>1203</ele>
        <time>2020-10-24T09:33:19Z</time>
      </trkpt>
      <trkpt lat="44.57796" lon="5.79274">
        <ele>1203.6</ele>
        <time>2020-10-24T09:33:23Z</time>
      </trkpt>
      <trkpt lat="44.57799" lon="5.79282">
        <ele>1204.4</ele>
        <time>2020-10-24T09:33:27Z</time>
      </trkpt>
      <trkpt lat="44.57803" lon="5.7929">
        <ele>1205</ele>
        <time>2020-10-24T09:33:31Z</time>
      </trkpt>
      <trkpt lat="44.57807" lon="5.79296">
        <ele>1206.6</ele>
        <time>2020-10-24T09:33:35Z</time>
      </trkpt>
      <trkpt lat="44.57812" lon="5.79304">
        <ele>1207.2</ele>
        <time>2020-10-24T09:33:39Z</time>
      </trkpt>
      <trkpt lat="44.57817" lon="5.79311">
        <ele>1207</ele>
        <time>2020-10-24T09:33:43Z</time>
      </trkpt>
      <trkpt lat="44.57822" lon="5.79317">
        <ele>1207.6</ele>
        <time>2020-10-24T09:33:47Z</time>
      </trkpt>
      <trkpt lat="44.57827" lon="5.79321">
        <ele>1208.6</ele>
        <time>2020-10-24T09:33:51Z</time>
      </trkpt>
      <trkpt lat="44.57833" lon="5.79325">
        <ele>1209.4</ele>
        <time>2020-10-24T09:33:55Z</time>
      </trkpt>
      <trkpt lat="44.57838" lon="5.79328">
        <ele>1209.6</ele>
        <time>2020-10-24T09:33:59Z</time>
      </trkpt>
      <trkpt lat="44.57844" lon="5.79332">
        <ele>1210.6</ele>
        <time>2020-10-24T09:34:03Z</time>
      </trkpt>
      <trkpt lat="44.5785" lon="5.79335">
        <ele>1211.4</ele>
        <time>2020-10-24T09:34:07Z</time>
      </trkpt>
      <trkpt lat="44.57857" lon="5.7934">
        <ele>1212.2</ele>
        <time>2020-10-24T09:34:11Z</time>
      </trkpt>
      <trkpt lat="44.57864" lon="5.79345">
        <ele>1213.2</ele>
        <time>2020-10-24T09:34:15Z</time>
      </trkpt>
      <trkpt lat="44.57869" lon="5.79352">
        <ele>1213.8</ele>
        <time>2020-10-24T09:34:19Z</time>
      </trkpt>
      <trkpt lat="44.57875" lon="5.79359">
        <ele>1214.2</ele>
        <time>2020-10-24T09:34:23Z</time>
      </trkpt>
      <trkpt lat="44.5788" lon="5.79367">
        <ele>1215.2</ele>
        <time>2020-10-24T09:34:27Z</time>
      </trkpt>
      <trkpt lat="44.57884" lon="5.79374">
        <ele>1216.2</ele>
        <time>2020-10-24T09:34:31Z</time>
      </trkpt>
      <trkpt lat="44.57888" lon="5.79383">
        <ele>1216.4</ele>
        <time>2020-10-24T09:34:35Z</time>
      </trkpt>
      <trkpt lat="44.57892" lon="5.79391">
        <ele>1217.2</ele>
        <time>2020-10-24T09:34:39Z</time>
      </trkpt>
      <trkpt lat="44.57893" lon="5.79398">
        <ele>1217.6</ele>
        <time>2020-10-24T09:34:43Z</time>
      </trkpt>
      <trkpt lat="44.57892" lon="5.79406">
        <ele>1217.2</ele>
        <time>2020-10-24T09:34:47Z</time>
      </trkpt>
      <trkpt lat="44.57888" lon="5.79413">
        <ele>1217.2</ele>
        <time>2020-10-24T09:34:51Z</time>
      </trkpt>
      <trkpt lat="44.57881" lon="5.7942">
        <ele>1217.6</ele>
        <time>2020-10-24T09:34:55Z</time>
      </trkpt>
      <trkpt lat="44.57874" lon="5.79423">
        <ele>1218</ele>
        <time>2020-10-24T09:34:59Z</time>
      </trkpt>
      <trkpt lat="44.57867" lon="5.79428">
        <ele>1218.8</ele>
        <time>2020-10-24T09:35:03Z</time>
      </trkpt>
      <trkpt lat="44.57863" lon="5.79435">
        <ele>1219.8</ele>
        <time>2020-10-24T09:35:07Z</time>
      </trkpt>
      <trkpt lat="44.57862" lon="5.79443">
        <ele>1220.8</ele>
        <time>2020-10-24T09:35:11Z</time>
      </trkpt>
      <trkpt lat="44.57863" lon="5.79451">
        <ele>1222</ele>
        <time>2020-10-24T09:35:15Z</time>
      </trkpt>
      <trkpt lat="44.57865" lon="5.79459">
        <ele>1221.4</ele>
        <time>2020-10-24T09:35:19Z</time>
      </trkpt>
      <trkpt lat="44.57869" lon="5.79467">
        <ele>1223.4</ele>
        <time>2020-10-24T09:35:23Z</time>
      </trkpt>
      <trkpt lat="44.57873" lon="5.79476">
        <ele>1223.4</ele>
        <time>2020-10-24T09:35:27Z</time>
      </trkpt>
      <trkpt lat="44.57876" lon="5.79485">
        <ele>1223.8</ele>
        <time>2020-10-24T09:35:31Z</time>
      </trkpt>
      <trkpt lat="44.57878" lon="5.79495">
        <ele>1225</ele>
        <time>2020-10-24T09:35:35Z</time>
      </trkpt>
      <trkpt lat="44.57876" lon="5.79502">
        <ele>1226</ele>
        <time>2020-10-24T09:35:39Z</time>
      </trkpt>
      <trkpt lat="44.57871" lon="5.79508">
        <ele>1226</ele>
        <time>2020-10-24T09:35:43Z</time>
      </trkpt>
      <trkpt lat="44.57864" lon="5.79511">
        <ele>1227.6</ele>
        <time>2020-10-24T09:35:47Z</time>
      </trkpt>
      <trkpt lat="44.57858" lon="5.79509">
        <ele>1228</ele>
        <time>2020-10-24T09:35:51Z</time>
      </trkpt>
      <trkpt lat="44.57852" lon="5.79505">
        <ele>1228.4</ele>
        <time>2020-10-24T09:35:55Z</time>
      </trkpt>
      <trkpt lat="44.57846" lon="5.79501">
        <ele>1229.2</ele>
        <time>2020-10-24T09:35:59Z</time>
      </trkpt>
      <trkpt lat="44.57839" lon="5.795">
        <ele>1229</ele>
        <time>2020-10-24T09:36:03Z</time>
      </trkpt>
      <trkpt lat="44.57832" lon="5.79499">
        <ele>1229.2</ele>
        <time>2020-10-24T09:36:07Z</time>
      </trkpt>
      <trkpt lat="44.57825" lon="5.79504">
        <ele>1229.8</ele>
        <time>2020-10-24T09:36:11Z</time>
      </trkpt>
      <trkpt lat="44.57823" lon="5.79512">
        <ele>1230.2</ele>
        <time>2020-10-24T09:36:15Z</time>
      </trkpt>
      <trkpt lat="44.57824" lon="5.79519">
        <ele>1231.2</ele>
        <time>2020-10-24T09:36:19Z</time>
      </trkpt>
      <trkpt lat="44.57828" lon="5.79523">
        <ele>1231.6</ele>
        <time>2020-10-24T09:36:23Z</time>
      </trkpt>
      <trkpt lat="44.57833" lon="5.79525">
        <ele>1232.4</ele>
        <time>2020-10-24T09:36:27Z</time>
      </trkpt>
      <trkpt lat="44.57839" lon="5.79524">
        <ele>1232.6</ele>
        <time>2020-10-24T09:36:31Z</time>
      </trkpt>
      <trkpt lat="44.57845" lon="5.79525">
        <ele>1233.4</ele>
        <time>2020-10-24T09:36:35Z</time>
      </trkpt>
      <trkpt lat="44.57851" lon="5.79529">
        <ele>1234.2</ele>
        <time>2020-10-24T09:36:39Z</time>
      </trkpt>
      <trkpt lat="44.57856" lon="5.79534">
        <ele>1234.8</ele>
        <time>2020-10-24T09:36:43Z</time>
      </trkpt>
      <trkpt lat="44.57862" lon="5.79539">
        <ele>1235.8</ele>
        <time>2020-10-24T09:36:47Z</time>
      </trkpt>
      <trkpt lat="44.57867" lon="5.79546">
        <ele>1236.2</ele>
        <time>2020-10-24T09:36:51Z</time>
      </trkpt>
      <trkpt lat="44.57872" lon="5.79552">
        <ele>1236.2</ele>
        <time>2020-10-24T09:36:55Z</time>
      </trkpt>
      <trkpt lat="44.57877" lon="5.79552">
        <ele>1237</ele>
        <time>2020-10-24T09:36:59Z</time>
      </trkpt>
      <trkpt lat="44.57884" lon="5.79552">
        <ele>1238.2</ele>
        <time>2020-10-24T09:37:03Z</time>
      </trkpt>
      <trkpt lat="44.57889" lon="5.79548">
        <ele>1239.2</ele>
        <time>2020-10-24T09:37:07Z</time>
      </trkpt>
      <trkpt lat="44.57895" lon="5.79543">
        <ele>1239.6</ele>
        <time>2020-10-24T09:37:11Z</time>
      </trkpt>
      <trkpt lat="44.57902" lon="5.79539">
        <ele>1239.6</ele>
        <time>2020-10-24T09:37:15Z</time>
      </trkpt>
      <trkpt lat="44.57909" lon="5.79537">
        <ele>1240.4</ele>
        <time>2020-10-24T09:37:19Z</time>
      </trkpt>
      <trkpt lat="44.57917" lon="5.79535">
        <ele>1241</ele>
        <time>2020-10-24T09:37:23Z</time>
      </trkpt>
      <trkpt lat="44.57922" lon="5.7953">
        <ele>1241.6</ele>
        <time>2020-10-24T09:37:27Z</time>
      </trkpt>
      <trkpt lat="44.57928" lon="5.79525">
        <ele>1242.4</ele>
        <time>2020-10-24T09:37:31Z</time>
      </trkpt>
      <trkpt lat="44.57931" lon="5.79518">
        <ele>1243.4</ele>
        <time>2020-10-24T09:37:35Z</time>
      </trkpt>
      <trkpt lat="44.57935" lon="5.7951">
        <ele>1244.2</ele>
        <time>2020-10-24T09:37:39Z</time>
      </trkpt>
      <trkpt lat="44.57939" lon="5.79503">
        <ele>1244.2</ele>
        <time>2020-10-24T09:37:43Z</time>
      </trkpt>
      <trkpt lat="44.57945" lon="5.79498">
        <ele>1245.2</ele>
        <time>2020-10-24T09:37:47Z</time>
      </trkpt>
      <trkpt lat="44.57952" lon="5.79498">
        <ele>1246.2</ele>
        <time>2020-10-24T09:37:51Z</time>
      </trkpt>
      <trkpt lat="44.5796" lon="5.79499">
        <ele>1246.6</ele>
        <time>2020-10-24T09:37:55Z</time>
      </trkpt>
      <trkpt lat="44.57966" lon="5.79503">
        <ele>1247</ele>
        <time>2020-10-24T09:37:59Z</time>
      </trkpt>
      <trkpt lat="44.57972" lon="5.79508">
        <ele>1247.4</ele>
        <time>2020-10-24T09:38:03Z</time>
      </trkpt>
      <trkpt lat="44.57978" lon="5.79513">
        <ele>1248.2</ele>
        <time>2020-10-24T09:38:07Z</time>
      </trkpt>
      <trkpt lat="44.57984" lon="5.79516">
        <ele>1248.6</ele>
        <time>2020-10-24T09:38:11Z</time>
      </trkpt>
      <trkpt lat="44.5799" lon="5.79519">
        <ele>1249.6</ele>
        <time>2020-10-24T09:38:15Z</time>
      </trkpt>
      <trkpt lat="44.57996" lon="5.79518">
        <ele>1250.6</ele>
        <time>2020-10-24T09:38:19Z</time>
      </trkpt>
      <trkpt lat="44.58001" lon="5.79513">
        <ele>1251.4</ele>
        <time>2020-10-24T09:38:23Z</time>
      </trkpt>
      <trkpt lat="44.58007" lon="5.79509">
        <ele>1251.6</ele>
        <time>2020-10-24T09:38:27Z</time>
      </trkpt>
      <trkpt lat="44.5801" lon="5.79501">
        <ele>1252.2</ele>
        <time>2020-10-24T09:38:31Z</time>
      </trkpt>
      <trkpt lat="44.58014" lon="5.79493">
        <ele>1252.8</ele>
        <time>2020-10-24T09:38:35Z</time>
      </trkpt>
      <trkpt lat="44.58016" lon="5.79484">
        <ele>1253</ele>
        <time>2020-10-24T09:38:39Z</time>
      </trkpt>
      <trkpt lat="44.58019" lon="5.79476">
        <ele>1253.6</ele>
        <time>2020-10-24T09:38:43Z</time>
      </trkpt>
      <trkpt lat="44.58024" lon="5.79469">
        <ele>1254.2</ele>
        <time>2020-10-24T09:38:47Z</time>
      </trkpt>
      <trkpt lat="44.58029" lon="5.79462">
        <ele>1255</ele>
        <time>2020-10-24T09:38:51Z</time>
      </trkpt>
      <trkpt lat="44.58033" lon="5.79453">
        <ele>1255.6</ele>
        <time>2020-10-24T09:38:55Z</time>
      </trkpt>
      <trkpt lat="44.58036" lon="5.79443">
        <ele>1256.6</ele>
        <time>2020-10-24T09:38:59Z</time>
      </trkpt>
      <trkpt lat="44.58037" lon="5.79433">
        <ele>1257.2</ele>
        <time>2020-10-24T09:39:03Z</time>
      </trkpt>
      <trkpt lat="44.58037" lon="5.79422">
        <ele>1257.8</ele>
        <time>2020-10-24T09:39:07Z</time>
      </trkpt>
      <trkpt lat="44.58038" lon="5.79412">
        <ele>1258.2</ele>
        <time>2020-10-24T09:39:11Z</time>
      </trkpt>
      <trkpt lat="44.58038" lon="5.79402">
        <ele>1259.4</ele>
        <time>2020-10-24T09:39:15Z</time>
      </trkpt>
      <trkpt lat="44.58039" lon="5.79391">
        <ele>1259.4</ele>
        <time>2020-10-24T09:39:19Z</time>
      </trkpt>
      <trkpt lat="44.58038" lon="5.79379">
        <ele>1260.2</ele>
        <time>2020-10-24T09:39:23Z</time>
      </trkpt>
      <trkpt lat="44.58037" lon="5.79369">
        <ele>1260.4</ele>
        <time>2020-10-24T09:39:27Z</time>
      </trkpt>
      <trkpt lat="44.58035" lon="5.79358">
        <ele>1261.2</ele>
        <time>2020-10-24T09:39:31Z</time>
      </trkpt>
      <trkpt lat="44.5803" lon="5.79349">
        <ele>1261</ele>
        <time>2020-10-24T09:39:35Z</time>
      </trkpt>
      <trkpt lat="44.58029" lon="5.79339">
        <ele>1260.4</ele>
        <time>2020-10-24T09:39:39Z</time>
      </trkpt>
      <trkpt lat="44.58032" lon="5.79331">
        <ele>1261.8</ele>
        <time>2020-10-24T09:39:43Z</time>
      </trkpt>
      <trkpt lat="44.58039" lon="5.79327">
        <ele>1262.2</ele>
        <time>2020-10-24T09:39:47Z</time>
      </trkpt>
      <trkpt lat="44.58046" lon="5.79332">
        <ele>1262.8</ele>
        <time>2020-10-24T09:39:51Z</time>
      </trkpt>
      <trkpt lat="44.5805" lon="5.79342">
        <ele>1262.8</ele>
        <time>2020-10-24T09:39:55Z</time>
      </trkpt>
      <trkpt lat="44.58049" lon="5.79353">
        <ele>1264</ele>
        <time>2020-10-24T09:39:59Z</time>
      </trkpt>
      <trkpt lat="44.58048" lon="5.79363">
        <ele>1264.4</ele>
        <time>2020-10-24T09:40:03Z</time>
      </trkpt>
      <trkpt lat="44.58048" lon="5.79373">
        <ele>1265</ele>
        <time>2020-10-24T09:40:07Z</time>
      </trkpt>
      <trkpt lat="44.58048" lon="5.79382">
        <ele>1264.8</ele>
        <time>2020-10-24T09:40:11Z</time>
      </trkpt>
      <trkpt lat="44.58049" lon="5.79392">
        <ele>1265.8</ele>
        <time>2020-10-24T09:40:15Z</time>
      </trkpt>
      <trkpt lat="44.5805" lon="5.79403">
        <ele>1266</ele>
        <time>2020-10-24T09:40:19Z</time>
      </trkpt>
      <trkpt lat="44.58052" lon="5.79414">
        <ele>1267</ele>
        <time>2020-10-24T09:40:23Z</time>
      </trkpt>
      <trkpt lat="44.58054" lon="5.79425">
        <ele>1267.8</ele>
        <time>2020-10-24T09:40:27Z</time>
      </trkpt>
      <trkpt lat="44.58056" lon="5.79435">
        <ele>1268.8</ele>
        <time>2020-10-24T09:40:31Z</time>
      </trkpt>
      <trkpt lat="44.58059" lon="5.79444">
        <ele>1269.4</ele>
        <time>2020-10-24T09:40:35Z</time>
      </trkpt>
      <trkpt lat="44.58061" lon="5.79455">
        <ele>1269.8</ele>
        <time>2020-10-24T09:40:39Z</time>
      </trkpt>
      <trkpt lat="44.5806" lon="5.79464">
        <ele>1270.4</ele>
        <time>2020-10-24T09:40:43Z</time>
      </trkpt>
      <trkpt lat="44.58058" lon="5.79474">
        <ele>1271.6</ele>
        <time>2020-10-24T09:40:47Z</time>
      </trkpt>
      <trkpt lat="44.58056" lon="5.79484">
        <ele>1272.4</ele>
        <time>2020-10-24T09:40:51Z</time>
      </trkpt>
      <trkpt lat="44.58053" lon="5.79494">
        <ele>1273.2</ele>
        <time>2020-10-24T09:40:55Z</time>
      </trkpt>
      <trkpt lat="44.58052" lon="5.79502">
        <ele>1273.6</ele>
        <time>2020-10-24T09:40:59Z</time>
      </trkpt>
      <trkpt lat="44.58051" lon="5.7951">
        <ele>1274</ele>
        <time>2020-10-24T09:41:03Z</time>
      </trkpt>
      <trkpt lat="44.5805" lon="5.79518">
        <ele>1275.4</ele>
        <time>2020-10-24T09:41:07Z</time>
      </trkpt>
      <trkpt lat="44.5805" lon="5.79527">
        <ele>1275.6</ele>
        <time>2020-10-24T09:41:11Z</time>
      </trkpt>
      <trkpt lat="44.58051" lon="5.79537">
        <ele>1276.4</ele>
        <time>2020-10-24T09:41:15Z</time>
      </trkpt>
      <trkpt lat="44.58052" lon="5.79546">
        <ele>1278</ele>
        <time>2020-10-24T09:41:19Z</time>
      </trkpt>
      <trkpt lat="44.58053" lon="5.79555">
        <ele>1278</ele>
        <time>2020-10-24T09:41:23Z</time>
      </trkpt>
      <trkpt lat="44.58055" lon="5.79564">
        <ele>1278.6</ele>
        <time>2020-10-24T09:41:27Z</time>
      </trkpt>
      <trkpt lat="44.58056" lon="5.79574">
        <ele>1279.2</ele>
        <time>2020-10-24T09:41:31Z</time>
      </trkpt>
      <trkpt lat="44.58057" lon="5.79584">
        <ele>1279.8</ele>
        <time>2020-10-24T09:41:35Z</time>
      </trkpt>
      <trkpt lat="44.58057" lon="5.79593">
        <ele>1280.4</ele>
        <time>2020-10-24T09:41:39Z</time>
      </trkpt>
      <trkpt lat="44.58058" lon="5.79603">
        <ele>1281.6</ele>
        <time>2020-10-24T09:41:43Z</time>
      </trkpt>
      <trkpt lat="44.58057" lon="5.79613">
        <ele>1281.6</ele>
        <time>2020-10-24T09:41:47Z</time>
      </trkpt>
      <trkpt lat="44.58058" lon="5.79623">
        <ele>1281.8</ele>
        <time>2020-10-24T09:41:51Z</time>
      </trkpt>
      <trkpt lat="44.58057" lon="5.79633">
        <ele>1282.6</ele>
        <time>2020-10-24T09:41:55Z</time>
      </trkpt>
      <trkpt lat="44.58058" lon="5.79643">
        <ele>1283.6</ele>
        <time>2020-10-24T09:41:59Z</time>
      </trkpt>
      <trkpt lat="44.58058" lon="5.79652">
        <ele>1284.2</ele>
        <time>2020-10-24T09:42:03Z</time>
      </trkpt>
      <trkpt lat="44.58057" lon="5.79661">
        <ele>1284.8</ele>
        <time>2020-10-24T09:42:07Z</time>
      </trkpt>
      <trkpt lat="44.58056" lon="5.7967">
        <ele>1285.4</ele>
        <time>2020-10-24T09:42:11Z</time>
      </trkpt>
      <trkpt lat="44.58053" lon="5.7968">
        <ele>1285.2</ele>
        <time>2020-10-24T09:42:15Z</time>
      </trkpt>
      <trkpt lat="44.58051" lon="5.79687">
        <ele>1286.4</ele>
        <time>2020-10-24T09:42:19Z</time>
      </trkpt>
      <trkpt lat="44.58048" lon="5.79696">
        <ele>1287.6</ele>
        <time>2020-10-24T09:42:23Z</time>
      </trkpt>
      <trkpt lat="44.58044" lon="5.79704">
        <ele>1288</ele>
        <time>2020-10-24T09:42:27Z</time>
      </trkpt>
      <trkpt lat="44.58042" lon="5.79711">
        <ele>1288.6</ele>
        <time>2020-10-24T09:42:31Z</time>
      </trkpt>
      <trkpt lat="44.5804" lon="5.79721">
        <ele>1289.4</ele>
        <time>2020-10-24T09:42:35Z</time>
      </trkpt>
      <trkpt lat="44.58038" lon="5.79731">
        <ele>1289.8</ele>
        <time>2020-10-24T09:42:39Z</time>
      </trkpt>
      <trkpt lat="44.58036" lon="5.79739">
        <ele>1290.6</ele>
        <time>2020-10-24T09:42:43Z</time>
      </trkpt>
      <trkpt lat="44.58033" lon="5.79746">
        <ele>1290.6</ele>
        <time>2020-10-24T09:42:47Z</time>
      </trkpt>
      <trkpt lat="44.58029" lon="5.79752">
        <ele>1292</ele>
        <time>2020-10-24T09:42:51Z</time>
      </trkpt>
      <trkpt lat="44.58024" lon="5.79758">
        <ele>1292</ele>
        <time>2020-10-24T09:42:55Z</time>
      </trkpt>
      <trkpt lat="44.5802" lon="5.79763">
        <ele>1292.6</ele>
        <time>2020-10-24T09:42:59Z</time>
      </trkpt>
      <trkpt lat="44.58015" lon="5.79769">
        <ele>1293.6</ele>
        <time>2020-10-24T09:43:03Z</time>
      </trkpt>
      <trkpt lat="44.58009" lon="5.79773">
        <ele>1294.2</ele>
        <time>2020-10-24T09:43:07Z</time>
      </trkpt>
      <trkpt lat="44.58002" lon="5.79778">
        <ele>1294.8</ele>
        <time>2020-10-24T09:43:11Z</time>
      </trkpt>
      <trkpt lat="44.57993" lon="5.79785">
        <ele>1295.6</ele>
        <time>2020-10-24T09:43:15Z</time>
      </trkpt>
      <trkpt lat="44.57986" lon="5.79787">
        <ele>1295.8</ele>
        <time>2020-10-24T09:43:19Z</time>
      </trkpt>
      <trkpt lat="44.57981" lon="5.79789">
        <ele>1296.6</ele>
        <time>2020-10-24T09:43:23Z</time>
      </trkpt>
      <trkpt lat="44.57975" lon="5.79789">
        <ele>1297.2</ele>
        <time>2020-10-24T09:43:27Z</time>
      </trkpt>
      <trkpt lat="44.57968" lon="5.7979">
        <ele>1297.8</ele>
        <time>2020-10-24T09:43:31Z</time>
      </trkpt>
      <trkpt lat="44.57964" lon="5.79795">
        <ele>1298.4</ele>
        <time>2020-10-24T09:43:35Z</time>
      </trkpt>
      <trkpt lat="44.57956" lon="5.79798">
        <ele>1298.8</ele>
        <time>2020-10-24T09:43:39Z</time>
      </trkpt>
      <trkpt lat="44.57951" lon="5.79801">
        <ele>1299.8</ele>
        <time>2020-10-24T09:43:43Z</time>
      </trkpt>
      <trkpt lat="44.57945" lon="5.79806">
        <ele>1299.8</ele>
        <time>2020-10-24T09:43:47Z</time>
      </trkpt>
      <trkpt lat="44.57941" lon="5.79812">
        <ele>1300.6</ele>
        <time>2020-10-24T09:43:51Z</time>
      </trkpt>
      <trkpt lat="44.57933" lon="5.79815">
        <ele>1301.2</ele>
        <time>2020-10-24T09:43:55Z</time>
      </trkpt>
      <trkpt lat="44.57925" lon="5.79815">
        <ele>1301.8</ele>
        <time>2020-10-24T09:43:59Z</time>
      </trkpt>
      <trkpt lat="44.57918" lon="5.79814">
        <ele>1301.8</ele>
        <time>2020-10-24T09:44:03Z</time>
      </trkpt>
      <trkpt lat="44.57912" lon="5.79812">
        <ele>1302.8</ele>
        <time>2020-10-24T09:44:07Z</time>
      </trkpt>
      <trkpt lat="44.57905" lon="5.79808">
        <ele>1304</ele>
        <time>2020-10-24T09:44:11Z</time>
      </trkpt>
      <trkpt lat="44.57898" lon="5.79807">
        <ele>1304.6</ele>
        <time>2020-10-24T09:44:15Z</time>
      </trkpt>
      <trkpt lat="44.5789" lon="5.79805">
        <ele>1304.8</ele>
        <time>2020-10-24T09:44:19Z</time>
      </trkpt>
      <trkpt lat="44.57883" lon="5.79802">
        <ele>1305.4</ele>
        <time>2020-10-24T09:44:23Z</time>
      </trkpt>
      <trkpt lat="44.57877" lon="5.79798">
        <ele>1306</ele>
        <time>2020-10-24T09:44:27Z</time>
      </trkpt>
      <trkpt lat="44.5787" lon="5.79793">
        <ele>1306.6</ele>
        <time>2020-10-24T09:44:31Z</time>
      </trkpt>
      <trkpt lat="44.57863" lon="5.79787">
        <ele>1307.4</ele>
        <time>2020-10-24T09:44:35Z</time>
      </trkpt>
      <trkpt lat="44.57857" lon="5.79782">
        <ele>1308.4</ele>
        <time>2020-10-24T09:44:39Z</time>
      </trkpt>
      <trkpt lat="44.5785" lon="5.79779">
        <ele>1308.8</ele>
        <time>2020-10-24T09:44:43Z</time>
      </trkpt>
      <trkpt lat="44.57843" lon="5.79775">
        <ele>1309.6</ele>
        <time>2020-10-24T09:44:47Z</time>
      </trkpt>
      <trkpt lat="44.57837" lon="5.79771">
        <ele>1310</ele>
        <time>2020-10-24T09:44:51Z</time>
      </trkpt>
      <trkpt lat="44.5783" lon="5.79767">
        <ele>1310.2</ele>
        <time>2020-10-24T09:44:55Z</time>
      </trkpt>
      <trkpt lat="44.57824" lon="5.79765">
        <ele>1311.4</ele>
        <time>2020-10-24T09:44:59Z</time>
      </trkpt>
      <trkpt lat="44.57817" lon="5.79763">
        <ele>1312</ele>
        <time>2020-10-24T09:45:03Z</time>
      </trkpt>
      <trkpt lat="44.5781" lon="5.79759">
        <ele>1313</ele>
        <time>2020-10-24T09:45:07Z</time>
      </trkpt>
      <trkpt lat="44.57803" lon="5.79758">
        <ele>1313.4</ele>
        <time>2020-10-24T09:45:11Z</time>
      </trkpt>
      <trkpt lat="44.57796" lon="5.79757">
        <ele>1314.2</ele>
        <time>2020-10-24T09:45:15Z</time>
      </trkpt>
      <trkpt lat="44.57789" lon="5.79757">
        <ele>1314.4</ele>
        <time>2020-10-24T09:45:19Z</time>
      </trkpt>
      <trkpt lat="44.57782" lon="5.79757">
        <ele>1315.4</ele>
        <time>2020-10-24T09:45:23Z</time>
      </trkpt>
      <trkpt lat="44.57775" lon="5.79757">
        <ele>1316.2</ele>
        <time>2020-10-24T09:45:27Z</time>
      </trkpt>
      <trkpt lat="44.57768" lon="5.7976">
        <ele>1316.8</ele>
        <time>2020-10-24T09:45:31Z</time>
      </trkpt>
      <trkpt lat="44.57762" lon="5.79763">
        <ele>1317.6</ele>
        <time>2020-10-24T09:45:35Z</time>
      </trkpt>
      <trkpt lat="44.57755" lon="5.79761">
        <ele>1317.4</ele>
        <time>2020-10-24T09:45:39Z</time>
      </trkpt>
      <trkpt lat="44.57749" lon="5.79759">
        <ele>1318.8</ele>
        <time>2020-10-24T09:45:43Z</time>
      </trkpt>
      <trkpt lat="44.57741" lon="5.79757">
        <ele>1318.2</ele>
        <time>2020-10-24T09:45:47Z</time>
      </trkpt>
      <trkpt lat="44.57734" lon="5.79752">
        <ele>1319.8</ele>
        <time>2020-10-24T09:45:51Z</time>
      </trkpt>
      <trkpt lat="44.57728" lon="5.79746">
        <ele>1320</ele>
        <time>2020-10-24T09:45:55Z</time>
      </trkpt>
      <trkpt lat="44.5772" lon="5.7974">
        <ele>1319.8</ele>
        <time>2020-10-24T09:45:59Z</time>
      </trkpt>
      <trkpt lat="44.57714" lon="5.79733">
        <ele>1321.8</ele>
        <time>2020-10-24T09:46:03Z</time>
      </trkpt>
      <trkpt lat="44.57708" lon="5.79726">
        <ele>1321.8</ele>
        <time>2020-10-24T09:46:07Z</time>
      </trkpt>
      <trkpt lat="44.57701" lon="5.7972">
        <ele>1323</ele>
        <time>2020-10-24T09:46:11Z</time>
      </trkpt>
      <trkpt lat="44.57694" lon="5.79714">
        <ele>1323.8</ele>
        <time>2020-10-24T09:46:15Z</time>
      </trkpt>
      <trkpt lat="44.57687" lon="5.79706">
        <ele>1324.6</ele>
        <time>2020-10-24T09:46:19Z</time>
      </trkpt>
      <trkpt lat="44.5768" lon="5.79698">
        <ele>1325.4</ele>
        <time>2020-10-24T09:46:23Z</time>
      </trkpt>
      <trkpt lat="44.57672" lon="5.79691">
        <ele>1325.6</ele>
        <time>2020-10-24T09:46:27Z</time>
      </trkpt>
      <trkpt lat="44.57665" lon="5.79685">
        <ele>1326.8</ele>
        <time>2020-10-24T09:46:31Z</time>
      </trkpt>
      <trkpt lat="44.57658" lon="5.79681">
        <ele>1325.8</ele>
        <time>2020-10-24T09:46:35Z</time>
      </trkpt>
      <trkpt lat="44.57651" lon="5.79681">
        <ele>1326.4</ele>
        <time>2020-10-24T09:46:39Z</time>
      </trkpt>
      <trkpt lat="44.57647" lon="5.79684">
        <ele>1326.8</ele>
        <time>2020-10-24T09:46:43Z</time>
      </trkpt>
      <trkpt lat="44.57641" lon="5.79696">
        <ele>1326.8</ele>
        <time>2020-10-24T09:46:56Z</time>
      </trkpt>
      <trkpt lat="44.57637" lon="5.79708">
        <ele>1326.4</ele>
        <time>2020-10-24T09:47:00Z</time>
      </trkpt>
      <trkpt lat="44.57635" lon="5.7972">
        <ele>1327</ele>
        <time>2020-10-24T09:47:04Z</time>
      </trkpt>
      <trkpt lat="44.57638" lon="5.79733">
        <ele>1326</ele>
        <time>2020-10-24T09:47:08Z</time>
      </trkpt>
      <trkpt lat="44.57642" lon="5.79747">
        <ele>1326.6</ele>
        <time>2020-10-24T09:47:12Z</time>
      </trkpt>
      <trkpt lat="44.57643" lon="5.79759">
        <ele>1325.8</ele>
        <time>2020-10-24T09:47:16Z</time>
      </trkpt>
      <trkpt lat="44.57644" lon="5.79773">
        <ele>1326</ele>
        <time>2020-10-24T09:47:20Z</time>
      </trkpt>
      <trkpt lat="44.57643" lon="5.79787">
        <ele>1325.8</ele>
        <time>2020-10-24T09:47:24Z</time>
      </trkpt>
      <trkpt lat="44.57641" lon="5.79801">
        <ele>1326</ele>
        <time>2020-10-24T09:47:28Z</time>
      </trkpt>
      <trkpt lat="44.57639" lon="5.79814">
        <ele>1326</ele>
        <time>2020-10-24T09:47:32Z</time>
      </trkpt>
      <trkpt lat="44.57642" lon="5.79828">
        <ele>1325.8</ele>
        <time>2020-10-24T09:47:36Z</time>
      </trkpt>
      <trkpt lat="44.5765" lon="5.7984">
        <ele>1325.8</ele>
        <time>2020-10-24T09:47:40Z</time>
      </trkpt>
      <trkpt lat="44.57658" lon="5.79851">
        <ele>1325.8</ele>
        <time>2020-10-24T09:47:44Z</time>
      </trkpt>
      <trkpt lat="44.57667" lon="5.79861">
        <ele>1326</ele>
        <time>2020-10-24T09:47:48Z</time>
      </trkpt>
      <trkpt lat="44.57676" lon="5.79871">
        <ele>1326.2</ele>
        <time>2020-10-24T09:47:52Z</time>
      </trkpt>
      <trkpt lat="44.57684" lon="5.7988">
        <ele>1326.4</ele>
        <time>2020-10-24T09:47:56Z</time>
      </trkpt>
      <trkpt lat="44.57692" lon="5.79886">
        <ele>1326.2</ele>
        <time>2020-10-24T09:48:00Z</time>
      </trkpt>
      <trkpt lat="44.57702" lon="5.79892">
        <ele>1326.6</ele>
        <time>2020-10-24T09:48:04Z</time>
      </trkpt>
      <trkpt lat="44.57713" lon="5.79896">
        <ele>1326.8</ele>
        <time>2020-10-24T09:48:08Z</time>
      </trkpt>
      <trkpt lat="44.57723" lon="5.79901">
        <ele>1326.6</ele>
        <time>2020-10-24T09:48:12Z</time>
      </trkpt>
      <trkpt lat="44.57732" lon="5.79905">
        <ele>1326.8</ele>
        <time>2020-10-24T09:48:16Z</time>
      </trkpt>
      <trkpt lat="44.57741" lon="5.79912">
        <ele>1326.4</ele>
        <time>2020-10-24T09:48:20Z</time>
      </trkpt>
      <trkpt lat="44.5775" lon="5.79919">
        <ele>1327</ele>
        <time>2020-10-24T09:48:24Z</time>
      </trkpt>
      <trkpt lat="44.5776" lon="5.79925">
        <ele>1327.4</ele>
        <time>2020-10-24T09:48:28Z</time>
      </trkpt>
      <trkpt lat="44.5777" lon="5.79929">
        <ele>1327</ele>
        <time>2020-10-24T09:48:32Z</time>
      </trkpt>
      <trkpt lat="44.5778" lon="5.79931">
        <ele>1327.2</ele>
        <time>2020-10-24T09:48:36Z</time>
      </trkpt>
      <trkpt lat="44.5779" lon="5.79932">
        <ele>1327.8</ele>
        <time>2020-10-24T09:48:40Z</time>
      </trkpt>
      <trkpt lat="44.578" lon="5.79934">
        <ele>1328.4</ele>
        <time>2020-10-24T09:48:44Z</time>
      </trkpt>
      <trkpt lat="44.57811" lon="5.79935">
        <ele>1327.8</ele>
        <time>2020-10-24T09:48:48Z</time>
      </trkpt>
      <trkpt lat="44.57822" lon="5.79936">
        <ele>1328.6</ele>
        <time>2020-10-24T09:48:52Z</time>
      </trkpt>
      <trkpt lat="44.57832" lon="5.79937">
        <ele>1329.8</ele>
        <time>2020-10-24T09:48:56Z</time>
      </trkpt>
      <trkpt lat="44.57841" lon="5.79938">
        <ele>1329.8</ele>
        <time>2020-10-24T09:49:00Z</time>
      </trkpt>
      <trkpt lat="44.5785" lon="5.79937">
        <ele>1331</ele>
        <time>2020-10-24T09:49:04Z</time>
      </trkpt>
      <trkpt lat="44.57859" lon="5.79948">
        <ele>1331.8</ele>
        <time>2020-10-24T09:51:33Z</time>
      </trkpt>
      <trkpt lat="44.57862" lon="5.79961">
        <ele>1329.2</ele>
        <time>2020-10-24T09:51:37Z</time>
      </trkpt>
      <trkpt lat="44.57866" lon="5.79981">
        <ele>1326.6</ele>
        <time>2020-10-24T09:51:55Z</time>
      </trkpt>
      <trkpt lat="44.57868" lon="5.79996">
        <ele>1326</ele>
        <time>2020-10-24T09:51:59Z</time>
      </trkpt>
      <trkpt lat="44.57864" lon="5.80013">
        <ele>1323.6</ele>
        <time>2020-10-24T09:52:03Z</time>
      </trkpt>
      <trkpt lat="44.57855" lon="5.80025">
        <ele>1323.4</ele>
        <time>2020-10-24T09:52:07Z</time>
      </trkpt>
      <trkpt lat="44.57845" lon="5.80035">
        <ele>1322.4</ele>
        <time>2020-10-24T09:52:11Z</time>
      </trkpt>
      <trkpt lat="44.57834" lon="5.80045">
        <ele>1321</ele>
        <time>2020-10-24T09:52:15Z</time>
      </trkpt>
      <trkpt lat="44.57825" lon="5.80053">
        <ele>1319.8</ele>
        <time>2020-10-24T09:52:19Z</time>
      </trkpt>
      <trkpt lat="44.57816" lon="5.80061">
        <ele>1319</ele>
        <time>2020-10-24T09:52:23Z</time>
      </trkpt>
      <trkpt lat="44.57809" lon="5.80069">
        <ele>1318.6</ele>
        <time>2020-10-24T09:52:27Z</time>
      </trkpt>
      <trkpt lat="44.57803" lon="5.8008">
        <ele>1318.2</ele>
        <time>2020-10-24T09:52:31Z</time>
      </trkpt>
      <trkpt lat="44.57798" lon="5.80089">
        <ele>1318.6</ele>
        <time>2020-10-24T09:52:35Z</time>
      </trkpt>
      <trkpt lat="44.57792" lon="5.80097">
        <ele>1318.4</ele>
        <time>2020-10-24T09:52:39Z</time>
      </trkpt>
      <trkpt lat="44.57786" lon="5.80106">
        <ele>1318.6</ele>
        <time>2020-10-24T09:52:43Z</time>
      </trkpt>
      <trkpt lat="44.57781" lon="5.80112">
        <ele>1319.4</ele>
        <time>2020-10-24T09:52:47Z</time>
      </trkpt>
      <trkpt lat="44.57779" lon="5.80114">
        <ele>1319.6</ele>
        <time>2020-10-24T09:52:51Z</time>
      </trkpt>
      <trkpt lat="44.57774" lon="5.80121">
        <ele>1319.8</ele>
        <time>2020-10-24T09:52:55Z</time>
      </trkpt>
      <trkpt lat="44.57769" lon="5.8013">
        <ele>1320.8</ele>
        <time>2020-10-24T09:52:59Z</time>
      </trkpt>
      <trkpt lat="44.57764" lon="5.8014">
        <ele>1321</ele>
        <time>2020-10-24T09:53:03Z</time>
      </trkpt>
      <trkpt lat="44.57758" lon="5.80147">
        <ele>1321.4</ele>
        <time>2020-10-24T09:53:07Z</time>
      </trkpt>
      <trkpt lat="44.57752" lon="5.80155">
        <ele>1321.8</ele>
        <time>2020-10-24T09:53:11Z</time>
      </trkpt>
      <trkpt lat="44.5774" lon="5.80165">
        <ele>1321.6</ele>
        <time>2020-10-24T09:53:43Z</time>
      </trkpt>
      <trkpt lat="44.57735" lon="5.80168">
        <ele>1321.6</ele>
        <time>2020-10-24T09:53:47Z</time>
      </trkpt>
      <trkpt lat="44.5773" lon="5.80173">
        <ele>1321.2</ele>
        <time>2020-10-24T09:53:51Z</time>
      </trkpt>
      <trkpt lat="44.57724" lon="5.80176">
        <ele>1321.8</ele>
        <time>2020-10-24T09:53:55Z</time>
      </trkpt>
      <trkpt lat="44.57719" lon="5.80181">
        <ele>1321.6</ele>
        <time>2020-10-24T09:53:59Z</time>
      </trkpt>
      <trkpt lat="44.57713" lon="5.80183">
        <ele>1322.2</ele>
        <time>2020-10-24T09:54:03Z</time>
      </trkpt>
      <trkpt lat="44.57703" lon="5.80186">
        <ele>1322.2</ele>
        <time>2020-10-24T09:54:07Z</time>
      </trkpt>
      <trkpt lat="44.57692" lon="5.8019">
        <ele>1321.6</ele>
        <time>2020-10-24T09:54:11Z</time>
      </trkpt>
      <trkpt lat="44.57682" lon="5.80195">
        <ele>1321.8</ele>
        <time>2020-10-24T09:54:15Z</time>
      </trkpt>
      <trkpt lat="44.57673" lon="5.80202">
        <ele>1321.2</ele>
        <time>2020-10-24T09:54:19Z</time>
      </trkpt>
      <trkpt lat="44.57667" lon="5.80213">
        <ele>1320.8</ele>
        <time>2020-10-24T09:54:23Z</time>
      </trkpt>
      <trkpt lat="44.57665" lon="5.80228">
        <ele>1320.4</ele>
        <time>2020-10-24T09:54:27Z</time>
      </trkpt>
      <trkpt lat="44.57665" lon="5.80239">
        <ele>1320.6</ele>
        <time>2020-10-24T09:54:31Z</time>
      </trkpt>
      <trkpt lat="44.57665" lon="5.80248">
        <ele>1320.2</ele>
        <time>2020-10-24T09:54:35Z</time>
      </trkpt>
      <trkpt lat="44.57662" lon="5.80259">
        <ele>1319.4</ele>
        <time>2020-10-24T09:54:39Z</time>
      </trkpt>
      <trkpt lat="44.57655" lon="5.80268">
        <ele>1318.8</ele>
        <time>2020-10-24T09:54:43Z</time>
      </trkpt>
      <trkpt lat="44.5765" lon="5.80274">
        <ele>1318.8</ele>
        <time>2020-10-24T09:54:47Z</time>
      </trkpt>
      <trkpt lat="44.57644" lon="5.80279">
        <ele>1318.2</ele>
        <time>2020-10-24T09:54:51Z</time>
      </trkpt>
      <trkpt lat="44.57637" lon="5.80281">
        <ele>1318</ele>
        <time>2020-10-24T09:54:55Z</time>
      </trkpt>
      <trkpt lat="44.57625" lon="5.80284">
        <ele>1316</ele>
        <time>2020-10-24T09:54:59Z</time>
      </trkpt>
      <trkpt lat="44.57616" lon="5.80287">
        <ele>1316.2</ele>
        <time>2020-10-24T09:55:03Z</time>
      </trkpt>
      <trkpt lat="44.57608" lon="5.80286">
        <ele>1316</ele>
        <time>2020-10-24T09:55:07Z</time>
      </trkpt>
      <trkpt lat="44.57601" lon="5.80282">
        <ele>1316.6</ele>
        <time>2020-10-24T09:55:11Z</time>
      </trkpt>
      <trkpt lat="44.57596" lon="5.80277">
        <ele>1316.6</ele>
        <time>2020-10-24T09:55:15Z</time>
      </trkpt>
      <trkpt lat="44.5759" lon="5.80271">
        <ele>1316</ele>
        <time>2020-10-24T09:55:19Z</time>
      </trkpt>
      <trkpt lat="44.57585" lon="5.80266">
        <ele>1317.6</ele>
        <time>2020-10-24T09:55:23Z</time>
      </trkpt>
      <trkpt lat="44.5758" lon="5.80259">
        <ele>1318.2</ele>
        <time>2020-10-24T09:55:27Z</time>
      </trkpt>
      <trkpt lat="44.57575" lon="5.80252">
        <ele>1318.8</ele>
        <time>2020-10-24T09:55:31Z</time>
      </trkpt>
      <trkpt lat="44.5757" lon="5.8024">
        <ele>1318.2</ele>
        <time>2020-10-24T09:55:35Z</time>
      </trkpt>
      <trkpt lat="44.57565" lon="5.80229">
        <ele>1318.8</ele>
        <time>2020-10-24T09:55:39Z</time>
      </trkpt>
      <trkpt lat="44.5756" lon="5.8022">
        <ele>1318.4</ele>
        <time>2020-10-24T09:55:43Z</time>
      </trkpt>
      <trkpt lat="44.57555" lon="5.80209">
        <ele>1318.6</ele>
        <time>2020-10-24T09:55:47Z</time>
      </trkpt>
      <trkpt lat="44.57548" lon="5.80201">
        <ele>1318</ele>
        <time>2020-10-24T09:55:51Z</time>
      </trkpt>
      <trkpt lat="44.5754" lon="5.80193">
        <ele>1317.6</ele>
        <time>2020-10-24T09:55:55Z</time>
      </trkpt>
      <trkpt lat="44.57534" lon="5.8018">
        <ele>1317.6</ele>
        <time>2020-10-24T09:55:59Z</time>
      </trkpt>
      <trkpt lat="44.57528" lon="5.80167">
        <ele>1314.4</ele>
        <time>2020-10-24T09:56:03Z</time>
      </trkpt>
      <trkpt lat="44.57522" lon="5.80151">
        <ele>1313.8</ele>
        <time>2020-10-24T09:56:07Z</time>
      </trkpt>
      <trkpt lat="44.57516" lon="5.80138">
        <ele>1313.8</ele>
        <time>2020-10-24T09:56:11Z</time>
      </trkpt>
      <trkpt lat="44.5751" lon="5.80126">
        <ele>1313.6</ele>
        <time>2020-10-24T09:56:15Z</time>
      </trkpt>
      <trkpt lat="44.57502" lon="5.80114">
        <ele>1313</ele>
        <time>2020-10-24T09:56:19Z</time>
      </trkpt>
      <trkpt lat="44.57494" lon="5.801">
        <ele>1311.8</ele>
        <time>2020-10-24T09:56:23Z</time>
      </trkpt>
      <trkpt lat="44.57487" lon="5.80086">
        <ele>1311</ele>
        <time>2020-10-24T09:56:27Z</time>
      </trkpt>
      <trkpt lat="44.57477" lon="5.80072">
        <ele>1310.8</ele>
        <time>2020-10-24T09:56:31Z</time>
      </trkpt>
      <trkpt lat="44.5747" lon="5.80063">
        <ele>1310.6</ele>
        <time>2020-10-24T09:56:35Z</time>
      </trkpt>
      <trkpt lat="44.57461" lon="5.80052">
        <ele>1308.8</ele>
        <time>2020-10-24T09:56:39Z</time>
      </trkpt>
      <trkpt lat="44.5745" lon="5.80039">
        <ele>1309.6</ele>
        <time>2020-10-24T09:56:43Z</time>
      </trkpt>
      <trkpt lat="44.57441" lon="5.80031">
        <ele>1309</ele>
        <time>2020-10-24T09:56:47Z</time>
      </trkpt>
      <trkpt lat="44.57433" lon="5.80024">
        <ele>1308.4</ele>
        <time>2020-10-24T09:56:51Z</time>
      </trkpt>
      <trkpt lat="44.57424" lon="5.80018">
        <ele>1307.8</ele>
        <time>2020-10-24T09:56:55Z</time>
      </trkpt>
      <trkpt lat="44.57415" lon="5.80011">
        <ele>1308.4</ele>
        <time>2020-10-24T09:56:59Z</time>
      </trkpt>
      <trkpt lat="44.57407" lon="5.80004">
        <ele>1309.2</ele>
        <time>2020-10-24T09:57:03Z</time>
      </trkpt>
      <trkpt lat="44.57399" lon="5.79995">
        <ele>1308.2</ele>
        <time>2020-10-24T09:57:07Z</time>
      </trkpt>
      <trkpt lat="44.57392" lon="5.79987">
        <ele>1308</ele>
        <time>2020-10-24T09:57:11Z</time>
      </trkpt>
      <trkpt lat="44.57385" lon="5.79979">
        <ele>1307.4</ele>
        <time>2020-10-24T09:57:15Z</time>
      </trkpt>
      <trkpt lat="44.57378" lon="5.7997">
        <ele>1307.8</ele>
        <time>2020-10-24T09:57:19Z</time>
      </trkpt>
      <trkpt lat="44.5737" lon="5.7996">
        <ele>1308.4</ele>
        <time>2020-10-24T09:57:23Z</time>
      </trkpt>
      <trkpt lat="44.57363" lon="5.7995">
        <ele>1308.6</ele>
        <time>2020-10-24T09:57:27Z</time>
      </trkpt>
      <trkpt lat="44.57358" lon="5.79942">
        <ele>1308.4</ele>
        <time>2020-10-24T09:57:31Z</time>
      </trkpt>
      <trkpt lat="44.57353" lon="5.79933">
        <ele>1308.6</ele>
        <time>2020-10-24T09:57:35Z</time>
      </trkpt>
      <trkpt lat="44.57349" lon="5.79923">
        <ele>1309.2</ele>
        <time>2020-10-24T09:57:39Z</time>
      </trkpt>
      <trkpt lat="44.57344" lon="5.79912">
        <ele>1309</ele>
        <time>2020-10-24T09:57:43Z</time>
      </trkpt>
      <trkpt lat="44.57339" lon="5.79902">
        <ele>1309.2</ele>
        <time>2020-10-24T09:57:47Z</time>
      </trkpt>
      <trkpt lat="44.57333" lon="5.79893">
        <ele>1309</ele>
        <time>2020-10-24T09:57:51Z</time>
      </trkpt>
      <trkpt lat="44.57329" lon="5.79885">
        <ele>1309.6</ele>
        <time>2020-10-24T09:57:55Z</time>
      </trkpt>
      <trkpt lat="44.57324" lon="5.79879">
        <ele>1309.8</ele>
        <time>2020-10-24T09:57:59Z</time>
      </trkpt>
      <trkpt lat="44.57318" lon="5.79874">
        <ele>1309.4</ele>
        <time>2020-10-24T09:58:03Z</time>
      </trkpt>
      <trkpt lat="44.57318" lon="5.79874">
        <ele>1309.4</ele>
        <time>2020-10-24T09:58:07Z</time>
      </trkpt>
      <trkpt lat="44.57326" lon="5.7988">
        <ele>1309.4</ele>
        <time>2020-10-24T10:01:25Z</time>
      </trkpt>
      <trkpt lat="44.57331" lon="5.79889">
        <ele>1308.6</ele>
        <time>2020-10-24T10:01:29Z</time>
      </trkpt>
      <trkpt lat="44.57336" lon="5.79898">
        <ele>1308.6</ele>
        <time>2020-10-24T10:01:33Z</time>
      </trkpt>
      <trkpt lat="44.5734" lon="5.79907">
        <ele>1308.8</ele>
        <time>2020-10-24T10:01:37Z</time>
      </trkpt>
      <trkpt lat="44.57344" lon="5.79915">
        <ele>1309.2</ele>
        <time>2020-10-24T10:01:41Z</time>
      </trkpt>
      <trkpt lat="44.57348" lon="5.79925">
        <ele>1308.4</ele>
        <time>2020-10-24T10:01:45Z</time>
      </trkpt>
      <trkpt lat="44.57352" lon="5.79934">
        <ele>1309.2</ele>
        <time>2020-10-24T10:01:49Z</time>
      </trkpt>
      <trkpt lat="44.57354" lon="5.79941">
        <ele>1309.6</ele>
        <time>2020-10-24T10:01:53Z</time>
      </trkpt>
      <trkpt lat="44.5736" lon="5.79949">
        <ele>1308.2</ele>
        <time>2020-10-24T10:01:57Z</time>
      </trkpt>
      <trkpt lat="44.57366" lon="5.79959">
        <ele>1307.2</ele>
        <time>2020-10-24T10:02:01Z</time>
      </trkpt>
      <trkpt lat="44.57374" lon="5.79969">
        <ele>1306.6</ele>
        <time>2020-10-24T10:02:05Z</time>
      </trkpt>
      <trkpt lat="44.57383" lon="5.7998">
        <ele>1307</ele>
        <time>2020-10-24T10:02:09Z</time>
      </trkpt>
      <trkpt lat="44.57392" lon="5.79988">
        <ele>1308</ele>
        <time>2020-10-24T10:02:13Z</time>
      </trkpt>
      <trkpt lat="44.574" lon="5.79996">
        <ele>1308</ele>
        <time>2020-10-24T10:02:17Z</time>
      </trkpt>
      <trkpt lat="44.5741" lon="5.80004">
        <ele>1308.6</ele>
        <time>2020-10-24T10:02:21Z</time>
      </trkpt>
      <trkpt lat="44.57419" lon="5.80012">
        <ele>1308.6</ele>
        <time>2020-10-24T10:02:25Z</time>
      </trkpt>
      <trkpt lat="44.57428" lon="5.80018">
        <ele>1308.6</ele>
        <time>2020-10-24T10:02:29Z</time>
      </trkpt>
      <trkpt lat="44.57436" lon="5.80024">
        <ele>1308.2</ele>
        <time>2020-10-24T10:02:33Z</time>
      </trkpt>
      <trkpt lat="44.57445" lon="5.80032">
        <ele>1308.8</ele>
        <time>2020-10-24T10:02:37Z</time>
      </trkpt>
      <trkpt lat="44.57453" lon="5.8004">
        <ele>1308.8</ele>
        <time>2020-10-24T10:02:41Z</time>
      </trkpt>
      <trkpt lat="44.57459" lon="5.80048">
        <ele>1310.4</ele>
        <time>2020-10-24T10:02:45Z</time>
      </trkpt>
      <trkpt lat="44.57467" lon="5.80057">
        <ele>1310.4</ele>
        <time>2020-10-24T10:02:49Z</time>
      </trkpt>
      <trkpt lat="44.57473" lon="5.80065">
        <ele>1311.4</ele>
        <time>2020-10-24T10:02:53Z</time>
      </trkpt>
      <trkpt lat="44.57479" lon="5.80075">
        <ele>1311.4</ele>
        <time>2020-10-24T10:02:57Z</time>
      </trkpt>
      <trkpt lat="44.57484" lon="5.80084">
        <ele>1312</ele>
        <time>2020-10-24T10:03:01Z</time>
      </trkpt>
      <trkpt lat="44.57491" lon="5.80094">
        <ele>1311.8</ele>
        <time>2020-10-24T10:03:05Z</time>
      </trkpt>
      <trkpt lat="44.57495" lon="5.80102">
        <ele>1313.6</ele>
        <time>2020-10-24T10:03:09Z</time>
      </trkpt>
      <trkpt lat="44.57502" lon="5.80111">
        <ele>1313.4</ele>
        <time>2020-10-24T10:03:13Z</time>
      </trkpt>
      <trkpt lat="44.57507" lon="5.80119">
        <ele>1313.6</ele>
        <time>2020-10-24T10:03:17Z</time>
      </trkpt>
      <trkpt lat="44.57512" lon="5.80129">
        <ele>1314.6</ele>
        <time>2020-10-24T10:03:21Z</time>
      </trkpt>
      <trkpt lat="44.57516" lon="5.80138">
        <ele>1314.4</ele>
        <time>2020-10-24T10:03:25Z</time>
      </trkpt>
      <trkpt lat="44.5752" lon="5.80147">
        <ele>1315.8</ele>
        <time>2020-10-24T10:03:29Z</time>
      </trkpt>
      <trkpt lat="44.57524" lon="5.80157">
        <ele>1316.6</ele>
        <time>2020-10-24T10:03:33Z</time>
      </trkpt>
      <trkpt lat="44.57528" lon="5.80165">
        <ele>1316.6</ele>
        <time>2020-10-24T10:03:37Z</time>
      </trkpt>
      <trkpt lat="44.57532" lon="5.80175">
        <ele>1316.4</ele>
        <time>2020-10-24T10:03:41Z</time>
      </trkpt>
      <trkpt lat="44.57537" lon="5.80183">
        <ele>1317.6</ele>
        <time>2020-10-24T10:03:45Z</time>
      </trkpt>
      <trkpt lat="44.57543" lon="5.80191">
        <ele>1318.4</ele>
        <time>2020-10-24T10:03:49Z</time>
      </trkpt>
      <trkpt lat="44.57549" lon="5.802">
        <ele>1318.8</ele>
        <time>2020-10-24T10:03:53Z</time>
      </trkpt>
      <trkpt lat="44.57556" lon="5.80209">
        <ele>1318.4</ele>
        <time>2020-10-24T10:03:57Z</time>
      </trkpt>
      <trkpt lat="44.5756" lon="5.80221">
        <ele>1318.4</ele>
        <time>2020-10-24T10:04:01Z</time>
      </trkpt>
      <trkpt lat="44.57563" lon="5.80231">
        <ele>1318.2</ele>
        <time>2020-10-24T10:04:05Z</time>
      </trkpt>
      <trkpt lat="44.57568" lon="5.80241">
        <ele>1318.2</ele>
        <time>2020-10-24T10:04:09Z</time>
      </trkpt>
      <trkpt lat="44.57573" lon="5.80249">
        <ele>1317.6</ele>
        <time>2020-10-24T10:04:13Z</time>
      </trkpt>
      <trkpt lat="44.57579" lon="5.80259">
        <ele>1316.8</ele>
        <time>2020-10-24T10:04:17Z</time>
      </trkpt>
      <trkpt lat="44.57584" lon="5.80266">
        <ele>1316</ele>
        <time>2020-10-24T10:04:21Z</time>
      </trkpt>
      <trkpt lat="44.57593" lon="5.80276">
        <ele>1316</ele>
        <time>2020-10-24T10:04:25Z</time>
      </trkpt>
      <trkpt lat="44.576" lon="5.80284">
        <ele>1315.4</ele>
        <time>2020-10-24T10:04:29Z</time>
      </trkpt>
      <trkpt lat="44.57607" lon="5.80282">
        <ele>1315.6</ele>
        <time>2020-10-24T10:04:33Z</time>
      </trkpt>
      <trkpt lat="44.57616" lon="5.80281">
        <ele>1316</ele>
        <time>2020-10-24T10:04:37Z</time>
      </trkpt>
      <trkpt lat="44.57624" lon="5.8028">
        <ele>1316</ele>
        <time>2020-10-24T10:04:41Z</time>
      </trkpt>
      <trkpt lat="44.57633" lon="5.80281">
        <ele>1316.4</ele>
        <time>2020-10-24T10:04:45Z</time>
      </trkpt>
      <trkpt lat="44.5764" lon="5.8028">
        <ele>1317</ele>
        <time>2020-10-24T10:04:49Z</time>
      </trkpt>
      <trkpt lat="44.57646" lon="5.80278">
        <ele>1317</ele>
        <time>2020-10-24T10:04:53Z</time>
      </trkpt>
      <trkpt lat="44.57651" lon="5.80272">
        <ele>1317.8</ele>
        <time>2020-10-24T10:04:57Z</time>
      </trkpt>
      <trkpt lat="44.57654" lon="5.80266">
        <ele>1318.8</ele>
        <time>2020-10-24T10:05:01Z</time>
      </trkpt>
      <trkpt lat="44.57659" lon="5.80261">
        <ele>1318.8</ele>
        <time>2020-10-24T10:05:05Z</time>
      </trkpt>
      <trkpt lat="44.57662" lon="5.80255">
        <ele>1318.8</ele>
        <time>2020-10-24T10:05:09Z</time>
      </trkpt>
      <trkpt lat="44.57664" lon="5.80247">
        <ele>1319</ele>
        <time>2020-10-24T10:05:13Z</time>
      </trkpt>
      <trkpt lat="44.57662" lon="5.8024">
        <ele>1319</ele>
        <time>2020-10-24T10:05:17Z</time>
      </trkpt>
      <trkpt lat="44.57661" lon="5.80233">
        <ele>1319.2</ele>
        <time>2020-10-24T10:05:21Z</time>
      </trkpt>
      <trkpt lat="44.57661" lon="5.80223">
        <ele>1319.8</ele>
        <time>2020-10-24T10:05:25Z</time>
      </trkpt>
      <trkpt lat="44.57664" lon="5.80215">
        <ele>1320</ele>
        <time>2020-10-24T10:05:29Z</time>
      </trkpt>
      <trkpt lat="44.57668" lon="5.80208">
        <ele>1320.6</ele>
        <time>2020-10-24T10:05:33Z</time>
      </trkpt>
      <trkpt lat="44.57674" lon="5.80202">
        <ele>1321.2</ele>
        <time>2020-10-24T10:05:37Z</time>
      </trkpt>
      <trkpt lat="44.57681" lon="5.80199">
        <ele>1321.2</ele>
        <time>2020-10-24T10:05:41Z</time>
      </trkpt>
      <trkpt lat="44.57689" lon="5.80194">
        <ele>1321.4</ele>
        <time>2020-10-24T10:05:45Z</time>
      </trkpt>
      <trkpt lat="44.57695" lon="5.80191">
        <ele>1321.4</ele>
        <time>2020-10-24T10:05:49Z</time>
      </trkpt>
      <trkpt lat="44.57702" lon="5.80189">
        <ele>1321.4</ele>
        <time>2020-10-24T10:05:53Z</time>
      </trkpt>
      <trkpt lat="44.57708" lon="5.80187">
        <ele>1320.8</ele>
        <time>2020-10-24T10:05:57Z</time>
      </trkpt>
      <trkpt lat="44.57714" lon="5.80186">
        <ele>1320.8</ele>
        <time>2020-10-24T10:06:01Z</time>
      </trkpt>
      <trkpt lat="44.57722" lon="5.80185">
        <ele>1320.8</ele>
        <time>2020-10-24T10:06:05Z</time>
      </trkpt>
      <trkpt lat="44.57729" lon="5.80182">
        <ele>1320.4</ele>
        <time>2020-10-24T10:06:09Z</time>
      </trkpt>
      <trkpt lat="44.57733" lon="5.80175">
        <ele>1320.2</ele>
        <time>2020-10-24T10:06:13Z</time>
      </trkpt>
      <trkpt lat="44.57738" lon="5.80166">
        <ele>1320</ele>
        <time>2020-10-24T10:06:17Z</time>
      </trkpt>
      <trkpt lat="44.57747" lon="5.80162">
        <ele>1320</ele>
        <time>2020-10-24T10:06:21Z</time>
      </trkpt>
      <trkpt lat="44.57752" lon="5.80154">
        <ele>1319.8</ele>
        <time>2020-10-24T10:06:25Z</time>
      </trkpt>
      <trkpt lat="44.57758" lon="5.80146">
        <ele>1319.8</ele>
        <time>2020-10-24T10:06:29Z</time>
      </trkpt>
      <trkpt lat="44.57763" lon="5.80137">
        <ele>1320.2</ele>
        <time>2020-10-24T10:06:33Z</time>
      </trkpt>
      <trkpt lat="44.57768" lon="5.80128">
        <ele>1319.6</ele>
        <time>2020-10-24T10:06:37Z</time>
      </trkpt>
      <trkpt lat="44.57776" lon="5.80116">
        <ele>1318.4</ele>
        <time>2020-10-24T10:06:41Z</time>
      </trkpt>
      <trkpt lat="44.57784" lon="5.80104">
        <ele>1318.2</ele>
        <time>2020-10-24T10:06:45Z</time>
      </trkpt>
      <trkpt lat="44.5779" lon="5.80097">
        <ele>1318.6</ele>
        <time>2020-10-24T10:06:49Z</time>
      </trkpt>
      <trkpt lat="44.57796" lon="5.80089">
        <ele>1317.8</ele>
        <time>2020-10-24T10:06:53Z</time>
      </trkpt>
      <trkpt lat="44.57802" lon="5.80079">
        <ele>1318</ele>
        <time>2020-10-24T10:06:57Z</time>
      </trkpt>
      <trkpt lat="44.57808" lon="5.80069">
        <ele>1318.8</ele>
        <time>2020-10-24T10:07:01Z</time>
      </trkpt>
      <trkpt lat="44.57815" lon="5.80064">
        <ele>1318.8</ele>
        <time>2020-10-24T10:07:05Z</time>
      </trkpt>
      <trkpt lat="44.57822" lon="5.80061">
        <ele>1319.4</ele>
        <time>2020-10-24T10:07:09Z</time>
      </trkpt>
      <trkpt lat="44.57827" lon="5.80056">
        <ele>1319.6</ele>
        <time>2020-10-24T10:07:13Z</time>
      </trkpt>
      <trkpt lat="44.57832" lon="5.8005">
        <ele>1320.6</ele>
        <time>2020-10-24T10:07:17Z</time>
      </trkpt>
      <trkpt lat="44.57838" lon="5.80046">
        <ele>1321</ele>
        <time>2020-10-24T10:07:21Z</time>
      </trkpt>
      <trkpt lat="44.57843" lon="5.80041">
        <ele>1321.6</ele>
        <time>2020-10-24T10:07:25Z</time>
      </trkpt>
      <trkpt lat="44.5785" lon="5.80036">
        <ele>1322.2</ele>
        <time>2020-10-24T10:07:29Z</time>
      </trkpt>
      <trkpt lat="44.57856" lon="5.80032">
        <ele>1322.6</ele>
        <time>2020-10-24T10:07:33Z</time>
      </trkpt>
      <trkpt lat="44.57862" lon="5.80026">
        <ele>1323.4</ele>
        <time>2020-10-24T10:07:37Z</time>
      </trkpt>
      <trkpt lat="44.57866" lon="5.80018">
        <ele>1324.4</ele>
        <time>2020-10-24T10:07:41Z</time>
      </trkpt>
      <trkpt lat="44.57869" lon="5.80008">
        <ele>1325.8</ele>
        <time>2020-10-24T10:07:45Z</time>
      </trkpt>
      <trkpt lat="44.57869" lon="5.79999">
        <ele>1325.6</ele>
        <time>2020-10-24T10:07:49Z</time>
      </trkpt>
      <trkpt lat="44.57869" lon="5.7999">
        <ele>1326.6</ele>
        <time>2020-10-24T10:07:53Z</time>
      </trkpt>
      <trkpt lat="44.57867" lon="5.79981">
        <ele>1327.8</ele>
        <time>2020-10-24T10:07:57Z</time>
      </trkpt>
      <trkpt lat="44.57865" lon="5.79971">
        <ele>1328.2</ele>
        <time>2020-10-24T10:08:01Z</time>
      </trkpt>
      <trkpt lat="44.57863" lon="5.79962">
        <ele>1329</ele>
        <time>2020-10-24T10:08:05Z</time>
      </trkpt>
      <trkpt lat="44.57861" lon="5.79955">
        <ele>1329.4</ele>
        <time>2020-10-24T10:08:09Z</time>
      </trkpt>
      <trkpt lat="44.5786" lon="5.79948">
        <ele>1330</ele>
        <time>2020-10-24T10:08:13Z</time>
      </trkpt>
      <trkpt lat="44.5786" lon="5.79943">
        <ele>1330.2</ele>
        <time>2020-10-24T10:08:17Z</time>
      </trkpt>
      <trkpt lat="44.57865" lon="5.79944">
        <ele>1331</ele>
        <time>2020-10-24T10:08:21Z</time>
      </trkpt>
      <trkpt lat="44.57871" lon="5.79947">
        <ele>1331.2</ele>
        <time>2020-10-24T10:08:25Z</time>
      </trkpt>
      <trkpt lat="44.57876" lon="5.79952">
        <ele>1331.8</ele>
        <time>2020-10-24T10:08:29Z</time>
      </trkpt>
      <trkpt lat="44.57883" lon="5.79961">
        <ele>1332</ele>
        <time>2020-10-24T10:10:53Z</time>
      </trkpt>
      <trkpt lat="44.57889" lon="5.79967">
        <ele>1332.4</ele>
        <time>2020-10-24T10:10:57Z</time>
      </trkpt>
      <trkpt lat="44.57894" lon="5.79975">
        <ele>1333</ele>
        <time>2020-10-24T10:11:01Z</time>
      </trkpt>
      <trkpt lat="44.57898" lon="5.79985">
        <ele>1333.4</ele>
        <time>2020-10-24T10:11:05Z</time>
      </trkpt>
      <trkpt lat="44.57902" lon="5.79995">
        <ele>1334.6</ele>
        <time>2020-10-24T10:11:09Z</time>
      </trkpt>
      <trkpt lat="44.57904" lon="5.80005">
        <ele>1335.2</ele>
        <time>2020-10-24T10:11:13Z</time>
      </trkpt>
      <trkpt lat="44.57905" lon="5.80017">
        <ele>1335.6</ele>
        <time>2020-10-24T10:11:17Z</time>
      </trkpt>
      <trkpt lat="44.57905" lon="5.80028">
        <ele>1335.8</ele>
        <time>2020-10-24T10:11:21Z</time>
      </trkpt>
      <trkpt lat="44.57905" lon="5.80041">
        <ele>1336.2</ele>
        <time>2020-10-24T10:11:25Z</time>
      </trkpt>
      <trkpt lat="44.57904" lon="5.80053">
        <ele>1336.6</ele>
        <time>2020-10-24T10:11:29Z</time>
      </trkpt>
      <trkpt lat="44.57903" lon="5.80067">
        <ele>1336.8</ele>
        <time>2020-10-24T10:11:33Z</time>
      </trkpt>
      <trkpt lat="44.57901" lon="5.80081">
        <ele>1338</ele>
        <time>2020-10-24T10:11:37Z</time>
      </trkpt>
      <trkpt lat="44.57899" lon="5.80093">
        <ele>1338.2</ele>
        <time>2020-10-24T10:11:41Z</time>
      </trkpt>
      <trkpt lat="44.57896" lon="5.80105">
        <ele>1339.4</ele>
        <time>2020-10-24T10:11:45Z</time>
      </trkpt>
      <trkpt lat="44.57893" lon="5.80116">
        <ele>1339.6</ele>
        <time>2020-10-24T10:11:49Z</time>
      </trkpt>
      <trkpt lat="44.57891" lon="5.80127">
        <ele>1340.4</ele>
        <time>2020-10-24T10:11:53Z</time>
      </trkpt>
      <trkpt lat="44.57891" lon="5.80136">
        <ele>1341.8</ele>
        <time>2020-10-24T10:11:57Z</time>
      </trkpt>
      <trkpt lat="44.57891" lon="5.80144">
        <ele>1341.8</ele>
        <time>2020-10-24T10:12:01Z</time>
      </trkpt>
      <trkpt lat="44.57889" lon="5.80157">
        <ele>1342.2</ele>
        <time>2020-10-24T10:12:05Z</time>
      </trkpt>
      <trkpt lat="44.57885" lon="5.80168">
        <ele>1343.2</ele>
        <time>2020-10-24T10:12:09Z</time>
      </trkpt>
      <trkpt lat="44.57883" lon="5.80181">
        <ele>1343</ele>
        <time>2020-10-24T10:12:13Z</time>
      </trkpt>
      <trkpt lat="44.57882" lon="5.80194">
        <ele>1344</ele>
        <time>2020-10-24T10:12:17Z</time>
      </trkpt>
      <trkpt lat="44.5788" lon="5.80206">
        <ele>1343.6</ele>
        <time>2020-10-24T10:12:21Z</time>
      </trkpt>
      <trkpt lat="44.57879" lon="5.80217">
        <ele>1344.4</ele>
        <time>2020-10-24T10:12:25Z</time>
      </trkpt>
      <trkpt lat="44.57879" lon="5.80228">
        <ele>1344.6</ele>
        <time>2020-10-24T10:12:29Z</time>
      </trkpt>
      <trkpt lat="44.57876" lon="5.80238">
        <ele>1345.4</ele>
        <time>2020-10-24T10:12:33Z</time>
      </trkpt>
      <trkpt lat="44.57875" lon="5.80247">
        <ele>1345.6</ele>
        <time>2020-10-24T10:12:37Z</time>
      </trkpt>
      <trkpt lat="44.57875" lon="5.80257">
        <ele>1346.6</ele>
        <time>2020-10-24T10:12:41Z</time>
      </trkpt>
      <trkpt lat="44.57873" lon="5.80267">
        <ele>1347</ele>
        <time>2020-10-24T10:12:45Z</time>
      </trkpt>
      <trkpt lat="44.57871" lon="5.8028">
        <ele>1348</ele>
        <time>2020-10-24T10:12:49Z</time>
      </trkpt>
      <trkpt lat="44.57867" lon="5.80295">
        <ele>1347.6</ele>
        <time>2020-10-24T10:12:53Z</time>
      </trkpt>
      <trkpt lat="44.57864" lon="5.80307">
        <ele>1348.8</ele>
        <time>2020-10-24T10:12:57Z</time>
      </trkpt>
      <trkpt lat="44.57861" lon="5.80318">
        <ele>1349.2</ele>
        <time>2020-10-24T10:13:01Z</time>
      </trkpt>
      <trkpt lat="44.57859" lon="5.80332">
        <ele>1349.4</ele>
        <time>2020-10-24T10:13:05Z</time>
      </trkpt>
      <trkpt lat="44.5786" lon="5.80345">
        <ele>1350.2</ele>
        <time>2020-10-24T10:13:09Z</time>
      </trkpt>
      <trkpt lat="44.57862" lon="5.80355">
        <ele>1350.6</ele>
        <time>2020-10-24T10:13:13Z</time>
      </trkpt>
      <trkpt lat="44.5786" lon="5.80366">
        <ele>1351.8</ele>
        <time>2020-10-24T10:13:17Z</time>
      </trkpt>
      <trkpt lat="44.57858" lon="5.80378">
        <ele>1352</ele>
        <time>2020-10-24T10:13:21Z</time>
      </trkpt>
      <trkpt lat="44.57857" lon="5.80391">
        <ele>1352.4</ele>
        <time>2020-10-24T10:13:25Z</time>
      </trkpt>
      <trkpt lat="44.57854" lon="5.80403">
        <ele>1353.8</ele>
        <time>2020-10-24T10:13:29Z</time>
      </trkpt>
      <trkpt lat="44.5785" lon="5.80415">
        <ele>1354</ele>
        <time>2020-10-24T10:13:33Z</time>
      </trkpt>
      <trkpt lat="44.57844" lon="5.80425">
        <ele>1354.2</ele>
        <time>2020-10-24T10:13:37Z</time>
      </trkpt>
      <trkpt lat="44.57838" lon="5.80439">
        <ele>1355.4</ele>
        <time>2020-10-24T10:13:41Z</time>
      </trkpt>
      <trkpt lat="44.57834" lon="5.8045">
        <ele>1356.6</ele>
        <time>2020-10-24T10:13:45Z</time>
      </trkpt>
      <trkpt lat="44.57831" lon="5.80458">
        <ele>1357.2</ele>
        <time>2020-10-24T10:13:49Z</time>
      </trkpt>
      <trkpt lat="44.57829" lon="5.80468">
        <ele>1357.8</ele>
        <time>2020-10-24T10:13:53Z</time>
      </trkpt>
      <trkpt lat="44.57828" lon="5.8048">
        <ele>1359.2</ele>
        <time>2020-10-24T10:13:57Z</time>
      </trkpt>
      <trkpt lat="44.57827" lon="5.8049">
        <ele>1359.4</ele>
        <time>2020-10-24T10:14:01Z</time>
      </trkpt>
      <trkpt lat="44.57828" lon="5.805">
        <ele>1359.8</ele>
        <time>2020-10-24T10:14:05Z</time>
      </trkpt>
      <trkpt lat="44.57827" lon="5.8051">
        <ele>1360.8</ele>
        <time>2020-10-24T10:14:09Z</time>
      </trkpt>
      <trkpt lat="44.57827" lon="5.8052">
        <ele>1361.8</ele>
        <time>2020-10-24T10:14:13Z</time>
      </trkpt>
      <trkpt lat="44.57827" lon="5.80529">
        <ele>1362.2</ele>
        <time>2020-10-24T10:14:17Z</time>
      </trkpt>
      <trkpt lat="44.57827" lon="5.80537">
        <ele>1363</ele>
        <time>2020-10-24T10:14:21Z</time>
      </trkpt>
      <trkpt lat="44.57828" lon="5.80548">
        <ele>1363.8</ele>
        <time>2020-10-24T10:14:25Z</time>
      </trkpt>
      <trkpt lat="44.57832" lon="5.80559">
        <ele>1364</ele>
        <time>2020-10-24T10:14:29Z</time>
      </trkpt>
      <trkpt lat="44.57834" lon="5.80567">
        <ele>1365.2</ele>
        <time>2020-10-24T10:14:33Z</time>
      </trkpt>
      <trkpt lat="44.57836" lon="5.80576">
        <ele>1365.4</ele>
        <time>2020-10-24T10:14:37Z</time>
      </trkpt>
      <trkpt lat="44.57835" lon="5.8059">
        <ele>1366.8</ele>
        <time>2020-10-24T10:14:41Z</time>
      </trkpt>
      <trkpt lat="44.57833" lon="5.806">
        <ele>1367.4</ele>
        <time>2020-10-24T10:14:45Z</time>
      </trkpt>
      <trkpt lat="44.5783" lon="5.80609">
        <ele>1368.6</ele>
        <time>2020-10-24T10:14:49Z</time>
      </trkpt>
      <trkpt lat="44.57829" lon="5.80617">
        <ele>1369.6</ele>
        <time>2020-10-24T10:14:53Z</time>
      </trkpt>
      <trkpt lat="44.57828" lon="5.80628">
        <ele>1369.8</ele>
        <time>2020-10-24T10:14:57Z</time>
      </trkpt>
      <trkpt lat="44.57828" lon="5.80639">
        <ele>1370.6</ele>
        <time>2020-10-24T10:15:01Z</time>
      </trkpt>
      <trkpt lat="44.57829" lon="5.80646">
        <ele>1371.6</ele>
        <time>2020-10-24T10:15:05Z</time>
      </trkpt>
      <trkpt lat="44.57829" lon="5.80656">
        <ele>1372.6</ele>
        <time>2020-10-24T10:15:09Z</time>
      </trkpt>
      <trkpt lat="44.57828" lon="5.80665">
        <ele>1373.4</ele>
        <time>2020-10-24T10:15:13Z</time>
      </trkpt>
      <trkpt lat="44.57825" lon="5.80674">
        <ele>1373</ele>
        <time>2020-10-24T10:15:17Z</time>
      </trkpt>
      <trkpt lat="44.5782" lon="5.80681">
        <ele>1374.2</ele>
        <time>2020-10-24T10:15:21Z</time>
      </trkpt>
      <trkpt lat="44.57816" lon="5.80689">
        <ele>1374.6</ele>
        <time>2020-10-24T10:15:25Z</time>
      </trkpt>
      <trkpt lat="44.57811" lon="5.80697">
        <ele>1375.4</ele>
        <time>2020-10-24T10:15:29Z</time>
      </trkpt>
      <trkpt lat="44.57807" lon="5.80706">
        <ele>1375.6</ele>
        <time>2020-10-24T10:15:33Z</time>
      </trkpt>
      <trkpt lat="44.57804" lon="5.80716">
        <ele>1375.8</ele>
        <time>2020-10-24T10:15:37Z</time>
      </trkpt>
      <trkpt lat="44.57801" lon="5.80725">
        <ele>1377</ele>
        <time>2020-10-24T10:15:41Z</time>
      </trkpt>
      <trkpt lat="44.57798" lon="5.80734">
        <ele>1378</ele>
        <time>2020-10-24T10:15:45Z</time>
      </trkpt>
      <trkpt lat="44.57796" lon="5.80742">
        <ele>1378.8</ele>
        <time>2020-10-24T10:15:49Z</time>
      </trkpt>
      <trkpt lat="44.57794" lon="5.80752">
        <ele>1379.4</ele>
        <time>2020-10-24T10:15:53Z</time>
      </trkpt>
      <trkpt lat="44.57794" lon="5.8076">
        <ele>1380</ele>
        <time>2020-10-24T10:15:57Z</time>
      </trkpt>
      <trkpt lat="44.57791" lon="5.80768">
        <ele>1380.4</ele>
        <time>2020-10-24T10:16:01Z</time>
      </trkpt>
      <trkpt lat="44.578" lon="5.8077">
        <ele>1380.8</ele>
        <time>2020-10-24T10:18:17Z</time>
      </trkpt>
      <trkpt lat="44.57806" lon="5.80763">
        <ele>1381.4</ele>
        <time>2020-10-24T10:18:21Z</time>
      </trkpt>
      <trkpt lat="44.5781" lon="5.80755">
        <ele>1383</ele>
        <time>2020-10-24T10:18:25Z</time>
      </trkpt>
      <trkpt lat="44.57815" lon="5.80748">
        <ele>1383.4</ele>
        <time>2020-10-24T10:18:29Z</time>
      </trkpt>
      <trkpt lat="44.57819" lon="5.80742">
        <ele>1383.4</ele>
        <time>2020-10-24T10:18:33Z</time>
      </trkpt>
      <trkpt lat="44.57824" lon="5.80737">
        <ele>1385.2</ele>
        <time>2020-10-24T10:18:37Z</time>
      </trkpt>
      <trkpt lat="44.57829" lon="5.80734">
        <ele>1385.6</ele>
        <time>2020-10-24T10:18:41Z</time>
      </trkpt>
      <trkpt lat="44.57876" lon="5.80696">
        <ele>1391</ele>
        <time>2020-10-24T10:19:42Z</time>
      </trkpt>
      <trkpt lat="44.57881" lon="5.80691">
        <ele>1391.6</ele>
        <time>2020-10-24T10:19:46Z</time>
      </trkpt>
      <trkpt lat="44.57888" lon="5.80686">
        <ele>1393</ele>
        <time>2020-10-24T10:19:50Z</time>
      </trkpt>
      <trkpt lat="44.57894" lon="5.80683">
        <ele>1393.2</ele>
        <time>2020-10-24T10:19:54Z</time>
      </trkpt>
      <trkpt lat="44.57901" lon="5.80679">
        <ele>1394.4</ele>
        <time>2020-10-24T10:19:58Z</time>
      </trkpt>
      <trkpt lat="44.57908" lon="5.80676">
        <ele>1395</ele>
        <time>2020-10-24T10:20:02Z</time>
      </trkpt>
      <trkpt lat="44.57914" lon="5.80676">
        <ele>1395.4</ele>
        <time>2020-10-24T10:20:06Z</time>
      </trkpt>
      <trkpt lat="44.57921" lon="5.80676">
        <ele>1396.6</ele>
        <time>2020-10-24T10:20:10Z</time>
      </trkpt>
      <trkpt lat="44.57927" lon="5.80676">
        <ele>1396.8</ele>
        <time>2020-10-24T10:20:14Z</time>
      </trkpt>
      <trkpt lat="44.57933" lon="5.80674">
        <ele>1397.8</ele>
        <time>2020-10-24T10:20:18Z</time>
      </trkpt>
      <trkpt lat="44.57937" lon="5.8067">
        <ele>1398</ele>
        <time>2020-10-24T10:20:22Z</time>
      </trkpt>
      <trkpt lat="44.57942" lon="5.80665">
        <ele>1398.8</ele>
        <time>2020-10-24T10:20:26Z</time>
      </trkpt>
      <trkpt lat="44.57947" lon="5.80661">
        <ele>1399.2</ele>
        <time>2020-10-24T10:20:30Z</time>
      </trkpt>
      <trkpt lat="44.57952" lon="5.80656">
        <ele>1399.6</ele>
        <time>2020-10-24T10:20:34Z</time>
      </trkpt>
      <trkpt lat="44.57957" lon="5.80652">
        <ele>1400.8</ele>
        <time>2020-10-24T10:20:38Z</time>
      </trkpt>
      <trkpt lat="44.57963" lon="5.80649">
        <ele>1400.8</ele>
        <time>2020-10-24T10:20:42Z</time>
      </trkpt>
      <trkpt lat="44.57969" lon="5.80647">
        <ele>1402</ele>
        <time>2020-10-24T10:20:46Z</time>
      </trkpt>
      <trkpt lat="44.57975" lon="5.8065">
        <ele>1402.2</ele>
        <time>2020-10-24T10:20:50Z</time>
      </trkpt>
      <trkpt lat="44.5798" lon="5.80651">
        <ele>1403</ele>
        <time>2020-10-24T10:20:54Z</time>
      </trkpt>
      <trkpt lat="44.57986" lon="5.80653">
        <ele>1403</ele>
        <time>2020-10-24T10:20:58Z</time>
      </trkpt>
      <trkpt lat="44.57993" lon="5.80653">
        <ele>1403.6</ele>
        <time>2020-10-24T10:21:02Z</time>
      </trkpt>
      <trkpt lat="44.58" lon="5.80651">
        <ele>1404.6</ele>
        <time>2020-10-24T10:21:06Z</time>
      </trkpt>
      <trkpt lat="44.58005" lon="5.8065">
        <ele>1405.4</ele>
        <time>2020-10-24T10:21:10Z</time>
      </trkpt>
      <trkpt lat="44.58011" lon="5.80647">
        <ele>1406.2</ele>
        <time>2020-10-24T10:21:14Z</time>
      </trkpt>
      <trkpt lat="44.58016" lon="5.80642">
        <ele>1406.6</ele>
        <time>2020-10-24T10:21:18Z</time>
      </trkpt>
      <trkpt lat="44.58021" lon="5.80638">
        <ele>1407</ele>
        <time>2020-10-24T10:21:22Z</time>
      </trkpt>
      <trkpt lat="44.58025" lon="5.80633">
        <ele>1407.8</ele>
        <time>2020-10-24T10:21:26Z</time>
      </trkpt>
      <trkpt lat="44.58031" lon="5.80628">
        <ele>1408.2</ele>
        <time>2020-10-24T10:21:30Z</time>
      </trkpt>
      <trkpt lat="44.58035" lon="5.80621">
        <ele>1408.6</ele>
        <time>2020-10-24T10:21:34Z</time>
      </trkpt>
      <trkpt lat="44.58038" lon="5.80612">
        <ele>1410</ele>
        <time>2020-10-24T10:21:38Z</time>
      </trkpt>
      <trkpt lat="44.58041" lon="5.80603">
        <ele>1410.2</ele>
        <time>2020-10-24T10:21:42Z</time>
      </trkpt>
      <trkpt lat="44.58044" lon="5.80594">
        <ele>1410.4</ele>
        <time>2020-10-24T10:21:46Z</time>
      </trkpt>
      <trkpt lat="44.58045" lon="5.80585">
        <ele>1411.8</ele>
        <time>2020-10-24T10:21:50Z</time>
      </trkpt>
      <trkpt lat="44.58048" lon="5.80577">
        <ele>1411.6</ele>
        <time>2020-10-24T10:21:54Z</time>
      </trkpt>
      <trkpt lat="44.58051" lon="5.8057">
        <ele>1413.2</ele>
        <time>2020-10-24T10:21:58Z</time>
      </trkpt>
      <trkpt lat="44.58057" lon="5.80566">
        <ele>1413.8</ele>
        <time>2020-10-24T10:22:02Z</time>
      </trkpt>
      <trkpt lat="44.58062" lon="5.80566">
        <ele>1414</ele>
        <time>2020-10-24T10:22:06Z</time>
      </trkpt>
      <trkpt lat="44.58066" lon="5.8057">
        <ele>1419.2</ele>
        <time>2020-10-24T10:56:38Z</time>
      </trkpt>
      <trkpt lat="44.5807" lon="5.80577">
        <ele>1419.8</ele>
        <time>2020-10-24T10:56:42Z</time>
      </trkpt>
      <trkpt lat="44.5807" lon="5.80586">
        <ele>1419.8</ele>
        <time>2020-10-24T10:56:46Z</time>
      </trkpt>
      <trkpt lat="44.5807" lon="5.80595">
        <ele>1421.6</ele>
        <time>2020-10-24T10:56:50Z</time>
      </trkpt>
      <trkpt lat="44.58071" lon="5.80604">
        <ele>1421.2</ele>
        <time>2020-10-24T10:56:54Z</time>
      </trkpt>
      <trkpt lat="44.5807" lon="5.80612">
        <ele>1422.6</ele>
        <time>2020-10-24T10:56:58Z</time>
      </trkpt>
      <trkpt lat="44.5807" lon="5.80619">
        <ele>1423</ele>
        <time>2020-10-24T10:57:02Z</time>
      </trkpt>
      <trkpt lat="44.58072" lon="5.80627">
        <ele>1424.2</ele>
        <time>2020-10-24T10:57:06Z</time>
      </trkpt>
      <trkpt lat="44.58071" lon="5.80635">
        <ele>1424</ele>
        <time>2020-10-24T10:57:10Z</time>
      </trkpt>
      <trkpt lat="44.58071" lon="5.80643">
        <ele>1424.4</ele>
        <time>2020-10-24T10:57:14Z</time>
      </trkpt>
      <trkpt lat="44.58071" lon="5.80652">
        <ele>1424.8</ele>
        <time>2020-10-24T10:57:18Z</time>
      </trkpt>
      <trkpt lat="44.58071" lon="5.80661">
        <ele>1425.4</ele>
        <time>2020-10-24T10:57:22Z</time>
      </trkpt>
      <trkpt lat="44.5807" lon="5.8067">
        <ele>1426.6</ele>
        <time>2020-10-24T10:57:26Z</time>
      </trkpt>
      <trkpt lat="44.58069" lon="5.80679">
        <ele>1427</ele>
        <time>2020-10-24T10:57:30Z</time>
      </trkpt>
      <trkpt lat="44.58068" lon="5.80688">
        <ele>1427.6</ele>
        <time>2020-10-24T10:57:34Z</time>
      </trkpt>
      <trkpt lat="44.58067" lon="5.80695">
        <ele>1428.2</ele>
        <time>2020-10-24T10:57:38Z</time>
      </trkpt>
      <trkpt lat="44.58066" lon="5.80703">
        <ele>1429.6</ele>
        <time>2020-10-24T10:57:42Z</time>
      </trkpt>
      <trkpt lat="44.58065" lon="5.8071">
        <ele>1430</ele>
        <time>2020-10-24T10:57:46Z</time>
      </trkpt>
      <trkpt lat="44.58064" lon="5.80717">
        <ele>1430.6</ele>
        <time>2020-10-24T10:57:50Z</time>
      </trkpt>
      <trkpt lat="44.58061" lon="5.80724">
        <ele>1431.2</ele>
        <time>2020-10-24T10:57:54Z</time>
      </trkpt>
      <trkpt lat="44.58058" lon="5.80732">
        <ele>1431.2</ele>
        <time>2020-10-24T10:57:58Z</time>
      </trkpt>
      <trkpt lat="44.58055" lon="5.80739">
        <ele>1431.8</ele>
        <time>2020-10-24T10:58:02Z</time>
      </trkpt>
      <trkpt lat="44.58051" lon="5.80744">
        <ele>1432.6</ele>
        <time>2020-10-24T10:58:06Z</time>
      </trkpt>
      <trkpt lat="44.58047" lon="5.8075">
        <ele>1433</ele>
        <time>2020-10-24T10:58:10Z</time>
      </trkpt>
      <trkpt lat="44.58044" lon="5.80756">
        <ele>1433</ele>
        <time>2020-10-24T10:58:14Z</time>
      </trkpt>
      <trkpt lat="44.58045" lon="5.80763">
        <ele>1433.6</ele>
        <time>2020-10-24T10:58:18Z</time>
      </trkpt>
      <trkpt lat="44.58048" lon="5.80767">
        <ele>1434.6</ele>
        <time>2020-10-24T10:58:22Z</time>
      </trkpt>
      <trkpt lat="44.58054" lon="5.80764">
        <ele>1435.2</ele>
        <time>2020-10-24T10:58:26Z</time>
      </trkpt>
      <trkpt lat="44.58059" lon="5.8076">
        <ele>1435.2</ele>
        <time>2020-10-24T10:58:30Z</time>
      </trkpt>
      <trkpt lat="44.58063" lon="5.80754">
        <ele>1436</ele>
        <time>2020-10-24T10:58:34Z</time>
      </trkpt>
      <trkpt lat="44.58066" lon="5.80748">
        <ele>1436.6</ele>
        <time>2020-10-24T10:58:38Z</time>
      </trkpt>
      <trkpt lat="44.58071" lon="5.80742">
        <ele>1437.6</ele>
        <time>2020-10-24T10:58:42Z</time>
      </trkpt>
      <trkpt lat="44.58075" lon="5.80735">
        <ele>1438</ele>
        <time>2020-10-24T10:58:46Z</time>
      </trkpt>
      <trkpt lat="44.58079" lon="5.80729">
        <ele>1438.6</ele>
        <time>2020-10-24T10:58:50Z</time>
      </trkpt>
      <trkpt lat="44.58084" lon="5.80722">
        <ele>1438.6</ele>
        <time>2020-10-24T10:58:54Z</time>
      </trkpt>
      <trkpt lat="44.58088" lon="5.80715">
        <ele>1439.6</ele>
        <time>2020-10-24T10:58:58Z</time>
      </trkpt>
      <trkpt lat="44.58092" lon="5.80708">
        <ele>1440.2</ele>
        <time>2020-10-24T10:59:02Z</time>
      </trkpt>
      <trkpt lat="44.58095" lon="5.80701">
        <ele>1441</ele>
        <time>2020-10-24T10:59:06Z</time>
      </trkpt>
      <trkpt lat="44.58098" lon="5.80694">
        <ele>1441.2</ele>
        <time>2020-10-24T10:59:10Z</time>
      </trkpt>
      <trkpt lat="44.58101" lon="5.80687">
        <ele>1442.4</ele>
        <time>2020-10-24T10:59:14Z</time>
      </trkpt>
      <trkpt lat="44.58104" lon="5.80681">
        <ele>1443.2</ele>
        <time>2020-10-24T10:59:18Z</time>
      </trkpt>
      <trkpt lat="44.58108" lon="5.80674">
        <ele>1444</ele>
        <time>2020-10-24T10:59:22Z</time>
      </trkpt>
      <trkpt lat="44.58111" lon="5.80667">
        <ele>1444.2</ele>
        <time>2020-10-24T10:59:26Z</time>
      </trkpt>
      <trkpt lat="44.58115" lon="5.80661">
        <ele>1444.8</ele>
        <time>2020-10-24T10:59:30Z</time>
      </trkpt>
      <trkpt lat="44.58119" lon="5.80655">
        <ele>1445.6</ele>
        <time>2020-10-24T10:59:34Z</time>
      </trkpt>
      <trkpt lat="44.58125" lon="5.80652">
        <ele>1446.6</ele>
        <time>2020-10-24T10:59:38Z</time>
      </trkpt>
      <trkpt lat="44.58131" lon="5.8065">
        <ele>1446.8</ele>
        <time>2020-10-24T10:59:42Z</time>
      </trkpt>
      <trkpt lat="44.58137" lon="5.80648">
        <ele>1447.6</ele>
        <time>2020-10-24T10:59:46Z</time>
      </trkpt>
      <trkpt lat="44.58143" lon="5.80645">
        <ele>1448.4</ele>
        <time>2020-10-24T10:59:50Z</time>
      </trkpt>
      <trkpt lat="44.58148" lon="5.80642">
        <ele>1449.2</ele>
        <time>2020-10-24T10:59:54Z</time>
      </trkpt>
      <trkpt lat="44.58154" lon="5.80638">
        <ele>1449.2</ele>
        <time>2020-10-24T10:59:58Z</time>
      </trkpt>
      <trkpt lat="44.58159" lon="5.80634">
        <ele>1449.6</ele>
        <time>2020-10-24T11:00:02Z</time>
      </trkpt>
      <trkpt lat="44.58165" lon="5.80631">
        <ele>1450.8</ele>
        <time>2020-10-24T11:00:06Z</time>
      </trkpt>
      <trkpt lat="44.58171" lon="5.80625">
        <ele>1451.2</ele>
        <time>2020-10-24T11:00:10Z</time>
      </trkpt>
      <trkpt lat="44.58175" lon="5.80619">
        <ele>1452.2</ele>
        <time>2020-10-24T11:00:14Z</time>
      </trkpt>
      <trkpt lat="44.58179" lon="5.80611">
        <ele>1452</ele>
        <time>2020-10-24T11:00:18Z</time>
      </trkpt>
      <trkpt lat="44.58182" lon="5.80604">
        <ele>1453.4</ele>
        <time>2020-10-24T11:00:22Z</time>
      </trkpt>
      <trkpt lat="44.58185" lon="5.80596">
        <ele>1454</ele>
        <time>2020-10-24T11:00:26Z</time>
      </trkpt>
      <trkpt lat="44.58188" lon="5.80589">
        <ele>1454.4</ele>
        <time>2020-10-24T11:00:30Z</time>
      </trkpt>
      <trkpt lat="44.58192" lon="5.80582">
        <ele>1455.8</ele>
        <time>2020-10-24T11:00:34Z</time>
      </trkpt>
      <trkpt lat="44.58196" lon="5.80574">
        <ele>1455.8</ele>
        <time>2020-10-24T11:00:38Z</time>
      </trkpt>
      <trkpt lat="44.582" lon="5.80568">
        <ele>1456.2</ele>
        <time>2020-10-24T11:00:42Z</time>
      </trkpt>
      <trkpt lat="44.58202" lon="5.80559">
        <ele>1458.2</ele>
        <time>2020-10-24T11:00:46Z</time>
      </trkpt>
      <trkpt lat="44.58204" lon="5.8055">
        <ele>1457.8</ele>
        <time>2020-10-24T11:00:50Z</time>
      </trkpt>
      <trkpt lat="44.58204" lon="5.80542">
        <ele>1458.6</ele>
        <time>2020-10-24T11:00:54Z</time>
      </trkpt>
      <trkpt lat="44.58203" lon="5.80532">
        <ele>1458.8</ele>
        <time>2020-10-24T11:00:58Z</time>
      </trkpt>
      <trkpt lat="44.58203" lon="5.80524">
        <ele>1459.8</ele>
        <time>2020-10-24T11:01:02Z</time>
      </trkpt>
      <trkpt lat="44.58201" lon="5.80515">
        <ele>1459.8</ele>
        <time>2020-10-24T11:01:06Z</time>
      </trkpt>
      <trkpt lat="44.58199" lon="5.80505">
        <ele>1460.8</ele>
        <time>2020-10-24T11:01:10Z</time>
      </trkpt>
      <trkpt lat="44.58199" lon="5.80496">
        <ele>1460.8</ele>
        <time>2020-10-24T11:01:14Z</time>
      </trkpt>
      <trkpt lat="44.58196" lon="5.80487">
        <ele>1461.8</ele>
        <time>2020-10-24T11:01:18Z</time>
      </trkpt>
      <trkpt lat="44.58195" lon="5.80479">
        <ele>1462.4</ele>
        <time>2020-10-24T11:01:22Z</time>
      </trkpt>
      <trkpt lat="44.58194" lon="5.8047">
        <ele>1463.4</ele>
        <time>2020-10-24T11:01:26Z</time>
      </trkpt>
      <trkpt lat="44.58191" lon="5.80461">
        <ele>1463.6</ele>
        <time>2020-10-24T11:01:30Z</time>
      </trkpt>
      <trkpt lat="44.58189" lon="5.80454">
        <ele>1464.6</ele>
        <time>2020-10-24T11:01:34Z</time>
      </trkpt>
      <trkpt lat="44.58188" lon="5.80446">
        <ele>1464.8</ele>
        <time>2020-10-24T11:01:38Z</time>
      </trkpt>
      <trkpt lat="44.58187" lon="5.80439">
        <ele>1466.4</ele>
        <time>2020-10-24T11:01:42Z</time>
      </trkpt>
      <trkpt lat="44.58184" lon="5.80431">
        <ele>1466.4</ele>
        <time>2020-10-24T11:01:46Z</time>
      </trkpt>
      <trkpt lat="44.58182" lon="5.80421">
        <ele>1467.6</ele>
        <time>2020-10-24T11:01:50Z</time>
      </trkpt>
      <trkpt lat="44.58183" lon="5.80415">
        <ele>1467.2</ele>
        <time>2020-10-24T11:01:54Z</time>
      </trkpt>
      <trkpt lat="44.58183" lon="5.80406">
        <ele>1468.6</ele>
        <time>2020-10-24T11:01:58Z</time>
      </trkpt>
      <trkpt lat="44.58184" lon="5.80394">
        <ele>1468.8</ele>
        <time>2020-10-24T11:02:02Z</time>
      </trkpt>
      <trkpt lat="44.58185" lon="5.80385">
        <ele>1469</ele>
        <time>2020-10-24T11:02:06Z</time>
      </trkpt>
      <trkpt lat="44.58186" lon="5.80375">
        <ele>1469.8</ele>
        <time>2020-10-24T11:02:10Z</time>
      </trkpt>
      <trkpt lat="44.58188" lon="5.80364">
        <ele>1471</ele>
        <time>2020-10-24T11:02:14Z</time>
      </trkpt>
      <trkpt lat="44.58188" lon="5.80355">
        <ele>1471</ele>
        <time>2020-10-24T11:02:18Z</time>
      </trkpt>
      <trkpt lat="44.58188" lon="5.80346">
        <ele>1471.8</ele>
        <time>2020-10-24T11:02:22Z</time>
      </trkpt>
      <trkpt lat="44.58187" lon="5.80337">
        <ele>1471.8</ele>
        <time>2020-10-24T11:02:26Z</time>
      </trkpt>
      <trkpt lat="44.58184" lon="5.80328">
        <ele>1472.4</ele>
        <time>2020-10-24T11:02:30Z</time>
      </trkpt>
      <trkpt lat="44.58184" lon="5.8032">
        <ele>1473</ele>
        <time>2020-10-24T11:02:34Z</time>
      </trkpt>
      <trkpt lat="44.58188" lon="5.80313">
        <ele>1473.8</ele>
        <time>2020-10-24T11:02:38Z</time>
      </trkpt>
      <trkpt lat="44.58195" lon="5.80311">
        <ele>1473.8</ele>
        <time>2020-10-24T11:02:42Z</time>
      </trkpt>
      <trkpt lat="44.58201" lon="5.80311">
        <ele>1475</ele>
        <time>2020-10-24T11:02:46Z</time>
      </trkpt>
      <trkpt lat="44.58206" lon="5.80317">
        <ele>1475.2</ele>
        <time>2020-10-24T11:02:50Z</time>
      </trkpt>
      <trkpt lat="44.58209" lon="5.80323">
        <ele>1475.8</ele>
        <time>2020-10-24T11:02:54Z</time>
      </trkpt>
      <trkpt lat="44.58211" lon="5.8033">
        <ele>1476.8</ele>
        <time>2020-10-24T11:02:58Z</time>
      </trkpt>
      <trkpt lat="44.58216" lon="5.80337">
        <ele>1477.4</ele>
        <time>2020-10-24T11:03:02Z</time>
      </trkpt>
      <trkpt lat="44.58221" lon="5.80344">
        <ele>1478</ele>
        <time>2020-10-24T11:03:06Z</time>
      </trkpt>
      <trkpt lat="44.58226" lon="5.8035">
        <ele>1478.2</ele>
        <time>2020-10-24T11:03:10Z</time>
      </trkpt>
      <trkpt lat="44.58232" lon="5.80355">
        <ele>1478.8</ele>
        <time>2020-10-24T11:03:14Z</time>
      </trkpt>
      <trkpt lat="44.58239" lon="5.80359">
        <ele>1479.4</ele>
        <time>2020-10-24T11:03:18Z</time>
      </trkpt>
      <trkpt lat="44.58245" lon="5.80363">
        <ele>1480.2</ele>
        <time>2020-10-24T11:03:22Z</time>
      </trkpt>
      <trkpt lat="44.58251" lon="5.80367">
        <ele>1481</ele>
        <time>2020-10-24T11:03:26Z</time>
      </trkpt>
      <trkpt lat="44.58257" lon="5.80372">
        <ele>1481.8</ele>
        <time>2020-10-24T11:03:30Z</time>
      </trkpt>
      <trkpt lat="44.58262" lon="5.80377">
        <ele>1482.2</ele>
        <time>2020-10-24T11:03:34Z</time>
      </trkpt>
      <trkpt lat="44.58266" lon="5.80384">
        <ele>1482.8</ele>
        <time>2020-10-24T11:03:38Z</time>
      </trkpt>
      <trkpt lat="44.58269" lon="5.80391">
        <ele>1484.6</ele>
        <time>2020-10-24T11:03:42Z</time>
      </trkpt>
      <trkpt lat="44.58272" lon="5.80398">
        <ele>1484.4</ele>
        <time>2020-10-24T11:03:46Z</time>
      </trkpt>
      <trkpt lat="44.58274" lon="5.80406">
        <ele>1485</ele>
        <time>2020-10-24T11:03:50Z</time>
      </trkpt>
      <trkpt lat="44.58276" lon="5.80414">
        <ele>1485.6</ele>
        <time>2020-10-24T11:03:54Z</time>
      </trkpt>
      <trkpt lat="44.58279" lon="5.80422">
        <ele>1485.8</ele>
        <time>2020-10-24T11:03:58Z</time>
      </trkpt>
      <trkpt lat="44.5828" lon="5.8043">
        <ele>1486.8</ele>
        <time>2020-10-24T11:04:02Z</time>
      </trkpt>
      <trkpt lat="44.58282" lon="5.80439">
        <ele>1487.6</ele>
        <time>2020-10-24T11:04:06Z</time>
      </trkpt>
      <trkpt lat="44.58284" lon="5.80447">
        <ele>1488.4</ele>
        <time>2020-10-24T11:04:10Z</time>
      </trkpt>
      <trkpt lat="44.58286" lon="5.80455">
        <ele>1488.8</ele>
        <time>2020-10-24T11:04:14Z</time>
      </trkpt>
      <trkpt lat="44.58288" lon="5.80463">
        <ele>1488.6</ele>
        <time>2020-10-24T11:04:18Z</time>
      </trkpt>
      <trkpt lat="44.5829" lon="5.80471">
        <ele>1489.2</ele>
        <time>2020-10-24T11:04:22Z</time>
      </trkpt>
      <trkpt lat="44.58292" lon="5.8048">
        <ele>1490.6</ele>
        <time>2020-10-24T11:04:26Z</time>
      </trkpt>
      <trkpt lat="44.58294" lon="5.80488">
        <ele>1491</ele>
        <time>2020-10-24T11:04:30Z</time>
      </trkpt>
      <trkpt lat="44.58296" lon="5.80497">
        <ele>1492.2</ele>
        <time>2020-10-24T11:04:34Z</time>
      </trkpt>
      <trkpt lat="44.58298" lon="5.80504">
        <ele>1492.4</ele>
        <time>2020-10-24T11:04:38Z</time>
      </trkpt>
      <trkpt lat="44.58301" lon="5.80512">
        <ele>1493.6</ele>
        <time>2020-10-24T11:04:42Z</time>
      </trkpt>
      <trkpt lat="44.58303" lon="5.80519">
        <ele>1493.8</ele>
        <time>2020-10-24T11:04:46Z</time>
      </trkpt>
      <trkpt lat="44.58307" lon="5.80526">
        <ele>1494.4</ele>
        <time>2020-10-24T11:04:50Z</time>
      </trkpt>
      <trkpt lat="44.5831" lon="5.80533">
        <ele>1495.6</ele>
        <time>2020-10-24T11:04:54Z</time>
      </trkpt>
      <trkpt lat="44.58315" lon="5.80537">
        <ele>1495.6</ele>
        <time>2020-10-24T11:04:58Z</time>
      </trkpt>
      <trkpt lat="44.58321" lon="5.80537">
        <ele>1497</ele>
        <time>2020-10-24T11:05:02Z</time>
      </trkpt>
      <trkpt lat="44.58326" lon="5.80534">
        <ele>1498.2</ele>
        <time>2020-10-24T11:05:06Z</time>
      </trkpt>
      <trkpt lat="44.5833" lon="5.80528">
        <ele>1499</ele>
        <time>2020-10-24T11:05:10Z</time>
      </trkpt>
      <trkpt lat="44.58334" lon="5.80523">
        <ele>1498.8</ele>
        <time>2020-10-24T11:05:14Z</time>
      </trkpt>
      <trkpt lat="44.58337" lon="5.80517">
        <ele>1499.8</ele>
        <time>2020-10-24T11:05:18Z</time>
      </trkpt>
      <trkpt lat="44.5834" lon="5.80511">
        <ele>1500.8</ele>
        <time>2020-10-24T11:05:22Z</time>
      </trkpt>
      <trkpt lat="44.58345" lon="5.80506">
        <ele>1501.4</ele>
        <time>2020-10-24T11:05:26Z</time>
      </trkpt>
      <trkpt lat="44.58349" lon="5.80501">
        <ele>1502.2</ele>
        <time>2020-10-24T11:05:30Z</time>
      </trkpt>
      <trkpt lat="44.58354" lon="5.80497">
        <ele>1502.2</ele>
        <time>2020-10-24T11:05:34Z</time>
      </trkpt>
      <trkpt lat="44.5836" lon="5.80494">
        <ele>1503.4</ele>
        <time>2020-10-24T11:05:38Z</time>
      </trkpt>
      <trkpt lat="44.58365" lon="5.80492">
        <ele>1503.8</ele>
        <time>2020-10-24T11:05:42Z</time>
      </trkpt>
      <trkpt lat="44.58372" lon="5.80491">
        <ele>1504.4</ele>
        <time>2020-10-24T11:05:46Z</time>
      </trkpt>
      <trkpt lat="44.58377" lon="5.80489">
        <ele>1504.6</ele>
        <time>2020-10-24T11:05:50Z</time>
      </trkpt>
      <trkpt lat="44.58383" lon="5.80487">
        <ele>1505.6</ele>
        <time>2020-10-24T11:05:54Z</time>
      </trkpt>
      <trkpt lat="44.58388" lon="5.80484">
        <ele>1506.6</ele>
        <time>2020-10-24T11:05:58Z</time>
      </trkpt>
      <trkpt lat="44.58394" lon="5.80482">
        <ele>1507</ele>
        <time>2020-10-24T11:06:02Z</time>
      </trkpt>
      <trkpt lat="44.584" lon="5.80479">
        <ele>1507</ele>
        <time>2020-10-24T11:06:06Z</time>
      </trkpt>
      <trkpt lat="44.58405" lon="5.80477">
        <ele>1508.2</ele>
        <time>2020-10-24T11:06:10Z</time>
      </trkpt>
      <trkpt lat="44.58411" lon="5.80474">
        <ele>1509.2</ele>
        <time>2020-10-24T11:06:14Z</time>
      </trkpt>
      <trkpt lat="44.58417" lon="5.80472">
        <ele>1510.2</ele>
        <time>2020-10-24T11:06:18Z</time>
      </trkpt>
      <trkpt lat="44.58423" lon="5.8047">
        <ele>1510.2</ele>
        <time>2020-10-24T11:06:22Z</time>
      </trkpt>
      <trkpt lat="44.58429" lon="5.80468">
        <ele>1510.8</ele>
        <time>2020-10-24T11:06:26Z</time>
      </trkpt>
      <trkpt lat="44.58434" lon="5.80466">
        <ele>1512</ele>
        <time>2020-10-24T11:06:30Z</time>
      </trkpt>
      <trkpt lat="44.5844" lon="5.80464">
        <ele>1512.6</ele>
        <time>2020-10-24T11:06:34Z</time>
      </trkpt>
      <trkpt lat="44.58446" lon="5.80462">
        <ele>1513.4</ele>
        <time>2020-10-24T11:06:38Z</time>
      </trkpt>
      <trkpt lat="44.58452" lon="5.80461">
        <ele>1513.6</ele>
        <time>2020-10-24T11:06:42Z</time>
      </trkpt>
      <trkpt lat="44.58457" lon="5.8046">
        <ele>1514.6</ele>
        <time>2020-10-24T11:06:46Z</time>
      </trkpt>
      <trkpt lat="44.58462" lon="5.80457">
        <ele>1515.4</ele>
        <time>2020-10-24T11:06:50Z</time>
      </trkpt>
      <trkpt lat="44.58468" lon="5.80454">
        <ele>1515.4</ele>
        <time>2020-10-24T11:06:54Z</time>
      </trkpt>
      <trkpt lat="44.58474" lon="5.80451">
        <ele>1516.2</ele>
        <time>2020-10-24T11:06:58Z</time>
      </trkpt>
      <trkpt lat="44.5848" lon="5.80449">
        <ele>1517.2</ele>
        <time>2020-10-24T11:07:02Z</time>
      </trkpt>
      <trkpt lat="44.58485" lon="5.80447">
        <ele>1517.6</ele>
        <time>2020-10-24T11:07:06Z</time>
      </trkpt>
      <trkpt lat="44.58491" lon="5.80444">
        <ele>1518.4</ele>
        <time>2020-10-24T11:07:10Z</time>
      </trkpt>
      <trkpt lat="44.58497" lon="5.80441">
        <ele>1519.2</ele>
        <time>2020-10-24T11:07:14Z</time>
      </trkpt>
      <trkpt lat="44.58503" lon="5.80437">
        <ele>1519.4</ele>
        <time>2020-10-24T11:07:18Z</time>
      </trkpt>
      <trkpt lat="44.58509" lon="5.80435">
        <ele>1520.6</ele>
        <time>2020-10-24T11:07:22Z</time>
      </trkpt>
      <trkpt lat="44.58515" lon="5.80432">
        <ele>1521.4</ele>
        <time>2020-10-24T11:07:26Z</time>
      </trkpt>
      <trkpt lat="44.58521" lon="5.8043">
        <ele>1521.8</ele>
        <time>2020-10-24T11:07:30Z</time>
      </trkpt>
      <trkpt lat="44.58527" lon="5.80427">
        <ele>1522.2</ele>
        <time>2020-10-24T11:07:34Z</time>
      </trkpt>
      <trkpt lat="44.58533" lon="5.80425">
        <ele>1522.8</ele>
        <time>2020-10-24T11:07:38Z</time>
      </trkpt>
      <trkpt lat="44.58539" lon="5.80423">
        <ele>1523</ele>
        <time>2020-10-24T11:07:42Z</time>
      </trkpt>
      <trkpt lat="44.58545" lon="5.80422">
        <ele>1523.8</ele>
        <time>2020-10-24T11:07:46Z</time>
      </trkpt>
      <trkpt lat="44.5855" lon="5.8042">
        <ele>1525</ele>
        <time>2020-10-24T11:07:50Z</time>
      </trkpt>
      <trkpt lat="44.58557" lon="5.80418">
        <ele>1525</ele>
        <time>2020-10-24T11:07:54Z</time>
      </trkpt>
      <trkpt lat="44.58562" lon="5.80414">
        <ele>1525</ele>
        <time>2020-10-24T11:07:58Z</time>
      </trkpt>
      <trkpt lat="44.58568" lon="5.80411">
        <ele>1526.4</ele>
        <time>2020-10-24T11:08:02Z</time>
      </trkpt>
      <trkpt lat="44.58574" lon="5.80408">
        <ele>1526.4</ele>
        <time>2020-10-24T11:08:06Z</time>
      </trkpt>
      <trkpt lat="44.5858" lon="5.80405">
        <ele>1528.2</ele>
        <time>2020-10-24T11:08:10Z</time>
      </trkpt>
      <trkpt lat="44.58586" lon="5.80403">
        <ele>1529</ele>
        <time>2020-10-24T11:08:14Z</time>
      </trkpt>
      <trkpt lat="44.58592" lon="5.804">
        <ele>1528.8</ele>
        <time>2020-10-24T11:08:18Z</time>
      </trkpt>
      <trkpt lat="44.58597" lon="5.80397">
        <ele>1529</ele>
        <time>2020-10-24T11:08:22Z</time>
      </trkpt>
      <trkpt lat="44.58602" lon="5.80394">
        <ele>1529.4</ele>
        <time>2020-10-24T11:08:26Z</time>
      </trkpt>
      <trkpt lat="44.58607" lon="5.80392">
        <ele>1530.6</ele>
        <time>2020-10-24T11:08:30Z</time>
      </trkpt>
      <trkpt lat="44.58612" lon="5.8039">
        <ele>1530.6</ele>
        <time>2020-10-24T11:08:34Z</time>
      </trkpt>
      <trkpt lat="44.58618" lon="5.80387">
        <ele>1530.8</ele>
        <time>2020-10-24T11:08:38Z</time>
      </trkpt>
      <trkpt lat="44.58624" lon="5.80383">
        <ele>1531.6</ele>
        <time>2020-10-24T11:08:42Z</time>
      </trkpt>
      <trkpt lat="44.58629" lon="5.80377">
        <ele>1532</ele>
        <time>2020-10-24T11:08:46Z</time>
      </trkpt>
      <trkpt lat="44.58634" lon="5.80375">
        <ele>1533.2</ele>
        <time>2020-10-24T11:08:50Z</time>
      </trkpt>
      <trkpt lat="44.58639" lon="5.80373">
        <ele>1534.4</ele>
        <time>2020-10-24T11:08:54Z</time>
      </trkpt>
      <trkpt lat="44.58644" lon="5.80372">
        <ele>1534.4</ele>
        <time>2020-10-24T11:08:58Z</time>
      </trkpt>
      <trkpt lat="44.58649" lon="5.8037">
        <ele>1534.4</ele>
        <time>2020-10-24T11:09:02Z</time>
      </trkpt>
      <trkpt lat="44.58654" lon="5.80368">
        <ele>1535.2</ele>
        <time>2020-10-24T11:09:06Z</time>
      </trkpt>
      <trkpt lat="44.58659" lon="5.80368">
        <ele>1536.4</ele>
        <time>2020-10-24T11:09:10Z</time>
      </trkpt>
      <trkpt lat="44.58663" lon="5.80367">
        <ele>1537.2</ele>
        <time>2020-10-24T11:09:14Z</time>
      </trkpt>
      <trkpt lat="44.58668" lon="5.80366">
        <ele>1537.6</ele>
        <time>2020-10-24T11:09:18Z</time>
      </trkpt>
      <trkpt lat="44.58686" lon="5.80359">
        <ele>1539.6</ele>
        <time>2020-10-24T11:09:31Z</time>
      </trkpt>
      <trkpt lat="44.58691" lon="5.80357">
        <ele>1539.8</ele>
        <time>2020-10-24T11:09:35Z</time>
      </trkpt>
      <trkpt lat="44.58697" lon="5.80354">
        <ele>1540</ele>
        <time>2020-10-24T11:09:39Z</time>
      </trkpt>
      <trkpt lat="44.58702" lon="5.80351">
        <ele>1540.8</ele>
        <time>2020-10-24T11:09:43Z</time>
      </trkpt>
      <trkpt lat="44.58706" lon="5.80345">
        <ele>1541.4</ele>
        <time>2020-10-24T11:09:47Z</time>
      </trkpt>
      <trkpt lat="44.58711" lon="5.80342">
        <ele>1542.2</ele>
        <time>2020-10-24T11:09:51Z</time>
      </trkpt>
      <trkpt lat="44.58716" lon="5.80337">
        <ele>1542</ele>
        <time>2020-10-24T11:09:55Z</time>
      </trkpt>
      <trkpt lat="44.5872" lon="5.80331">
        <ele>1543</ele>
        <time>2020-10-24T11:09:59Z</time>
      </trkpt>
      <trkpt lat="44.58724" lon="5.80326">
        <ele>1543.4</ele>
        <time>2020-10-24T11:10:03Z</time>
      </trkpt>
      <trkpt lat="44.58727" lon="5.8032">
        <ele>1544.2</ele>
        <time>2020-10-24T11:10:07Z</time>
      </trkpt>
      <trkpt lat="44.58731" lon="5.80315">
        <ele>1544.6</ele>
        <time>2020-10-24T11:10:11Z</time>
      </trkpt>
      <trkpt lat="44.58736" lon="5.8031">
        <ele>1545.2</ele>
        <time>2020-10-24T11:10:15Z</time>
      </trkpt>
      <trkpt lat="44.5874" lon="5.80304">
        <ele>1545.2</ele>
        <time>2020-10-24T11:10:19Z</time>
      </trkpt>
      <trkpt lat="44.58744" lon="5.80301">
        <ele>1546.4</ele>
        <time>2020-10-24T11:10:23Z</time>
      </trkpt>
      <trkpt lat="44.58749" lon="5.80298">
        <ele>1547.2</ele>
        <time>2020-10-24T11:10:27Z</time>
      </trkpt>
      <trkpt lat="44.58753" lon="5.80294">
        <ele>1548.4</ele>
        <time>2020-10-24T11:10:31Z</time>
      </trkpt>
      <trkpt lat="44.58758" lon="5.8029">
        <ele>1547.6</ele>
        <time>2020-10-24T11:10:35Z</time>
      </trkpt>
      <trkpt lat="44.58762" lon="5.80288">
        <ele>1548.2</ele>
        <time>2020-10-24T11:10:39Z</time>
      </trkpt>
      <trkpt lat="44.58766" lon="5.80285">
        <ele>1549.4</ele>
        <time>2020-10-24T11:10:43Z</time>
      </trkpt>
      <trkpt lat="44.58771" lon="5.80282">
        <ele>1549.6</ele>
        <time>2020-10-24T11:10:47Z</time>
      </trkpt>
      <trkpt lat="44.58777" lon="5.80277">
        <ele>1550.6</ele>
        <time>2020-10-24T11:10:51Z</time>
      </trkpt>
      <trkpt lat="44.58783" lon="5.80273">
        <ele>1551</ele>
        <time>2020-10-24T11:10:55Z</time>
      </trkpt>
      <trkpt lat="44.58789" lon="5.80266">
        <ele>1551.4</ele>
        <time>2020-10-24T11:10:59Z</time>
      </trkpt>
      <trkpt lat="44.58794" lon="5.80261">
        <ele>1552.2</ele>
        <time>2020-10-24T11:11:03Z</time>
      </trkpt>
      <trkpt lat="44.588" lon="5.80256">
        <ele>1552.4</ele>
        <time>2020-10-24T11:11:07Z</time>
      </trkpt>
      <trkpt lat="44.58804" lon="5.80252">
        <ele>1553</ele>
        <time>2020-10-24T11:11:11Z</time>
      </trkpt>
      <trkpt lat="44.58809" lon="5.80246">
        <ele>1554.4</ele>
        <time>2020-10-24T11:11:15Z</time>
      </trkpt>
      <trkpt lat="44.58815" lon="5.80242">
        <ele>1554.6</ele>
        <time>2020-10-24T11:11:19Z</time>
      </trkpt>
      <trkpt lat="44.5882" lon="5.8024">
        <ele>1555.2</ele>
        <time>2020-10-24T11:11:23Z</time>
      </trkpt>
      <trkpt lat="44.58826" lon="5.80237">
        <ele>1556.4</ele>
        <time>2020-10-24T11:11:27Z</time>
      </trkpt>
      <trkpt lat="44.58831" lon="5.80234">
        <ele>1557.4</ele>
        <time>2020-10-24T11:11:31Z</time>
      </trkpt>
      <trkpt lat="44.58836" lon="5.8023">
        <ele>1557.2</ele>
        <time>2020-10-24T11:11:35Z</time>
      </trkpt>
      <trkpt lat="44.5884" lon="5.80226">
        <ele>1558</ele>
        <time>2020-10-24T11:11:39Z</time>
      </trkpt>
      <trkpt lat="44.58846" lon="5.80222">
        <ele>1559.6</ele>
        <time>2020-10-24T11:11:43Z</time>
      </trkpt>
      <trkpt lat="44.58852" lon="5.80218">
        <ele>1559.8</ele>
        <time>2020-10-24T11:11:47Z</time>
      </trkpt>
      <trkpt lat="44.58859" lon="5.80214">
        <ele>1560.6</ele>
        <time>2020-10-24T11:11:51Z</time>
      </trkpt>
      <trkpt lat="44.58864" lon="5.80208">
        <ele>1561</ele>
        <time>2020-10-24T11:11:55Z</time>
      </trkpt>
      <trkpt lat="44.58869" lon="5.80204">
        <ele>1561.2</ele>
        <time>2020-10-24T11:11:59Z</time>
      </trkpt>
      <trkpt lat="44.58875" lon="5.80199">
        <ele>1561.6</ele>
        <time>2020-10-24T11:12:03Z</time>
      </trkpt>
      <trkpt lat="44.5888" lon="5.80193">
        <ele>1562.2</ele>
        <time>2020-10-24T11:12:07Z</time>
      </trkpt>
      <trkpt lat="44.58885" lon="5.80188">
        <ele>1563.2</ele>
        <time>2020-10-24T11:12:11Z</time>
      </trkpt>
      <trkpt lat="44.5889" lon="5.80185">
        <ele>1564.2</ele>
        <time>2020-10-24T11:12:15Z</time>
      </trkpt>
      <trkpt lat="44.58894" lon="5.80182">
        <ele>1564.6</ele>
        <time>2020-10-24T11:12:19Z</time>
      </trkpt>
      <trkpt lat="44.58899" lon="5.80178">
        <ele>1565.2</ele>
        <time>2020-10-24T11:12:23Z</time>
      </trkpt>
      <trkpt lat="44.58904" lon="5.80172">
        <ele>1565.8</ele>
        <time>2020-10-24T11:12:27Z</time>
      </trkpt>
      <trkpt lat="44.58908" lon="5.80167">
        <ele>1566.4</ele>
        <time>2020-10-24T11:12:31Z</time>
      </trkpt>
      <trkpt lat="44.58912" lon="5.80163">
        <ele>1566.8</ele>
        <time>2020-10-24T11:12:35Z</time>
      </trkpt>
      <trkpt lat="44.58917" lon="5.80159">
        <ele>1567.4</ele>
        <time>2020-10-24T11:12:39Z</time>
      </trkpt>
      <trkpt lat="44.5892" lon="5.80153">
        <ele>1567.6</ele>
        <time>2020-10-24T11:12:43Z</time>
      </trkpt>
      <trkpt lat="44.58924" lon="5.80145">
        <ele>1567.8</ele>
        <time>2020-10-24T11:12:47Z</time>
      </trkpt>
      <trkpt lat="44.58929" lon="5.8014">
        <ele>1568</ele>
        <time>2020-10-24T11:12:51Z</time>
      </trkpt>
      <trkpt lat="44.58934" lon="5.80135">
        <ele>1567.6</ele>
        <time>2020-10-24T11:12:55Z</time>
      </trkpt>
      <trkpt lat="44.5894" lon="5.8013">
        <ele>1567.4</ele>
        <time>2020-10-24T11:12:59Z</time>
      </trkpt>
      <trkpt lat="44.58944" lon="5.80125">
        <ele>1567.4</ele>
        <time>2020-10-24T11:13:03Z</time>
      </trkpt>
      <trkpt lat="44.58949" lon="5.80119">
        <ele>1567.4</ele>
        <time>2020-10-24T11:13:07Z</time>
      </trkpt>
      <trkpt lat="44.58957" lon="5.801">
        <ele>1566.8</ele>
        <time>2020-10-24T11:13:38Z</time>
      </trkpt>
      <trkpt lat="44.58963" lon="5.80094">
        <ele>1567.2</ele>
        <time>2020-10-24T11:13:42Z</time>
      </trkpt>
      <trkpt lat="44.5897" lon="5.80086">
        <ele>1565.8</ele>
        <time>2020-10-24T11:13:46Z</time>
      </trkpt>
      <trkpt lat="44.58979" lon="5.80076">
        <ele>1566.2</ele>
        <time>2020-10-24T11:13:50Z</time>
      </trkpt>
      <trkpt lat="44.58989" lon="5.80064">
        <ele>1565</ele>
        <time>2020-10-24T11:13:54Z</time>
      </trkpt>
      <trkpt lat="44.59" lon="5.80052">
        <ele>1560.2</ele>
        <time>2020-10-24T11:13:58Z</time>
      </trkpt>
      <trkpt lat="44.59013" lon="5.8004">
        <ele>1563</ele>
        <time>2020-10-24T11:14:02Z</time>
      </trkpt>
      <trkpt lat="44.59026" lon="5.8003">
        <ele>1561</ele>
        <time>2020-10-24T11:14:06Z</time>
      </trkpt>
      <trkpt lat="44.5904" lon="5.80019">
        <ele>1560.2</ele>
        <time>2020-10-24T11:14:10Z</time>
      </trkpt>
      <trkpt lat="44.59054" lon="5.80013">
        <ele>1559.8</ele>
        <time>2020-10-24T11:14:14Z</time>
      </trkpt>
      <trkpt lat="44.59068" lon="5.80006">
        <ele>1560.4</ele>
        <time>2020-10-24T11:14:18Z</time>
      </trkpt>
      <trkpt lat="44.59082" lon="5.79995">
        <ele>1560.4</ele>
        <time>2020-10-24T11:14:22Z</time>
      </trkpt>
      <trkpt lat="44.59095" lon="5.79983">
        <ele>1559</ele>
        <time>2020-10-24T11:14:26Z</time>
      </trkpt>
      <trkpt lat="44.59109" lon="5.79974">
        <ele>1558</ele>
        <time>2020-10-24T11:14:30Z</time>
      </trkpt>
      <trkpt lat="44.59124" lon="5.79963">
        <ele>1556.8</ele>
        <time>2020-10-24T11:14:34Z</time>
      </trkpt>
      <trkpt lat="44.59138" lon="5.79953">
        <ele>1558.8</ele>
        <time>2020-10-24T11:14:38Z</time>
      </trkpt>
      <trkpt lat="44.59149" lon="5.79946">
        <ele>1557.8</ele>
        <time>2020-10-24T11:14:42Z</time>
      </trkpt>
      <trkpt lat="44.5916" lon="5.79939">
        <ele>1558.2</ele>
        <time>2020-10-24T11:14:46Z</time>
      </trkpt>
      <trkpt lat="44.5917" lon="5.7993">
        <ele>1559</ele>
        <time>2020-10-24T11:14:50Z</time>
      </trkpt>
      <trkpt lat="44.5918" lon="5.79925">
        <ele>1558.6</ele>
        <time>2020-10-24T11:14:54Z</time>
      </trkpt>
      <trkpt lat="44.5919" lon="5.79923">
        <ele>1559.2</ele>
        <time>2020-10-24T11:14:58Z</time>
      </trkpt>
      <trkpt lat="44.592" lon="5.79922">
        <ele>1559.4</ele>
        <time>2020-10-24T11:15:02Z</time>
      </trkpt>
      <trkpt lat="44.59211" lon="5.79917">
        <ele>1561.4</ele>
        <time>2020-10-24T11:15:06Z</time>
      </trkpt>
      <trkpt lat="44.59221" lon="5.79913">
        <ele>1561.2</ele>
        <time>2020-10-24T11:15:10Z</time>
      </trkpt>
      <trkpt lat="44.5923" lon="5.79906">
        <ele>1561.8</ele>
        <time>2020-10-24T11:15:14Z</time>
      </trkpt>
      <trkpt lat="44.5924" lon="5.799">
        <ele>1561.6</ele>
        <time>2020-10-24T11:15:18Z</time>
      </trkpt>
      <trkpt lat="44.59249" lon="5.79891">
        <ele>1563.2</ele>
        <time>2020-10-24T11:15:22Z</time>
      </trkpt>
      <trkpt lat="44.59257" lon="5.7988">
        <ele>1562.6</ele>
        <time>2020-10-24T11:15:26Z</time>
      </trkpt>
      <trkpt lat="44.59264" lon="5.7987">
        <ele>1562.6</ele>
        <time>2020-10-24T11:15:30Z</time>
      </trkpt>
      <trkpt lat="44.59273" lon="5.79859">
        <ele>1564.2</ele>
        <time>2020-10-24T11:15:34Z</time>
      </trkpt>
      <trkpt lat="44.5928" lon="5.7985">
        <ele>1562.6</ele>
        <time>2020-10-24T11:15:38Z</time>
      </trkpt>
      <trkpt lat="44.59288" lon="5.79841">
        <ele>1563.2</ele>
        <time>2020-10-24T11:15:42Z</time>
      </trkpt>
      <trkpt lat="44.59296" lon="5.79832">
        <ele>1562.6</ele>
        <time>2020-10-24T11:15:46Z</time>
      </trkpt>
      <trkpt lat="44.59305" lon="5.79827">
        <ele>1563</ele>
        <time>2020-10-24T11:15:50Z</time>
      </trkpt>
      <trkpt lat="44.59314" lon="5.79826">
        <ele>1563.4</ele>
        <time>2020-10-24T11:15:54Z</time>
      </trkpt>
      <trkpt lat="44.59311" lon="5.79801">
        <ele>1563.4</ele>
        <time>2020-10-24T11:19:04Z</time>
      </trkpt>
      <trkpt lat="44.59306" lon="5.79794">
        <ele>1563.2</ele>
        <time>2020-10-24T11:19:08Z</time>
      </trkpt>
      <trkpt lat="44.59307" lon="5.79806">
        <ele>1564</ele>
        <time>2020-10-24T11:20:18Z</time>
      </trkpt>
      <trkpt lat="44.59312" lon="5.79812">
        <ele>1564</ele>
        <time>2020-10-24T11:20:22Z</time>
      </trkpt>
      <trkpt lat="44.59319" lon="5.79819">
        <ele>1563.6</ele>
        <time>2020-10-24T11:20:26Z</time>
      </trkpt>
      <trkpt lat="44.59327" lon="5.79825">
        <ele>1564.6</ele>
        <time>2020-10-24T11:20:30Z</time>
      </trkpt>
      <trkpt lat="44.59337" lon="5.7983">
        <ele>1565</ele>
        <time>2020-10-24T11:20:34Z</time>
      </trkpt>
      <trkpt lat="44.59347" lon="5.79835">
        <ele>1565.2</ele>
        <time>2020-10-24T11:20:38Z</time>
      </trkpt>
      <trkpt lat="44.59354" lon="5.79843">
        <ele>1565.2</ele>
        <time>2020-10-24T11:20:42Z</time>
      </trkpt>
      <trkpt lat="44.59361" lon="5.79851">
        <ele>1565.8</ele>
        <time>2020-10-24T11:20:46Z</time>
      </trkpt>
      <trkpt lat="44.59369" lon="5.79859">
        <ele>1566.2</ele>
        <time>2020-10-24T11:20:50Z</time>
      </trkpt>
      <trkpt lat="44.59378" lon="5.79866">
        <ele>1566.6</ele>
        <time>2020-10-24T11:20:54Z</time>
      </trkpt>
      <trkpt lat="44.59388" lon="5.79874">
        <ele>1566.6</ele>
        <time>2020-10-24T11:20:58Z</time>
      </trkpt>
      <trkpt lat="44.59397" lon="5.79879">
        <ele>1566.4</ele>
        <time>2020-10-24T11:21:02Z</time>
      </trkpt>
      <trkpt lat="44.59406" lon="5.79883">
        <ele>1565.4</ele>
        <time>2020-10-24T11:21:06Z</time>
      </trkpt>
      <trkpt lat="44.59416" lon="5.79893">
        <ele>1564.6</ele>
        <time>2020-10-24T11:21:10Z</time>
      </trkpt>
      <trkpt lat="44.59425" lon="5.79904">
        <ele>1564.2</ele>
        <time>2020-10-24T11:21:14Z</time>
      </trkpt>
      <trkpt lat="44.59437" lon="5.79914">
        <ele>1561.8</ele>
        <time>2020-10-24T11:21:18Z</time>
      </trkpt>
      <trkpt lat="44.59451" lon="5.79919">
        <ele>1561</ele>
        <time>2020-10-24T11:21:22Z</time>
      </trkpt>
      <trkpt lat="44.5946" lon="5.79929">
        <ele>1559.8</ele>
        <time>2020-10-24T11:21:26Z</time>
      </trkpt>
      <trkpt lat="44.59459" lon="5.79944">
        <ele>1560.4</ele>
        <time>2020-10-24T11:21:30Z</time>
      </trkpt>
      <trkpt lat="44.59455" lon="5.79954">
        <ele>1561.2</ele>
        <time>2020-10-24T11:21:34Z</time>
      </trkpt>
      <trkpt lat="44.59451" lon="5.79963">
        <ele>1562</ele>
        <time>2020-10-24T11:21:38Z</time>
      </trkpt>
      <trkpt lat="44.59448" lon="5.79971">
        <ele>1562.4</ele>
        <time>2020-10-24T11:21:42Z</time>
      </trkpt>
      <trkpt lat="44.59445" lon="5.79978">
        <ele>1563.2</ele>
        <time>2020-10-24T11:21:46Z</time>
      </trkpt>
      <trkpt lat="44.59439" lon="5.79996">
        <ele>1564.6</ele>
        <time>2020-10-24T11:22:09Z</time>
      </trkpt>
      <trkpt lat="44.59435" lon="5.80004">
        <ele>1564.4</ele>
        <time>2020-10-24T11:22:13Z</time>
      </trkpt>
      <trkpt lat="44.5943" lon="5.80013">
        <ele>1565.4</ele>
        <time>2020-10-24T11:22:17Z</time>
      </trkpt>
      <trkpt lat="44.59423" lon="5.80021">
        <ele>1566</ele>
        <time>2020-10-24T11:22:21Z</time>
      </trkpt>
      <trkpt lat="44.59418" lon="5.80029">
        <ele>1566.2</ele>
        <time>2020-10-24T11:22:25Z</time>
      </trkpt>
      <trkpt lat="44.59412" lon="5.80037">
        <ele>1567.6</ele>
        <time>2020-10-24T11:22:29Z</time>
      </trkpt>
      <trkpt lat="44.59407" lon="5.80044">
        <ele>1568</ele>
        <time>2020-10-24T11:22:33Z</time>
      </trkpt>
      <trkpt lat="44.59402" lon="5.80051">
        <ele>1569.4</ele>
        <time>2020-10-24T11:22:37Z</time>
      </trkpt>
      <trkpt lat="44.59396" lon="5.80058">
        <ele>1569.4</ele>
        <time>2020-10-24T11:22:41Z</time>
      </trkpt>
      <trkpt lat="44.59391" lon="5.80065">
        <ele>1569.8</ele>
        <time>2020-10-24T11:22:45Z</time>
      </trkpt>
      <trkpt lat="44.59386" lon="5.8007">
        <ele>1570.6</ele>
        <time>2020-10-24T11:22:49Z</time>
      </trkpt>
      <trkpt lat="44.59381" lon="5.80076">
        <ele>1572</ele>
        <time>2020-10-24T11:22:53Z</time>
      </trkpt>
      <trkpt lat="44.59377" lon="5.80082">
        <ele>1571.6</ele>
        <time>2020-10-24T11:22:57Z</time>
      </trkpt>
      <trkpt lat="44.59375" lon="5.8009">
        <ele>1573</ele>
        <time>2020-10-24T11:23:01Z</time>
      </trkpt>
      <trkpt lat="44.59372" lon="5.80097">
        <ele>1572.6</ele>
        <time>2020-10-24T11:23:05Z</time>
      </trkpt>
      <trkpt lat="44.59369" lon="5.80105">
        <ele>1574.2</ele>
        <time>2020-10-24T11:23:09Z</time>
      </trkpt>
      <trkpt lat="44.59366" lon="5.80113">
        <ele>1574.2</ele>
        <time>2020-10-24T11:23:13Z</time>
      </trkpt>
      <trkpt lat="44.59362" lon="5.8012">
        <ele>1575.2</ele>
        <time>2020-10-24T11:23:17Z</time>
      </trkpt>
      <trkpt lat="44.59358" lon="5.80128">
        <ele>1575.6</ele>
        <time>2020-10-24T11:23:21Z</time>
      </trkpt>
      <trkpt lat="44.59357" lon="5.80138">
        <ele>1576.2</ele>
        <time>2020-10-24T11:23:25Z</time>
      </trkpt>
      <trkpt lat="44.59355" lon="5.80146">
        <ele>1577.4</ele>
        <time>2020-10-24T11:23:29Z</time>
      </trkpt>
      <trkpt lat="44.59353" lon="5.80154">
        <ele>1577.6</ele>
        <time>2020-10-24T11:23:33Z</time>
      </trkpt>
      <trkpt lat="44.59352" lon="5.80162">
        <ele>1577.8</ele>
        <time>2020-10-24T11:23:37Z</time>
      </trkpt>
      <trkpt lat="44.5935" lon="5.80171">
        <ele>1578</ele>
        <time>2020-10-24T11:23:41Z</time>
      </trkpt>
      <trkpt lat="44.59348" lon="5.8018">
        <ele>1579.6</ele>
        <time>2020-10-24T11:23:45Z</time>
      </trkpt>
      <trkpt lat="44.59345" lon="5.80189">
        <ele>1579</ele>
        <time>2020-10-24T11:23:49Z</time>
      </trkpt>
      <trkpt lat="44.5935" lon="5.80198">
        <ele>1579.6</ele>
        <time>2020-10-24T11:23:53Z</time>
      </trkpt>
      <trkpt lat="44.59353" lon="5.80208">
        <ele>1580.4</ele>
        <time>2020-10-24T11:23:57Z</time>
      </trkpt>
      <trkpt lat="44.59361" lon="5.80211">
        <ele>1581.2</ele>
        <time>2020-10-24T11:24:01Z</time>
      </trkpt>
      <trkpt lat="44.59368" lon="5.80211">
        <ele>1581.2</ele>
        <time>2020-10-24T11:24:05Z</time>
      </trkpt>
      <trkpt lat="44.59371" lon="5.8021">
        <ele>1581.8</ele>
        <time>2020-10-24T11:24:09Z</time>
      </trkpt>
      <trkpt lat="44.59377" lon="5.8021">
        <ele>1582.6</ele>
        <time>2020-10-24T11:24:13Z</time>
      </trkpt>
      <trkpt lat="44.59385" lon="5.80211">
        <ele>1583.4</ele>
        <time>2020-10-24T11:24:17Z</time>
      </trkpt>
      <trkpt lat="44.59392" lon="5.80211">
        <ele>1583.8</ele>
        <time>2020-10-24T11:24:21Z</time>
      </trkpt>
      <trkpt lat="44.59399" lon="5.80213">
        <ele>1584.6</ele>
        <time>2020-10-24T11:24:25Z</time>
      </trkpt>
      <trkpt lat="44.59406" lon="5.80216">
        <ele>1585.6</ele>
        <time>2020-10-24T11:24:29Z</time>
      </trkpt>
      <trkpt lat="44.59413" lon="5.80217">
        <ele>1585.8</ele>
        <time>2020-10-24T11:24:33Z</time>
      </trkpt>
      <trkpt lat="44.59419" lon="5.80217">
        <ele>1586.8</ele>
        <time>2020-10-24T11:24:37Z</time>
      </trkpt>
      <trkpt lat="44.59425" lon="5.80216">
        <ele>1587.6</ele>
        <time>2020-10-24T11:24:41Z</time>
      </trkpt>
      <trkpt lat="44.59433" lon="5.80215">
        <ele>1587.6</ele>
        <time>2020-10-24T11:24:45Z</time>
      </trkpt>
      <trkpt lat="44.59438" lon="5.80217">
        <ele>1588.6</ele>
        <time>2020-10-24T11:24:49Z</time>
      </trkpt>
      <trkpt lat="44.59441" lon="5.80223">
        <ele>1589.6</ele>
        <time>2020-10-24T11:24:53Z</time>
      </trkpt>
      <trkpt lat="44.59441" lon="5.80229">
        <ele>1589</ele>
        <time>2020-10-24T11:24:57Z</time>
      </trkpt>
      <trkpt lat="44.59436" lon="5.80232">
        <ele>1590.4</ele>
        <time>2020-10-24T11:25:01Z</time>
      </trkpt>
      <trkpt lat="44.5943" lon="5.80234">
        <ele>1591.2</ele>
        <time>2020-10-24T11:25:05Z</time>
      </trkpt>
      <trkpt lat="44.59424" lon="5.80235">
        <ele>1591.8</ele>
        <time>2020-10-24T11:25:09Z</time>
      </trkpt>
      <trkpt lat="44.59418" lon="5.80236">
        <ele>1592.8</ele>
        <time>2020-10-24T11:25:13Z</time>
      </trkpt>
      <trkpt lat="44.59412" lon="5.80238">
        <ele>1593.2</ele>
        <time>2020-10-24T11:25:17Z</time>
      </trkpt>
      <trkpt lat="44.59407" lon="5.8024">
        <ele>1593.8</ele>
        <time>2020-10-24T11:25:21Z</time>
      </trkpt>
      <trkpt lat="44.59401" lon="5.80242">
        <ele>1595</ele>
        <time>2020-10-24T11:25:25Z</time>
      </trkpt>
      <trkpt lat="44.59397" lon="5.80245">
        <ele>1595</ele>
        <time>2020-10-24T11:25:29Z</time>
      </trkpt>
      <trkpt lat="44.59391" lon="5.80248">
        <ele>1596</ele>
        <time>2020-10-24T11:25:33Z</time>
      </trkpt>
      <trkpt lat="44.59386" lon="5.80251">
        <ele>1596.6</ele>
        <time>2020-10-24T11:25:37Z</time>
      </trkpt>
      <trkpt lat="44.5938" lon="5.80255">
        <ele>1597.2</ele>
        <time>2020-10-24T11:25:41Z</time>
      </trkpt>
      <trkpt lat="44.59376" lon="5.80256">
        <ele>1598.4</ele>
        <time>2020-10-24T11:25:45Z</time>
      </trkpt>
      <trkpt lat="44.59372" lon="5.8026">
        <ele>1598.8</ele>
        <time>2020-10-24T11:25:49Z</time>
      </trkpt>
      <trkpt lat="44.59371" lon="5.80266">
        <ele>1598.8</ele>
        <time>2020-10-24T11:25:53Z</time>
      </trkpt>
      <trkpt lat="44.59374" lon="5.80272">
        <ele>1599.4</ele>
        <time>2020-10-24T11:25:57Z</time>
      </trkpt>
      <trkpt lat="44.59378" lon="5.80275">
        <ele>1600.2</ele>
        <time>2020-10-24T11:26:01Z</time>
      </trkpt>
      <trkpt lat="44.59383" lon="5.80277">
        <ele>1601.2</ele>
        <time>2020-10-24T11:26:05Z</time>
      </trkpt>
      <trkpt lat="44.59388" lon="5.80277">
        <ele>1601.4</ele>
        <time>2020-10-24T11:26:09Z</time>
      </trkpt>
      <trkpt lat="44.59394" lon="5.80275">
        <ele>1602.2</ele>
        <time>2020-10-24T11:26:13Z</time>
      </trkpt>
      <trkpt lat="44.59399" lon="5.80274">
        <ele>1602.8</ele>
        <time>2020-10-24T11:26:17Z</time>
      </trkpt>
      <trkpt lat="44.59404" lon="5.80273">
        <ele>1603.2</ele>
        <time>2020-10-24T11:26:21Z</time>
      </trkpt>
      <trkpt lat="44.5941" lon="5.80273">
        <ele>1604.2</ele>
        <time>2020-10-24T11:26:25Z</time>
      </trkpt>
      <trkpt lat="44.59415" lon="5.80274">
        <ele>1604.6</ele>
        <time>2020-10-24T11:26:29Z</time>
      </trkpt>
      <trkpt lat="44.59422" lon="5.80275">
        <ele>1605.2</ele>
        <time>2020-10-24T11:26:33Z</time>
      </trkpt>
      <trkpt lat="44.59428" lon="5.80278">
        <ele>1606.2</ele>
        <time>2020-10-24T11:26:37Z</time>
      </trkpt>
      <trkpt lat="44.59433" lon="5.80284">
        <ele>1606</ele>
        <time>2020-10-24T11:26:41Z</time>
      </trkpt>
      <trkpt lat="44.59436" lon="5.80291">
        <ele>1607</ele>
        <time>2020-10-24T11:26:45Z</time>
      </trkpt>
      <trkpt lat="44.59441" lon="5.80298">
        <ele>1606.8</ele>
        <time>2020-10-24T11:26:49Z</time>
      </trkpt>
      <trkpt lat="44.59445" lon="5.80305">
        <ele>1607.8</ele>
        <time>2020-10-24T11:26:53Z</time>
      </trkpt>
      <trkpt lat="44.5945" lon="5.80312">
        <ele>1608.4</ele>
        <time>2020-10-24T11:26:57Z</time>
      </trkpt>
      <trkpt lat="44.59456" lon="5.80317">
        <ele>1608.6</ele>
        <time>2020-10-24T11:27:01Z</time>
      </trkpt>
      <trkpt lat="44.59462" lon="5.8032">
        <ele>1609.6</ele>
        <time>2020-10-24T11:27:05Z</time>
      </trkpt>
      <trkpt lat="44.59468" lon="5.80323">
        <ele>1610.4</ele>
        <time>2020-10-24T11:27:09Z</time>
      </trkpt>
      <trkpt lat="44.59474" lon="5.80326">
        <ele>1611</ele>
        <time>2020-10-24T11:27:13Z</time>
      </trkpt>
      <trkpt lat="44.59482" lon="5.80328">
        <ele>1611</ele>
        <time>2020-10-24T11:27:17Z</time>
      </trkpt>
      <trkpt lat="44.59489" lon="5.8033">
        <ele>1612.6</ele>
        <time>2020-10-24T11:27:21Z</time>
      </trkpt>
      <trkpt lat="44.59493" lon="5.80336">
        <ele>1613</ele>
        <time>2020-10-24T11:27:25Z</time>
      </trkpt>
      <trkpt lat="44.59499" lon="5.8034">
        <ele>1613.6</ele>
        <time>2020-10-24T11:27:29Z</time>
      </trkpt>
      <trkpt lat="44.59505" lon="5.80343">
        <ele>1614.2</ele>
        <time>2020-10-24T11:27:33Z</time>
      </trkpt>
      <trkpt lat="44.5951" lon="5.80348">
        <ele>1614.8</ele>
        <time>2020-10-24T11:27:37Z</time>
      </trkpt>
      <trkpt lat="44.59515" lon="5.80352">
        <ele>1615.2</ele>
        <time>2020-10-24T11:27:41Z</time>
      </trkpt>
      <trkpt lat="44.59521" lon="5.80355">
        <ele>1616.4</ele>
        <time>2020-10-24T11:27:45Z</time>
      </trkpt>
      <trkpt lat="44.59526" lon="5.80358">
        <ele>1618</ele>
        <time>2020-10-24T11:27:49Z</time>
      </trkpt>
      <trkpt lat="44.59532" lon="5.80361">
        <ele>1618.8</ele>
        <time>2020-10-24T11:27:53Z</time>
      </trkpt>
      <trkpt lat="44.59536" lon="5.80363">
        <ele>1619.4</ele>
        <time>2020-10-24T11:27:57Z</time>
      </trkpt>
      <trkpt lat="44.59541" lon="5.80363">
        <ele>1620.4</ele>
        <time>2020-10-24T11:28:01Z</time>
      </trkpt>
      <trkpt lat="44.59545" lon="5.80364">
        <ele>1620.4</ele>
        <time>2020-10-24T11:28:05Z</time>
      </trkpt>
      <trkpt lat="44.59551" lon="5.80363">
        <ele>1621.2</ele>
        <time>2020-10-24T11:28:09Z</time>
      </trkpt>
      <trkpt lat="44.59557" lon="5.80362">
        <ele>1621.6</ele>
        <time>2020-10-24T11:28:13Z</time>
      </trkpt>
      <trkpt lat="44.59564" lon="5.80362">
        <ele>1621.6</ele>
        <time>2020-10-24T11:28:17Z</time>
      </trkpt>
      <trkpt lat="44.5957" lon="5.80363">
        <ele>1623</ele>
        <time>2020-10-24T11:28:21Z</time>
      </trkpt>
      <trkpt lat="44.59578" lon="5.80364">
        <ele>1623.2</ele>
        <time>2020-10-24T11:28:25Z</time>
      </trkpt>
      <trkpt lat="44.59585" lon="5.80367">
        <ele>1623.6</ele>
        <time>2020-10-24T11:28:29Z</time>
      </trkpt>
      <trkpt lat="44.59591" lon="5.80369">
        <ele>1624.2</ele>
        <time>2020-10-24T11:28:33Z</time>
      </trkpt>
      <trkpt lat="44.596" lon="5.80369">
        <ele>1624.2</ele>
        <time>2020-10-24T11:28:37Z</time>
      </trkpt>
      <trkpt lat="44.59607" lon="5.80369">
        <ele>1624.8</ele>
        <time>2020-10-24T11:28:41Z</time>
      </trkpt>
      <trkpt lat="44.59613" lon="5.80373">
        <ele>1625.4</ele>
        <time>2020-10-24T11:28:45Z</time>
      </trkpt>
      <trkpt lat="44.5962" lon="5.80375">
        <ele>1626.2</ele>
        <time>2020-10-24T11:28:49Z</time>
      </trkpt>
      <trkpt lat="44.59627" lon="5.80375">
        <ele>1626</ele>
        <time>2020-10-24T11:28:53Z</time>
      </trkpt>
      <trkpt lat="44.59633" lon="5.80374">
        <ele>1627</ele>
        <time>2020-10-24T11:28:57Z</time>
      </trkpt>
      <trkpt lat="44.59641" lon="5.80372">
        <ele>1627</ele>
        <time>2020-10-24T11:29:01Z</time>
      </trkpt>
      <trkpt lat="44.5965" lon="5.80366">
        <ele>1627</ele>
        <time>2020-10-24T11:29:05Z</time>
      </trkpt>
      <trkpt lat="44.59657" lon="5.80362">
        <ele>1626.6</ele>
        <time>2020-10-24T11:29:09Z</time>
      </trkpt>
      <trkpt lat="44.59664" lon="5.80354">
        <ele>1626.8</ele>
        <time>2020-10-24T11:29:13Z</time>
      </trkpt>
      <trkpt lat="44.59669" lon="5.80343">
        <ele>1627</ele>
        <time>2020-10-24T11:29:17Z</time>
      </trkpt>
      <trkpt lat="44.59674" lon="5.80334">
        <ele>1626.8</ele>
        <time>2020-10-24T11:29:21Z</time>
      </trkpt>
      <trkpt lat="44.5968" lon="5.80327">
        <ele>1627.4</ele>
        <time>2020-10-24T11:29:25Z</time>
      </trkpt>
      <trkpt lat="44.59684" lon="5.8032">
        <ele>1627.6</ele>
        <time>2020-10-24T11:29:29Z</time>
      </trkpt>
      <trkpt lat="44.5969" lon="5.80312">
        <ele>1628</ele>
        <time>2020-10-24T11:29:33Z</time>
      </trkpt>
      <trkpt lat="44.59695" lon="5.80304">
        <ele>1629</ele>
        <time>2020-10-24T11:29:37Z</time>
      </trkpt>
      <trkpt lat="44.597" lon="5.80297">
        <ele>1628.8</ele>
        <time>2020-10-24T11:29:41Z</time>
      </trkpt>
      <trkpt lat="44.59706" lon="5.8029">
        <ele>1629.8</ele>
        <time>2020-10-24T11:29:45Z</time>
      </trkpt>
      <trkpt lat="44.59711" lon="5.80284">
        <ele>1630</ele>
        <time>2020-10-24T11:29:49Z</time>
      </trkpt>
      <trkpt lat="44.59715" lon="5.80276">
        <ele>1631.2</ele>
        <time>2020-10-24T11:29:53Z</time>
      </trkpt>
      <trkpt lat="44.59719" lon="5.8027">
        <ele>1631.4</ele>
        <time>2020-10-24T11:29:57Z</time>
      </trkpt>
      <trkpt lat="44.59723" lon="5.80263">
        <ele>1632.6</ele>
        <time>2020-10-24T11:30:01Z</time>
      </trkpt>
      <trkpt lat="44.59725" lon="5.80255">
        <ele>1632.2</ele>
        <time>2020-10-24T11:30:05Z</time>
      </trkpt>
      <trkpt lat="44.59728" lon="5.80244">
        <ele>1633.2</ele>
        <time>2020-10-24T11:30:09Z</time>
      </trkpt>
      <trkpt lat="44.59732" lon="5.80236">
        <ele>1633.6</ele>
        <time>2020-10-24T11:30:13Z</time>
      </trkpt>
      <trkpt lat="44.59736" lon="5.8023">
        <ele>1634.8</ele>
        <time>2020-10-24T11:30:17Z</time>
      </trkpt>
      <trkpt lat="44.59739" lon="5.80222">
        <ele>1635.6</ele>
        <time>2020-10-24T11:30:21Z</time>
      </trkpt>
      <trkpt lat="44.59742" lon="5.80215">
        <ele>1636.8</ele>
        <time>2020-10-24T11:30:25Z</time>
      </trkpt>
      <trkpt lat="44.59745" lon="5.80207">
        <ele>1637.2</ele>
        <time>2020-10-24T11:30:29Z</time>
      </trkpt>
      <trkpt lat="44.59747" lon="5.80199">
        <ele>1637.6</ele>
        <time>2020-10-24T11:30:33Z</time>
      </trkpt>
      <trkpt lat="44.59749" lon="5.80192">
        <ele>1638</ele>
        <time>2020-10-24T11:30:37Z</time>
      </trkpt>
      <trkpt lat="44.59751" lon="5.80183">
        <ele>1638.6</ele>
        <time>2020-10-24T11:30:41Z</time>
      </trkpt>
      <trkpt lat="44.59752" lon="5.80174">
        <ele>1639.4</ele>
        <time>2020-10-24T11:30:45Z</time>
      </trkpt>
      <trkpt lat="44.59754" lon="5.80166">
        <ele>1640</ele>
        <time>2020-10-24T11:30:49Z</time>
      </trkpt>
      <trkpt lat="44.59757" lon="5.80159">
        <ele>1641</ele>
        <time>2020-10-24T11:30:53Z</time>
      </trkpt>
      <trkpt lat="44.59759" lon="5.80151">
        <ele>1641.4</ele>
        <time>2020-10-24T11:30:57Z</time>
      </trkpt>
      <trkpt lat="44.59763" lon="5.80144">
        <ele>1641.8</ele>
        <time>2020-10-24T11:31:01Z</time>
      </trkpt>
      <trkpt lat="44.59766" lon="5.80138">
        <ele>1642.2</ele>
        <time>2020-10-24T11:31:05Z</time>
      </trkpt>
      <trkpt lat="44.59769" lon="5.80131">
        <ele>1642.4</ele>
        <time>2020-10-24T11:31:09Z</time>
      </trkpt>
      <trkpt lat="44.59773" lon="5.80124">
        <ele>1643.2</ele>
        <time>2020-10-24T11:31:13Z</time>
      </trkpt>
      <trkpt lat="44.59776" lon="5.80116">
        <ele>1644.4</ele>
        <time>2020-10-24T11:31:17Z</time>
      </trkpt>
      <trkpt lat="44.59779" lon="5.8011">
        <ele>1645</ele>
        <time>2020-10-24T11:31:21Z</time>
      </trkpt>
      <trkpt lat="44.59782" lon="5.80104">
        <ele>1645.6</ele>
        <time>2020-10-24T11:31:25Z</time>
      </trkpt>
      <trkpt lat="44.59786" lon="5.80098">
        <ele>1645.6</ele>
        <time>2020-10-24T11:31:29Z</time>
      </trkpt>
      <trkpt lat="44.59788" lon="5.80091">
        <ele>1647</ele>
        <time>2020-10-24T11:31:33Z</time>
      </trkpt>
      <trkpt lat="44.59791" lon="5.80085">
        <ele>1648.2</ele>
        <time>2020-10-24T11:31:37Z</time>
      </trkpt>
      <trkpt lat="44.59794" lon="5.80078">
        <ele>1649</ele>
        <time>2020-10-24T11:31:41Z</time>
      </trkpt>
      <trkpt lat="44.59796" lon="5.80071">
        <ele>1649.4</ele>
        <time>2020-10-24T11:31:45Z</time>
      </trkpt>
      <trkpt lat="44.59799" lon="5.80064">
        <ele>1650.2</ele>
        <time>2020-10-24T11:31:49Z</time>
      </trkpt>
      <trkpt lat="44.59801" lon="5.80057">
        <ele>1651</ele>
        <time>2020-10-24T11:31:53Z</time>
      </trkpt>
      <trkpt lat="44.59804" lon="5.8005">
        <ele>1650.8</ele>
        <time>2020-10-24T11:31:57Z</time>
      </trkpt>
      <trkpt lat="44.59807" lon="5.80043">
        <ele>1651.4</ele>
        <time>2020-10-24T11:32:01Z</time>
      </trkpt>
      <trkpt lat="44.59809" lon="5.80035">
        <ele>1652.6</ele>
        <time>2020-10-24T11:32:05Z</time>
      </trkpt>
      <trkpt lat="44.59812" lon="5.80027">
        <ele>1653.4</ele>
        <time>2020-10-24T11:32:09Z</time>
      </trkpt>
      <trkpt lat="44.59814" lon="5.80019">
        <ele>1654</ele>
        <time>2020-10-24T11:32:13Z</time>
      </trkpt>
      <trkpt lat="44.59817" lon="5.80012">
        <ele>1654.6</ele>
        <time>2020-10-24T11:32:17Z</time>
      </trkpt>
      <trkpt lat="44.59819" lon="5.80004">
        <ele>1655.4</ele>
        <time>2020-10-24T11:32:21Z</time>
      </trkpt>
      <trkpt lat="44.59821" lon="5.79995">
        <ele>1655.4</ele>
        <time>2020-10-24T11:32:25Z</time>
      </trkpt>
      <trkpt lat="44.59821" lon="5.79988">
        <ele>1656.4</ele>
        <time>2020-10-24T11:32:29Z</time>
      </trkpt>
      <trkpt lat="44.59824" lon="5.7998">
        <ele>1656.8</ele>
        <time>2020-10-24T11:32:33Z</time>
      </trkpt>
      <trkpt lat="44.59826" lon="5.79971">
        <ele>1657.2</ele>
        <time>2020-10-24T11:32:37Z</time>
      </trkpt>
      <trkpt lat="44.59828" lon="5.79963">
        <ele>1658.4</ele>
        <time>2020-10-24T11:32:41Z</time>
      </trkpt>
      <trkpt lat="44.59829" lon="5.79955">
        <ele>1658.4</ele>
        <time>2020-10-24T11:32:45Z</time>
      </trkpt>
      <trkpt lat="44.5983" lon="5.79949">
        <ele>1659.2</ele>
        <time>2020-10-24T11:32:49Z</time>
      </trkpt>
      <trkpt lat="44.59831" lon="5.79943">
        <ele>1660.6</ele>
        <time>2020-10-24T11:32:53Z</time>
      </trkpt>
      <trkpt lat="44.59834" lon="5.79934">
        <ele>1660.2</ele>
        <time>2020-10-24T11:32:57Z</time>
      </trkpt>
      <trkpt lat="44.59835" lon="5.79926">
        <ele>1661</ele>
        <time>2020-10-24T11:33:01Z</time>
      </trkpt>
      <trkpt lat="44.59852" lon="5.79902">
        <ele>1661.8</ele>
        <time>2020-10-24T11:37:44Z</time>
      </trkpt>
      <trkpt lat="44.59859" lon="5.79904">
        <ele>1660.6</ele>
        <time>2020-10-24T11:37:48Z</time>
      </trkpt>
      <trkpt lat="44.59872" lon="5.79908">
        <ele>1659.4</ele>
        <time>2020-10-24T11:37:52Z</time>
      </trkpt>
      <trkpt lat="44.59886" lon="5.79908">
        <ele>1659.4</ele>
        <time>2020-10-24T11:37:56Z</time>
      </trkpt>
      <trkpt lat="44.59893" lon="5.79905">
        <ele>1657.6</ele>
        <time>2020-10-24T11:38:00Z</time>
      </trkpt>
      <trkpt lat="44.59902" lon="5.79907">
        <ele>1655.4</ele>
        <time>2020-10-24T11:38:04Z</time>
      </trkpt>
      <trkpt lat="44.59915" lon="5.79908">
        <ele>1654.4</ele>
        <time>2020-10-24T11:38:08Z</time>
      </trkpt>
      <trkpt lat="44.59933" lon="5.79911">
        <ele>1652.2</ele>
        <time>2020-10-24T11:38:12Z</time>
      </trkpt>
      <trkpt lat="44.59946" lon="5.79915">
        <ele>1648.8</ele>
        <time>2020-10-24T11:38:16Z</time>
      </trkpt>
      <trkpt lat="44.59954" lon="5.79915">
        <ele>1647</ele>
        <time>2020-10-24T11:38:20Z</time>
      </trkpt>
      <trkpt lat="44.59966" lon="5.7991">
        <ele>1644.6</ele>
        <time>2020-10-24T11:38:24Z</time>
      </trkpt>
      <trkpt lat="44.59977" lon="5.7991">
        <ele>1641.2</ele>
        <time>2020-10-24T11:38:28Z</time>
      </trkpt>
      <trkpt lat="44.59997" lon="5.7991">
        <ele>1636.8</ele>
        <time>2020-10-24T11:38:32Z</time>
      </trkpt>
      <trkpt lat="44.60014" lon="5.79915">
        <ele>1635.6</ele>
        <time>2020-10-24T11:38:36Z</time>
      </trkpt>
      <trkpt lat="44.60023" lon="5.79906">
        <ele>1634.8</ele>
        <time>2020-10-24T11:38:40Z</time>
      </trkpt>
      <trkpt lat="44.60016" lon="5.79898">
        <ele>1632.6</ele>
        <time>2020-10-24T11:38:44Z</time>
      </trkpt>
      <trkpt lat="44.60007" lon="5.79886">
        <ele>1631</ele>
        <time>2020-10-24T11:38:48Z</time>
      </trkpt>
      <trkpt lat="44.6" lon="5.79873">
        <ele>1628.6</ele>
        <time>2020-10-24T11:38:52Z</time>
      </trkpt>
      <trkpt lat="44.6" lon="5.79858">
        <ele>1626.4</ele>
        <time>2020-10-24T11:38:56Z</time>
      </trkpt>
      <trkpt lat="44.60004" lon="5.79842">
        <ele>1623.8</ele>
        <time>2020-10-24T11:39:00Z</time>
      </trkpt>
      <trkpt lat="44.60004" lon="5.79831">
        <ele>1621.4</ele>
        <time>2020-10-24T11:39:04Z</time>
      </trkpt>
      <trkpt lat="44.60004" lon="5.79817">
        <ele>1619.4</ele>
        <time>2020-10-24T11:39:08Z</time>
      </trkpt>
      <trkpt lat="44.60004" lon="5.79795">
        <ele>1618.2</ele>
        <time>2020-10-24T11:39:12Z</time>
      </trkpt>
      <trkpt lat="44.6001" lon="5.79776">
        <ele>1616.2</ele>
        <time>2020-10-24T11:39:16Z</time>
      </trkpt>
      <trkpt lat="44.60013" lon="5.79758">
        <ele>1613.8</ele>
        <time>2020-10-24T11:39:20Z</time>
      </trkpt>
      <trkpt lat="44.60018" lon="5.79744">
        <ele>1611.8</ele>
        <time>2020-10-24T11:39:24Z</time>
      </trkpt>
      <trkpt lat="44.60026" lon="5.79731">
        <ele>1611.6</ele>
        <time>2020-10-24T11:39:28Z</time>
      </trkpt>
      <trkpt lat="44.60031" lon="5.79725">
        <ele>1609</ele>
        <time>2020-10-24T11:39:32Z</time>
      </trkpt>
      <trkpt lat="44.60037" lon="5.79722">
        <ele>1608</ele>
        <time>2020-10-24T11:39:36Z</time>
      </trkpt>
      <trkpt lat="44.60044" lon="5.79717">
        <ele>1606</ele>
        <time>2020-10-24T11:39:40Z</time>
      </trkpt>
      <trkpt lat="44.60053" lon="5.79712">
        <ele>1604.4</ele>
        <time>2020-10-24T11:39:44Z</time>
      </trkpt>
      <trkpt lat="44.60062" lon="5.79714">
        <ele>1603</ele>
        <time>2020-10-24T11:39:48Z</time>
      </trkpt>
      <trkpt lat="44.60072" lon="5.79714">
        <ele>1601.6</ele>
        <time>2020-10-24T11:39:52Z</time>
      </trkpt>
      <trkpt lat="44.60074" lon="5.79702">
        <ele>1600.8</ele>
        <time>2020-10-24T11:40:07Z</time>
      </trkpt>
      <trkpt lat="44.6007" lon="5.79689">
        <ele>1598.8</ele>
        <time>2020-10-24T11:40:11Z</time>
      </trkpt>
      <trkpt lat="44.60062" lon="5.79679">
        <ele>1597.8</ele>
        <time>2020-10-24T11:40:15Z</time>
      </trkpt>
      <trkpt lat="44.60055" lon="5.79667">
        <ele>1595.2</ele>
        <time>2020-10-24T11:40:19Z</time>
      </trkpt>
      <trkpt lat="44.60044" lon="5.79663">
        <ele>1591.8</ele>
        <time>2020-10-24T11:40:23Z</time>
      </trkpt>
      <trkpt lat="44.60028" lon="5.79665">
        <ele>1590.6</ele>
        <time>2020-10-24T11:40:27Z</time>
      </trkpt>
      <trkpt lat="44.60018" lon="5.79659">
        <ele>1588.4</ele>
        <time>2020-10-24T11:40:31Z</time>
      </trkpt>
      <trkpt lat="44.60021" lon="5.79652">
        <ele>1587.6</ele>
        <time>2020-10-24T11:40:35Z</time>
      </trkpt>
      <trkpt lat="44.60027" lon="5.79647">
        <ele>1586.4</ele>
        <time>2020-10-24T11:40:39Z</time>
      </trkpt>
      <trkpt lat="44.60034" lon="5.79638">
        <ele>1583.6</ele>
        <time>2020-10-24T11:40:43Z</time>
      </trkpt>
      <trkpt lat="44.60046" lon="5.7963">
        <ele>1581.6</ele>
        <time>2020-10-24T11:40:47Z</time>
      </trkpt>
      <trkpt lat="44.60056" lon="5.79627">
        <ele>1579</ele>
        <time>2020-10-24T11:40:51Z</time>
      </trkpt>
      <trkpt lat="44.60062" lon="5.79622">
        <ele>1577</ele>
        <time>2020-10-24T11:40:55Z</time>
      </trkpt>
      <trkpt lat="44.60088" lon="5.79609">
        <ele>1575.6</ele>
        <time>2020-10-24T11:41:11Z</time>
      </trkpt>
      <trkpt lat="44.60098" lon="5.7961">
        <ele>1574</ele>
        <time>2020-10-24T11:41:15Z</time>
      </trkpt>
      <trkpt lat="44.60109" lon="5.79613">
        <ele>1571.4</ele>
        <time>2020-10-24T11:41:19Z</time>
      </trkpt>
      <trkpt lat="44.60118" lon="5.79618">
        <ele>1570.8</ele>
        <time>2020-10-24T11:41:23Z</time>
      </trkpt>
      <trkpt lat="44.60122" lon="5.79626">
        <ele>1569</ele>
        <time>2020-10-24T11:41:27Z</time>
      </trkpt>
      <trkpt lat="44.6013" lon="5.79636">
        <ele>1569</ele>
        <time>2020-10-24T11:41:31Z</time>
      </trkpt>
      <trkpt lat="44.60136" lon="5.79646">
        <ele>1567.4</ele>
        <time>2020-10-24T11:41:35Z</time>
      </trkpt>
      <trkpt lat="44.60144" lon="5.79664">
        <ele>1566.8</ele>
        <time>2020-10-24T11:41:39Z</time>
      </trkpt>
      <trkpt lat="44.60145" lon="5.79686">
        <ele>1564.8</ele>
        <time>2020-10-24T11:41:43Z</time>
      </trkpt>
      <trkpt lat="44.60147" lon="5.79708">
        <ele>1562.8</ele>
        <time>2020-10-24T11:41:47Z</time>
      </trkpt>
      <trkpt lat="44.60153" lon="5.79726">
        <ele>1562</ele>
        <time>2020-10-24T11:41:51Z</time>
      </trkpt>
      <trkpt lat="44.60151" lon="5.79743">
        <ele>1561.4</ele>
        <time>2020-10-24T11:41:55Z</time>
      </trkpt>
      <trkpt lat="44.60146" lon="5.79762">
        <ele>1560.6</ele>
        <time>2020-10-24T11:41:59Z</time>
      </trkpt>
      <trkpt lat="44.60154" lon="5.79774">
        <ele>1559.8</ele>
        <time>2020-10-24T11:42:03Z</time>
      </trkpt>
      <trkpt lat="44.60166" lon="5.79788">
        <ele>1556.6</ele>
        <time>2020-10-24T11:42:07Z</time>
      </trkpt>
      <trkpt lat="44.60174" lon="5.79808">
        <ele>1556.2</ele>
        <time>2020-10-24T11:42:11Z</time>
      </trkpt>
      <trkpt lat="44.60185" lon="5.79826">
        <ele>1554.6</ele>
        <time>2020-10-24T11:42:15Z</time>
      </trkpt>
      <trkpt lat="44.60192" lon="5.79847">
        <ele>1552.4</ele>
        <time>2020-10-24T11:42:19Z</time>
      </trkpt>
      <trkpt lat="44.60198" lon="5.79869">
        <ele>1550.4</ele>
        <time>2020-10-24T11:42:23Z</time>
      </trkpt>
      <trkpt lat="44.602" lon="5.79894">
        <ele>1548.4</ele>
        <time>2020-10-24T11:42:27Z</time>
      </trkpt>
      <trkpt lat="44.60203" lon="5.79914">
        <ele>1548.6</ele>
        <time>2020-10-24T11:42:31Z</time>
      </trkpt>
      <trkpt lat="44.60199" lon="5.79939">
        <ele>1545.8</ele>
        <time>2020-10-24T11:42:35Z</time>
      </trkpt>
      <trkpt lat="44.60196" lon="5.79966">
        <ele>1545.6</ele>
        <time>2020-10-24T11:42:39Z</time>
      </trkpt>
      <trkpt lat="44.60208" lon="5.79983">
        <ele>1545.8</ele>
        <time>2020-10-24T11:42:43Z</time>
      </trkpt>
      <trkpt lat="44.60221" lon="5.79991">
        <ele>1544.8</ele>
        <time>2020-10-24T11:42:47Z</time>
      </trkpt>
      <trkpt lat="44.60234" lon="5.79999">
        <ele>1544.8</ele>
        <time>2020-10-24T11:42:51Z</time>
      </trkpt>
      <trkpt lat="44.60243" lon="5.80011">
        <ele>1543.8</ele>
        <time>2020-10-24T11:42:55Z</time>
      </trkpt>
      <trkpt lat="44.60252" lon="5.8002">
        <ele>1542.6</ele>
        <time>2020-10-24T11:42:59Z</time>
      </trkpt>
      <trkpt lat="44.60262" lon="5.80028">
        <ele>1542.2</ele>
        <time>2020-10-24T11:43:03Z</time>
      </trkpt>
      <trkpt lat="44.60273" lon="5.80037">
        <ele>1541.2</ele>
        <time>2020-10-24T11:43:07Z</time>
      </trkpt>
      <trkpt lat="44.60287" lon="5.80044">
        <ele>1542</ele>
        <time>2020-10-24T11:43:11Z</time>
      </trkpt>
      <trkpt lat="44.60304" lon="5.80052">
        <ele>1540.2</ele>
        <time>2020-10-24T11:43:15Z</time>
      </trkpt>
      <trkpt lat="44.60323" lon="5.80059">
        <ele>1538</ele>
        <time>2020-10-24T11:43:19Z</time>
      </trkpt>
      <trkpt lat="44.6034" lon="5.80066">
        <ele>1536.8</ele>
        <time>2020-10-24T11:43:23Z</time>
      </trkpt>
      <trkpt lat="44.60351" lon="5.80067">
        <ele>1538.2</ele>
        <time>2020-10-24T11:43:27Z</time>
      </trkpt>
      <trkpt lat="44.6036" lon="5.80068">
        <ele>1536.8</ele>
        <time>2020-10-24T11:43:31Z</time>
      </trkpt>
      <trkpt lat="44.6037" lon="5.8007">
        <ele>1536</ele>
        <time>2020-10-24T11:43:35Z</time>
      </trkpt>
      <trkpt lat="44.60381" lon="5.80078">
        <ele>1535.4</ele>
        <time>2020-10-24T11:43:39Z</time>
      </trkpt>
      <trkpt lat="44.60395" lon="5.80087">
        <ele>1535.6</ele>
        <time>2020-10-24T11:43:43Z</time>
      </trkpt>
      <trkpt lat="44.6041" lon="5.80091">
        <ele>1534.6</ele>
        <time>2020-10-24T11:43:47Z</time>
      </trkpt>
      <trkpt lat="44.60432" lon="5.80088">
        <ele>1532.6</ele>
        <time>2020-10-24T11:43:51Z</time>
      </trkpt>
      <trkpt lat="44.60448" lon="5.80086">
        <ele>1531.8</ele>
        <time>2020-10-24T11:43:55Z</time>
      </trkpt>
      <trkpt lat="44.60464" lon="5.8008">
        <ele>1531.6</ele>
        <time>2020-10-24T11:43:59Z</time>
      </trkpt>
      <trkpt lat="44.60478" lon="5.80076">
        <ele>1530.4</ele>
        <time>2020-10-24T11:44:03Z</time>
      </trkpt>
      <trkpt lat="44.60484" lon="5.80089">
        <ele>1529.8</ele>
        <time>2020-10-24T11:44:07Z</time>
      </trkpt>
      <trkpt lat="44.60487" lon="5.80109">
        <ele>1528.8</ele>
        <time>2020-10-24T11:44:11Z</time>
      </trkpt>
      <trkpt lat="44.60494" lon="5.80126">
        <ele>1528.2</ele>
        <time>2020-10-24T11:44:15Z</time>
      </trkpt>
      <trkpt lat="44.60496" lon="5.80144">
        <ele>1526.2</ele>
        <time>2020-10-24T11:44:19Z</time>
      </trkpt>
      <trkpt lat="44.60502" lon="5.80157">
        <ele>1525.4</ele>
        <time>2020-10-24T11:44:23Z</time>
      </trkpt>
      <trkpt lat="44.60509" lon="5.80171">
        <ele>1523.4</ele>
        <time>2020-10-24T11:44:27Z</time>
      </trkpt>
      <trkpt lat="44.60516" lon="5.80184">
        <ele>1522.8</ele>
        <time>2020-10-24T11:44:31Z</time>
      </trkpt>
      <trkpt lat="44.6052" lon="5.80193">
        <ele>1521.8</ele>
        <time>2020-10-24T11:44:35Z</time>
      </trkpt>
      <trkpt lat="44.60526" lon="5.80202">
        <ele>1521.8</ele>
        <time>2020-10-24T11:44:39Z</time>
      </trkpt>
      <trkpt lat="44.60532" lon="5.80215">
        <ele>1520.8</ele>
        <time>2020-10-24T11:44:43Z</time>
      </trkpt>
      <trkpt lat="44.60539" lon="5.80227">
        <ele>1520.2</ele>
        <time>2020-10-24T11:44:47Z</time>
      </trkpt>
      <trkpt lat="44.60547" lon="5.80239">
        <ele>1519.4</ele>
        <time>2020-10-24T11:44:51Z</time>
      </trkpt>
      <trkpt lat="44.60555" lon="5.80254">
        <ele>1518</ele>
        <time>2020-10-24T11:44:55Z</time>
      </trkpt>
      <trkpt lat="44.6057" lon="5.80258">
        <ele>1517.6</ele>
        <time>2020-10-24T11:44:59Z</time>
      </trkpt>
      <trkpt lat="44.60582" lon="5.80257">
        <ele>1517.2</ele>
        <time>2020-10-24T11:45:03Z</time>
      </trkpt>
      <trkpt lat="44.60588" lon="5.80256">
        <ele>1516.6</ele>
        <time>2020-10-24T11:45:07Z</time>
      </trkpt>
      <trkpt lat="44.60598" lon="5.80253">
        <ele>1515.4</ele>
        <time>2020-10-24T11:45:11Z</time>
      </trkpt>
      <trkpt lat="44.60608" lon="5.80253">
        <ele>1515.2</ele>
        <time>2020-10-24T11:45:15Z</time>
      </trkpt>
      <trkpt lat="44.60619" lon="5.80256">
        <ele>1514.2</ele>
        <time>2020-10-24T11:45:19Z</time>
      </trkpt>
      <trkpt lat="44.60628" lon="5.80264">
        <ele>1513.2</ele>
        <time>2020-10-24T11:45:23Z</time>
      </trkpt>
      <trkpt lat="44.60635" lon="5.80266">
        <ele>1513.2</ele>
        <time>2020-10-24T11:45:27Z</time>
      </trkpt>
      <trkpt lat="44.6064" lon="5.80266">
        <ele>1513.6</ele>
        <time>2020-10-24T11:45:31Z</time>
      </trkpt>
      <trkpt lat="44.6065" lon="5.80267">
        <ele>1512</ele>
        <time>2020-10-24T11:45:35Z</time>
      </trkpt>
      <trkpt lat="44.60663" lon="5.80269">
        <ele>1512.6</ele>
        <time>2020-10-24T11:45:39Z</time>
      </trkpt>
      <trkpt lat="44.60671" lon="5.80271">
        <ele>1510.6</ele>
        <time>2020-10-24T11:45:43Z</time>
      </trkpt>
      <trkpt lat="44.6068" lon="5.80274">
        <ele>1509</ele>
        <time>2020-10-24T11:45:47Z</time>
      </trkpt>
      <trkpt lat="44.60692" lon="5.80278">
        <ele>1506.4</ele>
        <time>2020-10-24T11:45:51Z</time>
      </trkpt>
      <trkpt lat="44.60705" lon="5.80278">
        <ele>1506.8</ele>
        <time>2020-10-24T11:45:55Z</time>
      </trkpt>
      <trkpt lat="44.60716" lon="5.80271">
        <ele>1506.8</ele>
        <time>2020-10-24T11:45:59Z</time>
      </trkpt>
      <trkpt lat="44.60722" lon="5.80269">
        <ele>1507.4</ele>
        <time>2020-10-24T11:46:03Z</time>
      </trkpt>
      <trkpt lat="44.60752" lon="5.80571">
        <ele>1563.8</ele>
        <time>2020-10-24T11:58:05Z</time>
      </trkpt>
      <trkpt lat="44.6075" lon="5.80584">
        <ele>1561.6</ele>
        <time>2020-10-24T11:58:31Z</time>
      </trkpt>
      <trkpt lat="44.60748" lon="5.80593">
        <ele>1560.8</ele>
        <time>2020-10-24T11:58:35Z</time>
      </trkpt>
      <trkpt lat="44.60746" lon="5.80602">
        <ele>1559</ele>
        <time>2020-10-24T11:58:39Z</time>
      </trkpt>
      <trkpt lat="44.60744" lon="5.80613">
        <ele>1556</ele>
        <time>2020-10-24T11:58:43Z</time>
      </trkpt>
      <trkpt lat="44.60742" lon="5.80625">
        <ele>1554.8</ele>
        <time>2020-10-24T11:58:47Z</time>
      </trkpt>
      <trkpt lat="44.60741" lon="5.80636">
        <ele>1553.4</ele>
        <time>2020-10-24T11:58:51Z</time>
      </trkpt>
      <trkpt lat="44.60738" lon="5.80649">
        <ele>1551.8</ele>
        <time>2020-10-24T11:58:55Z</time>
      </trkpt>
      <trkpt lat="44.60735" lon="5.80656">
        <ele>1551</ele>
        <time>2020-10-24T11:58:59Z</time>
      </trkpt>
      <trkpt lat="44.60731" lon="5.80665">
        <ele>1549.2</ele>
        <time>2020-10-24T11:59:03Z</time>
      </trkpt>
      <trkpt lat="44.60727" lon="5.8067">
        <ele>1547</ele>
        <time>2020-10-24T11:59:07Z</time>
      </trkpt>
      <trkpt lat="44.60716" lon="5.80697">
        <ele>1544.4</ele>
        <time>2020-10-24T11:59:54Z</time>
      </trkpt>
      <trkpt lat="44.60712" lon="5.80703">
        <ele>1544.2</ele>
        <time>2020-10-24T11:59:58Z</time>
      </trkpt>
      <trkpt lat="44.60706" lon="5.80709">
        <ele>1542.4</ele>
        <time>2020-10-24T12:00:02Z</time>
      </trkpt>
      <trkpt lat="44.60707" lon="5.80715">
        <ele>1542</ele>
        <time>2020-10-24T12:00:06Z</time>
      </trkpt>
      <trkpt lat="44.60704" lon="5.8072">
        <ele>1540.6</ele>
        <time>2020-10-24T12:00:10Z</time>
      </trkpt>
      <trkpt lat="44.60706" lon="5.80726">
        <ele>1540.2</ele>
        <time>2020-10-24T12:00:14Z</time>
      </trkpt>
      <trkpt lat="44.60682" lon="5.80766">
        <ele>1538.8</ele>
        <time>2020-10-24T12:01:19Z</time>
      </trkpt>
      <trkpt lat="44.6068" lon="5.80771">
        <ele>1538</ele>
        <time>2020-10-24T12:01:23Z</time>
      </trkpt>
      <trkpt lat="44.60674" lon="5.80781">
        <ele>1537.6</ele>
        <time>2020-10-24T12:01:27Z</time>
      </trkpt>
      <trkpt lat="44.60671" lon="5.80787">
        <ele>1537</ele>
        <time>2020-10-24T12:01:31Z</time>
      </trkpt>
      <trkpt lat="44.60668" lon="5.8079">
        <ele>1536.8</ele>
        <time>2020-10-24T12:01:35Z</time>
      </trkpt>
      <trkpt lat="44.60652" lon="5.80821">
        <ele>1533.2</ele>
        <time>2020-10-24T12:02:04Z</time>
      </trkpt>
      <trkpt lat="44.60644" lon="5.80833">
        <ele>1532</ele>
        <time>2020-10-24T12:02:08Z</time>
      </trkpt>
      <trkpt lat="44.60639" lon="5.80843">
        <ele>1530.4</ele>
        <time>2020-10-24T12:02:12Z</time>
      </trkpt>
      <trkpt lat="44.60631" lon="5.80849">
        <ele>1530.4</ele>
        <time>2020-10-24T12:02:16Z</time>
      </trkpt>
      <trkpt lat="44.60626" lon="5.80855">
        <ele>1529.8</ele>
        <time>2020-10-24T12:02:20Z</time>
      </trkpt>
      <trkpt lat="44.6062" lon="5.80861">
        <ele>1529.4</ele>
        <time>2020-10-24T12:02:24Z</time>
      </trkpt>
      <trkpt lat="44.60607" lon="5.80872">
        <ele>1529.2</ele>
        <time>2020-10-24T12:02:40Z</time>
      </trkpt>
      <trkpt lat="44.60602" lon="5.8088">
        <ele>1530</ele>
        <time>2020-10-24T12:02:44Z</time>
      </trkpt>
      <trkpt lat="44.60599" lon="5.80884">
        <ele>1530.2</ele>
        <time>2020-10-24T12:02:48Z</time>
      </trkpt>
      <trkpt lat="44.60593" lon="5.80891">
        <ele>1530.4</ele>
        <time>2020-10-24T12:02:52Z</time>
      </trkpt>
      <trkpt lat="44.60591" lon="5.80894">
        <ele>1531</ele>
        <time>2020-10-24T12:02:56Z</time>
      </trkpt>
      <trkpt lat="44.60588" lon="5.80898">
        <ele>1530.6</ele>
        <time>2020-10-24T12:03:00Z</time>
      </trkpt>
      <trkpt lat="44.60588" lon="5.80898">
        <ele>1531</ele>
        <time>2020-10-24T12:03:04Z</time>
      </trkpt>
      <trkpt lat="44.60573" lon="5.80927">
        <ele>1526.8</ele>
        <time>2020-10-24T12:03:48Z</time>
      </trkpt>
      <trkpt lat="44.60573" lon="5.80933">
        <ele>1526.8</ele>
        <time>2020-10-24T12:03:52Z</time>
      </trkpt>
      <trkpt lat="44.60483" lon="5.80921">
        <ele>1519.8</ele>
        <time>2020-10-24T12:05:48Z</time>
      </trkpt>
      <trkpt lat="44.60479" lon="5.80918">
        <ele>1520</ele>
        <time>2020-10-24T12:05:52Z</time>
      </trkpt>
      <trkpt lat="44.60474" lon="5.80916">
        <ele>1519</ele>
        <time>2020-10-24T12:05:56Z</time>
      </trkpt>
      <trkpt lat="44.60385" lon="5.80917">
        <ele>1528.2</ele>
        <time>2020-10-24T12:08:49Z</time>
      </trkpt>
      <trkpt lat="44.60379" lon="5.80914">
        <ele>1529.2</ele>
        <time>2020-10-24T12:08:53Z</time>
      </trkpt>
      <trkpt lat="44.60372" lon="5.80919">
        <ele>1529.2</ele>
        <time>2020-10-24T12:08:57Z</time>
      </trkpt>
      <trkpt lat="44.60369" lon="5.80921">
        <ele>1529.4</ele>
        <time>2020-10-24T12:09:01Z</time>
      </trkpt>
      <trkpt lat="44.60362" lon="5.80922">
        <ele>1529</ele>
        <time>2020-10-24T12:09:05Z</time>
      </trkpt>
      <trkpt lat="44.60356" lon="5.80923">
        <ele>1528.4</ele>
        <time>2020-10-24T12:09:09Z</time>
      </trkpt>
      <trkpt lat="44.6035" lon="5.80928">
        <ele>1527.2</ele>
        <time>2020-10-24T12:09:13Z</time>
      </trkpt>
      <trkpt lat="44.60348" lon="5.80932">
        <ele>1525.4</ele>
        <time>2020-10-24T12:09:17Z</time>
      </trkpt>
      <trkpt lat="44.60344" lon="5.80942">
        <ele>1523.6</ele>
        <time>2020-10-24T12:09:21Z</time>
      </trkpt>
      <trkpt lat="44.60338" lon="5.80956">
        <ele>1522.2</ele>
        <time>2020-10-24T12:09:25Z</time>
      </trkpt>
      <trkpt lat="44.60317" lon="5.80976">
        <ele>1522.6</ele>
        <time>2020-10-24T12:09:29Z</time>
      </trkpt>
      <trkpt lat="44.6031" lon="5.80984">
        <ele>1523.4</ele>
        <time>2020-10-24T12:09:33Z</time>
      </trkpt>
      <trkpt lat="44.60307" lon="5.80993">
        <ele>1524.2</ele>
        <time>2020-10-24T12:09:37Z</time>
      </trkpt>
      <trkpt lat="44.60302" lon="5.80998">
        <ele>1524.2</ele>
        <time>2020-10-24T12:09:41Z</time>
      </trkpt>
      <trkpt lat="44.60294" lon="5.81007">
        <ele>1524.6</ele>
        <time>2020-10-24T12:09:45Z</time>
      </trkpt>
      <trkpt lat="44.60283" lon="5.81011">
        <ele>1525.2</ele>
        <time>2020-10-24T12:09:49Z</time>
      </trkpt>
      <trkpt lat="44.60276" lon="5.81015">
        <ele>1524.8</ele>
        <time>2020-10-24T12:09:53Z</time>
      </trkpt>
      <trkpt lat="44.60269" lon="5.8102">
        <ele>1525</ele>
        <time>2020-10-24T12:09:57Z</time>
      </trkpt>
      <trkpt lat="44.60264" lon="5.81022">
        <ele>1526.2</ele>
        <time>2020-10-24T12:10:01Z</time>
      </trkpt>
      <trkpt lat="44.60258" lon="5.81027">
        <ele>1526.2</ele>
        <time>2020-10-24T12:10:05Z</time>
      </trkpt>
      <trkpt lat="44.60252" lon="5.8103">
        <ele>1527</ele>
        <time>2020-10-24T12:10:09Z</time>
      </trkpt>
      <trkpt lat="44.60247" lon="5.81034">
        <ele>1527.6</ele>
        <time>2020-10-24T12:10:13Z</time>
      </trkpt>
      <trkpt lat="44.60242" lon="5.81039">
        <ele>1527.4</ele>
        <time>2020-10-24T12:10:17Z</time>
      </trkpt>
      <trkpt lat="44.60238" lon="5.81044">
        <ele>1527.4</ele>
        <time>2020-10-24T12:10:21Z</time>
      </trkpt>
      <trkpt lat="44.60233" lon="5.8105">
        <ele>1527.8</ele>
        <time>2020-10-24T12:10:25Z</time>
      </trkpt>
      <trkpt lat="44.60233" lon="5.8105">
        <ele>1528.2</ele>
        <time>2020-10-24T12:10:29Z</time>
      </trkpt>
      <trkpt lat="44.60229" lon="5.81056">
        <ele>1529.4</ele>
        <time>2020-10-24T12:10:33Z</time>
      </trkpt>
      <trkpt lat="44.60226" lon="5.81063">
        <ele>1530.2</ele>
        <time>2020-10-24T12:10:37Z</time>
      </trkpt>
      <trkpt lat="44.60223" lon="5.81071">
        <ele>1531.8</ele>
        <time>2020-10-24T12:10:41Z</time>
      </trkpt>
      <trkpt lat="44.60218" lon="5.81076">
        <ele>1531.8</ele>
        <time>2020-10-24T12:10:45Z</time>
      </trkpt>
      <trkpt lat="44.60215" lon="5.81083">
        <ele>1532.6</ele>
        <time>2020-10-24T12:10:49Z</time>
      </trkpt>
      <trkpt lat="44.60209" lon="5.81088">
        <ele>1533.8</ele>
        <time>2020-10-24T12:10:53Z</time>
      </trkpt>
      <trkpt lat="44.60207" lon="5.81093">
        <ele>1534</ele>
        <time>2020-10-24T12:10:57Z</time>
      </trkpt>
      <trkpt lat="44.60205" lon="5.81097">
        <ele>1534.8</ele>
        <time>2020-10-24T12:11:01Z</time>
      </trkpt>
      <trkpt lat="44.60201" lon="5.81105">
        <ele>1535.4</ele>
        <time>2020-10-24T12:11:05Z</time>
      </trkpt>
      <trkpt lat="44.60201" lon="5.81109">
        <ele>1535.4</ele>
        <time>2020-10-24T12:11:09Z</time>
      </trkpt>
      <trkpt lat="44.60198" lon="5.81113">
        <ele>1535.8</ele>
        <time>2020-10-24T12:11:13Z</time>
      </trkpt>
      <trkpt lat="44.60194" lon="5.81118">
        <ele>1536.2</ele>
        <time>2020-10-24T12:11:17Z</time>
      </trkpt>
      <trkpt lat="44.6019" lon="5.81124">
        <ele>1536.6</ele>
        <time>2020-10-24T12:11:21Z</time>
      </trkpt>
      <trkpt lat="44.60187" lon="5.81128">
        <ele>1537.6</ele>
        <time>2020-10-24T12:11:25Z</time>
      </trkpt>
      <trkpt lat="44.60182" lon="5.81136">
        <ele>1538.6</ele>
        <time>2020-10-24T12:11:29Z</time>
      </trkpt>
      <trkpt lat="44.60181" lon="5.81142">
        <ele>1540</ele>
        <time>2020-10-24T12:11:33Z</time>
      </trkpt>
      <trkpt lat="44.60177" lon="5.81151">
        <ele>1540.8</ele>
        <time>2020-10-24T12:11:37Z</time>
      </trkpt>
      <trkpt lat="44.60174" lon="5.81157">
        <ele>1540.8</ele>
        <time>2020-10-24T12:11:41Z</time>
      </trkpt>
      <trkpt lat="44.60171" lon="5.81164">
        <ele>1541.8</ele>
        <time>2020-10-24T12:11:45Z</time>
      </trkpt>
      <trkpt lat="44.6017" lon="5.81165">
        <ele>1542.4</ele>
        <time>2020-10-24T12:11:49Z</time>
      </trkpt>
      <trkpt lat="44.60017" lon="5.8132">
        <ele>1567</ele>
        <time>2020-10-24T12:17:04Z</time>
      </trkpt>
      <trkpt lat="44.60015" lon="5.81355">
        <ele>1557.4</ele>
        <time>2020-10-24T12:18:25Z</time>
      </trkpt>
      <trkpt lat="44.60011" lon="5.81372">
        <ele>1556.6</ele>
        <time>2020-10-24T12:18:29Z</time>
      </trkpt>
      <trkpt lat="44.6001" lon="5.81382">
        <ele>1555.8</ele>
        <time>2020-10-24T12:18:33Z</time>
      </trkpt>
      <trkpt lat="44.60001" lon="5.81398">
        <ele>1554.2</ele>
        <time>2020-10-24T12:18:37Z</time>
      </trkpt>
      <trkpt lat="44.59998" lon="5.81403">
        <ele>1553.2</ele>
        <time>2020-10-24T12:18:41Z</time>
      </trkpt>
      <trkpt lat="44.59989" lon="5.81412">
        <ele>1550.4</ele>
        <time>2020-10-24T12:18:45Z</time>
      </trkpt>
      <trkpt lat="44.59982" lon="5.8142">
        <ele>1548.6</ele>
        <time>2020-10-24T12:18:49Z</time>
      </trkpt>
      <trkpt lat="44.59974" lon="5.8143">
        <ele>1546.6</ele>
        <time>2020-10-24T12:18:53Z</time>
      </trkpt>
      <trkpt lat="44.59969" lon="5.8144">
        <ele>1544.8</ele>
        <time>2020-10-24T12:18:57Z</time>
      </trkpt>
      <trkpt lat="44.59952" lon="5.81452">
        <ele>1543.4</ele>
        <time>2020-10-24T12:19:01Z</time>
      </trkpt>
      <trkpt lat="44.59938" lon="5.81465">
        <ele>1542</ele>
        <time>2020-10-24T12:19:05Z</time>
      </trkpt>
      <trkpt lat="44.59929" lon="5.81468">
        <ele>1540.2</ele>
        <time>2020-10-24T12:19:09Z</time>
      </trkpt>
      <trkpt lat="44.59922" lon="5.81464">
        <ele>1538.6</ele>
        <time>2020-10-24T12:19:13Z</time>
      </trkpt>
      <trkpt lat="44.59911" lon="5.81457">
        <ele>1537</ele>
        <time>2020-10-24T12:19:17Z</time>
      </trkpt>
      <trkpt lat="44.59905" lon="5.81453">
        <ele>1536</ele>
        <time>2020-10-24T12:19:21Z</time>
      </trkpt>
      <trkpt lat="44.59868" lon="5.81447">
        <ele>1532.4</ele>
        <time>2020-10-24T12:19:47Z</time>
      </trkpt>
      <trkpt lat="44.59859" lon="5.81447">
        <ele>1530.2</ele>
        <time>2020-10-24T12:19:51Z</time>
      </trkpt>
      <trkpt lat="44.5985" lon="5.81447">
        <ele>1528.4</ele>
        <time>2020-10-24T12:19:55Z</time>
      </trkpt>
      <trkpt lat="44.59841" lon="5.81449">
        <ele>1526</ele>
        <time>2020-10-24T12:19:59Z</time>
      </trkpt>
      <trkpt lat="44.59831" lon="5.81448">
        <ele>1522.6</ele>
        <time>2020-10-24T12:20:03Z</time>
      </trkpt>
      <trkpt lat="44.59821" lon="5.81448">
        <ele>1519.6</ele>
        <time>2020-10-24T12:20:07Z</time>
      </trkpt>
      <trkpt lat="44.59811" lon="5.81451">
        <ele>1518</ele>
        <time>2020-10-24T12:20:11Z</time>
      </trkpt>
      <trkpt lat="44.59797" lon="5.81454">
        <ele>1516.4</ele>
        <time>2020-10-24T12:20:15Z</time>
      </trkpt>
      <trkpt lat="44.5979" lon="5.81456">
        <ele>1515</ele>
        <time>2020-10-24T12:20:19Z</time>
      </trkpt>
      <trkpt lat="44.59777" lon="5.81458">
        <ele>1514</ele>
        <time>2020-10-24T12:20:23Z</time>
      </trkpt>
      <trkpt lat="44.59764" lon="5.81455">
        <ele>1510.4</ele>
        <time>2020-10-24T12:20:27Z</time>
      </trkpt>
      <trkpt lat="44.59752" lon="5.81452">
        <ele>1508</ele>
        <time>2020-10-24T12:20:31Z</time>
      </trkpt>
      <trkpt lat="44.59738" lon="5.8145">
        <ele>1505.4</ele>
        <time>2020-10-24T12:20:35Z</time>
      </trkpt>
      <trkpt lat="44.59728" lon="5.81444">
        <ele>1503.8</ele>
        <time>2020-10-24T12:20:39Z</time>
      </trkpt>
      <trkpt lat="44.59719" lon="5.81445">
        <ele>1501</ele>
        <time>2020-10-24T12:20:43Z</time>
      </trkpt>
      <trkpt lat="44.59706" lon="5.81443">
        <ele>1500.2</ele>
        <time>2020-10-24T12:20:47Z</time>
      </trkpt>
      <trkpt lat="44.59698" lon="5.81445">
        <ele>1500.6</ele>
        <time>2020-10-24T12:20:51Z</time>
      </trkpt>
      <trkpt lat="44.59687" lon="5.81441">
        <ele>1500.4</ele>
        <time>2020-10-24T12:20:55Z</time>
      </trkpt>
      <trkpt lat="44.5968" lon="5.8144">
        <ele>1499</ele>
        <time>2020-10-24T12:20:59Z</time>
      </trkpt>
      <trkpt lat="44.59665" lon="5.81439">
        <ele>1495.4</ele>
        <time>2020-10-24T12:21:03Z</time>
      </trkpt>
      <trkpt lat="44.59649" lon="5.81443">
        <ele>1497.6</ele>
        <time>2020-10-24T12:21:07Z</time>
      </trkpt>
      <trkpt lat="44.59638" lon="5.81442">
        <ele>1497.4</ele>
        <time>2020-10-24T12:21:11Z</time>
      </trkpt>
      <trkpt lat="44.59638" lon="5.81442">
        <ele>1497.4</ele>
        <time>2020-10-24T12:21:15Z</time>
      </trkpt>
      <trkpt lat="44.59572" lon="5.81457">
        <ele>1499.2</ele>
        <time>2020-10-24T12:21:57Z</time>
      </trkpt>
      <trkpt lat="44.59572" lon="5.81457">
        <ele>1499</ele>
        <time>2020-10-24T12:22:01Z</time>
      </trkpt>
      <trkpt lat="44.59527" lon="5.81529">
        <ele>1504.4</ele>
        <time>2020-10-24T12:22:50Z</time>
      </trkpt>
      <trkpt lat="44.5952" lon="5.81532">
        <ele>1504.6</ele>
        <time>2020-10-24T12:22:54Z</time>
      </trkpt>
      <trkpt lat="44.59471" lon="5.81606">
        <ele>1507</ele>
        <time>2020-10-24T12:24:45Z</time>
      </trkpt>
      <trkpt lat="44.59468" lon="5.81616">
        <ele>1506.4</ele>
        <time>2020-10-24T12:24:49Z</time>
      </trkpt>
      <trkpt lat="44.5946" lon="5.81641">
        <ele>1505.2</ele>
        <time>2020-10-24T12:25:07Z</time>
      </trkpt>
      <trkpt lat="44.59455" lon="5.81653">
        <ele>1503.8</ele>
        <time>2020-10-24T12:25:11Z</time>
      </trkpt>
      <trkpt lat="44.59454" lon="5.81662">
        <ele>1503</ele>
        <time>2020-10-24T12:25:15Z</time>
      </trkpt>
      <trkpt lat="44.59449" lon="5.81673">
        <ele>1502.4</ele>
        <time>2020-10-24T12:25:19Z</time>
      </trkpt>
      <trkpt lat="44.59443" lon="5.81684">
        <ele>1502</ele>
        <time>2020-10-24T12:25:23Z</time>
      </trkpt>
      <trkpt lat="44.59436" lon="5.81694">
        <ele>1500</ele>
        <time>2020-10-24T12:25:27Z</time>
      </trkpt>
      <trkpt lat="44.59427" lon="5.81703">
        <ele>1499.4</ele>
        <time>2020-10-24T12:25:31Z</time>
      </trkpt>
      <trkpt lat="44.59417" lon="5.81715">
        <ele>1497.4</ele>
        <time>2020-10-24T12:25:35Z</time>
      </trkpt>
      <trkpt lat="44.59407" lon="5.81731">
        <ele>1495.8</ele>
        <time>2020-10-24T12:25:39Z</time>
      </trkpt>
      <trkpt lat="44.5939" lon="5.81743">
        <ele>1494.6</ele>
        <time>2020-10-24T12:25:43Z</time>
      </trkpt>
      <trkpt lat="44.59373" lon="5.81757">
        <ele>1491.8</ele>
        <time>2020-10-24T12:25:47Z</time>
      </trkpt>
      <trkpt lat="44.59369" lon="5.8178">
        <ele>1491.2</ele>
        <time>2020-10-24T12:25:51Z</time>
      </trkpt>
      <trkpt lat="44.59373" lon="5.81807">
        <ele>1489.8</ele>
        <time>2020-10-24T12:25:55Z</time>
      </trkpt>
      <trkpt lat="44.59385" lon="5.81822">
        <ele>1487.8</ele>
        <time>2020-10-24T12:25:59Z</time>
      </trkpt>
      <trkpt lat="44.59394" lon="5.81836">
        <ele>1486.6</ele>
        <time>2020-10-24T12:26:03Z</time>
      </trkpt>
      <trkpt lat="44.59395" lon="5.81862">
        <ele>1484.8</ele>
        <time>2020-10-24T12:26:07Z</time>
      </trkpt>
      <trkpt lat="44.594" lon="5.81886">
        <ele>1483.2</ele>
        <time>2020-10-24T12:26:11Z</time>
      </trkpt>
      <trkpt lat="44.59411" lon="5.81902">
        <ele>1481.4</ele>
        <time>2020-10-24T12:26:15Z</time>
      </trkpt>
      <trkpt lat="44.59416" lon="5.81915">
        <ele>1480.8</ele>
        <time>2020-10-24T12:26:19Z</time>
      </trkpt>
      <trkpt lat="44.59423" lon="5.81927">
        <ele>1480</ele>
        <time>2020-10-24T12:26:23Z</time>
      </trkpt>
      <trkpt lat="44.59437" lon="5.81938">
        <ele>1478.2</ele>
        <time>2020-10-24T12:26:27Z</time>
      </trkpt>
      <trkpt lat="44.5944" lon="5.81954">
        <ele>1477.8</ele>
        <time>2020-10-24T12:26:31Z</time>
      </trkpt>
      <trkpt lat="44.59436" lon="5.81971">
        <ele>1475</ele>
        <time>2020-10-24T12:26:35Z</time>
      </trkpt>
      <trkpt lat="44.5943" lon="5.81985">
        <ele>1474.6</ele>
        <time>2020-10-24T12:26:39Z</time>
      </trkpt>
      <trkpt lat="44.59423" lon="5.81999">
        <ele>1474</ele>
        <time>2020-10-24T12:26:43Z</time>
      </trkpt>
      <trkpt lat="44.59422" lon="5.82016">
        <ele>1473</ele>
        <time>2020-10-24T12:26:47Z</time>
      </trkpt>
      <trkpt lat="44.59419" lon="5.82027">
        <ele>1471.6</ele>
        <time>2020-10-24T12:26:51Z</time>
      </trkpt>
      <trkpt lat="44.5941" lon="5.82044">
        <ele>1471.2</ele>
        <time>2020-10-24T12:26:55Z</time>
      </trkpt>
      <trkpt lat="44.59401" lon="5.8206">
        <ele>1469.8</ele>
        <time>2020-10-24T12:26:59Z</time>
      </trkpt>
      <trkpt lat="44.59388" lon="5.82074">
        <ele>1466.6</ele>
        <time>2020-10-24T12:27:03Z</time>
      </trkpt>
      <trkpt lat="44.59373" lon="5.82086">
        <ele>1465</ele>
        <time>2020-10-24T12:27:07Z</time>
      </trkpt>
      <trkpt lat="44.59367" lon="5.821">
        <ele>1463.4</ele>
        <time>2020-10-24T12:27:11Z</time>
      </trkpt>
      <trkpt lat="44.59367" lon="5.82115">
        <ele>1463.6</ele>
        <time>2020-10-24T12:27:15Z</time>
      </trkpt>
      <trkpt lat="44.59366" lon="5.8213">
        <ele>1463.2</ele>
        <time>2020-10-24T12:27:19Z</time>
      </trkpt>
      <trkpt lat="44.59359" lon="5.82144">
        <ele>1462.2</ele>
        <time>2020-10-24T12:27:23Z</time>
      </trkpt>
      <trkpt lat="44.59345" lon="5.82147">
        <ele>1458.8</ele>
        <time>2020-10-24T12:27:27Z</time>
      </trkpt>
      <trkpt lat="44.59333" lon="5.82138">
        <ele>1457.8</ele>
        <time>2020-10-24T12:27:31Z</time>
      </trkpt>
      <trkpt lat="44.59325" lon="5.82127">
        <ele>1457.2</ele>
        <time>2020-10-24T12:27:35Z</time>
      </trkpt>
      <trkpt lat="44.59317" lon="5.82119">
        <ele>1455.8</ele>
        <time>2020-10-24T12:27:39Z</time>
      </trkpt>
      <trkpt lat="44.59302" lon="5.82116">
        <ele>1454.4</ele>
        <time>2020-10-24T12:27:43Z</time>
      </trkpt>
      <trkpt lat="44.59288" lon="5.82116">
        <ele>1453.2</ele>
        <time>2020-10-24T12:27:47Z</time>
      </trkpt>
      <trkpt lat="44.59274" lon="5.82125">
        <ele>1451.8</ele>
        <time>2020-10-24T12:27:59Z</time>
      </trkpt>
      <trkpt lat="44.59262" lon="5.82141">
        <ele>1449.6</ele>
        <time>2020-10-24T12:28:03Z</time>
      </trkpt>
      <trkpt lat="44.59258" lon="5.82162">
        <ele>1448</ele>
        <time>2020-10-24T12:28:07Z</time>
      </trkpt>
      <trkpt lat="44.59261" lon="5.8218">
        <ele>1447.4</ele>
        <time>2020-10-24T12:28:11Z</time>
      </trkpt>
      <trkpt lat="44.5926" lon="5.82199">
        <ele>1446.8</ele>
        <time>2020-10-24T12:28:15Z</time>
      </trkpt>
      <trkpt lat="44.59254" lon="5.82217">
        <ele>1445.6</ele>
        <time>2020-10-24T12:28:19Z</time>
      </trkpt>
      <trkpt lat="44.59247" lon="5.82231">
        <ele>1444.4</ele>
        <time>2020-10-24T12:28:23Z</time>
      </trkpt>
      <trkpt lat="44.5924" lon="5.82246">
        <ele>1442.4</ele>
        <time>2020-10-24T12:28:27Z</time>
      </trkpt>
      <trkpt lat="44.59236" lon="5.82265">
        <ele>1441.8</ele>
        <time>2020-10-24T12:28:31Z</time>
      </trkpt>
      <trkpt lat="44.59235" lon="5.82285">
        <ele>1440</ele>
        <time>2020-10-24T12:28:35Z</time>
      </trkpt>
      <trkpt lat="44.59237" lon="5.82297">
        <ele>1438.6</ele>
        <time>2020-10-24T12:28:39Z</time>
      </trkpt>
      <trkpt lat="44.5923" lon="5.823">
        <ele>1439.2</ele>
        <time>2020-10-24T12:28:43Z</time>
      </trkpt>
      <trkpt lat="44.59224" lon="5.82296">
        <ele>1438.6</ele>
        <time>2020-10-24T12:28:47Z</time>
      </trkpt>
      <trkpt lat="44.59224" lon="5.82288">
        <ele>1441</ele>
        <time>2020-10-24T12:28:51Z</time>
      </trkpt>
      <trkpt lat="44.59221" lon="5.82282">
        <ele>1442.4</ele>
        <time>2020-10-24T12:28:55Z</time>
      </trkpt>
      <trkpt lat="44.59221" lon="5.82274">
        <ele>1443.8</ele>
        <time>2020-10-24T12:28:59Z</time>
      </trkpt>
      <trkpt lat="44.5922" lon="5.82268">
        <ele>1444.8</ele>
        <time>2020-10-24T12:29:03Z</time>
      </trkpt>
      <trkpt lat="44.59217" lon="5.82262">
        <ele>1445.6</ele>
        <time>2020-10-24T12:29:07Z</time>
      </trkpt>
      <trkpt lat="44.59217" lon="5.82254">
        <ele>1446.6</ele>
        <time>2020-10-24T12:29:11Z</time>
      </trkpt>
      <trkpt lat="44.59149" lon="5.82206">
        <ele>1461.8</ele>
        <time>2020-10-24T12:32:35Z</time>
      </trkpt>
      <trkpt lat="44.59145" lon="5.82203">
        <ele>1461.8</ele>
        <time>2020-10-24T12:32:39Z</time>
      </trkpt>
      <trkpt lat="44.59142" lon="5.82195">
        <ele>1462.4</ele>
        <time>2020-10-24T12:32:43Z</time>
      </trkpt>
      <trkpt lat="44.59141" lon="5.82185">
        <ele>1462.8</ele>
        <time>2020-10-24T12:32:47Z</time>
      </trkpt>
      <trkpt lat="44.59135" lon="5.82179">
        <ele>1462.8</ele>
        <time>2020-10-24T12:32:51Z</time>
      </trkpt>
      <trkpt lat="44.59132" lon="5.82171">
        <ele>1463.4</ele>
        <time>2020-10-24T12:32:55Z</time>
      </trkpt>
      <trkpt lat="44.59129" lon="5.82165">
        <ele>1464</ele>
        <time>2020-10-24T12:32:59Z</time>
      </trkpt>
      <trkpt lat="44.59117" lon="5.82144">
        <ele>1463.4</ele>
        <time>2020-10-24T12:34:35Z</time>
      </trkpt>
      <trkpt lat="44.59106" lon="5.8214">
        <ele>1462.8</ele>
        <time>2020-10-24T12:34:39Z</time>
      </trkpt>
      <trkpt lat="44.59093" lon="5.82139">
        <ele>1461.2</ele>
        <time>2020-10-24T12:34:43Z</time>
      </trkpt>
      <trkpt lat="44.59085" lon="5.82128">
        <ele>1459.6</ele>
        <time>2020-10-24T12:34:47Z</time>
      </trkpt>
      <trkpt lat="44.59077" lon="5.82107">
        <ele>1456.2</ele>
        <time>2020-10-24T12:34:51Z</time>
      </trkpt>
      <trkpt lat="44.59068" lon="5.82099">
        <ele>1455.8</ele>
        <time>2020-10-24T12:34:55Z</time>
      </trkpt>
      <trkpt lat="44.59058" lon="5.82098">
        <ele>1455.8</ele>
        <time>2020-10-24T12:34:59Z</time>
      </trkpt>
      <trkpt lat="44.59048" lon="5.82092">
        <ele>1455</ele>
        <time>2020-10-24T12:35:03Z</time>
      </trkpt>
      <trkpt lat="44.59037" lon="5.8208">
        <ele>1453.2</ele>
        <time>2020-10-24T12:35:07Z</time>
      </trkpt>
      <trkpt lat="44.59026" lon="5.82077">
        <ele>1452.8</ele>
        <time>2020-10-24T12:35:11Z</time>
      </trkpt>
      <trkpt lat="44.5902" lon="5.8207">
        <ele>1453</ele>
        <time>2020-10-24T12:35:15Z</time>
      </trkpt>
      <trkpt lat="44.59013" lon="5.82057">
        <ele>1451.4</ele>
        <time>2020-10-24T12:35:19Z</time>
      </trkpt>
      <trkpt lat="44.59004" lon="5.82043">
        <ele>1448.6</ele>
        <time>2020-10-24T12:35:23Z</time>
      </trkpt>
      <trkpt lat="44.58995" lon="5.82034">
        <ele>1446.4</ele>
        <time>2020-10-24T12:35:27Z</time>
      </trkpt>
      <trkpt lat="44.58975" lon="5.82036">
        <ele>1444.2</ele>
        <time>2020-10-24T12:35:47Z</time>
      </trkpt>
      <trkpt lat="44.58962" lon="5.82048">
        <ele>1441</ele>
        <time>2020-10-24T12:35:51Z</time>
      </trkpt>
      <trkpt lat="44.58947" lon="5.82065">
        <ele>1439.8</ele>
        <time>2020-10-24T12:35:55Z</time>
      </trkpt>
      <trkpt lat="44.58939" lon="5.82075">
        <ele>1437.8</ele>
        <time>2020-10-24T12:35:59Z</time>
      </trkpt>
      <trkpt lat="44.58925" lon="5.82086">
        <ele>1436.6</ele>
        <time>2020-10-24T12:36:03Z</time>
      </trkpt>
      <trkpt lat="44.58911" lon="5.82097">
        <ele>1435</ele>
        <time>2020-10-24T12:36:07Z</time>
      </trkpt>
      <trkpt lat="44.58895" lon="5.82107">
        <ele>1434.8</ele>
        <time>2020-10-24T12:36:11Z</time>
      </trkpt>
      <trkpt lat="44.58881" lon="5.82115">
        <ele>1433.6</ele>
        <time>2020-10-24T12:36:15Z</time>
      </trkpt>
      <trkpt lat="44.58872" lon="5.82121">
        <ele>1434.4</ele>
        <time>2020-10-24T12:36:19Z</time>
      </trkpt>
      <trkpt lat="44.58864" lon="5.82125">
        <ele>1435.2</ele>
        <time>2020-10-24T12:36:23Z</time>
      </trkpt>
      <trkpt lat="44.58857" lon="5.82128">
        <ele>1436.2</ele>
        <time>2020-10-24T12:36:27Z</time>
      </trkpt>
      <trkpt lat="44.58851" lon="5.82131">
        <ele>1437.2</ele>
        <time>2020-10-24T12:36:31Z</time>
      </trkpt>
      <trkpt lat="44.58843" lon="5.82136">
        <ele>1437.8</ele>
        <time>2020-10-24T12:36:35Z</time>
      </trkpt>
      <trkpt lat="44.58838" lon="5.82139">
        <ele>1438.2</ele>
        <time>2020-10-24T12:36:39Z</time>
      </trkpt>
      <trkpt lat="44.5883" lon="5.82145">
        <ele>1438.2</ele>
        <time>2020-10-24T12:36:43Z</time>
      </trkpt>
      <trkpt lat="44.58823" lon="5.8215">
        <ele>1438.6</ele>
        <time>2020-10-24T12:36:47Z</time>
      </trkpt>
      <trkpt lat="44.58816" lon="5.82157">
        <ele>1438.8</ele>
        <time>2020-10-24T12:36:51Z</time>
      </trkpt>
      <trkpt lat="44.5881" lon="5.82164">
        <ele>1439.2</ele>
        <time>2020-10-24T12:36:55Z</time>
      </trkpt>
      <trkpt lat="44.58805" lon="5.82167">
        <ele>1439.8</ele>
        <time>2020-10-24T12:36:59Z</time>
      </trkpt>
      <trkpt lat="44.588" lon="5.82171">
        <ele>1440.8</ele>
        <time>2020-10-24T12:37:03Z</time>
      </trkpt>
      <trkpt lat="44.58792" lon="5.82177">
        <ele>1441.6</ele>
        <time>2020-10-24T12:37:07Z</time>
      </trkpt>
      <trkpt lat="44.58786" lon="5.8218">
        <ele>1441</ele>
        <time>2020-10-24T12:37:11Z</time>
      </trkpt>
      <trkpt lat="44.58774" lon="5.8219">
        <ele>1439.4</ele>
        <time>2020-10-24T12:37:15Z</time>
      </trkpt>
      <trkpt lat="44.58765" lon="5.82202">
        <ele>1437</ele>
        <time>2020-10-24T12:37:19Z</time>
      </trkpt>
      <trkpt lat="44.58758" lon="5.82213">
        <ele>1434.4</ele>
        <time>2020-10-24T12:37:23Z</time>
      </trkpt>
      <trkpt lat="44.58752" lon="5.82224">
        <ele>1431.6</ele>
        <time>2020-10-24T12:37:27Z</time>
      </trkpt>
      <trkpt lat="44.58744" lon="5.82228">
        <ele>1429.6</ele>
        <time>2020-10-24T12:37:31Z</time>
      </trkpt>
      <trkpt lat="44.58732" lon="5.82226">
        <ele>1424.4</ele>
        <time>2020-10-24T12:37:35Z</time>
      </trkpt>
      <trkpt lat="44.58722" lon="5.82224">
        <ele>1422.4</ele>
        <time>2020-10-24T12:37:39Z</time>
      </trkpt>
      <trkpt lat="44.58713" lon="5.82225">
        <ele>1420.6</ele>
        <time>2020-10-24T12:37:43Z</time>
      </trkpt>
      <trkpt lat="44.58701" lon="5.8223">
        <ele>1417.4</ele>
        <time>2020-10-24T12:37:47Z</time>
      </trkpt>
      <trkpt lat="44.58688" lon="5.82233">
        <ele>1414.8</ele>
        <time>2020-10-24T12:37:51Z</time>
      </trkpt>
      <trkpt lat="44.58674" lon="5.82246">
        <ele>1412</ele>
        <time>2020-10-24T12:37:55Z</time>
      </trkpt>
      <trkpt lat="44.58658" lon="5.82259">
        <ele>1410.2</ele>
        <time>2020-10-24T12:37:59Z</time>
      </trkpt>
      <trkpt lat="44.58643" lon="5.82268">
        <ele>1407.6</ele>
        <time>2020-10-24T12:38:03Z</time>
      </trkpt>
      <trkpt lat="44.58633" lon="5.82278">
        <ele>1406.6</ele>
        <time>2020-10-24T12:38:07Z</time>
      </trkpt>
      <trkpt lat="44.58622" lon="5.8229">
        <ele>1403.2</ele>
        <time>2020-10-24T12:38:11Z</time>
      </trkpt>
      <trkpt lat="44.58611" lon="5.82305">
        <ele>1399.8</ele>
        <time>2020-10-24T12:38:15Z</time>
      </trkpt>
      <trkpt lat="44.58596" lon="5.8232">
        <ele>1398.2</ele>
        <time>2020-10-24T12:38:19Z</time>
      </trkpt>
      <trkpt lat="44.58579" lon="5.82343">
        <ele>1393.6</ele>
        <time>2020-10-24T12:38:23Z</time>
      </trkpt>
      <trkpt lat="44.58569" lon="5.82358">
        <ele>1394.8</ele>
        <time>2020-10-24T12:38:27Z</time>
      </trkpt>
      <trkpt lat="44.58559" lon="5.82369">
        <ele>1393.2</ele>
        <time>2020-10-24T12:38:31Z</time>
      </trkpt>
      <trkpt lat="44.58551" lon="5.82379">
        <ele>1391.8</ele>
        <time>2020-10-24T12:38:35Z</time>
      </trkpt>
      <trkpt lat="44.58533" lon="5.82397">
        <ele>1387.6</ele>
        <time>2020-10-24T12:38:39Z</time>
      </trkpt>
      <trkpt lat="44.5852" lon="5.8241">
        <ele>1385.8</ele>
        <time>2020-10-24T12:38:43Z</time>
      </trkpt>
      <trkpt lat="44.58505" lon="5.82419">
        <ele>1386</ele>
        <time>2020-10-24T12:38:47Z</time>
      </trkpt>
      <trkpt lat="44.58497" lon="5.82422">
        <ele>1384.8</ele>
        <time>2020-10-24T12:38:51Z</time>
      </trkpt>
      <trkpt lat="44.5849" lon="5.82427">
        <ele>1385.4</ele>
        <time>2020-10-24T12:38:55Z</time>
      </trkpt>
      <trkpt lat="44.58482" lon="5.82434">
        <ele>1385</ele>
        <time>2020-10-24T12:38:59Z</time>
      </trkpt>
      <trkpt lat="44.58473" lon="5.82438">
        <ele>1384.4</ele>
        <time>2020-10-24T12:39:03Z</time>
      </trkpt>
      <trkpt lat="44.58457" lon="5.82445">
        <ele>1381.8</ele>
        <time>2020-10-24T12:39:07Z</time>
      </trkpt>
      <trkpt lat="44.58442" lon="5.82453">
        <ele>1383</ele>
        <time>2020-10-24T12:39:11Z</time>
      </trkpt>
      <trkpt lat="44.58435" lon="5.82456">
        <ele>1385</ele>
        <time>2020-10-24T12:39:15Z</time>
      </trkpt>
      <trkpt lat="44.58428" lon="5.82461">
        <ele>1385.8</ele>
        <time>2020-10-24T12:39:19Z</time>
      </trkpt>
      <trkpt lat="44.58423" lon="5.82463">
        <ele>1386.4</ele>
        <time>2020-10-24T12:39:23Z</time>
      </trkpt>
      <trkpt lat="44.58416" lon="5.82465">
        <ele>1387.2</ele>
        <time>2020-10-24T12:39:27Z</time>
      </trkpt>
      <trkpt lat="44.58409" lon="5.82465">
        <ele>1387.4</ele>
        <time>2020-10-24T12:39:31Z</time>
      </trkpt>
      <trkpt lat="44.58402" lon="5.82463">
        <ele>1388.2</ele>
        <time>2020-10-24T12:39:35Z</time>
      </trkpt>
      <trkpt lat="44.58393" lon="5.82463">
        <ele>1387.2</ele>
        <time>2020-10-24T12:39:39Z</time>
      </trkpt>
      <trkpt lat="44.58379" lon="5.82464">
        <ele>1385.2</ele>
        <time>2020-10-24T12:39:43Z</time>
      </trkpt>
      <trkpt lat="44.58369" lon="5.8247">
        <ele>1385</ele>
        <time>2020-10-24T12:39:47Z</time>
      </trkpt>
      <trkpt lat="44.58361" lon="5.82478">
        <ele>1382.8</ele>
        <time>2020-10-24T12:39:51Z</time>
      </trkpt>
      <trkpt lat="44.58354" lon="5.82486">
        <ele>1381.4</ele>
        <time>2020-10-24T12:39:55Z</time>
      </trkpt>
      <trkpt lat="44.5835" lon="5.82494">
        <ele>1380.4</ele>
        <time>2020-10-24T12:39:59Z</time>
      </trkpt>
      <trkpt lat="44.58338" lon="5.82504">
        <ele>1378.6</ele>
        <time>2020-10-24T12:41:25Z</time>
      </trkpt>
      <trkpt lat="44.5833" lon="5.82509">
        <ele>1377</ele>
        <time>2020-10-24T12:41:29Z</time>
      </trkpt>
      <trkpt lat="44.58317" lon="5.82519">
        <ele>1374</ele>
        <time>2020-10-24T12:42:15Z</time>
      </trkpt>
      <trkpt lat="44.58303" lon="5.82526">
        <ele>1370</ele>
        <time>2020-10-24T12:42:19Z</time>
      </trkpt>
      <trkpt lat="44.58291" lon="5.82534">
        <ele>1366.8</ele>
        <time>2020-10-24T12:42:23Z</time>
      </trkpt>
      <trkpt lat="44.58279" lon="5.82545">
        <ele>1362.6</ele>
        <time>2020-10-24T12:42:27Z</time>
      </trkpt>
      <trkpt lat="44.58269" lon="5.82554">
        <ele>1359.2</ele>
        <time>2020-10-24T12:42:31Z</time>
      </trkpt>
      <trkpt lat="44.5826" lon="5.82561">
        <ele>1357.6</ele>
        <time>2020-10-24T12:42:35Z</time>
      </trkpt>
      <trkpt lat="44.58248" lon="5.82567">
        <ele>1355.6</ele>
        <time>2020-10-24T12:42:39Z</time>
      </trkpt>
      <trkpt lat="44.58237" lon="5.82576">
        <ele>1355</ele>
        <time>2020-10-24T12:42:43Z</time>
      </trkpt>
      <trkpt lat="44.58222" lon="5.82588">
        <ele>1352.2</ele>
        <time>2020-10-24T12:42:47Z</time>
      </trkpt>
      <trkpt lat="44.58202" lon="5.82601">
        <ele>1347.4</ele>
        <time>2020-10-24T12:42:51Z</time>
      </trkpt>
      <trkpt lat="44.58179" lon="5.82613">
        <ele>1347.6</ele>
        <time>2020-10-24T12:42:55Z</time>
      </trkpt>
      <trkpt lat="44.58156" lon="5.82627">
        <ele>1344.4</ele>
        <time>2020-10-24T12:42:59Z</time>
      </trkpt>
      <trkpt lat="44.58133" lon="5.82636">
        <ele>1341.4</ele>
        <time>2020-10-24T12:43:03Z</time>
      </trkpt>
      <trkpt lat="44.58117" lon="5.82646">
        <ele>1341.8</ele>
        <time>2020-10-24T12:43:07Z</time>
      </trkpt>
      <trkpt lat="44.5811" lon="5.82655">
        <ele>1342.2</ele>
        <time>2020-10-24T12:43:11Z</time>
      </trkpt>
      <trkpt lat="44.58104" lon="5.82662">
        <ele>1341.2</ele>
        <time>2020-10-24T12:43:15Z</time>
      </trkpt>
      <trkpt lat="44.58094" lon="5.82672">
        <ele>1339.4</ele>
        <time>2020-10-24T12:43:19Z</time>
      </trkpt>
      <trkpt lat="44.58086" lon="5.82686">
        <ele>1338.2</ele>
        <time>2020-10-24T12:43:23Z</time>
      </trkpt>
      <trkpt lat="44.58082" lon="5.82703">
        <ele>1335.4</ele>
        <time>2020-10-24T12:43:27Z</time>
      </trkpt>
      <trkpt lat="44.58074" lon="5.82707">
        <ele>1335.4</ele>
        <time>2020-10-24T12:43:31Z</time>
      </trkpt>
      <trkpt lat="44.58068" lon="5.82697">
        <ele>1333.6</ele>
        <time>2020-10-24T12:43:35Z</time>
      </trkpt>
      <trkpt lat="44.58065" lon="5.82686">
        <ele>1332.8</ele>
        <time>2020-10-24T12:43:39Z</time>
      </trkpt>
      <trkpt lat="44.58056" lon="5.82681">
        <ele>1329.6</ele>
        <time>2020-10-24T12:43:43Z</time>
      </trkpt>
      <trkpt lat="44.58043" lon="5.82678">
        <ele>1326.8</ele>
        <time>2020-10-24T12:43:47Z</time>
      </trkpt>
      <trkpt lat="44.58026" lon="5.82674">
        <ele>1323.6</ele>
        <time>2020-10-24T12:43:51Z</time>
      </trkpt>
      <trkpt lat="44.58014" lon="5.82667">
        <ele>1321.4</ele>
        <time>2020-10-24T12:43:55Z</time>
      </trkpt>
      <trkpt lat="44.58" lon="5.82658">
        <ele>1314.8</ele>
        <time>2020-10-24T12:43:59Z</time>
      </trkpt>
      <trkpt lat="44.57986" lon="5.82651">
        <ele>1314</ele>
        <time>2020-10-24T12:44:03Z</time>
      </trkpt>
      <trkpt lat="44.5797" lon="5.82642">
        <ele>1311.6</ele>
        <time>2020-10-24T12:44:07Z</time>
      </trkpt>
      <trkpt lat="44.57949" lon="5.82634">
        <ele>1309</ele>
        <time>2020-10-24T12:44:11Z</time>
      </trkpt>
      <trkpt lat="44.57929" lon="5.82638">
        <ele>1306.6</ele>
        <time>2020-10-24T12:44:15Z</time>
      </trkpt>
      <trkpt lat="44.57908" lon="5.82643">
        <ele>1305</ele>
        <time>2020-10-24T12:44:19Z</time>
      </trkpt>
      <trkpt lat="44.57895" lon="5.82649">
        <ele>1302.8</ele>
        <time>2020-10-24T12:44:23Z</time>
      </trkpt>
      <trkpt lat="44.57895" lon="5.82655">
        <ele>1302.2</ele>
        <time>2020-10-24T12:44:27Z</time>
      </trkpt>
      <trkpt lat="44.57902" lon="5.82663">
        <ele>1302.6</ele>
        <time>2020-10-24T12:45:05Z</time>
      </trkpt>
      <trkpt lat="44.57907" lon="5.82671">
        <ele>1303.2</ele>
        <time>2020-10-24T12:45:09Z</time>
      </trkpt>
      <trkpt lat="44.57911" lon="5.82681">
        <ele>1303.4</ele>
        <time>2020-10-24T12:45:13Z</time>
      </trkpt>
      <trkpt lat="44.57915" lon="5.82691">
        <ele>1304.4</ele>
        <time>2020-10-24T12:45:17Z</time>
      </trkpt>
      <trkpt lat="44.57916" lon="5.82703">
        <ele>1304.2</ele>
        <time>2020-10-24T12:45:21Z</time>
      </trkpt>
      <trkpt lat="44.57917" lon="5.82714">
        <ele>1305.4</ele>
        <time>2020-10-24T12:45:25Z</time>
      </trkpt>
      <trkpt lat="44.57918" lon="5.82724">
        <ele>1306.4</ele>
        <time>2020-10-24T12:45:29Z</time>
      </trkpt>
      <trkpt lat="44.57918" lon="5.82734">
        <ele>1306.4</ele>
        <time>2020-10-24T12:45:33Z</time>
      </trkpt>
      <trkpt lat="44.57917" lon="5.82743">
        <ele>1307.8</ele>
        <time>2020-10-24T12:45:37Z</time>
      </trkpt>
      <trkpt lat="44.57916" lon="5.82752">
        <ele>1307.6</ele>
        <time>2020-10-24T12:45:41Z</time>
      </trkpt>
      <trkpt lat="44.57913" lon="5.82761">
        <ele>1308.6</ele>
        <time>2020-10-24T12:45:45Z</time>
      </trkpt>
      <trkpt lat="44.57911" lon="5.82769">
        <ele>1308.4</ele>
        <time>2020-10-24T12:45:49Z</time>
      </trkpt>
      <trkpt lat="44.5791" lon="5.82779">
        <ele>1310</ele>
        <time>2020-10-24T12:45:53Z</time>
      </trkpt>
      <trkpt lat="44.5791" lon="5.82788">
        <ele>1310.6</ele>
        <time>2020-10-24T12:45:57Z</time>
      </trkpt>
      <trkpt lat="44.57911" lon="5.82798">
        <ele>1311</ele>
        <time>2020-10-24T12:46:01Z</time>
      </trkpt>
      <trkpt lat="44.57912" lon="5.82807">
        <ele>1312.2</ele>
        <time>2020-10-24T12:46:05Z</time>
      </trkpt>
      <trkpt lat="44.57913" lon="5.82817">
        <ele>1313</ele>
        <time>2020-10-24T12:46:09Z</time>
      </trkpt>
      <trkpt lat="44.57914" lon="5.82826">
        <ele>1313.4</ele>
        <time>2020-10-24T12:46:13Z</time>
      </trkpt>
      <trkpt lat="44.57917" lon="5.82834">
        <ele>1314.4</ele>
        <time>2020-10-24T12:46:17Z</time>
      </trkpt>
      <trkpt lat="44.57921" lon="5.82841">
        <ele>1315</ele>
        <time>2020-10-24T12:46:21Z</time>
      </trkpt>
      <trkpt lat="44.57926" lon="5.82848">
        <ele>1315.2</ele>
        <time>2020-10-24T12:46:25Z</time>
      </trkpt>
      <trkpt lat="44.57931" lon="5.82853">
        <ele>1316.8</ele>
        <time>2020-10-24T12:46:29Z</time>
      </trkpt>
      <trkpt lat="44.57936" lon="5.82858">
        <ele>1316.8</ele>
        <time>2020-10-24T12:46:33Z</time>
      </trkpt>
      <trkpt lat="44.5794" lon="5.82865">
        <ele>1317.6</ele>
        <time>2020-10-24T12:46:37Z</time>
      </trkpt>
      <trkpt lat="44.57944" lon="5.82873">
        <ele>1318.2</ele>
        <time>2020-10-24T12:46:41Z</time>
      </trkpt>
      <trkpt lat="44.57948" lon="5.82881">
        <ele>1318.8</ele>
        <time>2020-10-24T12:46:45Z</time>
      </trkpt>
      <trkpt lat="44.57952" lon="5.82889">
        <ele>1319.8</ele>
        <time>2020-10-24T12:46:49Z</time>
      </trkpt>
      <trkpt lat="44.57956" lon="5.82896">
        <ele>1320.2</ele>
        <time>2020-10-24T12:46:53Z</time>
      </trkpt>
      <trkpt lat="44.5796" lon="5.82904">
        <ele>1321.4</ele>
        <time>2020-10-24T12:46:57Z</time>
      </trkpt>
      <trkpt lat="44.57964" lon="5.82912">
        <ele>1321.4</ele>
        <time>2020-10-24T12:47:01Z</time>
      </trkpt>
      <trkpt lat="44.57968" lon="5.82919">
        <ele>1323.4</ele>
        <time>2020-10-24T12:47:05Z</time>
      </trkpt>
      <trkpt lat="44.57972" lon="5.82925">
        <ele>1323.2</ele>
        <time>2020-10-24T12:47:09Z</time>
      </trkpt>
      <trkpt lat="44.57975" lon="5.82933">
        <ele>1324</ele>
        <time>2020-10-24T12:47:13Z</time>
      </trkpt>
      <trkpt lat="44.57979" lon="5.8294">
        <ele>1324.8</ele>
        <time>2020-10-24T12:47:17Z</time>
      </trkpt>
      <trkpt lat="44.57982" lon="5.82946">
        <ele>1325.4</ele>
        <time>2020-10-24T12:47:21Z</time>
      </trkpt>
      <trkpt lat="44.57986" lon="5.82953">
        <ele>1326</ele>
        <time>2020-10-24T12:47:25Z</time>
      </trkpt>
      <trkpt lat="44.57991" lon="5.82958">
        <ele>1327.8</ele>
        <time>2020-10-24T12:47:29Z</time>
      </trkpt>
      <trkpt lat="44.57996" lon="5.82962">
        <ele>1328</ele>
        <time>2020-10-24T12:47:33Z</time>
      </trkpt>
      <trkpt lat="44.58002" lon="5.82966">
        <ele>1328.6</ele>
        <time>2020-10-24T12:47:37Z</time>
      </trkpt>
      <trkpt lat="44.58008" lon="5.8297">
        <ele>1329.2</ele>
        <time>2020-10-24T12:47:41Z</time>
      </trkpt>
      <trkpt lat="44.58013" lon="5.82974">
        <ele>1331</ele>
        <time>2020-10-24T12:47:45Z</time>
      </trkpt>
      <trkpt lat="44.58017" lon="5.82977">
        <ele>1331.2</ele>
        <time>2020-10-24T12:47:49Z</time>
      </trkpt>
      <trkpt lat="44.58031" lon="5.82985">
        <ele>1333.4</ele>
        <time>2020-10-24T12:49:45Z</time>
      </trkpt>
      <trkpt lat="44.58038" lon="5.82984">
        <ele>1334.4</ele>
        <time>2020-10-24T12:49:49Z</time>
      </trkpt>
      <trkpt lat="44.58046" lon="5.82985">
        <ele>1335</ele>
        <time>2020-10-24T12:49:53Z</time>
      </trkpt>
      <trkpt lat="44.58052" lon="5.82986">
        <ele>1335.2</ele>
        <time>2020-10-24T12:49:57Z</time>
      </trkpt>
      <trkpt lat="44.5806" lon="5.82985">
        <ele>1336.8</ele>
        <time>2020-10-24T12:50:01Z</time>
      </trkpt>
      <trkpt lat="44.58066" lon="5.82986">
        <ele>1336.6</ele>
        <time>2020-10-24T12:50:05Z</time>
      </trkpt>
      <trkpt lat="44.58075" lon="5.82986">
        <ele>1337</ele>
        <time>2020-10-24T12:50:09Z</time>
      </trkpt>
      <trkpt lat="44.5808" lon="5.82988">
        <ele>1337.8</ele>
        <time>2020-10-24T12:50:13Z</time>
      </trkpt>
      <trkpt lat="44.58087" lon="5.82989">
        <ele>1338.6</ele>
        <time>2020-10-24T12:50:17Z</time>
      </trkpt>
      <trkpt lat="44.58095" lon="5.82989">
        <ele>1338.4</ele>
        <time>2020-10-24T12:50:21Z</time>
      </trkpt>
      <trkpt lat="44.58102" lon="5.82989">
        <ele>1339.6</ele>
        <time>2020-10-24T12:50:25Z</time>
      </trkpt>
      <trkpt lat="44.58109" lon="5.82991">
        <ele>1340.2</ele>
        <time>2020-10-24T12:50:29Z</time>
      </trkpt>
      <trkpt lat="44.58117" lon="5.82992">
        <ele>1339.8</ele>
        <time>2020-10-24T12:50:33Z</time>
      </trkpt>
      <trkpt lat="44.58125" lon="5.82995">
        <ele>1340.2</ele>
        <time>2020-10-24T12:50:37Z</time>
      </trkpt>
      <trkpt lat="44.58144" lon="5.83009">
        <ele>1340</ele>
        <time>2020-10-24T12:51:57Z</time>
      </trkpt>
      <trkpt lat="44.58152" lon="5.83015">
        <ele>1341</ele>
        <time>2020-10-24T12:52:01Z</time>
      </trkpt>
      <trkpt lat="44.5816" lon="5.83021">
        <ele>1340.2</ele>
        <time>2020-10-24T12:52:05Z</time>
      </trkpt>
      <trkpt lat="44.58167" lon="5.83027">
        <ele>1340</ele>
        <time>2020-10-24T12:52:09Z</time>
      </trkpt>
      <trkpt lat="44.58177" lon="5.83032">
        <ele>1340</ele>
        <time>2020-10-24T12:52:13Z</time>
      </trkpt>
      <trkpt lat="44.58188" lon="5.83039">
        <ele>1339.6</ele>
        <time>2020-10-24T12:52:17Z</time>
      </trkpt>
      <trkpt lat="44.58198" lon="5.83046">
        <ele>1338.6</ele>
        <time>2020-10-24T12:52:21Z</time>
      </trkpt>
      <trkpt lat="44.5821" lon="5.83054">
        <ele>1338.4</ele>
        <time>2020-10-24T12:52:25Z</time>
      </trkpt>
      <trkpt lat="44.58221" lon="5.83063">
        <ele>1338.2</ele>
        <time>2020-10-24T12:52:29Z</time>
      </trkpt>
      <trkpt lat="44.58233" lon="5.83072">
        <ele>1337.8</ele>
        <time>2020-10-24T12:52:33Z</time>
      </trkpt>
      <trkpt lat="44.58244" lon="5.83083">
        <ele>1337.6</ele>
        <time>2020-10-24T12:52:37Z</time>
      </trkpt>
      <trkpt lat="44.58252" lon="5.83096">
        <ele>1337.6</ele>
        <time>2020-10-24T12:52:41Z</time>
      </trkpt>
      <trkpt lat="44.58261" lon="5.83113">
        <ele>1337</ele>
        <time>2020-10-24T12:52:45Z</time>
      </trkpt>
      <trkpt lat="44.58268" lon="5.83134">
        <ele>1335.6</ele>
        <time>2020-10-24T12:52:49Z</time>
      </trkpt>
      <trkpt lat="44.58272" lon="5.83153">
        <ele>1335.6</ele>
        <time>2020-10-24T12:52:53Z</time>
      </trkpt>
      <trkpt lat="44.58282" lon="5.83163">
        <ele>1335.6</ele>
        <time>2020-10-24T12:52:57Z</time>
      </trkpt>
      <trkpt lat="44.58293" lon="5.83173">
        <ele>1336</ele>
        <time>2020-10-24T12:53:01Z</time>
      </trkpt>
      <trkpt lat="44.583" lon="5.83186">
        <ele>1335.6</ele>
        <time>2020-10-24T12:53:05Z</time>
      </trkpt>
      <trkpt lat="44.58305" lon="5.832">
        <ele>1334.8</ele>
        <time>2020-10-24T12:53:09Z</time>
      </trkpt>
      <trkpt lat="44.5831" lon="5.83218">
        <ele>1334</ele>
        <time>2020-10-24T12:53:13Z</time>
      </trkpt>
      <trkpt lat="44.58315" lon="5.83234">
        <ele>1333.4</ele>
        <time>2020-10-24T12:53:17Z</time>
      </trkpt>
      <trkpt lat="44.58321" lon="5.83255">
        <ele>1331.2</ele>
        <time>2020-10-24T12:53:21Z</time>
      </trkpt>
      <trkpt lat="44.58333" lon="5.83273">
        <ele>1330.6</ele>
        <time>2020-10-24T12:53:25Z</time>
      </trkpt>
      <trkpt lat="44.58345" lon="5.83293">
        <ele>1328.4</ele>
        <time>2020-10-24T12:53:29Z</time>
      </trkpt>
      <trkpt lat="44.5835" lon="5.83313">
        <ele>1326.8</ele>
        <time>2020-10-24T12:53:33Z</time>
      </trkpt>
      <trkpt lat="44.58353" lon="5.83338">
        <ele>1325.6</ele>
        <time>2020-10-24T12:53:37Z</time>
      </trkpt>
      <trkpt lat="44.58352" lon="5.83363">
        <ele>1323.6</ele>
        <time>2020-10-24T12:53:41Z</time>
      </trkpt>
      <trkpt lat="44.58346" lon="5.83386">
        <ele>1323</ele>
        <time>2020-10-24T12:53:45Z</time>
      </trkpt>
      <trkpt lat="44.58346" lon="5.83407">
        <ele>1322</ele>
        <time>2020-10-24T12:53:49Z</time>
      </trkpt>
      <trkpt lat="44.58352" lon="5.83427">
        <ele>1320.6</ele>
        <time>2020-10-24T12:53:53Z</time>
      </trkpt>
      <trkpt lat="44.58354" lon="5.83454">
        <ele>1319.2</ele>
        <time>2020-10-24T12:53:57Z</time>
      </trkpt>
      <trkpt lat="44.58356" lon="5.83485">
        <ele>1317.4</ele>
        <time>2020-10-24T12:54:01Z</time>
      </trkpt>
      <trkpt lat="44.58365" lon="5.83514">
        <ele>1316</ele>
        <time>2020-10-24T12:54:05Z</time>
      </trkpt>
      <trkpt lat="44.58375" lon="5.83535">
        <ele>1315.8</ele>
        <time>2020-10-24T12:54:09Z</time>
      </trkpt>
      <trkpt lat="44.58388" lon="5.8355">
        <ele>1314.6</ele>
        <time>2020-10-24T12:54:13Z</time>
      </trkpt>
      <trkpt lat="44.58398" lon="5.83571">
        <ele>1311</ele>
        <time>2020-10-24T12:54:17Z</time>
      </trkpt>
      <trkpt lat="44.58412" lon="5.83588">
        <ele>1311</ele>
        <time>2020-10-24T12:54:21Z</time>
      </trkpt>
      <trkpt lat="44.58434" lon="5.83579">
        <ele>1309.4</ele>
        <time>2020-10-24T12:54:25Z</time>
      </trkpt>
      <trkpt lat="44.58449" lon="5.83588">
        <ele>1308.2</ele>
        <time>2020-10-24T12:54:29Z</time>
      </trkpt>
      <trkpt lat="44.58455" lon="5.83599">
        <ele>1306.6</ele>
        <time>2020-10-24T12:54:33Z</time>
      </trkpt>
      <trkpt lat="44.58462" lon="5.83609">
        <ele>1305.6</ele>
        <time>2020-10-24T12:54:37Z</time>
      </trkpt>
      <trkpt lat="44.58469" lon="5.83623">
        <ele>1304.6</ele>
        <time>2020-10-24T12:54:41Z</time>
      </trkpt>
      <trkpt lat="44.58476" lon="5.83642">
        <ele>1303</ele>
        <time>2020-10-24T12:54:45Z</time>
      </trkpt>
      <trkpt lat="44.58476" lon="5.83661">
        <ele>1302</ele>
        <time>2020-10-24T12:54:49Z</time>
      </trkpt>
      <trkpt lat="44.58476" lon="5.83684">
        <ele>1300.2</ele>
        <time>2020-10-24T12:54:53Z</time>
      </trkpt>
      <trkpt lat="44.58481" lon="5.83704">
        <ele>1299.2</ele>
        <time>2020-10-24T12:54:57Z</time>
      </trkpt>
      <trkpt lat="44.58482" lon="5.83716">
        <ele>1298.2</ele>
        <time>2020-10-24T12:55:01Z</time>
      </trkpt>
      <trkpt lat="44.58483" lon="5.83729">
        <ele>1297.2</ele>
        <time>2020-10-24T12:55:05Z</time>
      </trkpt>
      <trkpt lat="44.58486" lon="5.83744">
        <ele>1296.8</ele>
        <time>2020-10-24T12:55:09Z</time>
      </trkpt>
      <trkpt lat="44.58486" lon="5.83762">
        <ele>1294.4</ele>
        <time>2020-10-24T12:55:13Z</time>
      </trkpt>
      <trkpt lat="44.58483" lon="5.83785">
        <ele>1293</ele>
        <time>2020-10-24T12:55:17Z</time>
      </trkpt>
      <trkpt lat="44.58479" lon="5.83811">
        <ele>1290.8</ele>
        <time>2020-10-24T12:55:21Z</time>
      </trkpt>
      <trkpt lat="44.58475" lon="5.83837">
        <ele>1290</ele>
        <time>2020-10-24T12:55:25Z</time>
      </trkpt>
      <trkpt lat="44.58474" lon="5.83864">
        <ele>1289</ele>
        <time>2020-10-24T12:55:29Z</time>
      </trkpt>
      <trkpt lat="44.58476" lon="5.8389">
        <ele>1285.2</ele>
        <time>2020-10-24T12:55:33Z</time>
      </trkpt>
      <trkpt lat="44.58482" lon="5.83915">
        <ele>1284.6</ele>
        <time>2020-10-24T12:55:37Z</time>
      </trkpt>
      <trkpt lat="44.58492" lon="5.83942">
        <ele>1282.2</ele>
        <time>2020-10-24T12:55:41Z</time>
      </trkpt>
      <trkpt lat="44.58501" lon="5.83965">
        <ele>1279.6</ele>
        <time>2020-10-24T12:55:45Z</time>
      </trkpt>
      <trkpt lat="44.58507" lon="5.8398">
        <ele>1278.4</ele>
        <time>2020-10-24T12:55:49Z</time>
      </trkpt>
      <trkpt lat="44.58506" lon="5.83992">
        <ele>1276.8</ele>
        <time>2020-10-24T12:55:53Z</time>
      </trkpt>
      <trkpt lat="44.58515" lon="5.83985">
        <ele>1277</ele>
        <time>2020-10-24T12:58:01Z</time>
      </trkpt>
      <trkpt lat="44.58517" lon="5.83976">
        <ele>1277.8</ele>
        <time>2020-10-24T12:58:05Z</time>
      </trkpt>
      <trkpt lat="44.58515" lon="5.83966">
        <ele>1278.2</ele>
        <time>2020-10-24T12:58:09Z</time>
      </trkpt>
      <trkpt lat="44.58513" lon="5.83957">
        <ele>1278.6</ele>
        <time>2020-10-24T12:58:13Z</time>
      </trkpt>
      <trkpt lat="44.5851" lon="5.83949">
        <ele>1279.8</ele>
        <time>2020-10-24T12:58:17Z</time>
      </trkpt>
      <trkpt lat="44.58506" lon="5.83942">
        <ele>1280.4</ele>
        <time>2020-10-24T12:58:21Z</time>
      </trkpt>
      <trkpt lat="44.58502" lon="5.83936">
        <ele>1280.8</ele>
        <time>2020-10-24T12:58:25Z</time>
      </trkpt>
      <trkpt lat="44.58498" lon="5.8393">
        <ele>1281.4</ele>
        <time>2020-10-24T12:58:29Z</time>
      </trkpt>
      <trkpt lat="44.58495" lon="5.83924">
        <ele>1282.2</ele>
        <time>2020-10-24T12:58:33Z</time>
      </trkpt>
      <trkpt lat="44.58492" lon="5.83919">
        <ele>1283.2</ele>
        <time>2020-10-24T12:58:37Z</time>
      </trkpt>
      <trkpt lat="44.58489" lon="5.83912">
        <ele>1284.2</ele>
        <time>2020-10-24T12:58:41Z</time>
      </trkpt>
      <trkpt lat="44.58486" lon="5.83905">
        <ele>1284.2</ele>
        <time>2020-10-24T12:58:45Z</time>
      </trkpt>
      <trkpt lat="44.58483" lon="5.83898">
        <ele>1284.8</ele>
        <time>2020-10-24T12:58:49Z</time>
      </trkpt>
      <trkpt lat="44.58481" lon="5.83891">
        <ele>1285.8</ele>
        <time>2020-10-24T12:58:53Z</time>
      </trkpt>
      <trkpt lat="44.58479" lon="5.83882">
        <ele>1286.4</ele>
        <time>2020-10-24T12:58:57Z</time>
      </trkpt>
      <trkpt lat="44.58479" lon="5.83873">
        <ele>1287</ele>
        <time>2020-10-24T12:59:01Z</time>
      </trkpt>
      <trkpt lat="44.58478" lon="5.83866">
        <ele>1287.6</ele>
        <time>2020-10-24T12:59:05Z</time>
      </trkpt>
      <trkpt lat="44.58478" lon="5.83856">
        <ele>1288.2</ele>
        <time>2020-10-24T12:59:09Z</time>
      </trkpt>
      <trkpt lat="44.58478" lon="5.83847">
        <ele>1288.8</ele>
        <time>2020-10-24T12:59:13Z</time>
      </trkpt>
      <trkpt lat="44.58479" lon="5.83838">
        <ele>1289.6</ele>
        <time>2020-10-24T12:59:17Z</time>
      </trkpt>
      <trkpt lat="44.5848" lon="5.83828">
        <ele>1290.2</ele>
        <time>2020-10-24T12:59:21Z</time>
      </trkpt>
      <trkpt lat="44.5848" lon="5.83821">
        <ele>1289.6</ele>
        <time>2020-10-24T12:59:25Z</time>
      </trkpt>
      <trkpt lat="44.58482" lon="5.83812">
        <ele>1290.6</ele>
        <time>2020-10-24T12:59:29Z</time>
      </trkpt>
      <trkpt lat="44.58483" lon="5.83805">
        <ele>1291.8</ele>
        <time>2020-10-24T12:59:33Z</time>
      </trkpt>
      <trkpt lat="44.58483" lon="5.83797">
        <ele>1292.2</ele>
        <time>2020-10-24T12:59:37Z</time>
      </trkpt>
      <trkpt lat="44.58484" lon="5.8379">
        <ele>1293</ele>
        <time>2020-10-24T12:59:41Z</time>
      </trkpt>
      <trkpt lat="44.58485" lon="5.83783">
        <ele>1293.6</ele>
        <time>2020-10-24T12:59:45Z</time>
      </trkpt>
      <trkpt lat="44.58485" lon="5.83776">
        <ele>1294</ele>
        <time>2020-10-24T12:59:49Z</time>
      </trkpt>
      <trkpt lat="44.58486" lon="5.83768">
        <ele>1293.8</ele>
        <time>2020-10-24T12:59:53Z</time>
      </trkpt>
      <trkpt lat="44.58488" lon="5.83759">
        <ele>1294.6</ele>
        <time>2020-10-24T12:59:57Z</time>
      </trkpt>
      <trkpt lat="44.58487" lon="5.83751">
        <ele>1294.8</ele>
        <time>2020-10-24T13:00:01Z</time>
      </trkpt>
      <trkpt lat="44.58488" lon="5.83743">
        <ele>1295.8</ele>
        <time>2020-10-24T13:00:05Z</time>
      </trkpt>
      <trkpt lat="44.58486" lon="5.83736">
        <ele>1296.2</ele>
        <time>2020-10-24T13:00:09Z</time>
      </trkpt>
      <trkpt lat="44.58487" lon="5.83728">
        <ele>1296.6</ele>
        <time>2020-10-24T13:00:13Z</time>
      </trkpt>
      <trkpt lat="44.58486" lon="5.8372">
        <ele>1297</ele>
        <time>2020-10-24T13:00:17Z</time>
      </trkpt>
      <trkpt lat="44.58486" lon="5.83712">
        <ele>1297</ele>
        <time>2020-10-24T13:00:21Z</time>
      </trkpt>
      <trkpt lat="44.58485" lon="5.83704">
        <ele>1297.4</ele>
        <time>2020-10-24T13:00:25Z</time>
      </trkpt>
      <trkpt lat="44.58484" lon="5.83695">
        <ele>1298.8</ele>
        <time>2020-10-24T13:00:29Z</time>
      </trkpt>
      <trkpt lat="44.58484" lon="5.83686">
        <ele>1299.4</ele>
        <time>2020-10-24T13:00:33Z</time>
      </trkpt>
      <trkpt lat="44.58483" lon="5.83677">
        <ele>1299.8</ele>
        <time>2020-10-24T13:00:37Z</time>
      </trkpt>
      <trkpt lat="44.58481" lon="5.8367">
        <ele>1301</ele>
        <time>2020-10-24T13:00:41Z</time>
      </trkpt>
      <trkpt lat="44.5848" lon="5.83661">
        <ele>1301.2</ele>
        <time>2020-10-24T13:00:45Z</time>
      </trkpt>
      <trkpt lat="44.58479" lon="5.83654">
        <ele>1301.6</ele>
        <time>2020-10-24T13:00:49Z</time>
      </trkpt>
      <trkpt lat="44.58479" lon="5.83646">
        <ele>1302</ele>
        <time>2020-10-24T13:00:53Z</time>
      </trkpt>
      <trkpt lat="44.58479" lon="5.83637">
        <ele>1302.6</ele>
        <time>2020-10-24T13:00:57Z</time>
      </trkpt>
      <trkpt lat="44.58477" lon="5.83628">
        <ele>1303.2</ele>
        <time>2020-10-24T13:01:01Z</time>
      </trkpt>
      <trkpt lat="44.58474" lon="5.8362">
        <ele>1304</ele>
        <time>2020-10-24T13:01:05Z</time>
      </trkpt>
      <trkpt lat="44.58472" lon="5.83612">
        <ele>1304.2</ele>
        <time>2020-10-24T13:01:09Z</time>
      </trkpt>
      <trkpt lat="44.58468" lon="5.83606">
        <ele>1305</ele>
        <time>2020-10-24T13:01:13Z</time>
      </trkpt>
      <trkpt lat="44.58464" lon="5.83599">
        <ele>1305.2</ele>
        <time>2020-10-24T13:01:17Z</time>
      </trkpt>
      <trkpt lat="44.58461" lon="5.83592">
        <ele>1305.6</ele>
        <time>2020-10-24T13:01:21Z</time>
      </trkpt>
      <trkpt lat="44.58459" lon="5.83585">
        <ele>1306.4</ele>
        <time>2020-10-24T13:01:25Z</time>
      </trkpt>
      <trkpt lat="44.58455" lon="5.83579">
        <ele>1307.4</ele>
        <time>2020-10-24T13:01:29Z</time>
      </trkpt>
      <trkpt lat="44.5845" lon="5.83577">
        <ele>1308</ele>
        <time>2020-10-24T13:01:33Z</time>
      </trkpt>
      <trkpt lat="44.58443" lon="5.83576">
        <ele>1308.2</ele>
        <time>2020-10-24T13:01:37Z</time>
      </trkpt>
      <trkpt lat="44.58437" lon="5.83576">
        <ele>1309</ele>
        <time>2020-10-24T13:01:41Z</time>
      </trkpt>
      <trkpt lat="44.5843" lon="5.83578">
        <ele>1309.4</ele>
        <time>2020-10-24T13:01:45Z</time>
      </trkpt>
      <trkpt lat="44.58424" lon="5.83579">
        <ele>1309.8</ele>
        <time>2020-10-24T13:01:49Z</time>
      </trkpt>
      <trkpt lat="44.58418" lon="5.83574">
        <ele>1310.4</ele>
        <time>2020-10-24T13:01:53Z</time>
      </trkpt>
      <trkpt lat="44.58414" lon="5.83567">
        <ele>1310.8</ele>
        <time>2020-10-24T13:01:57Z</time>
      </trkpt>
      <trkpt lat="44.58413" lon="5.83556">
        <ele>1310.8</ele>
        <time>2020-10-24T13:02:01Z</time>
      </trkpt>
      <trkpt lat="44.58411" lon="5.83546">
        <ele>1311.8</ele>
        <time>2020-10-24T13:02:05Z</time>
      </trkpt>
      <trkpt lat="44.5841" lon="5.83535">
        <ele>1311.8</ele>
        <time>2020-10-24T13:02:09Z</time>
      </trkpt>
      <trkpt lat="44.58407" lon="5.83528">
        <ele>1312.4</ele>
        <time>2020-10-24T13:02:13Z</time>
      </trkpt>
      <trkpt lat="44.58404" lon="5.83521">
        <ele>1313</ele>
        <time>2020-10-24T13:02:17Z</time>
      </trkpt>
      <trkpt lat="44.584" lon="5.83514">
        <ele>1313.4</ele>
        <time>2020-10-24T13:02:21Z</time>
      </trkpt>
      <trkpt lat="44.58395" lon="5.83508">
        <ele>1314.4</ele>
        <time>2020-10-24T13:02:25Z</time>
      </trkpt>
      <trkpt lat="44.58389" lon="5.83502">
        <ele>1314.8</ele>
        <time>2020-10-24T13:02:29Z</time>
      </trkpt>
      <trkpt lat="44.58386" lon="5.83494">
        <ele>1315.4</ele>
        <time>2020-10-24T13:02:33Z</time>
      </trkpt>
      <trkpt lat="44.5838" lon="5.83488">
        <ele>1315.8</ele>
        <time>2020-10-24T13:02:37Z</time>
      </trkpt>
      <trkpt lat="44.58377" lon="5.83479">
        <ele>1316.2</ele>
        <time>2020-10-24T13:02:41Z</time>
      </trkpt>
      <trkpt lat="44.58374" lon="5.8347">
        <ele>1316.8</ele>
        <time>2020-10-24T13:02:45Z</time>
      </trkpt>
      <trkpt lat="44.58372" lon="5.8346">
        <ele>1317.4</ele>
        <time>2020-10-24T13:02:49Z</time>
      </trkpt>
      <trkpt lat="44.58369" lon="5.83452">
        <ele>1318.4</ele>
        <time>2020-10-24T13:02:53Z</time>
      </trkpt>
      <trkpt lat="44.58368" lon="5.83442">
        <ele>1319.2</ele>
        <time>2020-10-24T13:02:57Z</time>
      </trkpt>
      <trkpt lat="44.58366" lon="5.83431">
        <ele>1319.4</ele>
        <time>2020-10-24T13:03:01Z</time>
      </trkpt>
      <trkpt lat="44.58364" lon="5.83422">
        <ele>1320.4</ele>
        <time>2020-10-24T13:03:05Z</time>
      </trkpt>
      <trkpt lat="44.5836" lon="5.83415">
        <ele>1321</ele>
        <time>2020-10-24T13:03:09Z</time>
      </trkpt>
      <trkpt lat="44.58358" lon="5.83406">
        <ele>1321.4</ele>
        <time>2020-10-24T13:03:13Z</time>
      </trkpt>
      <trkpt lat="44.58355" lon="5.83396">
        <ele>1322.2</ele>
        <time>2020-10-24T13:03:17Z</time>
      </trkpt>
      <trkpt lat="44.58352" lon="5.83391">
        <ele>1322.4</ele>
        <time>2020-10-24T13:03:21Z</time>
      </trkpt>
      <trkpt lat="44.58352" lon="5.83379">
        <ele>1322.8</ele>
        <time>2020-10-24T13:03:25Z</time>
      </trkpt>
      <trkpt lat="44.58355" lon="5.8337">
        <ele>1323.8</ele>
        <time>2020-10-24T13:03:29Z</time>
      </trkpt>
      <trkpt lat="44.58356" lon="5.83363">
        <ele>1324</ele>
        <time>2020-10-24T13:03:33Z</time>
      </trkpt>
      <trkpt lat="44.58357" lon="5.83353">
        <ele>1324.4</ele>
        <time>2020-10-24T13:03:37Z</time>
      </trkpt>
      <trkpt lat="44.58356" lon="5.83342">
        <ele>1325.2</ele>
        <time>2020-10-24T13:03:41Z</time>
      </trkpt>
      <trkpt lat="44.58355" lon="5.83331">
        <ele>1325.4</ele>
        <time>2020-10-24T13:03:45Z</time>
      </trkpt>
      <trkpt lat="44.58354" lon="5.83322">
        <ele>1325.8</ele>
        <time>2020-10-24T13:03:49Z</time>
      </trkpt>
      <trkpt lat="44.58353" lon="5.83311">
        <ele>1327</ele>
        <time>2020-10-24T13:03:53Z</time>
      </trkpt>
      <trkpt lat="44.58352" lon="5.83301">
        <ele>1327.6</ele>
        <time>2020-10-24T13:03:57Z</time>
      </trkpt>
      <trkpt lat="44.5835" lon="5.83292">
        <ele>1327.8</ele>
        <time>2020-10-24T13:04:01Z</time>
      </trkpt>
      <trkpt lat="44.58346" lon="5.83284">
        <ele>1328.8</ele>
        <time>2020-10-24T13:04:05Z</time>
      </trkpt>
      <trkpt lat="44.58341" lon="5.83278">
        <ele>1329</ele>
        <time>2020-10-24T13:04:09Z</time>
      </trkpt>
      <trkpt lat="44.58336" lon="5.83272">
        <ele>1329.8</ele>
        <time>2020-10-24T13:04:13Z</time>
      </trkpt>
      <trkpt lat="44.58331" lon="5.83266">
        <ele>1329.8</ele>
        <time>2020-10-24T13:04:17Z</time>
      </trkpt>
      <trkpt lat="44.58326" lon="5.83258">
        <ele>1330.4</ele>
        <time>2020-10-24T13:04:21Z</time>
      </trkpt>
      <trkpt lat="44.58323" lon="5.8325">
        <ele>1331</ele>
        <time>2020-10-24T13:04:25Z</time>
      </trkpt>
      <trkpt lat="44.58321" lon="5.83241">
        <ele>1331.6</ele>
        <time>2020-10-24T13:04:29Z</time>
      </trkpt>
      <trkpt lat="44.58317" lon="5.83234">
        <ele>1332.4</ele>
        <time>2020-10-24T13:04:33Z</time>
      </trkpt>
      <trkpt lat="44.58315" lon="5.83225">
        <ele>1333.4</ele>
        <time>2020-10-24T13:04:37Z</time>
      </trkpt>
      <trkpt lat="44.58312" lon="5.83216">
        <ele>1334.2</ele>
        <time>2020-10-24T13:04:41Z</time>
      </trkpt>
      <trkpt lat="44.58309" lon="5.83206">
        <ele>1334.4</ele>
        <time>2020-10-24T13:04:45Z</time>
      </trkpt>
      <trkpt lat="44.58306" lon="5.83197">
        <ele>1334.8</ele>
        <time>2020-10-24T13:04:49Z</time>
      </trkpt>
      <trkpt lat="44.58303" lon="5.83188">
        <ele>1335.4</ele>
        <time>2020-10-24T13:04:53Z</time>
      </trkpt>
      <trkpt lat="44.58298" lon="5.83178">
        <ele>1335.4</ele>
        <time>2020-10-24T13:04:57Z</time>
      </trkpt>
      <trkpt lat="44.58292" lon="5.83168">
        <ele>1335.6</ele>
        <time>2020-10-24T13:05:01Z</time>
      </trkpt>
      <trkpt lat="44.58286" lon="5.83159">
        <ele>1335.2</ele>
        <time>2020-10-24T13:05:05Z</time>
      </trkpt>
      <trkpt lat="44.5828" lon="5.83149">
        <ele>1335.6</ele>
        <time>2020-10-24T13:05:09Z</time>
      </trkpt>
      <trkpt lat="44.58274" lon="5.8314">
        <ele>1335.4</ele>
        <time>2020-10-24T13:05:13Z</time>
      </trkpt>
      <trkpt lat="44.58269" lon="5.83129">
        <ele>1335.6</ele>
        <time>2020-10-24T13:05:17Z</time>
      </trkpt>
      <trkpt lat="44.58264" lon="5.83119">
        <ele>1336.4</ele>
        <time>2020-10-24T13:05:21Z</time>
      </trkpt>
      <trkpt lat="44.58258" lon="5.83108">
        <ele>1336.8</ele>
        <time>2020-10-24T13:05:25Z</time>
      </trkpt>
      <trkpt lat="44.58253" lon="5.83098">
        <ele>1336.6</ele>
        <time>2020-10-24T13:05:29Z</time>
      </trkpt>
      <trkpt lat="44.58246" lon="5.83088">
        <ele>1337.4</ele>
        <time>2020-10-24T13:05:33Z</time>
      </trkpt>
      <trkpt lat="44.58237" lon="5.83078">
        <ele>1337.2</ele>
        <time>2020-10-24T13:05:37Z</time>
      </trkpt>
      <trkpt lat="44.58228" lon="5.8307">
        <ele>1338</ele>
        <time>2020-10-24T13:05:41Z</time>
      </trkpt>
      <trkpt lat="44.5822" lon="5.83062">
        <ele>1337.8</ele>
        <time>2020-10-24T13:05:45Z</time>
      </trkpt>
      <trkpt lat="44.58211" lon="5.83055">
        <ele>1337.8</ele>
        <time>2020-10-24T13:05:49Z</time>
      </trkpt>
      <trkpt lat="44.58202" lon="5.83048">
        <ele>1338.8</ele>
        <time>2020-10-24T13:05:53Z</time>
      </trkpt>
      <trkpt lat="44.58192" lon="5.83042">
        <ele>1339.6</ele>
        <time>2020-10-24T13:05:57Z</time>
      </trkpt>
      <trkpt lat="44.58181" lon="5.83037">
        <ele>1339.6</ele>
        <time>2020-10-24T13:06:01Z</time>
      </trkpt>
      <trkpt lat="44.58171" lon="5.83033">
        <ele>1339.6</ele>
        <time>2020-10-24T13:06:05Z</time>
      </trkpt>
      <trkpt lat="44.58162" lon="5.83026">
        <ele>1340</ele>
        <time>2020-10-24T13:06:09Z</time>
      </trkpt>
      <trkpt lat="44.58155" lon="5.83017">
        <ele>1339.6</ele>
        <time>2020-10-24T13:06:13Z</time>
      </trkpt>
      <trkpt lat="44.58148" lon="5.83009">
        <ele>1339.2</ele>
        <time>2020-10-24T13:06:17Z</time>
      </trkpt>
      <trkpt lat="44.5814" lon="5.83008">
        <ele>1339.8</ele>
        <time>2020-10-24T13:06:21Z</time>
      </trkpt>
      <trkpt lat="44.58134" lon="5.83001">
        <ele>1339.8</ele>
        <time>2020-10-24T13:06:25Z</time>
      </trkpt>
      <trkpt lat="44.58125" lon="5.82996">
        <ele>1339.8</ele>
        <time>2020-10-24T13:06:29Z</time>
      </trkpt>
      <trkpt lat="44.58115" lon="5.82993">
        <ele>1339.8</ele>
        <time>2020-10-24T13:06:33Z</time>
      </trkpt>
      <trkpt lat="44.58107" lon="5.82991">
        <ele>1339.6</ele>
        <time>2020-10-24T13:06:37Z</time>
      </trkpt>
      <trkpt lat="44.58098" lon="5.8299">
        <ele>1339.2</ele>
        <time>2020-10-24T13:06:41Z</time>
      </trkpt>
      <trkpt lat="44.58086" lon="5.8299">
        <ele>1337.8</ele>
        <time>2020-10-24T13:06:45Z</time>
      </trkpt>
      <trkpt lat="44.58069" lon="5.8299">
        <ele>1336.4</ele>
        <time>2020-10-24T13:06:49Z</time>
      </trkpt>
      <trkpt lat="44.58054" lon="5.82988">
        <ele>1335</ele>
        <time>2020-10-24T13:06:53Z</time>
      </trkpt>
      <trkpt lat="44.5804" lon="5.82987">
        <ele>1334.2</ele>
        <time>2020-10-24T13:06:57Z</time>
      </trkpt>
      <trkpt lat="44.58026" lon="5.82986">
        <ele>1332.4</ele>
        <time>2020-10-24T13:07:01Z</time>
      </trkpt>
      <trkpt lat="44.58014" lon="5.82986">
        <ele>1331.2</ele>
        <time>2020-10-24T13:07:05Z</time>
      </trkpt>
      <trkpt lat="44.58005" lon="5.82972">
        <ele>1330.2</ele>
        <time>2020-10-24T13:08:47Z</time>
      </trkpt>
      <trkpt lat="44.57994" lon="5.82965">
        <ele>1328.8</ele>
        <time>2020-10-24T13:08:51Z</time>
      </trkpt>
      <trkpt lat="44.57981" lon="5.8295">
        <ele>1325.8</ele>
        <time>2020-10-24T13:08:55Z</time>
      </trkpt>
      <trkpt lat="44.57971" lon="5.82927">
        <ele>1326</ele>
        <time>2020-10-24T13:08:59Z</time>
      </trkpt>
      <trkpt lat="44.57959" lon="5.82901">
        <ele>1319.8</ele>
        <time>2020-10-24T13:09:03Z</time>
      </trkpt>
      <trkpt lat="44.57942" lon="5.82868">
        <ele>1317.4</ele>
        <time>2020-10-24T13:09:07Z</time>
      </trkpt>
      <trkpt lat="44.57927" lon="5.82846">
        <ele>1315.4</ele>
        <time>2020-10-24T13:09:11Z</time>
      </trkpt>
      <trkpt lat="44.57917" lon="5.82823">
        <ele>1312.8</ele>
        <time>2020-10-24T13:09:15Z</time>
      </trkpt>
      <trkpt lat="44.57912" lon="5.82792">
        <ele>1311</ele>
        <time>2020-10-24T13:09:19Z</time>
      </trkpt>
      <trkpt lat="44.57913" lon="5.82764">
        <ele>1308.4</ele>
        <time>2020-10-24T13:09:23Z</time>
      </trkpt>
      <trkpt lat="44.57919" lon="5.82732">
        <ele>1305.2</ele>
        <time>2020-10-24T13:09:27Z</time>
      </trkpt>
      <trkpt lat="44.57915" lon="5.82691">
        <ele>1302.8</ele>
        <time>2020-10-24T13:09:31Z</time>
      </trkpt>
      <trkpt lat="44.57901" lon="5.82659">
        <ele>1302.8</ele>
        <time>2020-10-24T13:09:35Z</time>
      </trkpt>
      <trkpt lat="44.57889" lon="5.82645">
        <ele>1302.2</ele>
        <time>2020-10-24T13:09:39Z</time>
      </trkpt>
      <trkpt lat="44.57872" lon="5.82637">
        <ele>1298.8</ele>
        <time>2020-10-24T13:09:43Z</time>
      </trkpt>
      <trkpt lat="44.57851" lon="5.82626">
        <ele>1293.6</ele>
        <time>2020-10-24T13:09:47Z</time>
      </trkpt>
      <trkpt lat="44.5783" lon="5.82627">
        <ele>1291.2</ele>
        <time>2020-10-24T13:09:51Z</time>
      </trkpt>
      <trkpt lat="44.57812" lon="5.8264">
        <ele>1287.6</ele>
        <time>2020-10-24T13:09:55Z</time>
      </trkpt>
      <trkpt lat="44.57786" lon="5.82643">
        <ele>1283.2</ele>
        <time>2020-10-24T13:09:59Z</time>
      </trkpt>
      <trkpt lat="44.57765" lon="5.82636">
        <ele>1281.6</ele>
        <time>2020-10-24T13:10:03Z</time>
      </trkpt>
      <trkpt lat="44.57745" lon="5.82624">
        <ele>1277.6</ele>
        <time>2020-10-24T13:10:07Z</time>
      </trkpt>
      <trkpt lat="44.57718" lon="5.8261">
        <ele>1274</ele>
        <time>2020-10-24T13:10:11Z</time>
      </trkpt>
      <trkpt lat="44.57697" lon="5.82579">
        <ele>1272.2</ele>
        <time>2020-10-24T13:10:15Z</time>
      </trkpt>
      <trkpt lat="44.57686" lon="5.82545">
        <ele>1273</ele>
        <time>2020-10-24T13:10:19Z</time>
      </trkpt>
      <trkpt lat="44.57672" lon="5.82524">
        <ele>1272.6</ele>
        <time>2020-10-24T13:10:23Z</time>
      </trkpt>
      <trkpt lat="44.5766" lon="5.82517">
        <ele>1272.2</ele>
        <time>2020-10-24T13:10:27Z</time>
      </trkpt>
      <trkpt lat="44.57643" lon="5.82519">
        <ele>1270.4</ele>
        <time>2020-10-24T13:10:31Z</time>
      </trkpt>
      <trkpt lat="44.57623" lon="5.8252">
        <ele>1267.2</ele>
        <time>2020-10-24T13:10:35Z</time>
      </trkpt>
      <trkpt lat="44.57596" lon="5.82515">
        <ele>1262.8</ele>
        <time>2020-10-24T13:10:39Z</time>
      </trkpt>
      <trkpt lat="44.57567" lon="5.82508">
        <ele>1259.6</ele>
        <time>2020-10-24T13:10:43Z</time>
      </trkpt>
      <trkpt lat="44.57544" lon="5.82501">
        <ele>1258</ele>
        <time>2020-10-24T13:10:47Z</time>
      </trkpt>
      <trkpt lat="44.5753" lon="5.82495">
        <ele>1258.2</ele>
        <time>2020-10-24T13:10:51Z</time>
      </trkpt>
      <trkpt lat="44.57527" lon="5.82486">
        <ele>1257.6</ele>
        <time>2020-10-24T13:10:55Z</time>
      </trkpt>
      <trkpt lat="44.57526" lon="5.82476">
        <ele>1258.6</ele>
        <time>2020-10-24T13:10:59Z</time>
      </trkpt>
      <trkpt lat="44.57525" lon="5.82468">
        <ele>1257.4</ele>
        <time>2020-10-24T13:11:03Z</time>
      </trkpt>
      <trkpt lat="44.57524" lon="5.82458">
        <ele>1258.4</ele>
        <time>2020-10-24T13:11:07Z</time>
      </trkpt>
      <trkpt lat="44.57527" lon="5.82448">
        <ele>1258.4</ele>
        <time>2020-10-24T13:11:11Z</time>
      </trkpt>
      <trkpt lat="44.57532" lon="5.82444">
        <ele>1259</ele>
        <time>2020-10-24T13:11:15Z</time>
      </trkpt>
      <trkpt lat="44.57537" lon="5.8244">
        <ele>1259</ele>
        <time>2020-10-24T13:11:19Z</time>
      </trkpt>
      <trkpt lat="44.57542" lon="5.82435">
        <ele>1260.6</ele>
        <time>2020-10-24T13:11:23Z</time>
      </trkpt>
      <trkpt lat="44.57538" lon="5.82434">
        <ele>1259.2</ele>
        <time>2020-10-24T13:11:39Z</time>
      </trkpt>
      <trkpt lat="44.5753" lon="5.82446">
        <ele>1259.2</ele>
        <time>2020-10-24T13:11:43Z</time>
      </trkpt>
      <trkpt lat="44.57523" lon="5.82458">
        <ele>1257.8</ele>
        <time>2020-10-24T13:11:47Z</time>
      </trkpt>
      <trkpt lat="44.57525" lon="5.82469">
        <ele>1257.8</ele>
        <time>2020-10-24T13:11:51Z</time>
      </trkpt>
      <trkpt lat="44.57526" lon="5.82481">
        <ele>1257.4</ele>
        <time>2020-10-24T13:11:55Z</time>
      </trkpt>
      <trkpt lat="44.57525" lon="5.82492">
        <ele>1257.2</ele>
        <time>2020-10-24T13:11:59Z</time>
      </trkpt>
      <trkpt lat="44.57516" lon="5.82487">
        <ele>1256.4</ele>
        <time>2020-10-24T13:12:03Z</time>
      </trkpt>
      <trkpt lat="44.57506" lon="5.82475">
        <ele>1254</ele>
        <time>2020-10-24T13:12:07Z</time>
      </trkpt>
      <trkpt lat="44.57492" lon="5.82463">
        <ele>1250.6</ele>
        <time>2020-10-24T13:12:11Z</time>
      </trkpt>
      <trkpt lat="44.57474" lon="5.82459">
        <ele>1249</ele>
        <time>2020-10-24T13:12:15Z</time>
      </trkpt>
      <trkpt lat="44.57467" lon="5.82457">
        <ele>1247.2</ele>
        <time>2020-10-24T13:12:19Z</time>
      </trkpt>
      <trkpt lat="44.57465" lon="5.82443">
        <ele>1245.4</ele>
        <time>2020-10-24T13:12:23Z</time>
      </trkpt>
      <trkpt lat="44.57463" lon="5.82421">
        <ele>1244.2</ele>
        <time>2020-10-24T13:12:27Z</time>
      </trkpt>
      <trkpt lat="44.57463" lon="5.82403">
        <ele>1245.2</ele>
        <time>2020-10-24T13:12:31Z</time>
      </trkpt>
      <trkpt lat="44.57464" lon="5.82373">
        <ele>1242.4</ele>
        <time>2020-10-24T13:12:47Z</time>
      </trkpt>
      <trkpt lat="44.57471" lon="5.82353">
        <ele>1241.8</ele>
        <time>2020-10-24T13:12:51Z</time>
      </trkpt>
      <trkpt lat="44.57483" lon="5.82335">
        <ele>1240.8</ele>
        <time>2020-10-24T13:12:55Z</time>
      </trkpt>
      <trkpt lat="44.57491" lon="5.82317">
        <ele>1240.8</ele>
        <time>2020-10-24T13:12:59Z</time>
      </trkpt>
      <trkpt lat="44.57486" lon="5.82289">
        <ele>1238</ele>
        <time>2020-10-24T13:13:03Z</time>
      </trkpt>
      <trkpt lat="44.57464" lon="5.82275">
        <ele>1236.4</ele>
        <time>2020-10-24T13:13:07Z</time>
      </trkpt>
      <trkpt lat="44.57448" lon="5.82261">
        <ele>1237</ele>
        <time>2020-10-24T13:13:11Z</time>
      </trkpt>
      <trkpt lat="44.57437" lon="5.82227">
        <ele>1232.2</ele>
        <time>2020-10-24T13:13:15Z</time>
      </trkpt>
      <trkpt lat="44.57422" lon="5.82187">
        <ele>1229.4</ele>
        <time>2020-10-24T13:13:19Z</time>
      </trkpt>
      <trkpt lat="44.57407" lon="5.82158">
        <ele>1230.8</ele>
        <time>2020-10-24T13:13:23Z</time>
      </trkpt>
      <trkpt lat="44.57397" lon="5.82131">
        <ele>1230.6</ele>
        <time>2020-10-24T13:13:27Z</time>
      </trkpt>
      <trkpt lat="44.57394" lon="5.82109">
        <ele>1230.4</ele>
        <time>2020-10-24T13:13:31Z</time>
      </trkpt>
      <trkpt lat="44.57389" lon="5.82083">
        <ele>1229.6</ele>
        <time>2020-10-24T13:13:35Z</time>
      </trkpt>
      <trkpt lat="44.57381" lon="5.82064">
        <ele>1230.8</ele>
        <time>2020-10-24T13:13:39Z</time>
      </trkpt>
      <trkpt lat="44.57371" lon="5.8205">
        <ele>1231</ele>
        <time>2020-10-24T13:13:43Z</time>
      </trkpt>
      <trkpt lat="44.57362" lon="5.8204">
        <ele>1232.2</ele>
        <time>2020-10-24T13:13:47Z</time>
      </trkpt>
      <trkpt lat="44.57355" lon="5.82031">
        <ele>1232.4</ele>
        <time>2020-10-24T13:13:51Z</time>
      </trkpt>
      <trkpt lat="44.57351" lon="5.82023">
        <ele>1233.2</ele>
        <time>2020-10-24T13:13:55Z</time>
      </trkpt>
      <trkpt lat="44.5735" lon="5.82014">
        <ele>1234.2</ele>
        <time>2020-10-24T13:13:59Z</time>
      </trkpt>
      <trkpt lat="44.57352" lon="5.82002">
        <ele>1234.8</ele>
        <time>2020-10-24T13:14:03Z</time>
      </trkpt>
      <trkpt lat="44.57355" lon="5.81995">
        <ele>1235.6</ele>
        <time>2020-10-24T13:14:07Z</time>
      </trkpt>
      <trkpt lat="44.57358" lon="5.81989">
        <ele>1236.4</ele>
        <time>2020-10-24T13:14:11Z</time>
      </trkpt>
      <trkpt lat="44.57363" lon="5.81986">
        <ele>1237</ele>
        <time>2020-10-24T13:14:15Z</time>
      </trkpt>
      <trkpt lat="44.57368" lon="5.81982">
        <ele>1238</ele>
        <time>2020-10-24T13:14:19Z</time>
      </trkpt>
      <trkpt lat="44.57372" lon="5.8198">
        <ele>1238.2</ele>
        <time>2020-10-24T13:14:23Z</time>
      </trkpt>
      <trkpt lat="44.57377" lon="5.81978">
        <ele>1239.2</ele>
        <time>2020-10-24T13:14:27Z</time>
      </trkpt>
      <trkpt lat="44.57383" lon="5.81975">
        <ele>1239.4</ele>
        <time>2020-10-24T13:14:31Z</time>
      </trkpt>
      <trkpt lat="44.57388" lon="5.81971">
        <ele>1240.6</ele>
        <time>2020-10-24T13:14:35Z</time>
      </trkpt>
      <trkpt lat="44.57393" lon="5.81967">
        <ele>1241.4</ele>
        <time>2020-10-24T13:14:39Z</time>
      </trkpt>
      <trkpt lat="44.57399" lon="5.81962">
        <ele>1242.8</ele>
        <time>2020-10-24T13:14:43Z</time>
      </trkpt>
      <trkpt lat="44.57405" lon="5.81957">
        <ele>1243</ele>
        <time>2020-10-24T13:14:47Z</time>
      </trkpt>
      <trkpt lat="44.57411" lon="5.81951">
        <ele>1243</ele>
        <time>2020-10-24T13:14:51Z</time>
      </trkpt>
      <trkpt lat="44.57416" lon="5.81945">
        <ele>1244.2</ele>
        <time>2020-10-24T13:14:55Z</time>
      </trkpt>
      <trkpt lat="44.57421" lon="5.81939">
        <ele>1244.2</ele>
        <time>2020-10-24T13:14:59Z</time>
      </trkpt>
      <trkpt lat="44.57427" lon="5.81934">
        <ele>1244.8</ele>
        <time>2020-10-24T13:15:03Z</time>
      </trkpt>
      <trkpt lat="44.57433" lon="5.81928">
        <ele>1245.2</ele>
        <time>2020-10-24T13:15:07Z</time>
      </trkpt>
      <trkpt lat="44.57437" lon="5.81923">
        <ele>1246</ele>
        <time>2020-10-24T13:15:11Z</time>
      </trkpt>
      <trkpt lat="44.5744" lon="5.81917">
        <ele>1246.4</ele>
        <time>2020-10-24T13:15:15Z</time>
      </trkpt>
      <trkpt lat="44.57442" lon="5.8191">
        <ele>1247.2</ele>
        <time>2020-10-24T13:15:19Z</time>
      </trkpt>
      <trkpt lat="44.57444" lon="5.81902">
        <ele>1247.4</ele>
        <time>2020-10-24T13:15:23Z</time>
      </trkpt>
      <trkpt lat="44.57445" lon="5.81896">
        <ele>1248.2</ele>
        <time>2020-10-24T13:15:27Z</time>
      </trkpt>
      <trkpt lat="44.57446" lon="5.8189">
        <ele>1249.6</ele>
        <time>2020-10-24T13:15:31Z</time>
      </trkpt>
      <trkpt lat="44.57446" lon="5.81882">
        <ele>1249.8</ele>
        <time>2020-10-24T13:15:35Z</time>
      </trkpt>
      <trkpt lat="44.57445" lon="5.81876">
        <ele>1251</ele>
        <time>2020-10-24T13:15:39Z</time>
      </trkpt>
      <trkpt lat="44.57444" lon="5.81869">
        <ele>1251.8</ele>
        <time>2020-10-24T13:15:43Z</time>
      </trkpt>
      <trkpt lat="44.57443" lon="5.81862">
        <ele>1252.6</ele>
        <time>2020-10-24T13:15:47Z</time>
      </trkpt>
      <trkpt lat="44.57443" lon="5.81856">
        <ele>1253.6</ele>
        <time>2020-10-24T13:15:51Z</time>
      </trkpt>
      <trkpt lat="44.57445" lon="5.81849">
        <ele>1254.2</ele>
        <time>2020-10-24T13:15:55Z</time>
      </trkpt>
      <trkpt lat="44.57445" lon="5.81844">
        <ele>1255.2</ele>
        <time>2020-10-24T13:15:59Z</time>
      </trkpt>
      <trkpt lat="44.57446" lon="5.81837">
        <ele>1256.4</ele>
        <time>2020-10-24T13:16:03Z</time>
      </trkpt>
      <trkpt lat="44.57444" lon="5.8183">
        <ele>1256.6</ele>
        <time>2020-10-24T13:16:07Z</time>
      </trkpt>
      <trkpt lat="44.57442" lon="5.81824">
        <ele>1257.8</ele>
        <time>2020-10-24T13:16:11Z</time>
      </trkpt>
      <trkpt lat="44.5744" lon="5.81818">
        <ele>1258.4</ele>
        <time>2020-10-24T13:16:15Z</time>
      </trkpt>
      <trkpt lat="44.5744" lon="5.81811">
        <ele>1259</ele>
        <time>2020-10-24T13:16:19Z</time>
      </trkpt>
      <trkpt lat="44.57442" lon="5.81805">
        <ele>1260</ele>
        <time>2020-10-24T13:16:23Z</time>
      </trkpt>
      <trkpt lat="44.57445" lon="5.81799">
        <ele>1261</ele>
        <time>2020-10-24T13:16:27Z</time>
      </trkpt>
      <trkpt lat="44.57449" lon="5.81793">
        <ele>1261.4</ele>
        <time>2020-10-24T13:16:31Z</time>
      </trkpt>
      <trkpt lat="44.57452" lon="5.81786">
        <ele>1261.6</ele>
        <time>2020-10-24T13:16:35Z</time>
      </trkpt>
      <trkpt lat="44.57455" lon="5.81779">
        <ele>1262</ele>
        <time>2020-10-24T13:16:39Z</time>
      </trkpt>
      <trkpt lat="44.5746" lon="5.81766">
        <ele>1261.8</ele>
        <time>2020-10-24T13:16:43Z</time>
      </trkpt>
      <trkpt lat="44.5747" lon="5.81746">
        <ele>1260.6</ele>
        <time>2020-10-24T13:16:47Z</time>
      </trkpt>
      <trkpt lat="44.57476" lon="5.81737">
        <ele>1261</ele>
        <time>2020-10-24T13:16:51Z</time>
      </trkpt>
      <trkpt lat="44.57479" lon="5.81732">
        <ele>1261.4</ele>
        <time>2020-10-24T13:16:55Z</time>
      </trkpt>
      <trkpt lat="44.57484" lon="5.81727">
        <ele>1262.4</ele>
        <time>2020-10-24T13:16:59Z</time>
      </trkpt>
      <trkpt lat="44.57488" lon="5.81723">
        <ele>1263.2</ele>
        <time>2020-10-24T13:17:03Z</time>
      </trkpt>
      <trkpt lat="44.57491" lon="5.81718">
        <ele>1263.8</ele>
        <time>2020-10-24T13:17:07Z</time>
      </trkpt>
      <trkpt lat="44.57494" lon="5.81713">
        <ele>1264.6</ele>
        <time>2020-10-24T13:17:11Z</time>
      </trkpt>
      <trkpt lat="44.57498" lon="5.81709">
        <ele>1265.8</ele>
        <time>2020-10-24T13:17:15Z</time>
      </trkpt>
      <trkpt lat="44.575" lon="5.81705">
        <ele>1267</ele>
        <time>2020-10-24T13:17:19Z</time>
      </trkpt>
      <trkpt lat="44.57504" lon="5.817">
        <ele>1269</ele>
        <time>2020-10-24T13:17:23Z</time>
      </trkpt>
      <trkpt lat="44.57504" lon="5.817">
        <ele>1269.8</ele>
        <time>2020-10-24T13:17:27Z</time>
      </trkpt>
      <trkpt lat="44.57552" lon="5.8165">
        <ele>1280.4</ele>
        <time>2020-10-24T13:18:41Z</time>
      </trkpt>
      <trkpt lat="44.57551" lon="5.81641">
        <ele>1280.2</ele>
        <time>2020-10-24T13:18:45Z</time>
      </trkpt>
      <trkpt lat="44.57548" lon="5.81634">
        <ele>1281.2</ele>
        <time>2020-10-24T13:18:49Z</time>
      </trkpt>
      <trkpt lat="44.57544" lon="5.81628">
        <ele>1281.4</ele>
        <time>2020-10-24T13:18:53Z</time>
      </trkpt>
      <trkpt lat="44.57542" lon="5.81621">
        <ele>1282</ele>
        <time>2020-10-24T13:18:57Z</time>
      </trkpt>
      <trkpt lat="44.57542" lon="5.81612">
        <ele>1282.6</ele>
        <time>2020-10-24T13:19:01Z</time>
      </trkpt>
      <trkpt lat="44.57546" lon="5.81606">
        <ele>1283.8</ele>
        <time>2020-10-24T13:19:05Z</time>
      </trkpt>
      <trkpt lat="44.57549" lon="5.81601">
        <ele>1285</ele>
        <time>2020-10-24T13:19:09Z</time>
      </trkpt>
      <trkpt lat="44.57553" lon="5.81597">
        <ele>1285.8</ele>
        <time>2020-10-24T13:19:13Z</time>
      </trkpt>
      <trkpt lat="44.57557" lon="5.81593">
        <ele>1286.4</ele>
        <time>2020-10-24T13:19:17Z</time>
      </trkpt>
      <trkpt lat="44.57561" lon="5.81589">
        <ele>1288</ele>
        <time>2020-10-24T13:19:21Z</time>
      </trkpt>
      <trkpt lat="44.57565" lon="5.81587">
        <ele>1289</ele>
        <time>2020-10-24T13:19:25Z</time>
      </trkpt>
      <trkpt lat="44.57569" lon="5.81587">
        <ele>1289.8</ele>
        <time>2020-10-24T13:19:29Z</time>
      </trkpt>
      <trkpt lat="44.57573" lon="5.81589">
        <ele>1291.2</ele>
        <time>2020-10-24T13:19:33Z</time>
      </trkpt>
      <trkpt lat="44.57577" lon="5.81591">
        <ele>1291.8</ele>
        <time>2020-10-24T13:19:37Z</time>
      </trkpt>
      <trkpt lat="44.57581" lon="5.81591">
        <ele>1293</ele>
        <time>2020-10-24T13:19:41Z</time>
      </trkpt>
      <trkpt lat="44.57585" lon="5.81588">
        <ele>1293.4</ele>
        <time>2020-10-24T13:19:45Z</time>
      </trkpt>
      <trkpt lat="44.57587" lon="5.81586">
        <ele>1294.4</ele>
        <time>2020-10-24T13:19:49Z</time>
      </trkpt>
      <trkpt lat="44.57591" lon="5.81527">
        <ele>1301</ele>
        <time>2020-10-24T13:20:45Z</time>
      </trkpt>
      <trkpt lat="44.57592" lon="5.8152">
        <ele>1301.8</ele>
        <time>2020-10-24T13:20:49Z</time>
      </trkpt>
      <trkpt lat="44.57592" lon="5.81512">
        <ele>1302</ele>
        <time>2020-10-24T13:20:53Z</time>
      </trkpt>
      <trkpt lat="44.57593" lon="5.81505">
        <ele>1303</ele>
        <time>2020-10-24T13:20:57Z</time>
      </trkpt>
      <trkpt lat="44.57595" lon="5.81495">
        <ele>1302.6</ele>
        <time>2020-10-24T13:21:01Z</time>
      </trkpt>
      <trkpt lat="44.57603" lon="5.81486">
        <ele>1303.2</ele>
        <time>2020-10-24T13:21:05Z</time>
      </trkpt>
      <trkpt lat="44.57608" lon="5.81479">
        <ele>1303</ele>
        <time>2020-10-24T13:21:09Z</time>
      </trkpt>
      <trkpt lat="44.57609" lon="5.81471">
        <ele>1302.8</ele>
        <time>2020-10-24T13:21:13Z</time>
      </trkpt>
      <trkpt lat="44.5761" lon="5.81463">
        <ele>1303.8</ele>
        <time>2020-10-24T13:21:17Z</time>
      </trkpt>
      <trkpt lat="44.57608" lon="5.81455">
        <ele>1305.4</ele>
        <time>2020-10-24T13:21:21Z</time>
      </trkpt>
      <trkpt lat="44.57608" lon="5.81448">
        <ele>1305.8</ele>
        <time>2020-10-24T13:21:25Z</time>
      </trkpt>
      <trkpt lat="44.57605" lon="5.8144">
        <ele>1305.4</ele>
        <time>2020-10-24T13:21:29Z</time>
      </trkpt>
      <trkpt lat="44.57601" lon="5.81433">
        <ele>1305.4</ele>
        <time>2020-10-24T13:21:33Z</time>
      </trkpt>
      <trkpt lat="44.57597" lon="5.81424">
        <ele>1305.2</ele>
        <time>2020-10-24T13:21:37Z</time>
      </trkpt>
      <trkpt lat="44.57595" lon="5.81414">
        <ele>1304.8</ele>
        <time>2020-10-24T13:21:41Z</time>
      </trkpt>
      <trkpt lat="44.57596" lon="5.81402">
        <ele>1304.8</ele>
        <time>2020-10-24T13:21:45Z</time>
      </trkpt>
      <trkpt lat="44.576" lon="5.81391">
        <ele>1305</ele>
        <time>2020-10-24T13:21:49Z</time>
      </trkpt>
      <trkpt lat="44.57603" lon="5.81382">
        <ele>1305.8</ele>
        <time>2020-10-24T13:21:53Z</time>
      </trkpt>
      <trkpt lat="44.57605" lon="5.81375">
        <ele>1306.2</ele>
        <time>2020-10-24T13:21:57Z</time>
      </trkpt>
      <trkpt lat="44.57606" lon="5.81368">
        <ele>1307.6</ele>
        <time>2020-10-24T13:22:01Z</time>
      </trkpt>
      <trkpt lat="44.57606" lon="5.81359">
        <ele>1308.2</ele>
        <time>2020-10-24T13:22:05Z</time>
      </trkpt>
      <trkpt lat="44.57608" lon="5.81348">
        <ele>1306.2</ele>
        <time>2020-10-24T13:22:09Z</time>
      </trkpt>
      <trkpt lat="44.57609" lon="5.81327">
        <ele>1306.6</ele>
        <time>2020-10-24T13:22:13Z</time>
      </trkpt>
      <trkpt lat="44.57613" lon="5.81315">
        <ele>1308.2</ele>
        <time>2020-10-24T13:22:17Z</time>
      </trkpt>
      <trkpt lat="44.57615" lon="5.81308">
        <ele>1309.2</ele>
        <time>2020-10-24T13:22:21Z</time>
      </trkpt>
      <trkpt lat="44.57616" lon="5.81299">
        <ele>1308.8</ele>
        <time>2020-10-24T13:22:25Z</time>
      </trkpt>
      <trkpt lat="44.57619" lon="5.81288">
        <ele>1307.6</ele>
        <time>2020-10-24T13:22:29Z</time>
      </trkpt>
      <trkpt lat="44.57625" lon="5.81279">
        <ele>1308.6</ele>
        <time>2020-10-24T13:22:33Z</time>
      </trkpt>
      <trkpt lat="44.57629" lon="5.81272">
        <ele>1309</ele>
        <time>2020-10-24T13:22:37Z</time>
      </trkpt>
      <trkpt lat="44.57632" lon="5.81267">
        <ele>1309.4</ele>
        <time>2020-10-24T13:22:41Z</time>
      </trkpt>
      <trkpt lat="44.57635" lon="5.81264">
        <ele>1310.6</ele>
        <time>2020-10-24T13:22:45Z</time>
      </trkpt>
      <trkpt lat="44.57639" lon="5.81254">
        <ele>1311</ele>
        <time>2020-10-24T13:22:49Z</time>
      </trkpt>
      <trkpt lat="44.57642" lon="5.81251">
        <ele>1312</ele>
        <time>2020-10-24T13:22:53Z</time>
      </trkpt>
      <trkpt lat="44.57645" lon="5.81249">
        <ele>1312.8</ele>
        <time>2020-10-24T13:22:57Z</time>
      </trkpt>
      <trkpt lat="44.57649" lon="5.81246">
        <ele>1314</ele>
        <time>2020-10-24T13:23:01Z</time>
      </trkpt>
      <trkpt lat="44.57652" lon="5.81244">
        <ele>1314.6</ele>
        <time>2020-10-24T13:23:05Z</time>
      </trkpt>
      <trkpt lat="44.57655" lon="5.81241">
        <ele>1315.2</ele>
        <time>2020-10-24T13:23:09Z</time>
      </trkpt>
      <trkpt lat="44.57658" lon="5.81239">
        <ele>1316</ele>
        <time>2020-10-24T13:23:13Z</time>
      </trkpt>
      <trkpt lat="44.57662" lon="5.81238">
        <ele>1317</ele>
        <time>2020-10-24T13:23:17Z</time>
      </trkpt>
      <trkpt lat="44.57665" lon="5.81237">
        <ele>1317.6</ele>
        <time>2020-10-24T13:23:21Z</time>
      </trkpt>
      <trkpt lat="44.57668" lon="5.81236">
        <ele>1318.2</ele>
        <time>2020-10-24T13:23:25Z</time>
      </trkpt>
      <trkpt lat="44.57671" lon="5.81235">
        <ele>1319.8</ele>
        <time>2020-10-24T13:23:29Z</time>
      </trkpt>
      <trkpt lat="44.57674" lon="5.81234">
        <ele>1321</ele>
        <time>2020-10-24T13:23:33Z</time>
      </trkpt>
      <trkpt lat="44.57677" lon="5.81233">
        <ele>1321</ele>
        <time>2020-10-24T13:23:37Z</time>
      </trkpt>
      <trkpt lat="44.5768" lon="5.81231">
        <ele>1321.6</ele>
        <time>2020-10-24T13:23:41Z</time>
      </trkpt>
      <trkpt lat="44.57683" lon="5.81229">
        <ele>1322.4</ele>
        <time>2020-10-24T13:23:45Z</time>
      </trkpt>
      <trkpt lat="44.57687" lon="5.81227">
        <ele>1323</ele>
        <time>2020-10-24T13:23:49Z</time>
      </trkpt>
      <trkpt lat="44.57822" lon="5.80914">
        <ele>1375.6</ele>
        <time>2020-10-24T13:30:10Z</time>
      </trkpt>
      <trkpt lat="44.57821" lon="5.80908">
        <ele>1376.8</ele>
        <time>2020-10-24T13:30:14Z</time>
      </trkpt>
      <trkpt lat="44.57819" lon="5.80903">
        <ele>1376.6</ele>
        <time>2020-10-24T13:30:18Z</time>
      </trkpt>
      <trkpt lat="44.57817" lon="5.80899">
        <ele>1376.8</ele>
        <time>2020-10-24T13:30:22Z</time>
      </trkpt>
      <trkpt lat="44.57817" lon="5.80892">
        <ele>1377.6</ele>
        <time>2020-10-24T13:30:26Z</time>
      </trkpt>
      <trkpt lat="44.57783" lon="5.80793">
        <ele>1393</ele>
        <time>2020-10-24T13:38:24Z</time>
      </trkpt>
      <trkpt lat="44.57778" lon="5.80807">
        <ele>1392.2</ele>
        <time>2020-10-24T13:38:28Z</time>
      </trkpt>
      <trkpt lat="44.57775" lon="5.80816">
        <ele>1391.4</ele>
        <time>2020-10-24T13:38:32Z</time>
      </trkpt>
      <trkpt lat="44.57768" lon="5.80849">
        <ele>1389.8</ele>
        <time>2020-10-24T13:39:04Z</time>
      </trkpt>
      <trkpt lat="44.5775" lon="5.80864">
        <ele>1389</ele>
        <time>2020-10-24T13:39:08Z</time>
      </trkpt>
      <trkpt lat="44.57728" lon="5.80863">
        <ele>1384.8</ele>
        <time>2020-10-24T13:39:12Z</time>
      </trkpt>
      <trkpt lat="44.57705" lon="5.8086">
        <ele>1382.2</ele>
        <time>2020-10-24T13:39:16Z</time>
      </trkpt>
      <trkpt lat="44.57688" lon="5.80859">
        <ele>1383.2</ele>
        <time>2020-10-24T13:39:20Z</time>
      </trkpt>
      <trkpt lat="44.57672" lon="5.80875">
        <ele>1380.4</ele>
        <time>2020-10-24T13:39:24Z</time>
      </trkpt>
      <trkpt lat="44.57653" lon="5.80891">
        <ele>1378</ele>
        <time>2020-10-24T13:39:28Z</time>
      </trkpt>
      <trkpt lat="44.57636" lon="5.80911">
        <ele>1378.2</ele>
        <time>2020-10-24T13:39:32Z</time>
      </trkpt>
      <trkpt lat="44.57619" lon="5.80937">
        <ele>1375.6</ele>
        <time>2020-10-24T13:39:36Z</time>
      </trkpt>
      <trkpt lat="44.57602" lon="5.80967">
        <ele>1374.6</ele>
        <time>2020-10-24T13:39:40Z</time>
      </trkpt>
      <trkpt lat="44.57583" lon="5.81">
        <ele>1372</ele>
        <time>2020-10-24T13:39:44Z</time>
      </trkpt>
      <trkpt lat="44.57568" lon="5.81021">
        <ele>1369.2</ele>
        <time>2020-10-24T13:39:48Z</time>
      </trkpt>
      <trkpt lat="44.57555" lon="5.81026">
        <ele>1370.6</ele>
        <time>2020-10-24T13:39:52Z</time>
      </trkpt>
      <trkpt lat="44.57555" lon="5.81026">
        <ele>1372.6</ele>
        <time>2020-10-24T13:39:56Z</time>
      </trkpt>
      <trkpt lat="44.57535" lon="5.81033">
        <ele>1372.8</ele>
        <time>2020-10-24T13:40:13Z</time>
      </trkpt>
      <trkpt lat="44.57524" lon="5.81031">
        <ele>1373.4</ele>
        <time>2020-10-24T13:40:17Z</time>
      </trkpt>
      <trkpt lat="44.57514" lon="5.81035">
        <ele>1373.4</ele>
        <time>2020-10-24T13:40:21Z</time>
      </trkpt>
      <trkpt lat="44.57503" lon="5.81035">
        <ele>1373</ele>
        <time>2020-10-24T13:40:25Z</time>
      </trkpt>
      <trkpt lat="44.57487" lon="5.81027">
        <ele>1371</ele>
        <time>2020-10-24T13:40:29Z</time>
      </trkpt>
      <trkpt lat="44.57468" lon="5.81011">
        <ele>1368.6</ele>
        <time>2020-10-24T13:40:33Z</time>
      </trkpt>
      <trkpt lat="44.57452" lon="5.80998">
        <ele>1368.8</ele>
        <time>2020-10-24T13:40:37Z</time>
      </trkpt>
      <trkpt lat="44.57441" lon="5.80993">
        <ele>1370.2</ele>
        <time>2020-10-24T13:40:41Z</time>
      </trkpt>
      <trkpt lat="44.57433" lon="5.80991">
        <ele>1371.4</ele>
        <time>2020-10-24T13:40:45Z</time>
      </trkpt>
      <trkpt lat="44.57426" lon="5.80998">
        <ele>1372.4</ele>
        <time>2020-10-24T13:40:49Z</time>
      </trkpt>
      <trkpt lat="44.57403" lon="5.81011">
        <ele>1371.4</ele>
        <time>2020-10-24T13:41:06Z</time>
      </trkpt>
      <trkpt lat="44.57388" lon="5.81017">
        <ele>1368.6</ele>
        <time>2020-10-24T13:41:10Z</time>
      </trkpt>
      <trkpt lat="44.5737" lon="5.8102">
        <ele>1365</ele>
        <time>2020-10-24T13:41:14Z</time>
      </trkpt>
      <trkpt lat="44.57354" lon="5.81048">
        <ele>1364</ele>
        <time>2020-10-24T13:41:18Z</time>
      </trkpt>
      <trkpt lat="44.57354" lon="5.81048">
        <ele>1361.4</ele>
        <time>2020-10-24T13:41:22Z</time>
      </trkpt>
      <trkpt lat="44.57337" lon="5.8107">
        <ele>1357</ele>
        <time>2020-10-24T13:41:26Z</time>
      </trkpt>
      <trkpt lat="44.57323" lon="5.81082">
        <ele>1353.2</ele>
        <time>2020-10-24T13:41:30Z</time>
      </trkpt>
      <trkpt lat="44.57311" lon="5.81089">
        <ele>1351.2</ele>
        <time>2020-10-24T13:41:34Z</time>
      </trkpt>
      <trkpt lat="44.57297" lon="5.811">
        <ele>1349.2</ele>
        <time>2020-10-24T13:41:38Z</time>
      </trkpt>
      <trkpt lat="44.57287" lon="5.81117">
        <ele>1347.8</ele>
        <time>2020-10-24T13:41:42Z</time>
      </trkpt>
      <trkpt lat="44.5727" lon="5.81139">
        <ele>1346</ele>
        <time>2020-10-24T13:41:46Z</time>
      </trkpt>
      <trkpt lat="44.57251" lon="5.81157">
        <ele>1341.2</ele>
        <time>2020-10-24T13:41:50Z</time>
      </trkpt>
      <trkpt lat="44.57225" lon="5.81163">
        <ele>1338.4</ele>
        <time>2020-10-24T13:41:54Z</time>
      </trkpt>
      <trkpt lat="44.57194" lon="5.81169">
        <ele>1339.2</ele>
        <time>2020-10-24T13:41:58Z</time>
      </trkpt>
      <trkpt lat="44.57174" lon="5.81167">
        <ele>1336.4</ele>
        <time>2020-10-24T13:42:02Z</time>
      </trkpt>
      <trkpt lat="44.57156" lon="5.81168">
        <ele>1335</ele>
        <time>2020-10-24T13:42:06Z</time>
      </trkpt>
      <trkpt lat="44.57141" lon="5.81172">
        <ele>1332.6</ele>
        <time>2020-10-24T13:42:10Z</time>
      </trkpt>
      <trkpt lat="44.57123" lon="5.81178">
        <ele>1330.6</ele>
        <time>2020-10-24T13:42:14Z</time>
      </trkpt>
      <trkpt lat="44.57105" lon="5.81184">
        <ele>1329.8</ele>
        <time>2020-10-24T13:42:18Z</time>
      </trkpt>
      <trkpt lat="44.57086" lon="5.81189">
        <ele>1325.4</ele>
        <time>2020-10-24T13:42:22Z</time>
      </trkpt>
      <trkpt lat="44.57063" lon="5.8118">
        <ele>1322.2</ele>
        <time>2020-10-24T13:42:26Z</time>
      </trkpt>
      <trkpt lat="44.57044" lon="5.81169">
        <ele>1323.2</ele>
        <time>2020-10-24T13:42:30Z</time>
      </trkpt>
      <trkpt lat="44.57028" lon="5.81166">
        <ele>1321.6</ele>
        <time>2020-10-24T13:42:34Z</time>
      </trkpt>
      <trkpt lat="44.57016" lon="5.81165">
        <ele>1320.8</ele>
        <time>2020-10-24T13:42:38Z</time>
      </trkpt>
      <trkpt lat="44.57006" lon="5.81168">
        <ele>1320</ele>
        <time>2020-10-24T13:42:42Z</time>
      </trkpt>
      <trkpt lat="44.56992" lon="5.81176">
        <ele>1318.8</ele>
        <time>2020-10-24T13:42:46Z</time>
      </trkpt>
      <trkpt lat="44.56972" lon="5.81185">
        <ele>1318.4</ele>
        <time>2020-10-24T13:42:50Z</time>
      </trkpt>
      <trkpt lat="44.5696" lon="5.81189">
        <ele>1319.6</ele>
        <time>2020-10-24T13:42:54Z</time>
      </trkpt>
      <trkpt lat="44.56951" lon="5.81192">
        <ele>1320</ele>
        <time>2020-10-24T13:42:58Z</time>
      </trkpt>
      <trkpt lat="44.56944" lon="5.81195">
        <ele>1320.6</ele>
        <time>2020-10-24T13:43:02Z</time>
      </trkpt>
      <trkpt lat="44.56935" lon="5.81205">
        <ele>1321.6</ele>
        <time>2020-10-24T13:43:06Z</time>
      </trkpt>
      <trkpt lat="44.56929" lon="5.81209">
        <ele>1322</ele>
        <time>2020-10-24T13:43:10Z</time>
      </trkpt>
      <trkpt lat="44.56921" lon="5.81213">
        <ele>1323</ele>
        <time>2020-10-24T13:43:14Z</time>
      </trkpt>
      <trkpt lat="44.56914" lon="5.81217">
        <ele>1324</ele>
        <time>2020-10-24T13:43:18Z</time>
      </trkpt>
      <trkpt lat="44.56909" lon="5.81219">
        <ele>1324.4</ele>
        <time>2020-10-24T13:43:22Z</time>
      </trkpt>
      <trkpt lat="44.56904" lon="5.81221">
        <ele>1325.4</ele>
        <time>2020-10-24T13:43:26Z</time>
      </trkpt>
      <trkpt lat="44.56899" lon="5.81222">
        <ele>1325.4</ele>
        <time>2020-10-24T13:43:30Z</time>
      </trkpt>
      <trkpt lat="44.56893" lon="5.81223">
        <ele>1326.2</ele>
        <time>2020-10-24T13:43:34Z</time>
      </trkpt>
      <trkpt lat="44.56889" lon="5.81223">
        <ele>1327.4</ele>
        <time>2020-10-24T13:43:38Z</time>
      </trkpt>
      <trkpt lat="44.56884" lon="5.81225">
        <ele>1327.6</ele>
        <time>2020-10-24T13:43:42Z</time>
      </trkpt>
      <trkpt lat="44.56879" lon="5.81227">
        <ele>1328.6</ele>
        <time>2020-10-24T13:43:46Z</time>
      </trkpt>
      <trkpt lat="44.56874" lon="5.81229">
        <ele>1329.4</ele>
        <time>2020-10-24T13:43:50Z</time>
      </trkpt>
      <trkpt lat="44.56869" lon="5.81231">
        <ele>1329.8</ele>
        <time>2020-10-24T13:43:54Z</time>
      </trkpt>
      <trkpt lat="44.56864" lon="5.81232">
        <ele>1330.6</ele>
        <time>2020-10-24T13:43:58Z</time>
      </trkpt>
      <trkpt lat="44.56861" lon="5.81231">
        <ele>1331.2</ele>
        <time>2020-10-24T13:44:02Z</time>
      </trkpt>
      <trkpt lat="44.56857" lon="5.81231">
        <ele>1332.2</ele>
        <time>2020-10-24T13:44:06Z</time>
      </trkpt>
      <trkpt lat="44.56853" lon="5.81232">
        <ele>1332.4</ele>
        <time>2020-10-24T13:44:10Z</time>
      </trkpt>
      <trkpt lat="44.56846" lon="5.81236">
        <ele>1332.8</ele>
        <time>2020-10-24T13:44:14Z</time>
      </trkpt>
      <trkpt lat="44.5684" lon="5.81238">
        <ele>1334</ele>
        <time>2020-10-24T13:44:18Z</time>
      </trkpt>
      <trkpt lat="44.56836" lon="5.8124">
        <ele>1334.4</ele>
        <time>2020-10-24T13:44:22Z</time>
      </trkpt>
      <trkpt lat="44.5683" lon="5.81244">
        <ele>1335</ele>
        <time>2020-10-24T13:44:26Z</time>
      </trkpt>
      <trkpt lat="44.56825" lon="5.81246">
        <ele>1336</ele>
        <time>2020-10-24T13:44:30Z</time>
      </trkpt>
      <trkpt lat="44.5682" lon="5.81247">
        <ele>1336</ele>
        <time>2020-10-24T13:44:34Z</time>
      </trkpt>
      <trkpt lat="44.56815" lon="5.81249">
        <ele>1336.2</ele>
        <time>2020-10-24T13:44:38Z</time>
      </trkpt>
      <trkpt lat="44.5681" lon="5.81251">
        <ele>1337.2</ele>
        <time>2020-10-24T13:44:42Z</time>
      </trkpt>
      <trkpt lat="44.56807" lon="5.81251">
        <ele>1338.4</ele>
        <time>2020-10-24T13:44:46Z</time>
      </trkpt>
      <trkpt lat="44.56802" lon="5.81254">
        <ele>1339.2</ele>
        <time>2020-10-24T13:44:50Z</time>
      </trkpt>
      <trkpt lat="44.56798" lon="5.81255">
        <ele>1339.6</ele>
        <time>2020-10-24T13:44:54Z</time>
      </trkpt>
      <trkpt lat="44.56792" lon="5.81258">
        <ele>1340.6</ele>
        <time>2020-10-24T13:44:58Z</time>
      </trkpt>
      <trkpt lat="44.56684" lon="5.81236">
        <ele>1359.6</ele>
        <time>2020-10-24T13:47:12Z</time>
      </trkpt>
      <trkpt lat="44.56689" lon="5.81233">
        <ele>1360.6</ele>
        <time>2020-10-24T13:47:16Z</time>
      </trkpt>
      <trkpt lat="44.56693" lon="5.81229">
        <ele>1361.4</ele>
        <time>2020-10-24T13:47:20Z</time>
      </trkpt>
      <trkpt lat="44.56698" lon="5.81226">
        <ele>1361.6</ele>
        <time>2020-10-24T13:47:24Z</time>
      </trkpt>
      <trkpt lat="44.56702" lon="5.81224">
        <ele>1362.2</ele>
        <time>2020-10-24T13:47:28Z</time>
      </trkpt>
      <trkpt lat="44.56706" lon="5.81221">
        <ele>1362.8</ele>
        <time>2020-10-24T13:47:32Z</time>
      </trkpt>
      <trkpt lat="44.5671" lon="5.81218">
        <ele>1363.8</ele>
        <time>2020-10-24T13:47:36Z</time>
      </trkpt>
      <trkpt lat="44.56714" lon="5.81216">
        <ele>1364.4</ele>
        <time>2020-10-24T13:47:40Z</time>
      </trkpt>
      <trkpt lat="44.56717" lon="5.81213">
        <ele>1364.8</ele>
        <time>2020-10-24T13:47:44Z</time>
      </trkpt>
      <trkpt lat="44.56722" lon="5.8121">
        <ele>1365</ele>
        <time>2020-10-24T13:47:48Z</time>
      </trkpt>
      <trkpt lat="44.56727" lon="5.81206">
        <ele>1365.6</ele>
        <time>2020-10-24T13:47:52Z</time>
      </trkpt>
      <trkpt lat="44.56732" lon="5.81202">
        <ele>1366.2</ele>
        <time>2020-10-24T13:47:56Z</time>
      </trkpt>
      <trkpt lat="44.56737" lon="5.81198">
        <ele>1367</ele>
        <time>2020-10-24T13:48:00Z</time>
      </trkpt>
      <trkpt lat="44.56741" lon="5.81194">
        <ele>1367.2</ele>
        <time>2020-10-24T13:48:04Z</time>
      </trkpt>
      <trkpt lat="44.56745" lon="5.8119">
        <ele>1368.4</ele>
        <time>2020-10-24T13:48:08Z</time>
      </trkpt>
      <trkpt lat="44.5675" lon="5.81186">
        <ele>1368.6</ele>
        <time>2020-10-24T13:48:12Z</time>
      </trkpt>
      <trkpt lat="44.56755" lon="5.8118">
        <ele>1369.2</ele>
        <time>2020-10-24T13:48:16Z</time>
      </trkpt>
      <trkpt lat="44.56759" lon="5.81176">
        <ele>1370.4</ele>
        <time>2020-10-24T13:48:20Z</time>
      </trkpt>
      <trkpt lat="44.56763" lon="5.81171">
        <ele>1370.4</ele>
        <time>2020-10-24T13:48:24Z</time>
      </trkpt>
      <trkpt lat="44.56767" lon="5.81166">
        <ele>1370.8</ele>
        <time>2020-10-24T13:48:28Z</time>
      </trkpt>
      <trkpt lat="44.56771" lon="5.81162">
        <ele>1371.4</ele>
        <time>2020-10-24T13:48:32Z</time>
      </trkpt>
      <trkpt lat="44.56776" lon="5.81155">
        <ele>1372</ele>
        <time>2020-10-24T13:48:36Z</time>
      </trkpt>
      <trkpt lat="44.5678" lon="5.81149">
        <ele>1372.6</ele>
        <time>2020-10-24T13:48:40Z</time>
      </trkpt>
      <trkpt lat="44.56783" lon="5.81143">
        <ele>1373</ele>
        <time>2020-10-24T13:48:44Z</time>
      </trkpt>
      <trkpt lat="44.56787" lon="5.81136">
        <ele>1373.4</ele>
        <time>2020-10-24T13:48:48Z</time>
      </trkpt>
      <trkpt lat="44.56791" lon="5.81129">
        <ele>1373.6</ele>
        <time>2020-10-24T13:48:52Z</time>
      </trkpt>
      <trkpt lat="44.56794" lon="5.81121">
        <ele>1374</ele>
        <time>2020-10-24T13:48:56Z</time>
      </trkpt>
      <trkpt lat="44.56798" lon="5.81115">
        <ele>1374.4</ele>
        <time>2020-10-24T13:49:00Z</time>
      </trkpt>
      <trkpt lat="44.568" lon="5.81108">
        <ele>1375.6</ele>
        <time>2020-10-24T13:49:04Z</time>
      </trkpt>
      <trkpt lat="44.56804" lon="5.81101">
        <ele>1376.4</ele>
        <time>2020-10-24T13:49:08Z</time>
      </trkpt>
      <trkpt lat="44.56807" lon="5.81095">
        <ele>1377</ele>
        <time>2020-10-24T13:49:12Z</time>
      </trkpt>
      <trkpt lat="44.56809" lon="5.81088">
        <ele>1377.6</ele>
        <time>2020-10-24T13:49:16Z</time>
      </trkpt>
      <trkpt lat="44.56812" lon="5.81082">
        <ele>1378.2</ele>
        <time>2020-10-24T13:49:20Z</time>
      </trkpt>
      <trkpt lat="44.56815" lon="5.81076">
        <ele>1379.4</ele>
        <time>2020-10-24T13:49:24Z</time>
      </trkpt>
      <trkpt lat="44.56818" lon="5.81069">
        <ele>1380</ele>
        <time>2020-10-24T13:49:28Z</time>
      </trkpt>
      <trkpt lat="44.56821" lon="5.81063">
        <ele>1380</ele>
        <time>2020-10-24T13:49:32Z</time>
      </trkpt>
      <trkpt lat="44.56824" lon="5.81056">
        <ele>1381.2</ele>
        <time>2020-10-24T13:49:36Z</time>
      </trkpt>
      <trkpt lat="44.56828" lon="5.8105">
        <ele>1381.4</ele>
        <time>2020-10-24T13:49:40Z</time>
      </trkpt>
      <trkpt lat="44.56832" lon="5.81044">
        <ele>1382</ele>
        <time>2020-10-24T13:49:44Z</time>
      </trkpt>
      <trkpt lat="44.56835" lon="5.81037">
        <ele>1383.4</ele>
        <time>2020-10-24T13:49:48Z</time>
      </trkpt>
      <trkpt lat="44.56839" lon="5.8103">
        <ele>1383.6</ele>
        <time>2020-10-24T13:49:52Z</time>
      </trkpt>
      <trkpt lat="44.56843" lon="5.81023">
        <ele>1384.4</ele>
        <time>2020-10-24T13:49:56Z</time>
      </trkpt>
      <trkpt lat="44.56847" lon="5.81017">
        <ele>1385</ele>
        <time>2020-10-24T13:50:00Z</time>
      </trkpt>
      <trkpt lat="44.56851" lon="5.8101">
        <ele>1385.6</ele>
        <time>2020-10-24T13:50:04Z</time>
      </trkpt>
      <trkpt lat="44.56854" lon="5.81004">
        <ele>1386.2</ele>
        <time>2020-10-24T13:50:08Z</time>
      </trkpt>
      <trkpt lat="44.56859" lon="5.80997">
        <ele>1387</ele>
        <time>2020-10-24T13:50:12Z</time>
      </trkpt>
      <trkpt lat="44.56863" lon="5.80991">
        <ele>1386.8</ele>
        <time>2020-10-24T13:50:16Z</time>
      </trkpt>
      <trkpt lat="44.56868" lon="5.80984">
        <ele>1387.4</ele>
        <time>2020-10-24T13:50:20Z</time>
      </trkpt>
      <trkpt lat="44.56874" lon="5.80977">
        <ele>1387.8</ele>
        <time>2020-10-24T13:50:24Z</time>
      </trkpt>
      <trkpt lat="44.5688" lon="5.8097">
        <ele>1388.2</ele>
        <time>2020-10-24T13:50:28Z</time>
      </trkpt>
      <trkpt lat="44.56887" lon="5.80963">
        <ele>1388.2</ele>
        <time>2020-10-24T13:50:32Z</time>
      </trkpt>
      <trkpt lat="44.56894" lon="5.80956">
        <ele>1388.8</ele>
        <time>2020-10-24T13:50:36Z</time>
      </trkpt>
      <trkpt lat="44.569" lon="5.80949">
        <ele>1388.8</ele>
        <time>2020-10-24T13:50:40Z</time>
      </trkpt>
      <trkpt lat="44.56908" lon="5.80942">
        <ele>1389.2</ele>
        <time>2020-10-24T13:50:44Z</time>
      </trkpt>
      <trkpt lat="44.56916" lon="5.80936">
        <ele>1390</ele>
        <time>2020-10-24T13:50:48Z</time>
      </trkpt>
      <trkpt lat="44.56925" lon="5.80928">
        <ele>1389.6</ele>
        <time>2020-10-24T13:50:52Z</time>
      </trkpt>
      <trkpt lat="44.56933" lon="5.80919">
        <ele>1390</ele>
        <time>2020-10-24T13:50:56Z</time>
      </trkpt>
      <trkpt lat="44.56937" lon="5.80909">
        <ele>1390.4</ele>
        <time>2020-10-24T13:51:00Z</time>
      </trkpt>
      <trkpt lat="44.56938" lon="5.809">
        <ele>1390.4</ele>
        <time>2020-10-24T13:51:04Z</time>
      </trkpt>
      <trkpt lat="44.56933" lon="5.80893">
        <ele>1389.8</ele>
        <time>2020-10-24T13:54:30Z</time>
      </trkpt>
      <trkpt lat="44.56923" lon="5.80887">
        <ele>1388.2</ele>
        <time>2020-10-24T13:54:34Z</time>
      </trkpt>
      <trkpt lat="44.56911" lon="5.80881">
        <ele>1387.4</ele>
        <time>2020-10-24T13:54:38Z</time>
      </trkpt>
      <trkpt lat="44.56899" lon="5.80875">
        <ele>1387.4</ele>
        <time>2020-10-24T13:54:42Z</time>
      </trkpt>
      <trkpt lat="44.56882" lon="5.80866">
        <ele>1384.8</ele>
        <time>2020-10-24T13:54:46Z</time>
      </trkpt>
      <trkpt lat="44.5686" lon="5.80854">
        <ele>1381.4</ele>
        <time>2020-10-24T13:54:50Z</time>
      </trkpt>
      <trkpt lat="44.56836" lon="5.80845">
        <ele>1381.4</ele>
        <time>2020-10-24T13:54:54Z</time>
      </trkpt>
      <trkpt lat="44.56812" lon="5.80838">
        <ele>1376.8</ele>
        <time>2020-10-24T13:54:58Z</time>
      </trkpt>
      <trkpt lat="44.56793" lon="5.80831">
        <ele>1379.8</ele>
        <time>2020-10-24T13:55:02Z</time>
      </trkpt>
      <trkpt lat="44.56777" lon="5.80822">
        <ele>1379</ele>
        <time>2020-10-24T13:55:06Z</time>
      </trkpt>
      <trkpt lat="44.56767" lon="5.8082">
        <ele>1379.6</ele>
        <time>2020-10-24T13:55:10Z</time>
      </trkpt>
      <trkpt lat="44.56757" lon="5.80817">
        <ele>1380.2</ele>
        <time>2020-10-24T13:55:14Z</time>
      </trkpt>
      <trkpt lat="44.56748" lon="5.80814">
        <ele>1381</ele>
        <time>2020-10-24T13:55:18Z</time>
      </trkpt>
      <trkpt lat="44.56738" lon="5.8081">
        <ele>1381.4</ele>
        <time>2020-10-24T13:55:22Z</time>
      </trkpt>
      <trkpt lat="44.5673" lon="5.80809">
        <ele>1382.4</ele>
        <time>2020-10-24T13:55:26Z</time>
      </trkpt>
      <trkpt lat="44.56721" lon="5.80807">
        <ele>1382.8</ele>
        <time>2020-10-24T13:55:30Z</time>
      </trkpt>
      <trkpt lat="44.56712" lon="5.80802">
        <ele>1382.6</ele>
        <time>2020-10-24T13:55:34Z</time>
      </trkpt>
      <trkpt lat="44.56701" lon="5.80794">
        <ele>1382.8</ele>
        <time>2020-10-24T13:55:38Z</time>
      </trkpt>
      <trkpt lat="44.5669" lon="5.80789">
        <ele>1383</ele>
        <time>2020-10-24T13:55:42Z</time>
      </trkpt>
      <trkpt lat="44.56679" lon="5.80782">
        <ele>1383.2</ele>
        <time>2020-10-24T13:55:46Z</time>
      </trkpt>
      <trkpt lat="44.5667" lon="5.80779">
        <ele>1384.4</ele>
        <time>2020-10-24T13:55:50Z</time>
      </trkpt>
      <trkpt lat="44.56659" lon="5.80771">
        <ele>1384.8</ele>
        <time>2020-10-24T13:55:54Z</time>
      </trkpt>
      <trkpt lat="44.56654" lon="5.80768">
        <ele>1385.6</ele>
        <time>2020-10-24T13:55:58Z</time>
      </trkpt>
      <trkpt lat="44.56645" lon="5.80768">
        <ele>1386</ele>
        <time>2020-10-24T13:56:02Z</time>
      </trkpt>
      <trkpt lat="44.56638" lon="5.80769">
        <ele>1386.8</ele>
        <time>2020-10-24T13:56:06Z</time>
      </trkpt>
      <trkpt lat="44.5662" lon="5.80765">
        <ele>1388</ele>
        <time>2020-10-24T13:56:26Z</time>
      </trkpt>
      <trkpt lat="44.56614" lon="5.80762">
        <ele>1387.8</ele>
        <time>2020-10-24T13:56:30Z</time>
      </trkpt>
      <trkpt lat="44.56606" lon="5.80762">
        <ele>1387.6</ele>
        <time>2020-10-24T13:56:34Z</time>
      </trkpt>
      <trkpt lat="44.56599" lon="5.80761">
        <ele>1387.6</ele>
        <time>2020-10-24T13:56:38Z</time>
      </trkpt>
      <trkpt lat="44.56592" lon="5.8076">
        <ele>1388.2</ele>
        <time>2020-10-24T13:56:42Z</time>
      </trkpt>
      <trkpt lat="44.56587" lon="5.80758">
        <ele>1388.4</ele>
        <time>2020-10-24T13:56:46Z</time>
      </trkpt>
      <trkpt lat="44.56581" lon="5.80738">
        <ele>1390.2</ele>
        <time>2020-10-24T13:57:48Z</time>
      </trkpt>
      <trkpt lat="44.5658" lon="5.80727">
        <ele>1391.2</ele>
        <time>2020-10-24T13:57:52Z</time>
      </trkpt>
      <trkpt lat="44.56578" lon="5.80714">
        <ele>1391.8</ele>
        <time>2020-10-24T13:57:56Z</time>
      </trkpt>
      <trkpt lat="44.56579" lon="5.80701">
        <ele>1392</ele>
        <time>2020-10-24T13:58:00Z</time>
      </trkpt>
      <trkpt lat="44.56583" lon="5.80688">
        <ele>1391.8</ele>
        <time>2020-10-24T13:58:04Z</time>
      </trkpt>
      <trkpt lat="44.56589" lon="5.80668">
        <ele>1391.2</ele>
        <time>2020-10-24T13:58:08Z</time>
      </trkpt>
      <trkpt lat="44.56599" lon="5.80645">
        <ele>1389</ele>
        <time>2020-10-24T13:58:12Z</time>
      </trkpt>
      <trkpt lat="44.56609" lon="5.80619">
        <ele>1386.4</ele>
        <time>2020-10-24T13:58:16Z</time>
      </trkpt>
      <trkpt lat="44.56618" lon="5.80597">
        <ele>1385.8</ele>
        <time>2020-10-24T13:58:20Z</time>
      </trkpt>
      <trkpt lat="44.56623" lon="5.80584">
        <ele>1386.2</ele>
        <time>2020-10-24T13:58:24Z</time>
      </trkpt>
      <trkpt lat="44.5663" lon="5.80569">
        <ele>1386.2</ele>
        <time>2020-10-24T13:58:28Z</time>
      </trkpt>
      <trkpt lat="44.56637" lon="5.80557">
        <ele>1386.2</ele>
        <time>2020-10-24T13:58:32Z</time>
      </trkpt>
      <trkpt lat="44.56642" lon="5.80543">
        <ele>1386</ele>
        <time>2020-10-24T13:58:36Z</time>
      </trkpt>
      <trkpt lat="44.56649" lon="5.80531">
        <ele>1386.4</ele>
        <time>2020-10-24T13:58:40Z</time>
      </trkpt>
      <trkpt lat="44.56653" lon="5.80514">
        <ele>1384.8</ele>
        <time>2020-10-24T13:58:44Z</time>
      </trkpt>
      <trkpt lat="44.56665" lon="5.80498">
        <ele>1382</ele>
        <time>2020-10-24T13:58:48Z</time>
      </trkpt>
      <trkpt lat="44.56678" lon="5.80483">
        <ele>1379.8</ele>
        <time>2020-10-24T13:58:52Z</time>
      </trkpt>
      <trkpt lat="44.56685" lon="5.8047">
        <ele>1379</ele>
        <time>2020-10-24T13:58:56Z</time>
      </trkpt>
      <trkpt lat="44.56692" lon="5.80459">
        <ele>1379</ele>
        <time>2020-10-24T13:59:00Z</time>
      </trkpt>
      <trkpt lat="44.56692" lon="5.80459">
        <ele>1378.2</ele>
        <time>2020-10-24T13:59:04Z</time>
      </trkpt>
      <trkpt lat="44.56705" lon="5.80436">
        <ele>1377</ele>
        <time>2020-10-24T13:59:22Z</time>
      </trkpt>
      <trkpt lat="44.56712" lon="5.80425">
        <ele>1372.4</ele>
        <time>2020-10-24T13:59:26Z</time>
      </trkpt>
      <trkpt lat="44.56723" lon="5.80409">
        <ele>1371.4</ele>
        <time>2020-10-24T13:59:30Z</time>
      </trkpt>
      <trkpt lat="44.56732" lon="5.8039">
        <ele>1369.6</ele>
        <time>2020-10-24T13:59:34Z</time>
      </trkpt>
      <trkpt lat="44.56736" lon="5.80375">
        <ele>1368.2</ele>
        <time>2020-10-24T13:59:38Z</time>
      </trkpt>
      <trkpt lat="44.56742" lon="5.80363">
        <ele>1367.6</ele>
        <time>2020-10-24T13:59:42Z</time>
      </trkpt>
      <trkpt lat="44.56746" lon="5.80363">
        <ele>1368</ele>
        <time>2020-10-24T14:00:05Z</time>
      </trkpt>
      <trkpt lat="44.56743" lon="5.80369">
        <ele>1369</ele>
        <time>2020-10-24T14:00:09Z</time>
      </trkpt>
      <trkpt lat="44.56742" lon="5.80375">
        <ele>1369.6</ele>
        <time>2020-10-24T14:00:13Z</time>
      </trkpt>
      <trkpt lat="44.56742" lon="5.80382">
        <ele>1370.4</ele>
        <time>2020-10-24T14:00:17Z</time>
      </trkpt>
      <trkpt lat="44.56739" lon="5.80389">
        <ele>1371.2</ele>
        <time>2020-10-24T14:00:21Z</time>
      </trkpt>
      <trkpt lat="44.56737" lon="5.80394">
        <ele>1371.6</ele>
        <time>2020-10-24T14:00:25Z</time>
      </trkpt>
      <trkpt lat="44.56735" lon="5.80399">
        <ele>1373</ele>
        <time>2020-10-24T14:00:29Z</time>
      </trkpt>
      <trkpt lat="44.56732" lon="5.80404">
        <ele>1373.4</ele>
        <time>2020-10-24T14:00:33Z</time>
      </trkpt>
      <trkpt lat="44.56729" lon="5.80409">
        <ele>1374.2</ele>
        <time>2020-10-24T14:00:37Z</time>
      </trkpt>
      <trkpt lat="44.56727" lon="5.80413">
        <ele>1375</ele>
        <time>2020-10-24T14:00:41Z</time>
      </trkpt>
      <trkpt lat="44.56724" lon="5.80417">
        <ele>1375.6</ele>
        <time>2020-10-24T14:00:45Z</time>
      </trkpt>
      <trkpt lat="44.56718" lon="5.80421">
        <ele>1375.6</ele>
        <time>2020-10-24T14:00:49Z</time>
      </trkpt>
      <trkpt lat="44.56709" lon="5.8042">
        <ele>1381.2</ele>
        <time>2020-10-24T14:01:45Z</time>
      </trkpt>
      <trkpt lat="44.56711" lon="5.80413">
        <ele>1380.6</ele>
        <time>2020-10-24T14:01:49Z</time>
      </trkpt>
      <trkpt lat="44.56713" lon="5.80405">
        <ele>1381</ele>
        <time>2020-10-24T14:01:53Z</time>
      </trkpt>
      <trkpt lat="44.56715" lon="5.80397">
        <ele>1380.6</ele>
        <time>2020-10-24T14:01:57Z</time>
      </trkpt>
      <trkpt lat="44.56717" lon="5.80389">
        <ele>1381</ele>
        <time>2020-10-24T14:02:01Z</time>
      </trkpt>
      <trkpt lat="44.5672" lon="5.80376">
        <ele>1381.4</ele>
        <time>2020-10-24T14:02:05Z</time>
      </trkpt>
      <trkpt lat="44.56723" lon="5.80364">
        <ele>1382</ele>
        <time>2020-10-24T14:02:09Z</time>
      </trkpt>
      <trkpt lat="44.56723" lon="5.80357">
        <ele>1381</ele>
        <time>2020-10-24T14:02:13Z</time>
      </trkpt>
      <trkpt lat="44.56725" lon="5.80346">
        <ele>1381.8</ele>
        <time>2020-10-24T14:02:17Z</time>
      </trkpt>
      <trkpt lat="44.56725" lon="5.80337">
        <ele>1382</ele>
        <time>2020-10-24T14:02:21Z</time>
      </trkpt>
      <trkpt lat="44.56725" lon="5.80328">
        <ele>1382.8</ele>
        <time>2020-10-24T14:02:25Z</time>
      </trkpt>
      <trkpt lat="44.56725" lon="5.80318">
        <ele>1382.6</ele>
        <time>2020-10-24T14:02:29Z</time>
      </trkpt>
      <trkpt lat="44.56725" lon="5.80309">
        <ele>1383</ele>
        <time>2020-10-24T14:02:33Z</time>
      </trkpt>
      <trkpt lat="44.56725" lon="5.80299">
        <ele>1383.2</ele>
        <time>2020-10-24T14:02:37Z</time>
      </trkpt>
      <trkpt lat="44.56724" lon="5.8029">
        <ele>1383.4</ele>
        <time>2020-10-24T14:02:41Z</time>
      </trkpt>
      <trkpt lat="44.56724" lon="5.8028">
        <ele>1383.4</ele>
        <time>2020-10-24T14:02:45Z</time>
      </trkpt>
      <trkpt lat="44.56724" lon="5.8027">
        <ele>1382.2</ele>
        <time>2020-10-24T14:02:49Z</time>
      </trkpt>
      <trkpt lat="44.56724" lon="5.8026">
        <ele>1383.6</ele>
        <time>2020-10-24T14:02:53Z</time>
      </trkpt>
      <trkpt lat="44.56723" lon="5.8025">
        <ele>1384</ele>
        <time>2020-10-24T14:02:57Z</time>
      </trkpt>
      <trkpt lat="44.56704" lon="5.80184">
        <ele>1388.8</ele>
        <time>2020-10-24T14:04:46Z</time>
      </trkpt>
      <trkpt lat="44.56702" lon="5.80172">
        <ele>1387.4</ele>
        <time>2020-10-24T14:04:50Z</time>
      </trkpt>
      <trkpt lat="44.56698" lon="5.80167">
        <ele>1387.2</ele>
        <time>2020-10-24T14:04:54Z</time>
      </trkpt>
      <trkpt lat="44.56693" lon="5.80163">
        <ele>1387.6</ele>
        <time>2020-10-24T14:04:58Z</time>
      </trkpt>
      <trkpt lat="44.56689" lon="5.80157">
        <ele>1388.6</ele>
        <time>2020-10-24T14:05:02Z</time>
      </trkpt>
      <trkpt lat="44.56683" lon="5.80153">
        <ele>1388.4</ele>
        <time>2020-10-24T14:05:06Z</time>
      </trkpt>
      <trkpt lat="44.56677" lon="5.80152">
        <ele>1390</ele>
        <time>2020-10-24T14:05:10Z</time>
      </trkpt>
      <trkpt lat="44.5667" lon="5.80149">
        <ele>1391</ele>
        <time>2020-10-24T14:05:14Z</time>
      </trkpt>
      <trkpt lat="44.56664" lon="5.80153">
        <ele>1391.2</ele>
        <time>2020-10-24T14:05:18Z</time>
      </trkpt>
      <trkpt lat="44.56549" lon="5.80168">
        <ele>1389.8</ele>
        <time>2020-10-24T14:07:55Z</time>
      </trkpt>
      <trkpt lat="44.56544" lon="5.80168">
        <ele>1389.6</ele>
        <time>2020-10-24T14:07:59Z</time>
      </trkpt>
      <trkpt lat="44.56539" lon="5.8017">
        <ele>1389.4</ele>
        <time>2020-10-24T14:08:03Z</time>
      </trkpt>
      <trkpt lat="44.56534" lon="5.80172">
        <ele>1390.4</ele>
        <time>2020-10-24T14:08:07Z</time>
      </trkpt>
      <trkpt lat="44.56527" lon="5.80175">
        <ele>1390.4</ele>
        <time>2020-10-24T14:08:11Z</time>
      </trkpt>
      <trkpt lat="44.56521" lon="5.80173">
        <ele>1391</ele>
        <time>2020-10-24T14:08:15Z</time>
      </trkpt>
      <trkpt lat="44.56514" lon="5.80173">
        <ele>1390</ele>
        <time>2020-10-24T14:08:19Z</time>
      </trkpt>
      <trkpt lat="44.56504" lon="5.80173">
        <ele>1389.2</ele>
        <time>2020-10-24T14:08:23Z</time>
      </trkpt>
      <trkpt lat="44.56496" lon="5.80174">
        <ele>1387</ele>
        <time>2020-10-24T14:08:27Z</time>
      </trkpt>
      <trkpt lat="44.56489" lon="5.80177">
        <ele>1385.6</ele>
        <time>2020-10-24T14:08:31Z</time>
      </trkpt>
      <trkpt lat="44.56482" lon="5.80173">
        <ele>1384</ele>
        <time>2020-10-24T14:08:35Z</time>
      </trkpt>
      <trkpt lat="44.56475" lon="5.80173">
        <ele>1384</ele>
        <time>2020-10-24T14:08:39Z</time>
      </trkpt>
      <trkpt lat="44.56466" lon="5.80173">
        <ele>1384</ele>
        <time>2020-10-24T14:08:43Z</time>
      </trkpt>
      <trkpt lat="44.56455" lon="5.80177">
        <ele>1381.8</ele>
        <time>2020-10-24T14:08:47Z</time>
      </trkpt>
      <trkpt lat="44.56443" lon="5.80177">
        <ele>1381</ele>
        <time>2020-10-24T14:08:51Z</time>
      </trkpt>
      <trkpt lat="44.56431" lon="5.80179">
        <ele>1379.8</ele>
        <time>2020-10-24T14:08:55Z</time>
      </trkpt>
      <trkpt lat="44.56422" lon="5.80178">
        <ele>1379</ele>
        <time>2020-10-24T14:08:59Z</time>
      </trkpt>
      <trkpt lat="44.56414" lon="5.80177">
        <ele>1377</ele>
        <time>2020-10-24T14:09:03Z</time>
      </trkpt>
      <trkpt lat="44.56407" lon="5.80173">
        <ele>1374.4</ele>
        <time>2020-10-24T14:09:07Z</time>
      </trkpt>
      <trkpt lat="44.564" lon="5.80169">
        <ele>1371.4</ele>
        <time>2020-10-24T14:09:11Z</time>
      </trkpt>
      <trkpt lat="44.56389" lon="5.80169">
        <ele>1371.2</ele>
        <time>2020-10-24T14:09:15Z</time>
      </trkpt>
      <trkpt lat="44.5638" lon="5.80169">
        <ele>1369.8</ele>
        <time>2020-10-24T14:09:19Z</time>
      </trkpt>
      <trkpt lat="44.5635" lon="5.80165">
        <ele>1368.6</ele>
        <time>2020-10-24T14:09:50Z</time>
      </trkpt>
      <trkpt lat="44.56342" lon="5.80165">
        <ele>1368.2</ele>
        <time>2020-10-24T14:09:54Z</time>
      </trkpt>
      <trkpt lat="44.56335" lon="5.80165">
        <ele>1368.4</ele>
        <time>2020-10-24T14:09:58Z</time>
      </trkpt>
      <trkpt lat="44.56328" lon="5.80166">
        <ele>1368.2</ele>
        <time>2020-10-24T14:10:02Z</time>
      </trkpt>
      <trkpt lat="44.56322" lon="5.80166">
        <ele>1368</ele>
        <time>2020-10-24T14:10:06Z</time>
      </trkpt>
      <trkpt lat="44.56315" lon="5.80169">
        <ele>1369.8</ele>
        <time>2020-10-24T14:10:10Z</time>
      </trkpt>
      <trkpt lat="44.56273" lon="5.80181">
        <ele>1370.4</ele>
        <time>2020-10-24T14:11:10Z</time>
      </trkpt>
      <trkpt lat="44.56214" lon="5.80199">
        <ele>1381.4</ele>
        <time>2020-10-24T14:13:18Z</time>
      </trkpt>
      <trkpt lat="44.56209" lon="5.80199">
        <ele>1381</ele>
        <time>2020-10-24T14:13:22Z</time>
      </trkpt>
      <trkpt lat="44.56205" lon="5.802">
        <ele>1381.8</ele>
        <time>2020-10-24T14:13:26Z</time>
      </trkpt>
      <trkpt lat="44.56198" lon="5.80199">
        <ele>1381.4</ele>
        <time>2020-10-24T14:13:30Z</time>
      </trkpt>
      <trkpt lat="44.5619" lon="5.80199">
        <ele>1381.6</ele>
        <time>2020-10-24T14:13:34Z</time>
      </trkpt>
      <trkpt lat="44.56184" lon="5.80203">
        <ele>1381.6</ele>
        <time>2020-10-24T14:13:38Z</time>
      </trkpt>
      <trkpt lat="44.56177" lon="5.80203">
        <ele>1381.6</ele>
        <time>2020-10-24T14:13:42Z</time>
      </trkpt>
      <trkpt lat="44.56168" lon="5.80201">
        <ele>1380.4</ele>
        <time>2020-10-24T14:13:46Z</time>
      </trkpt>
      <trkpt lat="44.56161" lon="5.80198">
        <ele>1377</ele>
        <time>2020-10-24T14:13:50Z</time>
      </trkpt>
      <trkpt lat="44.56149" lon="5.80197">
        <ele>1377.2</ele>
        <time>2020-10-24T14:13:54Z</time>
      </trkpt>
      <trkpt lat="44.56138" lon="5.80199">
        <ele>1376.2</ele>
        <time>2020-10-24T14:13:58Z</time>
      </trkpt>
      <trkpt lat="44.5613" lon="5.802">
        <ele>1374.8</ele>
        <time>2020-10-24T14:14:02Z</time>
      </trkpt>
      <trkpt lat="44.5611" lon="5.80204">
        <ele>1373</ele>
        <time>2020-10-24T14:14:16Z</time>
      </trkpt>
      <trkpt lat="44.56099" lon="5.80202">
        <ele>1371.6</ele>
        <time>2020-10-24T14:14:20Z</time>
      </trkpt>
      <trkpt lat="44.56086" lon="5.802">
        <ele>1370.2</ele>
        <time>2020-10-24T14:14:24Z</time>
      </trkpt>
      <trkpt lat="44.56074" lon="5.80199">
        <ele>1368.8</ele>
        <time>2020-10-24T14:14:28Z</time>
      </trkpt>
      <trkpt lat="44.56066" lon="5.802">
        <ele>1368.2</ele>
        <time>2020-10-24T14:14:32Z</time>
      </trkpt>
      <trkpt lat="44.5606" lon="5.80198">
        <ele>1367.4</ele>
        <time>2020-10-24T14:14:36Z</time>
      </trkpt>
      <trkpt lat="44.56051" lon="5.80196">
        <ele>1365.6</ele>
        <time>2020-10-24T14:14:40Z</time>
      </trkpt>
      <trkpt lat="44.56044" lon="5.80196">
        <ele>1365.4</ele>
        <time>2020-10-24T14:14:44Z</time>
      </trkpt>
      <trkpt lat="44.56037" lon="5.80193">
        <ele>1365.8</ele>
        <time>2020-10-24T14:14:48Z</time>
      </trkpt>
      <trkpt lat="44.56029" lon="5.80194">
        <ele>1365.6</ele>
        <time>2020-10-24T14:14:52Z</time>
      </trkpt>
      <trkpt lat="44.5602" lon="5.80192">
        <ele>1364.2</ele>
        <time>2020-10-24T14:14:56Z</time>
      </trkpt>
      <trkpt lat="44.56009" lon="5.80187">
        <ele>1361.8</ele>
        <time>2020-10-24T14:15:00Z</time>
      </trkpt>
      <trkpt lat="44.55997" lon="5.80186">
        <ele>1361</ele>
        <time>2020-10-24T14:15:04Z</time>
      </trkpt>
      <trkpt lat="44.55987" lon="5.80176">
        <ele>1359</ele>
        <time>2020-10-24T14:15:08Z</time>
      </trkpt>
      <trkpt lat="44.55965" lon="5.80163">
        <ele>1356</ele>
        <time>2020-10-24T14:15:12Z</time>
      </trkpt>
      <trkpt lat="44.55944" lon="5.80154">
        <ele>1357.2</ele>
        <time>2020-10-24T14:15:16Z</time>
      </trkpt>
      <trkpt lat="44.55934" lon="5.80148">
        <ele>1356.4</ele>
        <time>2020-10-24T14:15:20Z</time>
      </trkpt>
      <trkpt lat="44.55919" lon="5.80153">
        <ele>1354.2</ele>
        <time>2020-10-24T14:17:51Z</time>
      </trkpt>
      <trkpt lat="44.55912" lon="5.80171">
        <ele>1352.8</ele>
        <time>2020-10-24T14:17:55Z</time>
      </trkpt>
      <trkpt lat="44.55909" lon="5.80192">
        <ele>1350.6</ele>
        <time>2020-10-24T14:17:59Z</time>
      </trkpt>
      <trkpt lat="44.55903" lon="5.80208">
        <ele>1352.2</ele>
        <time>2020-10-24T14:18:03Z</time>
      </trkpt>
      <trkpt lat="44.55891" lon="5.80231">
        <ele>1351.4</ele>
        <time>2020-10-24T14:18:30Z</time>
      </trkpt>
      <trkpt lat="44.55881" lon="5.8024">
        <ele>1351</ele>
        <time>2020-10-24T14:18:34Z</time>
      </trkpt>
      <trkpt lat="44.55876" lon="5.80247">
        <ele>1351</ele>
        <time>2020-10-24T14:18:38Z</time>
      </trkpt>
      <trkpt lat="44.55868" lon="5.80257">
        <ele>1349</ele>
        <time>2020-10-24T14:18:42Z</time>
      </trkpt>
      <trkpt lat="44.55858" lon="5.80269">
        <ele>1349.8</ele>
        <time>2020-10-24T14:18:46Z</time>
      </trkpt>
      <trkpt lat="44.55852" lon="5.80276">
        <ele>1351</ele>
        <time>2020-10-24T14:18:50Z</time>
      </trkpt>
      <trkpt lat="44.55846" lon="5.80285">
        <ele>1349.2</ele>
        <time>2020-10-24T14:18:54Z</time>
      </trkpt>
      <trkpt lat="44.55837" lon="5.80285">
        <ele>1347.2</ele>
        <time>2020-10-24T14:18:58Z</time>
      </trkpt>
      <trkpt lat="44.55823" lon="5.80289">
        <ele>1344.4</ele>
        <time>2020-10-24T14:19:02Z</time>
      </trkpt>
      <trkpt lat="44.55812" lon="5.80295">
        <ele>1345</ele>
        <time>2020-10-24T14:19:06Z</time>
      </trkpt>
      <trkpt lat="44.55803" lon="5.80308">
        <ele>1344</ele>
        <time>2020-10-24T14:19:10Z</time>
      </trkpt>
      <trkpt lat="44.55801" lon="5.80318">
        <ele>1343.4</ele>
        <time>2020-10-24T14:19:14Z</time>
      </trkpt>
      <trkpt lat="44.55798" lon="5.80329">
        <ele>1342.4</ele>
        <time>2020-10-24T14:19:18Z</time>
      </trkpt>
      <trkpt lat="44.55795" lon="5.80399">
        <ele>1346</ele>
        <time>2020-10-24T14:20:08Z</time>
      </trkpt>
      <trkpt lat="44.5579" lon="5.80407">
        <ele>1346.8</ele>
        <time>2020-10-24T14:20:12Z</time>
      </trkpt>
      <trkpt lat="44.55785" lon="5.80411">
        <ele>1347.2</ele>
        <time>2020-10-24T14:20:16Z</time>
      </trkpt>
      <trkpt lat="44.55781" lon="5.80415">
        <ele>1347</ele>
        <time>2020-10-24T14:20:20Z</time>
      </trkpt>
      <trkpt lat="44.55779" lon="5.8042">
        <ele>1347.6</ele>
        <time>2020-10-24T14:20:24Z</time>
      </trkpt>
      <trkpt lat="44.55773" lon="5.80424">
        <ele>1348</ele>
        <time>2020-10-24T14:20:28Z</time>
      </trkpt>
      <trkpt lat="44.5577" lon="5.80428">
        <ele>1347</ele>
        <time>2020-10-24T14:20:32Z</time>
      </trkpt>
      <trkpt lat="44.55763" lon="5.80434">
        <ele>1347</ele>
        <time>2020-10-24T14:20:36Z</time>
      </trkpt>
      <trkpt lat="44.55755" lon="5.80444">
        <ele>1347</ele>
        <time>2020-10-24T14:20:40Z</time>
      </trkpt>
      <trkpt lat="44.55749" lon="5.80451">
        <ele>1346.6</ele>
        <time>2020-10-24T14:20:44Z</time>
      </trkpt>
      <trkpt lat="44.55744" lon="5.80457">
        <ele>1346.8</ele>
        <time>2020-10-24T14:20:48Z</time>
      </trkpt>
      <trkpt lat="44.5574" lon="5.80462">
        <ele>1345.8</ele>
        <time>2020-10-24T14:20:52Z</time>
      </trkpt>
      <trkpt lat="44.55733" lon="5.80466">
        <ele>1345.2</ele>
        <time>2020-10-24T14:20:56Z</time>
      </trkpt>
      <trkpt lat="44.55724" lon="5.80473">
        <ele>1345</ele>
        <time>2020-10-24T14:21:00Z</time>
      </trkpt>
      <trkpt lat="44.55712" lon="5.80483">
        <ele>1344.6</ele>
        <time>2020-10-24T14:21:04Z</time>
      </trkpt>
      <trkpt lat="44.55705" lon="5.80488">
        <ele>1344.6</ele>
        <time>2020-10-24T14:21:08Z</time>
      </trkpt>
      <trkpt lat="44.557" lon="5.80498">
        <ele>1345</ele>
        <time>2020-10-24T14:21:12Z</time>
      </trkpt>
      <trkpt lat="44.55695" lon="5.80505">
        <ele>1344.4</ele>
        <time>2020-10-24T14:21:16Z</time>
      </trkpt>
      <trkpt lat="44.55692" lon="5.80513">
        <ele>1344.2</ele>
        <time>2020-10-24T14:21:20Z</time>
      </trkpt>
      <trkpt lat="44.55688" lon="5.80523">
        <ele>1344.8</ele>
        <time>2020-10-24T14:21:24Z</time>
      </trkpt>
      <trkpt lat="44.55686" lon="5.8053">
        <ele>1345.8</ele>
        <time>2020-10-24T14:21:28Z</time>
      </trkpt>
      <trkpt lat="44.55681" lon="5.80553">
        <ele>1344.8</ele>
        <time>2020-10-24T14:21:39Z</time>
      </trkpt>
      <trkpt lat="44.55679" lon="5.80561">
        <ele>1345.2</ele>
        <time>2020-10-24T14:21:43Z</time>
      </trkpt>
      <trkpt lat="44.5567" lon="5.80576">
        <ele>1343.4</ele>
        <time>2020-10-24T14:21:47Z</time>
      </trkpt>
      <trkpt lat="44.55656" lon="5.80608">
        <ele>1347.4</ele>
        <time>2020-10-24T14:22:16Z</time>
      </trkpt>
      <trkpt lat="44.55653" lon="5.80612">
        <ele>1347.8</ele>
        <time>2020-10-24T14:22:20Z</time>
      </trkpt>
      <trkpt lat="44.55648" lon="5.80618">
        <ele>1347.2</ele>
        <time>2020-10-24T14:22:24Z</time>
      </trkpt>
      <trkpt lat="44.5564" lon="5.80621">
        <ele>1347</ele>
        <time>2020-10-24T14:22:28Z</time>
      </trkpt>
      <trkpt lat="44.55635" lon="5.80622">
        <ele>1347.4</ele>
        <time>2020-10-24T14:22:32Z</time>
      </trkpt>
      <trkpt lat="44.55631" lon="5.80626">
        <ele>1348.2</ele>
        <time>2020-10-24T14:22:36Z</time>
      </trkpt>
      <trkpt lat="44.55628" lon="5.80629">
        <ele>1349</ele>
        <time>2020-10-24T14:22:40Z</time>
      </trkpt>
      <trkpt lat="44.55624" lon="5.80635">
        <ele>1348.8</ele>
        <time>2020-10-24T14:22:44Z</time>
      </trkpt>
      <trkpt lat="44.55617" lon="5.80638">
        <ele>1347.8</ele>
        <time>2020-10-24T14:22:48Z</time>
      </trkpt>
      <trkpt lat="44.5561" lon="5.80641">
        <ele>1348.6</ele>
        <time>2020-10-24T14:22:52Z</time>
      </trkpt>
      <trkpt lat="44.55602" lon="5.80645">
        <ele>1349</ele>
        <time>2020-10-24T14:22:56Z</time>
      </trkpt>
      <trkpt lat="44.55596" lon="5.80651">
        <ele>1349</ele>
        <time>2020-10-24T14:23:00Z</time>
      </trkpt>
      <trkpt lat="44.55591" lon="5.80657">
        <ele>1349.4</ele>
        <time>2020-10-24T14:23:04Z</time>
      </trkpt>
      <trkpt lat="44.55583" lon="5.80662">
        <ele>1347.2</ele>
        <time>2020-10-24T14:23:08Z</time>
      </trkpt>
      <trkpt lat="44.55576" lon="5.80665">
        <ele>1347.6</ele>
        <time>2020-10-24T14:23:12Z</time>
      </trkpt>
      <trkpt lat="44.55567" lon="5.80666">
        <ele>1346.6</ele>
        <time>2020-10-24T14:23:16Z</time>
      </trkpt>
      <trkpt lat="44.55558" lon="5.8067">
        <ele>1345.4</ele>
        <time>2020-10-24T14:23:20Z</time>
      </trkpt>
      <trkpt lat="44.55542" lon="5.80677">
        <ele>1343.4</ele>
        <time>2020-10-24T14:23:24Z</time>
      </trkpt>
      <trkpt lat="44.55534" lon="5.80683">
        <ele>1344</ele>
        <time>2020-10-24T14:23:28Z</time>
      </trkpt>
      <trkpt lat="44.55524" lon="5.80694">
        <ele>1343.8</ele>
        <time>2020-10-24T14:23:32Z</time>
      </trkpt>
      <trkpt lat="44.55519" lon="5.80717">
        <ele>1339.4</ele>
        <time>2020-10-24T14:24:16Z</time>
      </trkpt>
      <trkpt lat="44.5552" lon="5.80727">
        <ele>1338.2</ele>
        <time>2020-10-24T14:24:20Z</time>
      </trkpt>
      <trkpt lat="44.55521" lon="5.80735">
        <ele>1336.8</ele>
        <time>2020-10-24T14:24:24Z</time>
      </trkpt>
      <trkpt lat="44.55522" lon="5.80744">
        <ele>1336</ele>
        <time>2020-10-24T14:24:28Z</time>
      </trkpt>
      <trkpt lat="44.55528" lon="5.80756">
        <ele>1334.8</ele>
        <time>2020-10-24T14:24:32Z</time>
      </trkpt>
      <trkpt lat="44.55528" lon="5.80765">
        <ele>1332.8</ele>
        <time>2020-10-24T14:24:36Z</time>
      </trkpt>
      <trkpt lat="44.55525" lon="5.8078">
        <ele>1333</ele>
        <time>2020-10-24T14:24:40Z</time>
      </trkpt>
      <trkpt lat="44.55524" lon="5.80792">
        <ele>1332.8</ele>
        <time>2020-10-24T14:24:44Z</time>
      </trkpt>
      <trkpt lat="44.55521" lon="5.80807">
        <ele>1332.2</ele>
        <time>2020-10-24T14:24:48Z</time>
      </trkpt>
      <trkpt lat="44.55519" lon="5.80818">
        <ele>1332.2</ele>
        <time>2020-10-24T14:24:52Z</time>
      </trkpt>
      <trkpt lat="44.55515" lon="5.80831">
        <ele>1331.4</ele>
        <time>2020-10-24T14:24:56Z</time>
      </trkpt>
      <trkpt lat="44.55506" lon="5.80845">
        <ele>1332</ele>
        <time>2020-10-24T14:25:00Z</time>
      </trkpt>
      <trkpt lat="44.55499" lon="5.80853">
        <ele>1332.6</ele>
        <time>2020-10-24T14:25:04Z</time>
      </trkpt>
      <trkpt lat="44.55494" lon="5.80856">
        <ele>1332.4</ele>
        <time>2020-10-24T14:25:08Z</time>
      </trkpt>
      <trkpt lat="44.55488" lon="5.80862">
        <ele>1333</ele>
        <time>2020-10-24T14:25:12Z</time>
      </trkpt>
      <trkpt lat="44.55482" lon="5.8087">
        <ele>1332.6</ele>
        <time>2020-10-24T14:25:16Z</time>
      </trkpt>
      <trkpt lat="44.55477" lon="5.80879">
        <ele>1333.6</ele>
        <time>2020-10-24T14:25:20Z</time>
      </trkpt>
      <trkpt lat="44.55473" lon="5.80889">
        <ele>1333.8</ele>
        <time>2020-10-24T14:25:24Z</time>
      </trkpt>
      <trkpt lat="44.5547" lon="5.80897">
        <ele>1334.2</ele>
        <time>2020-10-24T14:25:28Z</time>
      </trkpt>
      <trkpt lat="44.55464" lon="5.80907">
        <ele>1335</ele>
        <time>2020-10-24T14:25:32Z</time>
      </trkpt>
      <trkpt lat="44.5546" lon="5.80913">
        <ele>1335</ele>
        <time>2020-10-24T14:25:36Z</time>
      </trkpt>
      <trkpt lat="44.55455" lon="5.8092">
        <ele>1335.2</ele>
        <time>2020-10-24T14:25:40Z</time>
      </trkpt>
      <trkpt lat="44.55449" lon="5.80922">
        <ele>1335.2</ele>
        <time>2020-10-24T14:25:44Z</time>
      </trkpt>
      <trkpt lat="44.55436" lon="5.80928">
        <ele>1333.6</ele>
        <time>2020-10-24T14:25:48Z</time>
      </trkpt>
      <trkpt lat="44.55425" lon="5.80931">
        <ele>1332</ele>
        <time>2020-10-24T14:25:52Z</time>
      </trkpt>
      <trkpt lat="44.55418" lon="5.80933">
        <ele>1330.8</ele>
        <time>2020-10-24T14:25:56Z</time>
      </trkpt>
      <trkpt lat="44.55407" lon="5.80932">
        <ele>1327.4</ele>
        <time>2020-10-24T14:26:00Z</time>
      </trkpt>
      <trkpt lat="44.55389" lon="5.80937">
        <ele>1325.4</ele>
        <time>2020-10-24T14:26:04Z</time>
      </trkpt>
      <trkpt lat="44.5537" lon="5.80936">
        <ele>1323.6</ele>
        <time>2020-10-24T14:26:08Z</time>
      </trkpt>
      <trkpt lat="44.55353" lon="5.80938">
        <ele>1320.2</ele>
        <time>2020-10-24T14:26:12Z</time>
      </trkpt>
      <trkpt lat="44.5534" lon="5.8094">
        <ele>1319.4</ele>
        <time>2020-10-24T14:26:16Z</time>
      </trkpt>
      <trkpt lat="44.55334" lon="5.80941">
        <ele>1319</ele>
        <time>2020-10-24T14:26:20Z</time>
      </trkpt>
      <trkpt lat="44.55309" lon="5.80961">
        <ele>1316</ele>
        <time>2020-10-24T14:28:07Z</time>
      </trkpt>
      <trkpt lat="44.553" lon="5.80966">
        <ele>1313</ele>
        <time>2020-10-24T14:28:11Z</time>
      </trkpt>
      <trkpt lat="44.55293" lon="5.80969">
        <ele>1311.4</ele>
        <time>2020-10-24T14:28:15Z</time>
      </trkpt>
      <trkpt lat="44.55293" lon="5.80974">
        <ele>1308.2</ele>
        <time>2020-10-24T14:28:19Z</time>
      </trkpt>
      <trkpt lat="44.55285" lon="5.80981">
        <ele>1305.8</ele>
        <time>2020-10-24T14:28:23Z</time>
      </trkpt>
      <trkpt lat="44.55274" lon="5.80992">
        <ele>1303.6</ele>
        <time>2020-10-24T14:28:27Z</time>
      </trkpt>
      <trkpt lat="44.55234" lon="5.81026">
        <ele>1292.2</ele>
        <time>2020-10-24T14:29:05Z</time>
      </trkpt>
      <trkpt lat="44.55225" lon="5.81046">
        <ele>1288.2</ele>
        <time>2020-10-24T14:29:26Z</time>
      </trkpt>
      <trkpt lat="44.5523" lon="5.81052">
        <ele>1286.2</ele>
        <time>2020-10-24T14:29:30Z</time>
      </trkpt>
      <trkpt lat="44.5523" lon="5.81059">
        <ele>1284</ele>
        <time>2020-10-24T14:29:34Z</time>
      </trkpt>
      <trkpt lat="44.55221" lon="5.81069">
        <ele>1282</ele>
        <time>2020-10-24T14:29:38Z</time>
      </trkpt>
      <trkpt lat="44.55213" lon="5.8108">
        <ele>1278.2</ele>
        <time>2020-10-24T14:29:42Z</time>
      </trkpt>
      <trkpt lat="44.55206" lon="5.81088">
        <ele>1276.4</ele>
        <time>2020-10-24T14:29:46Z</time>
      </trkpt>
      <trkpt lat="44.55202" lon="5.81094">
        <ele>1272.8</ele>
        <time>2020-10-24T14:29:50Z</time>
      </trkpt>
      <trkpt lat="44.55201" lon="5.81106">
        <ele>1270</ele>
        <time>2020-10-24T14:29:54Z</time>
      </trkpt>
      <trkpt lat="44.55194" lon="5.81124">
        <ele>1266.8</ele>
        <time>2020-10-24T14:29:58Z</time>
      </trkpt>
      <trkpt lat="44.55183" lon="5.81149">
        <ele>1266.2</ele>
        <time>2020-10-24T14:30:02Z</time>
      </trkpt>
      <trkpt lat="44.55176" lon="5.81164">
        <ele>1267.2</ele>
        <time>2020-10-24T14:30:06Z</time>
      </trkpt>
      <trkpt lat="44.5517" lon="5.81176">
        <ele>1268.2</ele>
        <time>2020-10-24T14:30:10Z</time>
      </trkpt>
      <trkpt lat="44.55164" lon="5.8118">
        <ele>1267.4</ele>
        <time>2020-10-24T14:30:14Z</time>
      </trkpt>
      <trkpt lat="44.55154" lon="5.81195">
        <ele>1266.6</ele>
        <time>2020-10-24T14:30:18Z</time>
      </trkpt>
      <trkpt lat="44.5515" lon="5.81204">
        <ele>1263.4</ele>
        <time>2020-10-24T14:30:22Z</time>
      </trkpt>
      <trkpt lat="44.55144" lon="5.81211">
        <ele>1262.2</ele>
        <time>2020-10-24T14:30:26Z</time>
      </trkpt>
      <trkpt lat="44.55137" lon="5.81225">
        <ele>1260.8</ele>
        <time>2020-10-24T14:30:30Z</time>
      </trkpt>
      <trkpt lat="44.55139" lon="5.81239">
        <ele>1261</ele>
        <time>2020-10-24T14:30:34Z</time>
      </trkpt>
      <trkpt lat="44.55138" lon="5.81257">
        <ele>1259.8</ele>
        <time>2020-10-24T14:30:38Z</time>
      </trkpt>
      <trkpt lat="44.55134" lon="5.81265">
        <ele>1259</ele>
        <time>2020-10-24T14:30:42Z</time>
      </trkpt>
      <trkpt lat="44.55125" lon="5.81273">
        <ele>1259</ele>
        <time>2020-10-24T14:30:46Z</time>
      </trkpt>
      <trkpt lat="44.55109" lon="5.81287">
        <ele>1259.2</ele>
        <time>2020-10-24T14:30:50Z</time>
      </trkpt>
      <trkpt lat="44.55103" lon="5.8129">
        <ele>1259.4</ele>
        <time>2020-10-24T14:30:54Z</time>
      </trkpt>
      <trkpt lat="44.55097" lon="5.81297">
        <ele>1259.6</ele>
        <time>2020-10-24T14:30:58Z</time>
      </trkpt>
      <trkpt lat="44.55092" lon="5.81304">
        <ele>1260</ele>
        <time>2020-10-24T14:31:02Z</time>
      </trkpt>
      <trkpt lat="44.55084" lon="5.81315">
        <ele>1259.6</ele>
        <time>2020-10-24T14:31:06Z</time>
      </trkpt>
      <trkpt lat="44.55078" lon="5.81325">
        <ele>1259.4</ele>
        <time>2020-10-24T14:31:10Z</time>
      </trkpt>
      <trkpt lat="44.55075" lon="5.8133">
        <ele>1260</ele>
        <time>2020-10-24T14:31:14Z</time>
      </trkpt>
      <trkpt lat="44.55069" lon="5.81343">
        <ele>1259.4</ele>
        <time>2020-10-24T14:31:18Z</time>
      </trkpt>
      <trkpt lat="44.55061" lon="5.81358">
        <ele>1259</ele>
        <time>2020-10-24T14:31:22Z</time>
      </trkpt>
      <trkpt lat="44.55053" lon="5.81373">
        <ele>1257</ele>
        <time>2020-10-24T14:31:26Z</time>
      </trkpt>
      <trkpt lat="44.55039" lon="5.8139">
        <ele>1256.4</ele>
        <time>2020-10-24T14:31:30Z</time>
      </trkpt>
      <trkpt lat="44.55028" lon="5.8141">
        <ele>1256.4</ele>
        <time>2020-10-24T14:31:34Z</time>
      </trkpt>
      <trkpt lat="44.55021" lon="5.81423">
        <ele>1257.2</ele>
        <time>2020-10-24T14:31:38Z</time>
      </trkpt>
      <trkpt lat="44.55015" lon="5.81432">
        <ele>1257</ele>
        <time>2020-10-24T14:31:42Z</time>
      </trkpt>
      <trkpt lat="44.55012" lon="5.81442">
        <ele>1257</ele>
        <time>2020-10-24T14:31:46Z</time>
      </trkpt>
      <trkpt lat="44.55005" lon="5.81458">
        <ele>1255.2</ele>
        <time>2020-10-24T14:31:50Z</time>
      </trkpt>
      <trkpt lat="44.55004" lon="5.81476">
        <ele>1256.2</ele>
        <time>2020-10-24T14:31:54Z</time>
      </trkpt>
      <trkpt lat="44.54997" lon="5.81489">
        <ele>1255</ele>
        <time>2020-10-24T14:31:58Z</time>
      </trkpt>
      <trkpt lat="44.54987" lon="5.81507">
        <ele>1254.4</ele>
        <time>2020-10-24T14:32:02Z</time>
      </trkpt>
      <trkpt lat="44.54968" lon="5.8152">
        <ele>1250.6</ele>
        <time>2020-10-24T14:32:06Z</time>
      </trkpt>
      <trkpt lat="44.54957" lon="5.81525">
        <ele>1253.4</ele>
        <time>2020-10-24T14:32:10Z</time>
      </trkpt>
      <trkpt lat="44.54949" lon="5.81527">
        <ele>1252.8</ele>
        <time>2020-10-24T14:32:14Z</time>
      </trkpt>
      <trkpt lat="44.54938" lon="5.81532">
        <ele>1253.4</ele>
        <time>2020-10-24T14:32:18Z</time>
      </trkpt>
      <trkpt lat="44.54924" lon="5.81539">
        <ele>1251.6</ele>
        <time>2020-10-24T14:32:22Z</time>
      </trkpt>
      <trkpt lat="44.54908" lon="5.81549">
        <ele>1250.2</ele>
        <time>2020-10-24T14:32:26Z</time>
      </trkpt>
      <trkpt lat="44.54896" lon="5.81553">
        <ele>1248.6</ele>
        <time>2020-10-24T14:32:30Z</time>
      </trkpt>
      <trkpt lat="44.54886" lon="5.8156">
        <ele>1245.4</ele>
        <time>2020-10-24T14:32:34Z</time>
      </trkpt>
      <trkpt lat="44.5488" lon="5.81568">
        <ele>1243.2</ele>
        <time>2020-10-24T14:32:38Z</time>
      </trkpt>
      <trkpt lat="44.54875" lon="5.81578">
        <ele>1241.6</ele>
        <time>2020-10-24T14:32:42Z</time>
      </trkpt>
      <trkpt lat="44.54863" lon="5.81588">
        <ele>1238.6</ele>
        <time>2020-10-24T14:32:46Z</time>
      </trkpt>
      <trkpt lat="44.54851" lon="5.81597">
        <ele>1236.2</ele>
        <time>2020-10-24T14:32:50Z</time>
      </trkpt>
      <trkpt lat="44.54839" lon="5.81602">
        <ele>1234</ele>
        <time>2020-10-24T14:32:54Z</time>
      </trkpt>
      <trkpt lat="44.54829" lon="5.8161">
        <ele>1233.6</ele>
        <time>2020-10-24T14:32:58Z</time>
      </trkpt>
      <trkpt lat="44.54816" lon="5.81613">
        <ele>1230.6</ele>
        <time>2020-10-24T14:33:02Z</time>
      </trkpt>
      <trkpt lat="44.54802" lon="5.81614">
        <ele>1228</ele>
        <time>2020-10-24T14:33:06Z</time>
      </trkpt>
      <trkpt lat="44.54789" lon="5.81618">
        <ele>1225</ele>
        <time>2020-10-24T14:33:10Z</time>
      </trkpt>
      <trkpt lat="44.54775" lon="5.81619">
        <ele>1222.6</ele>
        <time>2020-10-24T14:33:14Z</time>
      </trkpt>
      <trkpt lat="44.54759" lon="5.81626">
        <ele>1219.6</ele>
        <time>2020-10-24T14:33:18Z</time>
      </trkpt>
      <trkpt lat="44.54742" lon="5.81639">
        <ele>1217.6</ele>
        <time>2020-10-24T14:33:22Z</time>
      </trkpt>
      <trkpt lat="44.54732" lon="5.81648">
        <ele>1217.4</ele>
        <time>2020-10-24T14:33:26Z</time>
      </trkpt>
      <trkpt lat="44.54721" lon="5.81653">
        <ele>1215</ele>
        <time>2020-10-24T14:33:30Z</time>
      </trkpt>
      <trkpt lat="44.54712" lon="5.81653">
        <ele>1212</ele>
        <time>2020-10-24T14:33:34Z</time>
      </trkpt>
      <trkpt lat="44.54705" lon="5.81658">
        <ele>1209.2</ele>
        <time>2020-10-24T14:33:38Z</time>
      </trkpt>
      <trkpt lat="44.54696" lon="5.81662">
        <ele>1208.2</ele>
        <time>2020-10-24T14:33:42Z</time>
      </trkpt>
      <trkpt lat="44.54689" lon="5.81665">
        <ele>1205.6</ele>
        <time>2020-10-24T14:33:46Z</time>
      </trkpt>
      <trkpt lat="44.54689" lon="5.81665">
        <ele>1204.4</ele>
        <time>2020-10-24T14:33:50Z</time>
      </trkpt>
      <trkpt lat="44.54666" lon="5.81687">
        <ele>1197.8</ele>
        <time>2020-10-24T14:35:12Z</time>
      </trkpt>
      <trkpt lat="44.54648" lon="5.81701">
        <ele>1195.4</ele>
        <time>2020-10-24T14:35:36Z</time>
      </trkpt>
      <trkpt lat="44.54638" lon="5.81705">
        <ele>1192.8</ele>
        <time>2020-10-24T14:35:40Z</time>
      </trkpt>
      <trkpt lat="44.54628" lon="5.81711">
        <ele>1191.6</ele>
        <time>2020-10-24T14:35:44Z</time>
      </trkpt>
      <trkpt lat="44.5462" lon="5.81714">
        <ele>1190.6</ele>
        <time>2020-10-24T14:35:48Z</time>
      </trkpt>
      <trkpt lat="44.54602" lon="5.81706">
        <ele>1182.6</ele>
        <time>2020-10-24T14:36:27Z</time>
      </trkpt>
      <trkpt lat="44.54593" lon="5.81709">
        <ele>1180.4</ele>
        <time>2020-10-24T14:36:31Z</time>
      </trkpt>
      <trkpt lat="44.54589" lon="5.81723">
        <ele>1177</ele>
        <time>2020-10-24T14:36:46Z</time>
      </trkpt>
      <trkpt lat="44.54581" lon="5.81736">
        <ele>1174.4</ele>
        <time>2020-10-24T14:36:55Z</time>
      </trkpt>
      <trkpt lat="44.54563" lon="5.81746">
        <ele>1168.6</ele>
        <time>2020-10-24T14:38:04Z</time>
      </trkpt>
      <trkpt lat="44.54554" lon="5.81752">
        <ele>1167</ele>
        <time>2020-10-24T14:38:08Z</time>
      </trkpt>
      <trkpt lat="44.54545" lon="5.81756">
        <ele>1168.2</ele>
        <time>2020-10-24T14:38:12Z</time>
      </trkpt>
      <trkpt lat="44.54535" lon="5.81756">
        <ele>1168</ele>
        <time>2020-10-24T14:38:16Z</time>
      </trkpt>
      <trkpt lat="44.54527" lon="5.81759">
        <ele>1167.2</ele>
        <time>2020-10-24T14:38:20Z</time>
      </trkpt>
      <trkpt lat="44.54517" lon="5.81765">
        <ele>1166.6</ele>
        <time>2020-10-24T14:38:24Z</time>
      </trkpt>
      <trkpt lat="44.54509" lon="5.81768">
        <ele>1166.6</ele>
        <time>2020-10-24T14:38:28Z</time>
      </trkpt>
      <trkpt lat="44.545" lon="5.81767">
        <ele>1163</ele>
        <time>2020-10-24T14:38:32Z</time>
      </trkpt>
      <trkpt lat="44.54488" lon="5.8177">
        <ele>1160.4</ele>
        <time>2020-10-24T14:38:36Z</time>
      </trkpt>
      <trkpt lat="44.54478" lon="5.81772">
        <ele>1157.4</ele>
        <time>2020-10-24T14:38:40Z</time>
      </trkpt>
      <trkpt lat="44.54468" lon="5.81772">
        <ele>1155.4</ele>
        <time>2020-10-24T14:38:44Z</time>
      </trkpt>
      <trkpt lat="44.54461" lon="5.81773">
        <ele>1153.2</ele>
        <time>2020-10-24T14:38:48Z</time>
      </trkpt>
      <trkpt lat="44.54451" lon="5.81777">
        <ele>1150.8</ele>
        <time>2020-10-24T14:38:52Z</time>
      </trkpt>
      <trkpt lat="44.54444" lon="5.81781">
        <ele>1149.2</ele>
        <time>2020-10-24T14:38:56Z</time>
      </trkpt>
      <trkpt lat="44.54444" lon="5.81781">
        <ele>1149.2</ele>
        <time>2020-10-24T14:39:00Z</time>
      </trkpt>
      <trkpt lat="44.54367" lon="5.81713">
        <ele>1111.6</ele>
        <time>2020-10-24T14:41:23Z</time>
      </trkpt>
      <trkpt lat="44.54358" lon="5.81715">
        <ele>1110</ele>
        <time>2020-10-24T14:41:27Z</time>
      </trkpt>
      <trkpt lat="44.54351" lon="5.81716">
        <ele>1109.2</ele>
        <time>2020-10-24T14:41:31Z</time>
      </trkpt>
      <trkpt lat="44.54344" lon="5.81715">
        <ele>1107.4</ele>
        <time>2020-10-24T14:41:35Z</time>
      </trkpt>
      <trkpt lat="44.54335" lon="5.81716">
        <ele>1105.6</ele>
        <time>2020-10-24T14:41:39Z</time>
      </trkpt>
      <trkpt lat="44.54327" lon="5.81715">
        <ele>1103.6</ele>
        <time>2020-10-24T14:41:43Z</time>
      </trkpt>
      <trkpt lat="44.54306" lon="5.81719">
        <ele>1098.6</ele>
        <time>2020-10-24T14:42:06Z</time>
      </trkpt>
      <trkpt lat="44.54298" lon="5.8172">
        <ele>1097.8</ele>
        <time>2020-10-24T14:42:10Z</time>
      </trkpt>
      <trkpt lat="44.54289" lon="5.81721">
        <ele>1095.8</ele>
        <time>2020-10-24T14:42:14Z</time>
      </trkpt>
      <trkpt lat="44.5428" lon="5.81723">
        <ele>1093.8</ele>
        <time>2020-10-24T14:42:18Z</time>
      </trkpt>
      <trkpt lat="44.54274" lon="5.81722">
        <ele>1092.2</ele>
        <time>2020-10-24T14:42:22Z</time>
      </trkpt>
      <trkpt lat="44.54265" lon="5.81721">
        <ele>1090.6</ele>
        <time>2020-10-24T14:42:26Z</time>
      </trkpt>
      <trkpt lat="44.54265" lon="5.81721">
        <ele>1089.4</ele>
        <time>2020-10-24T14:42:30Z</time>
      </trkpt>
      <trkpt lat="44.54261" lon="5.81722">
        <ele>1089.6</ele>
        <time>2020-10-24T14:42:34Z</time>
      </trkpt>
      <trkpt lat="44.54255" lon="5.81724">
        <ele>1088.4</ele>
        <time>2020-10-24T14:42:38Z</time>
      </trkpt>
      <trkpt lat="44.54247" lon="5.81724">
        <ele>1086</ele>
        <time>2020-10-24T14:42:42Z</time>
      </trkpt>
      <trkpt lat="44.5424" lon="5.81725">
        <ele>1085.4</ele>
        <time>2020-10-24T14:42:46Z</time>
      </trkpt>
      <trkpt lat="44.5423" lon="5.81726">
        <ele>1084.8</ele>
        <time>2020-10-24T14:42:50Z</time>
      </trkpt>
      <trkpt lat="44.54222" lon="5.81725">
        <ele>1082.4</ele>
        <time>2020-10-24T14:42:54Z</time>
      </trkpt>
      <trkpt lat="44.54212" lon="5.81721">
        <ele>1080.6</ele>
        <time>2020-10-24T14:42:58Z</time>
      </trkpt>
      <trkpt lat="44.54195" lon="5.8172">
        <ele>1077.2</ele>
        <time>2020-10-24T14:43:02Z</time>
      </trkpt>
      <trkpt lat="44.54174" lon="5.81724">
        <ele>1078.8</ele>
        <time>2020-10-24T14:43:06Z</time>
      </trkpt>
      <trkpt lat="44.54154" lon="5.81729">
        <ele>1080</ele>
        <time>2020-10-24T14:43:10Z</time>
      </trkpt>
      <trkpt lat="44.54138" lon="5.8173">
        <ele>1075</ele>
        <time>2020-10-24T14:43:14Z</time>
      </trkpt>
      <trkpt lat="44.5412" lon="5.81734">
        <ele>1074</ele>
        <time>2020-10-24T14:43:18Z</time>
      </trkpt>
      <trkpt lat="44.54112" lon="5.81735">
        <ele>1071.8</ele>
        <time>2020-10-24T14:43:22Z</time>
      </trkpt>
      <trkpt lat="44.54103" lon="5.81733">
        <ele>1066.4</ele>
        <time>2020-10-24T14:43:26Z</time>
      </trkpt>
      <trkpt lat="44.54091" lon="5.81736">
        <ele>1068.4</ele>
        <time>2020-10-24T14:43:30Z</time>
      </trkpt>
      <trkpt lat="44.54079" lon="5.81735">
        <ele>1063.4</ele>
        <time>2020-10-24T14:43:34Z</time>
      </trkpt>
      <trkpt lat="44.54067" lon="5.81736">
        <ele>1061.6</ele>
        <time>2020-10-24T14:43:38Z</time>
      </trkpt>
      <trkpt lat="44.54055" lon="5.8174">
        <ele>1059</ele>
        <time>2020-10-24T14:43:42Z</time>
      </trkpt>
      <trkpt lat="44.54042" lon="5.81739">
        <ele>1057.4</ele>
        <time>2020-10-24T14:43:46Z</time>
      </trkpt>
      <trkpt lat="44.54027" lon="5.81743">
        <ele>1054.2</ele>
        <time>2020-10-24T14:43:50Z</time>
      </trkpt>
      <trkpt lat="44.54006" lon="5.81747">
        <ele>1053.6</ele>
        <time>2020-10-24T14:43:54Z</time>
      </trkpt>
      <trkpt lat="44.53984" lon="5.8175">
        <ele>1051.4</ele>
        <time>2020-10-24T14:43:58Z</time>
      </trkpt>
      <trkpt lat="44.53964" lon="5.81747">
        <ele>1053</ele>
        <time>2020-10-24T14:44:02Z</time>
      </trkpt>
      <trkpt lat="44.53949" lon="5.81741">
        <ele>1051.6</ele>
        <time>2020-10-24T14:44:06Z</time>
      </trkpt>
      <trkpt lat="44.53934" lon="5.81742">
        <ele>1050.6</ele>
        <time>2020-10-24T14:44:10Z</time>
      </trkpt>
      <trkpt lat="44.53919" lon="5.81748">
        <ele>1050.6</ele>
        <time>2020-10-24T14:44:14Z</time>
      </trkpt>
      <trkpt lat="44.53906" lon="5.81747">
        <ele>1050.2</ele>
        <time>2020-10-24T14:44:18Z</time>
      </trkpt>
      <trkpt lat="44.53889" lon="5.8176">
        <ele>1048.8</ele>
        <time>2020-10-24T14:44:22Z</time>
      </trkpt>
      <trkpt lat="44.53873" lon="5.8177">
        <ele>1047.4</ele>
        <time>2020-10-24T14:44:26Z</time>
      </trkpt>
      <trkpt lat="44.53864" lon="5.81773">
        <ele>1046.6</ele>
        <time>2020-10-24T14:44:30Z</time>
      </trkpt>
      <trkpt lat="44.53858" lon="5.81775">
        <ele>1046.2</ele>
        <time>2020-10-24T14:44:34Z</time>
      </trkpt>
      <trkpt lat="44.53853" lon="5.81777">
        <ele>1045.8</ele>
        <time>2020-10-24T14:44:38Z</time>
      </trkpt>
      <trkpt lat="44.53852" lon="5.81777">
        <ele>1044</ele>
        <time>2020-10-24T14:44:42Z</time>
      </trkpt>
      <trkpt lat="44.53842" lon="5.81782">
        <ele>1044</ele>
        <time>2020-10-24T14:44:46Z</time>
      </trkpt>
      <trkpt lat="44.53818" lon="5.81788">
        <ele>1043.8</ele>
        <time>2020-10-24T14:44:57Z</time>
      </trkpt>
      <trkpt lat="44.53812" lon="5.81792">
        <ele>1039.8</ele>
        <time>2020-10-24T14:45:01Z</time>
      </trkpt>
      <trkpt lat="44.53799" lon="5.81797">
        <ele>1040.2</ele>
        <time>2020-10-24T14:45:05Z</time>
      </trkpt>
      <trkpt lat="44.53786" lon="5.81818">
        <ele>1037.4</ele>
        <time>2020-10-24T14:45:09Z</time>
      </trkpt>
      <trkpt lat="44.53777" lon="5.81834">
        <ele>1035.2</ele>
        <time>2020-10-24T14:45:13Z</time>
      </trkpt>
      <trkpt lat="44.53776" lon="5.81849">
        <ele>1033.6</ele>
        <time>2020-10-24T14:45:17Z</time>
      </trkpt>
      <trkpt lat="44.5378" lon="5.81859">
        <ele>1030</ele>
        <time>2020-10-24T14:45:21Z</time>
      </trkpt>
      <trkpt lat="44.53779" lon="5.8187">
        <ele>1025.8</ele>
        <time>2020-10-24T14:45:25Z</time>
      </trkpt>
      <trkpt lat="44.53778" lon="5.81881">
        <ele>1020.6</ele>
        <time>2020-10-24T14:45:29Z</time>
      </trkpt>
      <trkpt lat="44.53772" lon="5.81893">
        <ele>1019.2</ele>
        <time>2020-10-24T14:45:33Z</time>
      </trkpt>
      <trkpt lat="44.53764" lon="5.81905">
        <ele>1016</ele>
        <time>2020-10-24T14:45:37Z</time>
      </trkpt>
      <trkpt lat="44.53759" lon="5.81912">
        <ele>1013.4</ele>
        <time>2020-10-24T14:45:41Z</time>
      </trkpt>
      <trkpt lat="44.53753" lon="5.81923">
        <ele>1012.4</ele>
        <time>2020-10-24T14:45:45Z</time>
      </trkpt>
      <trkpt lat="44.53748" lon="5.81938">
        <ele>1009.6</ele>
        <time>2020-10-24T14:45:49Z</time>
      </trkpt>
      <trkpt lat="44.5374" lon="5.81956">
        <ele>1007.8</ele>
        <time>2020-10-24T14:45:53Z</time>
      </trkpt>
      <trkpt lat="44.53734" lon="5.81974">
        <ele>1005</ele>
        <time>2020-10-24T14:45:57Z</time>
      </trkpt>
      <trkpt lat="44.53723" lon="5.81992">
        <ele>1003.2</ele>
        <time>2020-10-24T14:46:01Z</time>
      </trkpt>
      <trkpt lat="44.5372" lon="5.82006">
        <ele>1000</ele>
        <time>2020-10-24T14:46:05Z</time>
      </trkpt>
      <trkpt lat="44.53721" lon="5.82017">
        <ele>997.8</ele>
        <time>2020-10-24T14:46:09Z</time>
      </trkpt>
      <trkpt lat="44.53724" lon="5.82028">
        <ele>996.2</ele>
        <time>2020-10-24T14:46:13Z</time>
      </trkpt>
      <trkpt lat="44.53724" lon="5.82038">
        <ele>993.8</ele>
        <time>2020-10-24T14:46:17Z</time>
      </trkpt>
      <trkpt lat="44.53719" lon="5.8205">
        <ele>992.2</ele>
        <time>2020-10-24T14:46:21Z</time>
      </trkpt>
      <trkpt lat="44.53659" lon="5.82125">
        <ele>970</ele>
        <time>2020-10-24T14:47:58Z</time>
      </trkpt>
      <trkpt lat="44.53654" lon="5.8213">
        <ele>968.2</ele>
        <time>2020-10-24T14:48:02Z</time>
      </trkpt>
      <trkpt lat="44.53651" lon="5.82142">
        <ele>966.4</ele>
        <time>2020-10-24T14:48:06Z</time>
      </trkpt>
      <trkpt lat="44.5365" lon="5.82149">
        <ele>965.8</ele>
        <time>2020-10-24T14:48:10Z</time>
      </trkpt>
      <trkpt lat="44.53634" lon="5.82155">
        <ele>962</ele>
        <time>2020-10-24T14:48:26Z</time>
      </trkpt>
      <trkpt lat="44.53626" lon="5.82152">
        <ele>960.4</ele>
        <time>2020-10-24T14:48:30Z</time>
      </trkpt>
      <trkpt lat="44.53618" lon="5.82157">
        <ele>957.6</ele>
        <time>2020-10-24T14:48:34Z</time>
      </trkpt>
      <trkpt lat="44.53613" lon="5.82166">
        <ele>955.8</ele>
        <time>2020-10-24T14:48:38Z</time>
      </trkpt>
      <trkpt lat="44.53604" lon="5.82173">
        <ele>954.2</ele>
        <time>2020-10-24T14:48:42Z</time>
      </trkpt>
      <trkpt lat="44.53593" lon="5.82171">
        <ele>953</ele>
        <time>2020-10-24T14:48:46Z</time>
      </trkpt>
      <trkpt lat="44.53497" lon="5.8217">
        <ele>918.6</ele>
        <time>2020-10-24T14:51:45Z</time>
      </trkpt>
      <trkpt lat="44.53482" lon="5.82177">
        <ele>915</ele>
        <time>2020-10-24T14:51:49Z</time>
      </trkpt>
      <trkpt lat="44.53467" lon="5.82187">
        <ele>913.4</ele>
        <time>2020-10-24T14:51:53Z</time>
      </trkpt>
      <trkpt lat="44.53457" lon="5.82198">
        <ele>911.2</ele>
        <time>2020-10-24T14:51:57Z</time>
      </trkpt>
      <trkpt lat="44.53444" lon="5.82213">
        <ele>909.2</ele>
        <time>2020-10-24T14:52:01Z</time>
      </trkpt>
      <trkpt lat="44.53441" lon="5.82236">
        <ele>907.2</ele>
        <time>2020-10-24T14:52:05Z</time>
      </trkpt>
      <trkpt lat="44.5344" lon="5.82255">
        <ele>904.8</ele>
        <time>2020-10-24T14:52:09Z</time>
      </trkpt>
      <trkpt lat="44.53437" lon="5.82256">
        <ele>904</ele>
        <time>2020-10-24T14:52:13Z</time>
      </trkpt>
      <trkpt lat="44.53431" lon="5.82238">
        <ele>902</ele>
        <time>2020-10-24T14:52:17Z</time>
      </trkpt>
      <trkpt lat="44.53426" lon="5.82214">
        <ele>903.6</ele>
        <time>2020-10-24T14:52:21Z</time>
      </trkpt>
      <trkpt lat="44.5343" lon="5.82193">
        <ele>904.4</ele>
        <time>2020-10-24T14:52:25Z</time>
      </trkpt>
      <trkpt lat="44.5343" lon="5.82181">
        <ele>904.4</ele>
        <time>2020-10-24T14:52:29Z</time>
      </trkpt>
    </trkseg>
  </trk>
</gpx>